<?xml version="1.0" encoding="UTF-8" standalone="no" ?>
<gpx xmlns="http://www.topografix.com/GPX/1/1" xmlns:xsi="http://www.w3.org/2001/XMLSchema-instance" xsi:schemaLocation="http://www.topografix.com/GPX/1/1 http://www.topografix.com/GPX/1/1/gpx.xsd" version="1.1" creator="VisuGPX - https://www.visugpx.com">
  <metadata>
    <name>Ballade XC dans le vercors</name>
    <desc><![CDATA[Jolie promenade !]]></desc>
  </metadata>
  <trk>
    <name><![CDATA[2014-10-25 17:53:30]]></name>
    <desc><![CDATA[Total: 47.3km]]></desc>
    <trkseg>
      <trkpt lat="44.99065" lon="5.4176">
        <ele>774</ele>
        <time>2014-10-25T09:12:33Z</time>
      </trkpt>
      <trkpt lat="44.99065" lon="5.41756">
        <ele>773.52</ele>
        <time>2014-10-25T09:12:42Z</time>
      </trkpt>
      <trkpt lat="44.99064" lon="5.41756">
        <ele>773.52</ele>
        <time>2014-10-25T09:12:43Z</time>
      </trkpt>
      <trkpt lat="44.99062" lon="5.41756">
        <ele>773.52</ele>
        <time>2014-10-25T09:12:44Z</time>
      </trkpt>
      <trkpt lat="44.99061" lon="5.41755">
        <ele>773.52</ele>
        <time>2014-10-25T09:12:45Z</time>
      </trkpt>
      <trkpt lat="44.99059" lon="5.41755">
        <ele>773.52</ele>
        <time>2014-10-25T09:12:46Z</time>
      </trkpt>
      <trkpt lat="44.99058" lon="5.41754">
        <ele>773.52</ele>
        <time>2014-10-25T09:12:47Z</time>
      </trkpt>
      <trkpt lat="44.99039" lon="5.41746">
        <ele>776.88</ele>
        <time>2014-10-25T09:13:01Z</time>
      </trkpt>
      <trkpt lat="44.9902" lon="5.41739">
        <ele>778.32</ele>
        <time>2014-10-25T09:13:15Z</time>
      </trkpt>
      <trkpt lat="44.98995" lon="5.4173">
        <ele>781.21</ele>
        <time>2014-10-25T09:13:31Z</time>
      </trkpt>
      <trkpt lat="44.98979" lon="5.41726">
        <ele>784.09</ele>
        <time>2014-10-25T09:13:43Z</time>
      </trkpt>
      <trkpt lat="44.98962" lon="5.41724">
        <ele>786.5</ele>
        <time>2014-10-25T09:13:57Z</time>
      </trkpt>
      <trkpt lat="44.98961" lon="5.41724">
        <ele>786.98</ele>
        <time>2014-10-25T09:13:58Z</time>
      </trkpt>
      <trkpt lat="44.98959" lon="5.41724">
        <ele>786.98</ele>
        <time>2014-10-25T09:13:59Z</time>
      </trkpt>
      <trkpt lat="44.9894" lon="5.41725">
        <ele>790.34</ele>
        <time>2014-10-25T09:14:10Z</time>
      </trkpt>
      <trkpt lat="44.98918" lon="5.41722">
        <ele>793.71</ele>
        <time>2014-10-25T09:14:22Z</time>
      </trkpt>
      <trkpt lat="44.98905" lon="5.41717">
        <ele>794.67</ele>
        <time>2014-10-25T09:14:30Z</time>
      </trkpt>
      <trkpt lat="44.98905" lon="5.41716">
        <ele>795.63</ele>
        <time>2014-10-25T09:14:31Z</time>
      </trkpt>
      <trkpt lat="44.98904" lon="5.41714">
        <ele>795.63</ele>
        <time>2014-10-25T09:14:32Z</time>
      </trkpt>
      <trkpt lat="44.98903" lon="5.41712">
        <ele>795.63</ele>
        <time>2014-10-25T09:14:33Z</time>
      </trkpt>
      <trkpt lat="44.98902" lon="5.41711">
        <ele>795.63</ele>
        <time>2014-10-25T09:14:34Z</time>
      </trkpt>
      <trkpt lat="44.98901" lon="5.41709">
        <ele>795.63</ele>
        <time>2014-10-25T09:14:35Z</time>
      </trkpt>
      <trkpt lat="44.989" lon="5.41707">
        <ele>795.63</ele>
        <time>2014-10-25T09:14:36Z</time>
      </trkpt>
      <trkpt lat="44.98897" lon="5.41702">
        <ele>795.63</ele>
        <time>2014-10-25T09:14:39Z</time>
      </trkpt>
      <trkpt lat="44.98896" lon="5.41702">
        <ele>795.63</ele>
        <time>2014-10-25T09:14:40Z</time>
      </trkpt>
      <trkpt lat="44.98894" lon="5.41701">
        <ele>795.63</ele>
        <time>2014-10-25T09:14:41Z</time>
      </trkpt>
      <trkpt lat="44.98893" lon="5.417">
        <ele>795.63</ele>
        <time>2014-10-25T09:14:42Z</time>
      </trkpt>
      <trkpt lat="44.98892" lon="5.41698">
        <ele>795.63</ele>
        <time>2014-10-25T09:14:43Z</time>
      </trkpt>
      <trkpt lat="44.98892" lon="5.41696">
        <ele>796.11</ele>
        <time>2014-10-25T09:14:44Z</time>
      </trkpt>
      <trkpt lat="44.98892" lon="5.41693">
        <ele>796.11</ele>
        <time>2014-10-25T09:14:45Z</time>
      </trkpt>
      <trkpt lat="44.98891" lon="5.41691">
        <ele>796.11</ele>
        <time>2014-10-25T09:14:46Z</time>
      </trkpt>
      <trkpt lat="44.98891" lon="5.4169">
        <ele>796.59</ele>
        <time>2014-10-25T09:14:47Z</time>
      </trkpt>
      <trkpt lat="44.9889" lon="5.41688">
        <ele>796.59</ele>
        <time>2014-10-25T09:14:48Z</time>
      </trkpt>
      <trkpt lat="44.9889" lon="5.41686">
        <ele>796.59</ele>
        <time>2014-10-25T09:14:49Z</time>
      </trkpt>
      <trkpt lat="44.98889" lon="5.4165">
        <ele>799.47</ele>
        <time>2014-10-25T09:15:04Z</time>
      </trkpt>
      <trkpt lat="44.98896" lon="5.41622">
        <ele>800.92</ele>
        <time>2014-10-25T09:15:19Z</time>
      </trkpt>
      <trkpt lat="44.98896" lon="5.4162">
        <ele>801.4</ele>
        <time>2014-10-25T09:15:20Z</time>
      </trkpt>
      <trkpt lat="44.98887" lon="5.41594">
        <ele>804.76</ele>
        <time>2014-10-25T09:15:36Z</time>
      </trkpt>
      <trkpt lat="44.98881" lon="5.41569">
        <ele>807.64</ele>
        <time>2014-10-25T09:15:49Z</time>
      </trkpt>
      <trkpt lat="44.98881" lon="5.41567">
        <ele>807.64</ele>
        <time>2014-10-25T09:15:50Z</time>
      </trkpt>
      <trkpt lat="44.98882" lon="5.41565">
        <ele>808.61</ele>
        <time>2014-10-25T09:15:51Z</time>
      </trkpt>
      <trkpt lat="44.98886" lon="5.41557">
        <ele>809.09</ele>
        <time>2014-10-25T09:15:56Z</time>
      </trkpt>
      <trkpt lat="44.98886" lon="5.41555">
        <ele>809.09</ele>
        <time>2014-10-25T09:15:57Z</time>
      </trkpt>
      <trkpt lat="44.98887" lon="5.41551">
        <ele>809.57</ele>
        <time>2014-10-25T09:15:59Z</time>
      </trkpt>
      <trkpt lat="44.98888" lon="5.41546">
        <ele>809.57</ele>
        <time>2014-10-25T09:16:02Z</time>
      </trkpt>
      <trkpt lat="44.98889" lon="5.41544">
        <ele>809.57</ele>
        <time>2014-10-25T09:16:03Z</time>
      </trkpt>
      <trkpt lat="44.98889" lon="5.41541">
        <ele>810.05</ele>
        <time>2014-10-25T09:16:04Z</time>
      </trkpt>
      <trkpt lat="44.98889" lon="5.41539">
        <ele>810.05</ele>
        <time>2014-10-25T09:16:05Z</time>
      </trkpt>
      <trkpt lat="44.98889" lon="5.41537">
        <ele>810.05</ele>
        <time>2014-10-25T09:16:06Z</time>
      </trkpt>
      <trkpt lat="44.98895" lon="5.41508">
        <ele>812.93</ele>
        <time>2014-10-25T09:16:21Z</time>
      </trkpt>
      <trkpt lat="44.989" lon="5.41477">
        <ele>813.89</ele>
        <time>2014-10-25T09:16:35Z</time>
      </trkpt>
      <trkpt lat="44.98901" lon="5.41476">
        <ele>814.37</ele>
        <time>2014-10-25T09:16:36Z</time>
      </trkpt>
      <trkpt lat="44.98903" lon="5.41475">
        <ele>814.37</ele>
        <time>2014-10-25T09:16:37Z</time>
      </trkpt>
      <trkpt lat="44.98918" lon="5.41454">
        <ele>815.82</ele>
        <time>2014-10-25T09:16:52Z</time>
      </trkpt>
      <trkpt lat="44.98919" lon="5.41452">
        <ele>816.3</ele>
        <time>2014-10-25T09:16:53Z</time>
      </trkpt>
      <trkpt lat="44.98919" lon="5.41449">
        <ele>816.3</ele>
        <time>2014-10-25T09:16:54Z</time>
      </trkpt>
      <trkpt lat="44.98918" lon="5.41419">
        <ele>819.18</ele>
        <time>2014-10-25T09:17:08Z</time>
      </trkpt>
      <trkpt lat="44.98905" lon="5.41392">
        <ele>822.55</ele>
        <time>2014-10-25T09:17:21Z</time>
      </trkpt>
      <trkpt lat="44.98895" lon="5.41373">
        <ele>824.95</ele>
        <time>2014-10-25T09:17:32Z</time>
      </trkpt>
      <trkpt lat="44.98894" lon="5.41371">
        <ele>824.95</ele>
        <time>2014-10-25T09:17:33Z</time>
      </trkpt>
      <trkpt lat="44.98891" lon="5.4137">
        <ele>825.43</ele>
        <time>2014-10-25T09:17:35Z</time>
      </trkpt>
      <trkpt lat="44.9889" lon="5.4137">
        <ele>825.43</ele>
        <time>2014-10-25T09:17:36Z</time>
      </trkpt>
      <trkpt lat="44.98873" lon="5.41356">
        <ele>829.27</ele>
        <time>2014-10-25T09:17:49Z</time>
      </trkpt>
      <trkpt lat="44.9886" lon="5.41336">
        <ele>833.12</ele>
        <time>2014-10-25T09:18:01Z</time>
      </trkpt>
      <trkpt lat="44.98848" lon="5.41312">
        <ele>835.04</ele>
        <time>2014-10-25T09:18:15Z</time>
      </trkpt>
      <trkpt lat="44.98829" lon="5.4129">
        <ele>836.96</ele>
        <time>2014-10-25T09:18:33Z</time>
      </trkpt>
      <trkpt lat="44.98823" lon="5.41287">
        <ele>837.93</ele>
        <time>2014-10-25T09:18:38Z</time>
      </trkpt>
      <trkpt lat="44.98811" lon="5.41279">
        <ele>839.85</ele>
        <time>2014-10-25T09:18:48Z</time>
      </trkpt>
      <trkpt lat="44.98791" lon="5.41278">
        <ele>843.21</ele>
        <time>2014-10-25T09:19:03Z</time>
      </trkpt>
      <trkpt lat="44.98785" lon="5.41279">
        <ele>844.18</ele>
        <time>2014-10-25T09:19:07Z</time>
      </trkpt>
      <trkpt lat="44.98765" lon="5.41276">
        <ele>846.1</ele>
        <time>2014-10-25T09:19:20Z</time>
      </trkpt>
      <trkpt lat="44.98753" lon="5.41277">
        <ele>847.06</ele>
        <time>2014-10-25T09:19:27Z</time>
      </trkpt>
      <trkpt lat="44.9875" lon="5.41274">
        <ele>847.54</ele>
        <time>2014-10-25T09:19:41Z</time>
      </trkpt>
      <trkpt lat="44.98746" lon="5.41271">
        <ele>847.54</ele>
        <time>2014-10-25T09:20:09Z</time>
      </trkpt>
      <trkpt lat="44.98732" lon="5.41262">
        <ele>848.5</ele>
        <time>2014-10-25T09:20:20Z</time>
      </trkpt>
      <trkpt lat="44.98712" lon="5.41248">
        <ele>850.9</ele>
        <time>2014-10-25T09:20:36Z</time>
      </trkpt>
      <trkpt lat="44.98705" lon="5.41243">
        <ele>851.38</ele>
        <time>2014-10-25T09:20:42Z</time>
      </trkpt>
      <trkpt lat="44.98704" lon="5.41242">
        <ele>851.87</ele>
        <time>2014-10-25T09:20:43Z</time>
      </trkpt>
      <trkpt lat="44.98703" lon="5.41241">
        <ele>851.87</ele>
        <time>2014-10-25T09:20:44Z</time>
      </trkpt>
      <trkpt lat="44.98702" lon="5.4124">
        <ele>851.87</ele>
        <time>2014-10-25T09:20:45Z</time>
      </trkpt>
      <trkpt lat="44.987" lon="5.41238">
        <ele>851.87</ele>
        <time>2014-10-25T09:20:46Z</time>
      </trkpt>
      <trkpt lat="44.98688" lon="5.41219">
        <ele>853.31</ele>
        <time>2014-10-25T09:20:58Z</time>
      </trkpt>
      <trkpt lat="44.98687" lon="5.41217">
        <ele>853.79</ele>
        <time>2014-10-25T09:20:59Z</time>
      </trkpt>
      <trkpt lat="44.98683" lon="5.41206">
        <ele>854.27</ele>
        <time>2014-10-25T09:21:04Z</time>
      </trkpt>
      <trkpt lat="44.98671" lon="5.41173">
        <ele>856.67</ele>
        <time>2014-10-25T09:21:20Z</time>
      </trkpt>
      <trkpt lat="44.98651" lon="5.41156">
        <ele>858.59</ele>
        <time>2014-10-25T09:21:35Z</time>
      </trkpt>
      <trkpt lat="44.98632" lon="5.41145">
        <ele>860.52</ele>
        <time>2014-10-25T09:21:49Z</time>
      </trkpt>
      <trkpt lat="44.98613" lon="5.41125">
        <ele>861.96</ele>
        <time>2014-10-25T09:22:05Z</time>
      </trkpt>
      <trkpt lat="44.98599" lon="5.41109">
        <ele>863.4</ele>
        <time>2014-10-25T09:22:18Z</time>
      </trkpt>
      <trkpt lat="44.98582" lon="5.41091">
        <ele>864.84</ele>
        <time>2014-10-25T09:22:32Z</time>
      </trkpt>
      <trkpt lat="44.9858" lon="5.41089">
        <ele>864.84</ele>
        <time>2014-10-25T09:22:33Z</time>
      </trkpt>
      <trkpt lat="44.98579" lon="5.41088">
        <ele>864.84</ele>
        <time>2014-10-25T09:22:34Z</time>
      </trkpt>
      <trkpt lat="44.98574" lon="5.41082">
        <ele>865.8</ele>
        <time>2014-10-25T09:22:39Z</time>
      </trkpt>
      <trkpt lat="44.98573" lon="5.4108">
        <ele>865.32</ele>
        <time>2014-10-25T09:22:40Z</time>
      </trkpt>
      <trkpt lat="44.98571" lon="5.41079">
        <ele>865.8</ele>
        <time>2014-10-25T09:22:41Z</time>
      </trkpt>
      <trkpt lat="44.98556" lon="5.4106">
        <ele>868.21</ele>
        <time>2014-10-25T09:22:56Z</time>
      </trkpt>
      <trkpt lat="44.98544" lon="5.41045">
        <ele>869.65</ele>
        <time>2014-10-25T09:23:06Z</time>
      </trkpt>
      <trkpt lat="44.98538" lon="5.41037">
        <ele>870.13</ele>
        <time>2014-10-25T09:23:12Z</time>
      </trkpt>
      <trkpt lat="44.98537" lon="5.41036">
        <ele>870.13</ele>
        <time>2014-10-25T09:23:13Z</time>
      </trkpt>
      <trkpt lat="44.98536" lon="5.41033">
        <ele>870.13</ele>
        <time>2014-10-25T09:23:14Z</time>
      </trkpt>
      <trkpt lat="44.98535" lon="5.41031">
        <ele>870.13</ele>
        <time>2014-10-25T09:23:15Z</time>
      </trkpt>
      <trkpt lat="44.98533" lon="5.41029">
        <ele>870.13</ele>
        <time>2014-10-25T09:23:16Z</time>
      </trkpt>
      <trkpt lat="44.98531" lon="5.41027">
        <ele>870.13</ele>
        <time>2014-10-25T09:23:17Z</time>
      </trkpt>
      <trkpt lat="44.9853" lon="5.41025">
        <ele>870.13</ele>
        <time>2014-10-25T09:23:18Z</time>
      </trkpt>
      <trkpt lat="44.98528" lon="5.41023">
        <ele>868.69</ele>
        <time>2014-10-25T09:23:19Z</time>
      </trkpt>
      <trkpt lat="44.98527" lon="5.41022">
        <ele>868.69</ele>
        <time>2014-10-25T09:23:20Z</time>
      </trkpt>
      <trkpt lat="44.98508" lon="5.41004">
        <ele>867.73</ele>
        <time>2014-10-25T09:23:30Z</time>
      </trkpt>
      <trkpt lat="44.98488" lon="5.40987">
        <ele>869.65</ele>
        <time>2014-10-25T09:23:40Z</time>
      </trkpt>
      <trkpt lat="44.9846" lon="5.40962">
        <ele>871.09</ele>
        <time>2014-10-25T09:23:52Z</time>
      </trkpt>
      <trkpt lat="44.9843" lon="5.40943">
        <ele>870.13</ele>
        <time>2014-10-25T09:24:03Z</time>
      </trkpt>
      <trkpt lat="44.98405" lon="5.40923">
        <ele>870.61</ele>
        <time>2014-10-25T09:24:15Z</time>
      </trkpt>
      <trkpt lat="44.98378" lon="5.40905">
        <ele>871.09</ele>
        <time>2014-10-25T09:24:25Z</time>
      </trkpt>
      <trkpt lat="44.98344" lon="5.40893">
        <ele>870.13</ele>
        <time>2014-10-25T09:24:39Z</time>
      </trkpt>
      <trkpt lat="44.98336" lon="5.40892">
        <ele>870.13</ele>
        <time>2014-10-25T09:24:43Z</time>
      </trkpt>
      <trkpt lat="44.98334" lon="5.40891">
        <ele>870.13</ele>
        <time>2014-10-25T09:24:44Z</time>
      </trkpt>
      <trkpt lat="44.98306" lon="5.4088">
        <ele>870.13</ele>
        <time>2014-10-25T09:24:56Z</time>
      </trkpt>
      <trkpt lat="44.98279" lon="5.40868">
        <ele>870.13</ele>
        <time>2014-10-25T09:25:07Z</time>
      </trkpt>
      <trkpt lat="44.9825" lon="5.40866">
        <ele>870.61</ele>
        <time>2014-10-25T09:25:17Z</time>
      </trkpt>
      <trkpt lat="44.98233" lon="5.40863">
        <ele>870.61</ele>
        <time>2014-10-25T09:25:31Z</time>
      </trkpt>
      <trkpt lat="44.9823" lon="5.40862">
        <ele>872.05</ele>
        <time>2014-10-25T09:25:40Z</time>
      </trkpt>
      <trkpt lat="44.98222" lon="5.40858">
        <ele>872.05</ele>
        <time>2014-10-25T09:26:05Z</time>
      </trkpt>
      <trkpt lat="44.98225" lon="5.40856">
        <ele>873.5</ele>
        <time>2014-10-25T09:26:11Z</time>
      </trkpt>
      <trkpt lat="44.98226" lon="5.40856">
        <ele>871.57</ele>
        <time>2014-10-25T09:26:13Z</time>
      </trkpt>
      <trkpt lat="44.98224" lon="5.40857">
        <ele>870.13</ele>
        <time>2014-10-25T09:26:17Z</time>
      </trkpt>
      <trkpt lat="44.98224" lon="5.40856">
        <ele>872.05</ele>
        <time>2014-10-25T09:26:21Z</time>
      </trkpt>
      <trkpt lat="44.98221" lon="5.40856">
        <ele>878.78</ele>
        <time>2014-10-25T09:26:26Z</time>
      </trkpt>
      <trkpt lat="44.98222" lon="5.40856">
        <ele>872.53</ele>
        <time>2014-10-25T09:26:27Z</time>
      </trkpt>
      <trkpt lat="44.98224" lon="5.40858">
        <ele>872.05</ele>
        <time>2014-10-25T09:26:51Z</time>
      </trkpt>
      <trkpt lat="44.98223" lon="5.40859">
        <ele>873.01</ele>
        <time>2014-10-25T09:27:10Z</time>
      </trkpt>
      <trkpt lat="44.98225" lon="5.40859">
        <ele>873.01</ele>
        <time>2014-10-25T09:27:32Z</time>
      </trkpt>
      <trkpt lat="44.98229" lon="5.4086">
        <ele>873.01</ele>
        <time>2014-10-25T09:27:51Z</time>
      </trkpt>
      <trkpt lat="44.9823" lon="5.40859">
        <ele>872.05</ele>
        <time>2014-10-25T09:28:18Z</time>
      </trkpt>
      <trkpt lat="44.98229" lon="5.40858">
        <ele>872.05</ele>
        <time>2014-10-25T09:28:45Z</time>
      </trkpt>
      <trkpt lat="44.98226" lon="5.40861">
        <ele>872.05</ele>
        <time>2014-10-25T09:29:11Z</time>
      </trkpt>
      <trkpt lat="44.98228" lon="5.40861">
        <ele>872.05</ele>
        <time>2014-10-25T09:29:33Z</time>
      </trkpt>
      <trkpt lat="44.98232" lon="5.40859">
        <ele>871.57</ele>
        <time>2014-10-25T09:29:52Z</time>
      </trkpt>
      <trkpt lat="44.98231" lon="5.40858">
        <ele>871.57</ele>
        <time>2014-10-25T09:30:14Z</time>
      </trkpt>
      <trkpt lat="44.98231" lon="5.40861">
        <ele>871.57</ele>
        <time>2014-10-25T09:30:45Z</time>
      </trkpt>
      <trkpt lat="44.98227" lon="5.40861">
        <ele>871.09</ele>
        <time>2014-10-25T09:31:19Z</time>
      </trkpt>
      <trkpt lat="44.98228" lon="5.40862">
        <ele>871.09</ele>
        <time>2014-10-25T09:31:42Z</time>
      </trkpt>
      <trkpt lat="44.98229" lon="5.40863">
        <ele>871.09</ele>
        <time>2014-10-25T09:31:59Z</time>
      </trkpt>
      <trkpt lat="44.98227" lon="5.40861">
        <ele>871.09</ele>
        <time>2014-10-25T09:32:20Z</time>
      </trkpt>
      <trkpt lat="44.98224" lon="5.40858">
        <ele>871.09</ele>
        <time>2014-10-25T09:32:43Z</time>
      </trkpt>
      <trkpt lat="44.98211" lon="5.40847">
        <ele>871.09</ele>
        <time>2014-10-25T09:32:48Z</time>
      </trkpt>
      <trkpt lat="44.98208" lon="5.40842">
        <ele>871.09</ele>
        <time>2014-10-25T09:32:49Z</time>
      </trkpt>
      <trkpt lat="44.98205" lon="5.40836">
        <ele>871.09</ele>
        <time>2014-10-25T09:32:50Z</time>
      </trkpt>
      <trkpt lat="44.98193" lon="5.40809">
        <ele>873.5</ele>
        <time>2014-10-25T09:32:54Z</time>
      </trkpt>
      <trkpt lat="44.98193" lon="5.40803">
        <ele>873.98</ele>
        <time>2014-10-25T09:32:55Z</time>
      </trkpt>
      <trkpt lat="44.98193" lon="5.40799">
        <ele>874.94</ele>
        <time>2014-10-25T09:32:56Z</time>
      </trkpt>
      <trkpt lat="44.98193" lon="5.40795">
        <ele>874.94</ele>
        <time>2014-10-25T09:32:57Z</time>
      </trkpt>
      <trkpt lat="44.98192" lon="5.40793">
        <ele>875.42</ele>
        <time>2014-10-25T09:32:58Z</time>
      </trkpt>
      <trkpt lat="44.98192" lon="5.40791">
        <ele>875.42</ele>
        <time>2014-10-25T09:32:59Z</time>
      </trkpt>
      <trkpt lat="44.98191" lon="5.40789">
        <ele>875.9</ele>
        <time>2014-10-25T09:33:00Z</time>
      </trkpt>
      <trkpt lat="44.98191" lon="5.40786">
        <ele>875.9</ele>
        <time>2014-10-25T09:33:01Z</time>
      </trkpt>
      <trkpt lat="44.98191" lon="5.40784">
        <ele>876.86</ele>
        <time>2014-10-25T09:33:02Z</time>
      </trkpt>
      <trkpt lat="44.9819" lon="5.40782">
        <ele>876.38</ele>
        <time>2014-10-25T09:33:03Z</time>
      </trkpt>
      <trkpt lat="44.98188" lon="5.40774">
        <ele>876.86</ele>
        <time>2014-10-25T09:33:14Z</time>
      </trkpt>
      <trkpt lat="44.98187" lon="5.40772">
        <ele>877.34</ele>
        <time>2014-10-25T09:33:15Z</time>
      </trkpt>
      <trkpt lat="44.98176" lon="5.40751">
        <ele>879.74</ele>
        <time>2014-10-25T09:33:30Z</time>
      </trkpt>
      <trkpt lat="44.98157" lon="5.40739">
        <ele>881.67</ele>
        <time>2014-10-25T09:33:44Z</time>
      </trkpt>
      <trkpt lat="44.98155" lon="5.40739">
        <ele>881.67</ele>
        <time>2014-10-25T09:33:45Z</time>
      </trkpt>
      <trkpt lat="44.98154" lon="5.40738">
        <ele>881.67</ele>
        <time>2014-10-25T09:33:46Z</time>
      </trkpt>
      <trkpt lat="44.98152" lon="5.40737">
        <ele>881.67</ele>
        <time>2014-10-25T09:33:47Z</time>
      </trkpt>
      <trkpt lat="44.98134" lon="5.40718">
        <ele>883.11</ele>
        <time>2014-10-25T09:34:00Z</time>
      </trkpt>
      <trkpt lat="44.98119" lon="5.40694">
        <ele>885.03</ele>
        <time>2014-10-25T09:34:14Z</time>
      </trkpt>
      <trkpt lat="44.98117" lon="5.40693">
        <ele>885.03</ele>
        <time>2014-10-25T09:34:15Z</time>
      </trkpt>
      <trkpt lat="44.981" lon="5.40672">
        <ele>887.43</ele>
        <time>2014-10-25T09:34:28Z</time>
      </trkpt>
      <trkpt lat="44.9808" lon="5.40652">
        <ele>887.43</ele>
        <time>2014-10-25T09:34:41Z</time>
      </trkpt>
      <trkpt lat="44.98076" lon="5.40648">
        <ele>887.43</ele>
        <time>2014-10-25T09:34:44Z</time>
      </trkpt>
      <trkpt lat="44.98047" lon="5.40627">
        <ele>886.47</ele>
        <time>2014-10-25T09:34:58Z</time>
      </trkpt>
      <trkpt lat="44.98043" lon="5.40625">
        <ele>886.47</ele>
        <time>2014-10-25T09:35:00Z</time>
      </trkpt>
      <trkpt lat="44.9802" lon="5.40611">
        <ele>886.47</ele>
        <time>2014-10-25T09:35:10Z</time>
      </trkpt>
      <trkpt lat="44.97988" lon="5.40593">
        <ele>886.47</ele>
        <time>2014-10-25T09:35:22Z</time>
      </trkpt>
      <trkpt lat="44.97977" lon="5.40588">
        <ele>886.47</ele>
        <time>2014-10-25T09:35:32Z</time>
      </trkpt>
      <trkpt lat="44.97965" lon="5.40581">
        <ele>886.95</ele>
        <time>2014-10-25T09:35:43Z</time>
      </trkpt>
      <trkpt lat="44.97952" lon="5.40574">
        <ele>886.95</ele>
        <time>2014-10-25T09:35:48Z</time>
      </trkpt>
      <trkpt lat="44.9795" lon="5.40573">
        <ele>886.95</ele>
        <time>2014-10-25T09:35:49Z</time>
      </trkpt>
      <trkpt lat="44.97947" lon="5.40572">
        <ele>886.95</ele>
        <time>2014-10-25T09:35:50Z</time>
      </trkpt>
      <trkpt lat="44.97925" lon="5.40566">
        <ele>886.95</ele>
        <time>2014-10-25T09:36:01Z</time>
      </trkpt>
      <trkpt lat="44.97923" lon="5.40566">
        <ele>886.95</ele>
        <time>2014-10-25T09:36:02Z</time>
      </trkpt>
      <trkpt lat="44.97921" lon="5.40564">
        <ele>886.95</ele>
        <time>2014-10-25T09:36:03Z</time>
      </trkpt>
      <trkpt lat="44.97899" lon="5.40559">
        <ele>886.95</ele>
        <time>2014-10-25T09:36:12Z</time>
      </trkpt>
      <trkpt lat="44.97871" lon="5.40557">
        <ele>887.43</ele>
        <time>2014-10-25T09:36:25Z</time>
      </trkpt>
      <trkpt lat="44.97845" lon="5.40567">
        <ele>888.88</ele>
        <time>2014-10-25T09:36:36Z</time>
      </trkpt>
      <trkpt lat="44.97842" lon="5.40573">
        <ele>888.88</ele>
        <time>2014-10-25T09:36:42Z</time>
      </trkpt>
      <trkpt lat="44.97842" lon="5.40575">
        <ele>888.88</ele>
        <time>2014-10-25T09:36:43Z</time>
      </trkpt>
      <trkpt lat="44.97842" lon="5.40577">
        <ele>888.88</ele>
        <time>2014-10-25T09:36:44Z</time>
      </trkpt>
      <trkpt lat="44.97843" lon="5.40587">
        <ele>889.84</ele>
        <time>2014-10-25T09:36:54Z</time>
      </trkpt>
      <trkpt lat="44.97844" lon="5.40589">
        <ele>889.84</ele>
        <time>2014-10-25T09:36:55Z</time>
      </trkpt>
      <trkpt lat="44.97844" lon="5.40592">
        <ele>890.32</ele>
        <time>2014-10-25T09:36:56Z</time>
      </trkpt>
      <trkpt lat="44.97855" lon="5.40623">
        <ele>891.76</ele>
        <time>2014-10-25T09:37:05Z</time>
      </trkpt>
      <trkpt lat="44.97865" lon="5.40645">
        <ele>893.2</ele>
        <time>2014-10-25T09:37:14Z</time>
      </trkpt>
      <trkpt lat="44.97874" lon="5.40683">
        <ele>894.16</ele>
        <time>2014-10-25T09:37:22Z</time>
      </trkpt>
      <trkpt lat="44.97875" lon="5.40687">
        <ele>894.64</ele>
        <time>2014-10-25T09:37:23Z</time>
      </trkpt>
      <trkpt lat="44.97875" lon="5.4069">
        <ele>894.64</ele>
        <time>2014-10-25T09:37:24Z</time>
      </trkpt>
      <trkpt lat="44.97876" lon="5.40693">
        <ele>894.64</ele>
        <time>2014-10-25T09:37:25Z</time>
      </trkpt>
      <trkpt lat="44.97876" lon="5.40696">
        <ele>894.64</ele>
        <time>2014-10-25T09:37:26Z</time>
      </trkpt>
      <trkpt lat="44.97876" lon="5.40698">
        <ele>894.64</ele>
        <time>2014-10-25T09:37:27Z</time>
      </trkpt>
      <trkpt lat="44.97876" lon="5.40701">
        <ele>895.12</ele>
        <time>2014-10-25T09:37:28Z</time>
      </trkpt>
      <trkpt lat="44.97877" lon="5.40703">
        <ele>895.12</ele>
        <time>2014-10-25T09:37:29Z</time>
      </trkpt>
      <trkpt lat="44.97877" lon="5.40705">
        <ele>895.12</ele>
        <time>2014-10-25T09:37:30Z</time>
      </trkpt>
      <trkpt lat="44.97877" lon="5.40707">
        <ele>895.12</ele>
        <time>2014-10-25T09:37:31Z</time>
      </trkpt>
      <trkpt lat="44.97878" lon="5.4071">
        <ele>895.12</ele>
        <time>2014-10-25T09:37:32Z</time>
      </trkpt>
      <trkpt lat="44.9788" lon="5.40739">
        <ele>897.05</ele>
        <time>2014-10-25T09:37:45Z</time>
      </trkpt>
      <trkpt lat="44.97881" lon="5.40773">
        <ele>898.49</ele>
        <time>2014-10-25T09:37:59Z</time>
      </trkpt>
      <trkpt lat="44.97883" lon="5.40784">
        <ele>899.93</ele>
        <time>2014-10-25T09:38:03Z</time>
      </trkpt>
      <trkpt lat="44.97884" lon="5.40786">
        <ele>899.93</ele>
        <time>2014-10-25T09:38:04Z</time>
      </trkpt>
      <trkpt lat="44.97886" lon="5.40789">
        <ele>900.41</ele>
        <time>2014-10-25T09:38:05Z</time>
      </trkpt>
      <trkpt lat="44.97887" lon="5.40792">
        <ele>900.41</ele>
        <time>2014-10-25T09:38:06Z</time>
      </trkpt>
      <trkpt lat="44.97889" lon="5.40796">
        <ele>900.41</ele>
        <time>2014-10-25T09:38:07Z</time>
      </trkpt>
      <trkpt lat="44.9789" lon="5.40799">
        <ele>900.89</ele>
        <time>2014-10-25T09:38:08Z</time>
      </trkpt>
      <trkpt lat="44.97896" lon="5.40812">
        <ele>901.85</ele>
        <time>2014-10-25T09:38:13Z</time>
      </trkpt>
      <trkpt lat="44.97902" lon="5.40849">
        <ele>902.82</ele>
        <time>2014-10-25T09:38:27Z</time>
      </trkpt>
      <trkpt lat="44.97911" lon="5.40886">
        <ele>903.3</ele>
        <time>2014-10-25T09:38:40Z</time>
      </trkpt>
      <trkpt lat="44.97911" lon="5.40891">
        <ele>903.78</ele>
        <time>2014-10-25T09:38:42Z</time>
      </trkpt>
      <trkpt lat="44.97912" lon="5.40893">
        <ele>903.78</ele>
        <time>2014-10-25T09:38:43Z</time>
      </trkpt>
      <trkpt lat="44.97916" lon="5.40919">
        <ele>904.26</ele>
        <time>2014-10-25T09:38:56Z</time>
      </trkpt>
      <trkpt lat="44.97919" lon="5.4095">
        <ele>905.22</ele>
        <time>2014-10-25T09:39:05Z</time>
      </trkpt>
      <trkpt lat="44.97918" lon="5.40992">
        <ele>906.18</ele>
        <time>2014-10-25T09:39:17Z</time>
      </trkpt>
      <trkpt lat="44.97919" lon="5.41034">
        <ele>907.62</ele>
        <time>2014-10-25T09:39:29Z</time>
      </trkpt>
      <trkpt lat="44.9792" lon="5.41082">
        <ele>909.06</ele>
        <time>2014-10-25T09:39:42Z</time>
      </trkpt>
      <trkpt lat="44.97923" lon="5.41125">
        <ele>910.03</ele>
        <time>2014-10-25T09:39:55Z</time>
      </trkpt>
      <trkpt lat="44.97928" lon="5.41168">
        <ele>911.95</ele>
        <time>2014-10-25T09:40:10Z</time>
      </trkpt>
      <trkpt lat="44.97926" lon="5.41183">
        <ele>913.39</ele>
        <time>2014-10-25T09:40:19Z</time>
      </trkpt>
      <trkpt lat="44.97925" lon="5.41185">
        <ele>913.39</ele>
        <time>2014-10-25T09:40:20Z</time>
      </trkpt>
      <trkpt lat="44.97924" lon="5.41187">
        <ele>913.39</ele>
        <time>2014-10-25T09:40:21Z</time>
      </trkpt>
      <trkpt lat="44.97924" lon="5.41189">
        <ele>913.39</ele>
        <time>2014-10-25T09:40:22Z</time>
      </trkpt>
      <trkpt lat="44.97911" lon="5.41197">
        <ele>913.87</ele>
        <time>2014-10-25T09:40:36Z</time>
      </trkpt>
      <trkpt lat="44.97898" lon="5.41201">
        <ele>913.87</ele>
        <time>2014-10-25T09:40:50Z</time>
      </trkpt>
      <trkpt lat="44.97896" lon="5.41203">
        <ele>913.87</ele>
        <time>2014-10-25T09:40:52Z</time>
      </trkpt>
      <trkpt lat="44.97895" lon="5.41205">
        <ele>913.87</ele>
        <time>2014-10-25T09:40:53Z</time>
      </trkpt>
      <trkpt lat="44.97894" lon="5.41206">
        <ele>913.87</ele>
        <time>2014-10-25T09:40:54Z</time>
      </trkpt>
      <trkpt lat="44.97892" lon="5.41206">
        <ele>913.87</ele>
        <time>2014-10-25T09:40:55Z</time>
      </trkpt>
      <trkpt lat="44.97891" lon="5.41207">
        <ele>913.87</ele>
        <time>2014-10-25T09:40:56Z</time>
      </trkpt>
      <trkpt lat="44.97889" lon="5.41208">
        <ele>913.87</ele>
        <time>2014-10-25T09:40:57Z</time>
      </trkpt>
      <trkpt lat="44.97887" lon="5.41209">
        <ele>913.87</ele>
        <time>2014-10-25T09:40:58Z</time>
      </trkpt>
      <trkpt lat="44.9786" lon="5.41215">
        <ele>913.87</ele>
        <time>2014-10-25T09:41:11Z</time>
      </trkpt>
      <trkpt lat="44.97853" lon="5.41218">
        <ele>912.43</ele>
        <time>2014-10-25T09:41:14Z</time>
      </trkpt>
      <trkpt lat="44.97816" lon="5.41228">
        <ele>911.47</ele>
        <time>2014-10-25T09:41:26Z</time>
      </trkpt>
      <trkpt lat="44.97768" lon="5.41238">
        <ele>910.99</ele>
        <time>2014-10-25T09:41:40Z</time>
      </trkpt>
      <trkpt lat="44.9773" lon="5.41248">
        <ele>910.51</ele>
        <time>2014-10-25T09:41:51Z</time>
      </trkpt>
      <trkpt lat="44.97698" lon="5.41249">
        <ele>910.03</ele>
        <time>2014-10-25T09:42:01Z</time>
      </trkpt>
      <trkpt lat="44.97658" lon="5.41247">
        <ele>908.1</ele>
        <time>2014-10-25T09:42:10Z</time>
      </trkpt>
      <trkpt lat="44.97653" lon="5.41248">
        <ele>907.62</ele>
        <time>2014-10-25T09:42:11Z</time>
      </trkpt>
      <trkpt lat="44.97608" lon="5.41255">
        <ele>903.78</ele>
        <time>2014-10-25T09:42:20Z</time>
      </trkpt>
      <trkpt lat="44.9759" lon="5.41256">
        <ele>902.33</ele>
        <time>2014-10-25T09:42:23Z</time>
      </trkpt>
      <trkpt lat="44.97571" lon="5.41258">
        <ele>901.37</ele>
        <time>2014-10-25T09:42:27Z</time>
      </trkpt>
      <trkpt lat="44.97567" lon="5.41262">
        <ele>900.89</ele>
        <time>2014-10-25T09:42:28Z</time>
      </trkpt>
      <trkpt lat="44.97563" lon="5.41267">
        <ele>900.41</ele>
        <time>2014-10-25T09:42:29Z</time>
      </trkpt>
      <trkpt lat="44.9756" lon="5.41273">
        <ele>900.41</ele>
        <time>2014-10-25T09:42:30Z</time>
      </trkpt>
      <trkpt lat="44.97559" lon="5.41281">
        <ele>898.97</ele>
        <time>2014-10-25T09:42:31Z</time>
      </trkpt>
      <trkpt lat="44.97559" lon="5.41289">
        <ele>898.49</ele>
        <time>2014-10-25T09:42:32Z</time>
      </trkpt>
      <trkpt lat="44.97557" lon="5.41307">
        <ele>897.05</ele>
        <time>2014-10-25T09:42:34Z</time>
      </trkpt>
      <trkpt lat="44.97557" lon="5.41333">
        <ele>894.64</ele>
        <time>2014-10-25T09:42:37Z</time>
      </trkpt>
      <trkpt lat="44.97554" lon="5.4134">
        <ele>893.68</ele>
        <time>2014-10-25T09:42:38Z</time>
      </trkpt>
      <trkpt lat="44.97551" lon="5.41344">
        <ele>893.68</ele>
        <time>2014-10-25T09:42:39Z</time>
      </trkpt>
      <trkpt lat="44.97548" lon="5.41349">
        <ele>894.16</ele>
        <time>2014-10-25T09:42:50Z</time>
      </trkpt>
      <trkpt lat="44.97547" lon="5.41349">
        <ele>894.16</ele>
        <time>2014-10-25T09:42:52Z</time>
      </trkpt>
      <trkpt lat="44.97545" lon="5.41348">
        <ele>894.16</ele>
        <time>2014-10-25T09:42:55Z</time>
      </trkpt>
      <trkpt lat="44.97544" lon="5.41349">
        <ele>894.16</ele>
        <time>2014-10-25T09:42:56Z</time>
      </trkpt>
      <trkpt lat="44.97542" lon="5.4135">
        <ele>893.68</ele>
        <time>2014-10-25T09:42:57Z</time>
      </trkpt>
      <trkpt lat="44.9754" lon="5.41351">
        <ele>893.68</ele>
        <time>2014-10-25T09:42:58Z</time>
      </trkpt>
      <trkpt lat="44.97538" lon="5.4135">
        <ele>893.68</ele>
        <time>2014-10-25T09:42:59Z</time>
      </trkpt>
      <trkpt lat="44.97536" lon="5.4135">
        <ele>893.68</ele>
        <time>2014-10-25T09:43:00Z</time>
      </trkpt>
      <trkpt lat="44.97509" lon="5.41356">
        <ele>896.09</ele>
        <time>2014-10-25T09:43:10Z</time>
      </trkpt>
      <trkpt lat="44.97474" lon="5.41367">
        <ele>898.01</ele>
        <time>2014-10-25T09:43:23Z</time>
      </trkpt>
      <trkpt lat="44.97444" lon="5.41364">
        <ele>900.41</ele>
        <time>2014-10-25T09:43:35Z</time>
      </trkpt>
      <trkpt lat="44.97407" lon="5.41367">
        <ele>902.33</ele>
        <time>2014-10-25T09:43:51Z</time>
      </trkpt>
      <trkpt lat="44.97397" lon="5.41367">
        <ele>900.89</ele>
        <time>2014-10-25T09:43:54Z</time>
      </trkpt>
      <trkpt lat="44.97388" lon="5.41366">
        <ele>900.89</ele>
        <time>2014-10-25T09:43:56Z</time>
      </trkpt>
      <trkpt lat="44.97378" lon="5.41364">
        <ele>900.41</ele>
        <time>2014-10-25T09:43:58Z</time>
      </trkpt>
      <trkpt lat="44.97336" lon="5.41367">
        <ele>902.33</ele>
        <time>2014-10-25T09:44:10Z</time>
      </trkpt>
      <trkpt lat="44.97311" lon="5.41372">
        <ele>905.7</ele>
        <time>2014-10-25T09:44:21Z</time>
      </trkpt>
      <trkpt lat="44.97274" lon="5.41371">
        <ele>908.58</ele>
        <time>2014-10-25T09:44:36Z</time>
      </trkpt>
      <trkpt lat="44.97257" lon="5.41369">
        <ele>910.03</ele>
        <time>2014-10-25T09:44:48Z</time>
      </trkpt>
      <trkpt lat="44.97254" lon="5.41369">
        <ele>910.51</ele>
        <time>2014-10-25T09:44:53Z</time>
      </trkpt>
      <trkpt lat="44.97253" lon="5.41369">
        <ele>910.51</ele>
        <time>2014-10-25T09:44:54Z</time>
      </trkpt>
      <trkpt lat="44.97251" lon="5.4137">
        <ele>910.51</ele>
        <time>2014-10-25T09:44:55Z</time>
      </trkpt>
      <trkpt lat="44.97231" lon="5.414">
        <ele>910.51</ele>
        <time>2014-10-25T09:45:09Z</time>
      </trkpt>
      <trkpt lat="44.97218" lon="5.41418">
        <ele>911.47</ele>
        <time>2014-10-25T09:45:19Z</time>
      </trkpt>
      <trkpt lat="44.97219" lon="5.4142">
        <ele>911.47</ele>
        <time>2014-10-25T09:45:20Z</time>
      </trkpt>
      <trkpt lat="44.9722" lon="5.4142">
        <ele>911.47</ele>
        <time>2014-10-25T09:45:21Z</time>
      </trkpt>
      <trkpt lat="44.97219" lon="5.41417">
        <ele>911.47</ele>
        <time>2014-10-25T09:45:22Z</time>
      </trkpt>
      <trkpt lat="44.97218" lon="5.41416">
        <ele>911.47</ele>
        <time>2014-10-25T09:45:23Z</time>
      </trkpt>
      <trkpt lat="44.97216" lon="5.41417">
        <ele>911.47</ele>
        <time>2014-10-25T09:45:24Z</time>
      </trkpt>
      <trkpt lat="44.97214" lon="5.41419">
        <ele>911.47</ele>
        <time>2014-10-25T09:45:25Z</time>
      </trkpt>
      <trkpt lat="44.97212" lon="5.41423">
        <ele>911.47</ele>
        <time>2014-10-25T09:45:26Z</time>
      </trkpt>
      <trkpt lat="44.97209" lon="5.41428">
        <ele>911.47</ele>
        <time>2014-10-25T09:45:27Z</time>
      </trkpt>
      <trkpt lat="44.97206" lon="5.41433">
        <ele>911.95</ele>
        <time>2014-10-25T09:45:28Z</time>
      </trkpt>
      <trkpt lat="44.97197" lon="5.41444">
        <ele>912.43</ele>
        <time>2014-10-25T09:45:30Z</time>
      </trkpt>
      <trkpt lat="44.97193" lon="5.41449">
        <ele>912.43</ele>
        <time>2014-10-25T09:45:31Z</time>
      </trkpt>
      <trkpt lat="44.97189" lon="5.41455">
        <ele>912.91</ele>
        <time>2014-10-25T09:45:32Z</time>
      </trkpt>
      <trkpt lat="44.97183" lon="5.4146">
        <ele>913.39</ele>
        <time>2014-10-25T09:45:33Z</time>
      </trkpt>
      <trkpt lat="44.97178" lon="5.41465">
        <ele>913.39</ele>
        <time>2014-10-25T09:45:34Z</time>
      </trkpt>
      <trkpt lat="44.97172" lon="5.41471">
        <ele>913.39</ele>
        <time>2014-10-25T09:45:35Z</time>
      </trkpt>
      <trkpt lat="44.97167" lon="5.41478">
        <ele>914.35</ele>
        <time>2014-10-25T09:45:36Z</time>
      </trkpt>
      <trkpt lat="44.97112" lon="5.4156">
        <ele>917.72</ele>
        <time>2014-10-25T09:45:46Z</time>
      </trkpt>
      <trkpt lat="44.97109" lon="5.41576">
        <ele>918.68</ele>
        <time>2014-10-25T09:45:49Z</time>
      </trkpt>
      <trkpt lat="44.97112" lon="5.41579">
        <ele>919.16</ele>
        <time>2014-10-25T09:45:50Z</time>
      </trkpt>
      <trkpt lat="44.97115" lon="5.4158">
        <ele>919.16</ele>
        <time>2014-10-25T09:45:51Z</time>
      </trkpt>
      <trkpt lat="44.97118" lon="5.4158">
        <ele>919.16</ele>
        <time>2014-10-25T09:45:52Z</time>
      </trkpt>
      <trkpt lat="44.9712" lon="5.41581">
        <ele>919.64</ele>
        <time>2014-10-25T09:45:53Z</time>
      </trkpt>
      <trkpt lat="44.97123" lon="5.41582">
        <ele>919.64</ele>
        <time>2014-10-25T09:45:54Z</time>
      </trkpt>
      <trkpt lat="44.97129" lon="5.41585">
        <ele>919.64</ele>
        <time>2014-10-25T09:45:57Z</time>
      </trkpt>
      <trkpt lat="44.97131" lon="5.41585">
        <ele>920.12</ele>
        <time>2014-10-25T09:45:58Z</time>
      </trkpt>
      <trkpt lat="44.97133" lon="5.41583">
        <ele>920.12</ele>
        <time>2014-10-25T09:45:59Z</time>
      </trkpt>
      <trkpt lat="44.97134" lon="5.41582">
        <ele>920.12</ele>
        <time>2014-10-25T09:46:00Z</time>
      </trkpt>
      <trkpt lat="44.97135" lon="5.41582">
        <ele>920.12</ele>
        <time>2014-10-25T09:46:01Z</time>
      </trkpt>
      <trkpt lat="44.97136" lon="5.41583">
        <ele>920.12</ele>
        <time>2014-10-25T09:46:02Z</time>
      </trkpt>
      <trkpt lat="44.97137" lon="5.41584">
        <ele>920.12</ele>
        <time>2014-10-25T09:46:03Z</time>
      </trkpt>
      <trkpt lat="44.97139" lon="5.41583">
        <ele>920.12</ele>
        <time>2014-10-25T09:46:05Z</time>
      </trkpt>
      <trkpt lat="44.9714" lon="5.41582">
        <ele>920.12</ele>
        <time>2014-10-25T09:46:07Z</time>
      </trkpt>
      <trkpt lat="44.97142" lon="5.41582">
        <ele>920.6</ele>
        <time>2014-10-25T09:46:08Z</time>
      </trkpt>
      <trkpt lat="44.97142" lon="5.41582">
        <ele>920.6</ele>
        <time>2014-10-25T09:46:09Z</time>
      </trkpt>
      <trkpt lat="44.97143" lon="5.41583">
        <ele>920.6</ele>
        <time>2014-10-25T09:46:10Z</time>
      </trkpt>
      <trkpt lat="44.97156" lon="5.41589">
        <ele>921.08</ele>
        <time>2014-10-25T09:46:22Z</time>
      </trkpt>
      <trkpt lat="44.97178" lon="5.41599">
        <ele>922.52</ele>
        <time>2014-10-25T09:46:37Z</time>
      </trkpt>
      <trkpt lat="44.97205" lon="5.41616">
        <ele>924.93</ele>
        <time>2014-10-25T09:46:56Z</time>
      </trkpt>
      <trkpt lat="44.97209" lon="5.4162">
        <ele>925.41</ele>
        <time>2014-10-25T09:46:59Z</time>
      </trkpt>
      <trkpt lat="44.9721" lon="5.41621">
        <ele>925.41</ele>
        <time>2014-10-25T09:47:00Z</time>
      </trkpt>
      <trkpt lat="44.97211" lon="5.41622">
        <ele>925.89</ele>
        <time>2014-10-25T09:47:01Z</time>
      </trkpt>
      <trkpt lat="44.97231" lon="5.4164">
        <ele>928.77</ele>
        <time>2014-10-25T09:47:17Z</time>
      </trkpt>
      <trkpt lat="44.97231" lon="5.41635">
        <ele>928.29</ele>
        <time>2014-10-25T09:47:21Z</time>
      </trkpt>
      <trkpt lat="44.97231" lon="5.4164">
        <ele>928.29</ele>
        <time>2014-10-25T09:47:26Z</time>
      </trkpt>
      <trkpt lat="44.97233" lon="5.41643">
        <ele>928.29</ele>
        <time>2014-10-25T09:47:27Z</time>
      </trkpt>
      <trkpt lat="44.97235" lon="5.41644">
        <ele>928.29</ele>
        <time>2014-10-25T09:47:28Z</time>
      </trkpt>
      <trkpt lat="44.97236" lon="5.41646">
        <ele>929.25</ele>
        <time>2014-10-25T09:47:29Z</time>
      </trkpt>
      <trkpt lat="44.97252" lon="5.41663">
        <ele>931.17</ele>
        <time>2014-10-25T09:47:43Z</time>
      </trkpt>
      <trkpt lat="44.97267" lon="5.41682">
        <ele>934.06</ele>
        <time>2014-10-25T09:47:57Z</time>
      </trkpt>
      <trkpt lat="44.97269" lon="5.41685">
        <ele>934.54</ele>
        <time>2014-10-25T09:47:59Z</time>
      </trkpt>
      <trkpt lat="44.97271" lon="5.41686">
        <ele>934.54</ele>
        <time>2014-10-25T09:48:00Z</time>
      </trkpt>
      <trkpt lat="44.97273" lon="5.41688">
        <ele>935.02</ele>
        <time>2014-10-25T09:48:02Z</time>
      </trkpt>
      <trkpt lat="44.97274" lon="5.41689">
        <ele>935.02</ele>
        <time>2014-10-25T09:48:03Z</time>
      </trkpt>
      <trkpt lat="44.97279" lon="5.41695">
        <ele>935.98</ele>
        <time>2014-10-25T09:48:07Z</time>
      </trkpt>
      <trkpt lat="44.97297" lon="5.41715">
        <ele>938.86</ele>
        <time>2014-10-25T09:48:21Z</time>
      </trkpt>
      <trkpt lat="44.97322" lon="5.41729">
        <ele>941.75</ele>
        <time>2014-10-25T09:48:37Z</time>
      </trkpt>
      <trkpt lat="44.97344" lon="5.41743">
        <ele>944.15</ele>
        <time>2014-10-25T09:48:52Z</time>
      </trkpt>
      <trkpt lat="44.9736" lon="5.41754">
        <ele>946.56</ele>
        <time>2014-10-25T09:49:04Z</time>
      </trkpt>
      <trkpt lat="44.97361" lon="5.41755">
        <ele>946.56</ele>
        <time>2014-10-25T09:49:05Z</time>
      </trkpt>
      <trkpt lat="44.97363" lon="5.41756">
        <ele>947.04</ele>
        <time>2014-10-25T09:49:06Z</time>
      </trkpt>
      <trkpt lat="44.97364" lon="5.41757">
        <ele>947.04</ele>
        <time>2014-10-25T09:49:07Z</time>
      </trkpt>
      <trkpt lat="44.97365" lon="5.41758">
        <ele>947.04</ele>
        <time>2014-10-25T09:49:08Z</time>
      </trkpt>
      <trkpt lat="44.97366" lon="5.41759">
        <ele>947.52</ele>
        <time>2014-10-25T09:49:09Z</time>
      </trkpt>
      <trkpt lat="44.97367" lon="5.4176">
        <ele>947.52</ele>
        <time>2014-10-25T09:49:10Z</time>
      </trkpt>
      <trkpt lat="44.97368" lon="5.4176">
        <ele>947.52</ele>
        <time>2014-10-25T09:49:11Z</time>
      </trkpt>
      <trkpt lat="44.97369" lon="5.41761">
        <ele>948</ele>
        <time>2014-10-25T09:49:12Z</time>
      </trkpt>
      <trkpt lat="44.97375" lon="5.41766">
        <ele>949.44</ele>
        <time>2014-10-25T09:49:18Z</time>
      </trkpt>
      <trkpt lat="44.97376" lon="5.41767">
        <ele>949.44</ele>
        <time>2014-10-25T09:49:19Z</time>
      </trkpt>
      <trkpt lat="44.97381" lon="5.41769">
        <ele>950.4</ele>
        <time>2014-10-25T09:49:24Z</time>
      </trkpt>
      <trkpt lat="44.97384" lon="5.4177">
        <ele>950.4</ele>
        <time>2014-10-25T09:49:27Z</time>
      </trkpt>
      <trkpt lat="44.97385" lon="5.4177">
        <ele>950.4</ele>
        <time>2014-10-25T09:49:28Z</time>
      </trkpt>
      <trkpt lat="44.97386" lon="5.41772">
        <ele>950.88</ele>
        <time>2014-10-25T09:49:30Z</time>
      </trkpt>
      <trkpt lat="44.97394" lon="5.41771">
        <ele>951.84</ele>
        <time>2014-10-25T09:49:40Z</time>
      </trkpt>
      <trkpt lat="44.97396" lon="5.41772">
        <ele>953.28</ele>
        <time>2014-10-25T09:49:47Z</time>
      </trkpt>
      <trkpt lat="44.97412" lon="5.4177">
        <ele>953.28</ele>
        <time>2014-10-25T09:49:58Z</time>
      </trkpt>
      <trkpt lat="44.9743" lon="5.41768">
        <ele>954.73</ele>
        <time>2014-10-25T09:50:10Z</time>
      </trkpt>
      <trkpt lat="44.97432" lon="5.41767">
        <ele>955.21</ele>
        <time>2014-10-25T09:50:11Z</time>
      </trkpt>
      <trkpt lat="44.97452" lon="5.41769">
        <ele>956.17</ele>
        <time>2014-10-25T09:50:26Z</time>
      </trkpt>
      <trkpt lat="44.9747" lon="5.41781">
        <ele>957.13</ele>
        <time>2014-10-25T09:50:40Z</time>
      </trkpt>
      <trkpt lat="44.97491" lon="5.41793">
        <ele>959.53</ele>
        <time>2014-10-25T09:50:52Z</time>
      </trkpt>
      <trkpt lat="44.97514" lon="5.41812">
        <ele>962.9</ele>
        <time>2014-10-25T09:51:02Z</time>
      </trkpt>
      <trkpt lat="44.97541" lon="5.41817">
        <ele>964.34</ele>
        <time>2014-10-25T09:51:16Z</time>
      </trkpt>
      <trkpt lat="44.97546" lon="5.41816">
        <ele>964.82</ele>
        <time>2014-10-25T09:51:18Z</time>
      </trkpt>
      <trkpt lat="44.97583" lon="5.41828">
        <ele>966.26</ele>
        <time>2014-10-25T09:51:35Z</time>
      </trkpt>
      <trkpt lat="44.97601" lon="5.41845">
        <ele>966.74</ele>
        <time>2014-10-25T09:51:48Z</time>
      </trkpt>
      <trkpt lat="44.97633" lon="5.4188">
        <ele>963.86</ele>
        <time>2014-10-25T09:51:58Z</time>
      </trkpt>
      <trkpt lat="44.97668" lon="5.41899">
        <ele>962.9</ele>
        <time>2014-10-25T09:52:06Z</time>
      </trkpt>
      <trkpt lat="44.9771" lon="5.4193">
        <ele>961.46</ele>
        <time>2014-10-25T09:52:18Z</time>
      </trkpt>
      <trkpt lat="44.97741" lon="5.41972">
        <ele>960.98</ele>
        <time>2014-10-25T09:52:31Z</time>
      </trkpt>
      <trkpt lat="44.97764" lon="5.41997">
        <ele>959.05</ele>
        <time>2014-10-25T09:52:38Z</time>
      </trkpt>
      <trkpt lat="44.97767" lon="5.42">
        <ele>959.05</ele>
        <time>2014-10-25T09:52:39Z</time>
      </trkpt>
      <trkpt lat="44.97792" lon="5.42017">
        <ele>957.61</ele>
        <time>2014-10-25T09:52:46Z</time>
      </trkpt>
      <trkpt lat="44.97796" lon="5.4202">
        <ele>957.13</ele>
        <time>2014-10-25T09:52:47Z</time>
      </trkpt>
      <trkpt lat="44.978" lon="5.42024">
        <ele>957.13</ele>
        <time>2014-10-25T09:52:48Z</time>
      </trkpt>
      <trkpt lat="44.97803" lon="5.42028">
        <ele>956.65</ele>
        <time>2014-10-25T09:52:49Z</time>
      </trkpt>
      <trkpt lat="44.97806" lon="5.42031">
        <ele>956.17</ele>
        <time>2014-10-25T09:52:50Z</time>
      </trkpt>
      <trkpt lat="44.97808" lon="5.42033">
        <ele>955.69</ele>
        <time>2014-10-25T09:52:51Z</time>
      </trkpt>
      <trkpt lat="44.9781" lon="5.42036">
        <ele>955.69</ele>
        <time>2014-10-25T09:52:52Z</time>
      </trkpt>
      <trkpt lat="44.9781" lon="5.42038">
        <ele>955.21</ele>
        <time>2014-10-25T09:52:53Z</time>
      </trkpt>
      <trkpt lat="44.9781" lon="5.42041">
        <ele>955.21</ele>
        <time>2014-10-25T09:52:54Z</time>
      </trkpt>
      <trkpt lat="44.9781" lon="5.42043">
        <ele>954.73</ele>
        <time>2014-10-25T09:52:55Z</time>
      </trkpt>
      <trkpt lat="44.97811" lon="5.42045">
        <ele>954.73</ele>
        <time>2014-10-25T09:52:56Z</time>
      </trkpt>
      <trkpt lat="44.97811" lon="5.42065">
        <ele>952.8</ele>
        <time>2014-10-25T09:53:01Z</time>
      </trkpt>
      <trkpt lat="44.97808" lon="5.42119">
        <ele>950.4</ele>
        <time>2014-10-25T09:53:09Z</time>
      </trkpt>
      <trkpt lat="44.97804" lon="5.4216">
        <ele>950.4</ele>
        <time>2014-10-25T09:53:20Z</time>
      </trkpt>
      <trkpt lat="44.97802" lon="5.42204">
        <ele>952.32</ele>
        <time>2014-10-25T09:53:36Z</time>
      </trkpt>
      <trkpt lat="44.97802" lon="5.42226">
        <ele>955.21</ele>
        <time>2014-10-25T09:53:43Z</time>
      </trkpt>
      <trkpt lat="44.978" lon="5.4223">
        <ele>955.69</ele>
        <time>2014-10-25T09:53:46Z</time>
      </trkpt>
      <trkpt lat="44.978" lon="5.42231">
        <ele>955.69</ele>
        <time>2014-10-25T09:53:47Z</time>
      </trkpt>
      <trkpt lat="44.97798" lon="5.42233">
        <ele>956.65</ele>
        <time>2014-10-25T09:53:49Z</time>
      </trkpt>
      <trkpt lat="44.97791" lon="5.4224">
        <ele>957.61</ele>
        <time>2014-10-25T09:53:54Z</time>
      </trkpt>
      <trkpt lat="44.9779" lon="5.42241">
        <ele>957.61</ele>
        <time>2014-10-25T09:53:55Z</time>
      </trkpt>
      <trkpt lat="44.97772" lon="5.42241">
        <ele>960.01</ele>
        <time>2014-10-25T09:54:10Z</time>
      </trkpt>
      <trkpt lat="44.97754" lon="5.42225">
        <ele>961.94</ele>
        <time>2014-10-25T09:54:24Z</time>
      </trkpt>
      <trkpt lat="44.97752" lon="5.42223">
        <ele>962.9</ele>
        <time>2014-10-25T09:54:25Z</time>
      </trkpt>
      <trkpt lat="44.97735" lon="5.42212">
        <ele>966.26</ele>
        <time>2014-10-25T09:54:35Z</time>
      </trkpt>
      <trkpt lat="44.97732" lon="5.42209">
        <ele>966.74</ele>
        <time>2014-10-25T09:54:38Z</time>
      </trkpt>
      <trkpt lat="44.9773" lon="5.42207">
        <ele>966.26</ele>
        <time>2014-10-25T09:54:40Z</time>
      </trkpt>
      <trkpt lat="44.97712" lon="5.42193">
        <ele>968.18</ele>
        <time>2014-10-25T09:54:55Z</time>
      </trkpt>
      <trkpt lat="44.97693" lon="5.42185">
        <ele>970.11</ele>
        <time>2014-10-25T09:55:10Z</time>
      </trkpt>
      <trkpt lat="44.97675" lon="5.42178">
        <ele>971.55</ele>
        <time>2014-10-25T09:55:24Z</time>
      </trkpt>
      <trkpt lat="44.9767" lon="5.42178">
        <ele>971.55</ele>
        <time>2014-10-25T09:55:27Z</time>
      </trkpt>
      <trkpt lat="44.97648" lon="5.42172">
        <ele>973.47</ele>
        <time>2014-10-25T09:55:44Z</time>
      </trkpt>
      <trkpt lat="44.97628" lon="5.42168">
        <ele>974.91</ele>
        <time>2014-10-25T09:55:57Z</time>
      </trkpt>
      <trkpt lat="44.97601" lon="5.4216">
        <ele>976.84</ele>
        <time>2014-10-25T09:56:14Z</time>
      </trkpt>
      <trkpt lat="44.97583" lon="5.4215">
        <ele>978.28</ele>
        <time>2014-10-25T09:56:28Z</time>
      </trkpt>
      <trkpt lat="44.97563" lon="5.4214">
        <ele>978.76</ele>
        <time>2014-10-25T09:56:42Z</time>
      </trkpt>
      <trkpt lat="44.97537" lon="5.42127">
        <ele>978.76</ele>
        <time>2014-10-25T09:56:55Z</time>
      </trkpt>
      <trkpt lat="44.97506" lon="5.42104">
        <ele>977.32</ele>
        <time>2014-10-25T09:57:05Z</time>
      </trkpt>
      <trkpt lat="44.97471" lon="5.42087">
        <ele>977.32</ele>
        <time>2014-10-25T09:57:15Z</time>
      </trkpt>
      <trkpt lat="44.97427" lon="5.42076">
        <ele>974.43</ele>
        <time>2014-10-25T09:57:26Z</time>
      </trkpt>
      <trkpt lat="44.97401" lon="5.42082">
        <ele>971.55</ele>
        <time>2014-10-25T09:57:31Z</time>
      </trkpt>
      <trkpt lat="44.97366" lon="5.42074">
        <ele>971.55</ele>
        <time>2014-10-25T09:57:40Z</time>
      </trkpt>
      <trkpt lat="44.9736" lon="5.42075">
        <ele>971.07</ele>
        <time>2014-10-25T09:57:52Z</time>
      </trkpt>
      <trkpt lat="44.97357" lon="5.42074">
        <ele>971.07</ele>
        <time>2014-10-25T09:58:19Z</time>
      </trkpt>
      <trkpt lat="44.97357" lon="5.42075">
        <ele>971.07</ele>
        <time>2014-10-25T09:58:45Z</time>
      </trkpt>
      <trkpt lat="44.97357" lon="5.42076">
        <ele>970.59</ele>
        <time>2014-10-25T09:59:16Z</time>
      </trkpt>
      <trkpt lat="44.97357" lon="5.42076">
        <ele>970.59</ele>
        <time>2014-10-25T09:59:49Z</time>
      </trkpt>
      <trkpt lat="44.97358" lon="5.42076">
        <ele>970.59</ele>
        <time>2014-10-25T10:00:25Z</time>
      </trkpt>
      <trkpt lat="44.97357" lon="5.42076">
        <ele>970.11</ele>
        <time>2014-10-25T10:01:01Z</time>
      </trkpt>
      <trkpt lat="44.97358" lon="5.42076">
        <ele>970.11</ele>
        <time>2014-10-25T10:01:33Z</time>
      </trkpt>
      <trkpt lat="44.97356" lon="5.42075">
        <ele>970.11</ele>
        <time>2014-10-25T10:01:58Z</time>
      </trkpt>
      <trkpt lat="44.97355" lon="5.42074">
        <ele>970.11</ele>
        <time>2014-10-25T10:02:26Z</time>
      </trkpt>
      <trkpt lat="44.97352" lon="5.42075">
        <ele>970.11</ele>
        <time>2014-10-25T10:02:41Z</time>
      </trkpt>
      <trkpt lat="44.97339" lon="5.42076">
        <ele>967.7</ele>
        <time>2014-10-25T10:02:44Z</time>
      </trkpt>
      <trkpt lat="44.97311" lon="5.42084">
        <ele>962.9</ele>
        <time>2014-10-25T10:02:48Z</time>
      </trkpt>
      <trkpt lat="44.97287" lon="5.42088">
        <ele>959.53</ele>
        <time>2014-10-25T10:02:51Z</time>
      </trkpt>
      <trkpt lat="44.9727" lon="5.42096">
        <ele>957.13</ele>
        <time>2014-10-25T10:02:54Z</time>
      </trkpt>
      <trkpt lat="44.97252" lon="5.42098">
        <ele>953.28</ele>
        <time>2014-10-25T10:02:59Z</time>
      </trkpt>
      <trkpt lat="44.97241" lon="5.42096">
        <ele>950.88</ele>
        <time>2014-10-25T10:03:01Z</time>
      </trkpt>
      <trkpt lat="44.97224" lon="5.42094">
        <ele>948.48</ele>
        <time>2014-10-25T10:03:04Z</time>
      </trkpt>
      <trkpt lat="44.97219" lon="5.42094">
        <ele>948.48</ele>
        <time>2014-10-25T10:03:05Z</time>
      </trkpt>
      <trkpt lat="44.97214" lon="5.42093">
        <ele>948</ele>
        <time>2014-10-25T10:03:06Z</time>
      </trkpt>
      <trkpt lat="44.97183" lon="5.42072">
        <ele>947.52</ele>
        <time>2014-10-25T10:03:16Z</time>
      </trkpt>
      <trkpt lat="44.97178" lon="5.42066">
        <ele>948.48</ele>
        <time>2014-10-25T10:03:19Z</time>
      </trkpt>
      <trkpt lat="44.97162" lon="5.42049">
        <ele>951.84</ele>
        <time>2014-10-25T10:03:27Z</time>
      </trkpt>
      <trkpt lat="44.97123" lon="5.42041">
        <ele>953.77</ele>
        <time>2014-10-25T10:03:39Z</time>
      </trkpt>
      <trkpt lat="44.97075" lon="5.42029">
        <ele>954.73</ele>
        <time>2014-10-25T10:03:53Z</time>
      </trkpt>
      <trkpt lat="44.97037" lon="5.42027">
        <ele>954.73</ele>
        <time>2014-10-25T10:04:05Z</time>
      </trkpt>
      <trkpt lat="44.97021" lon="5.42029">
        <ele>952.8</ele>
        <time>2014-10-25T10:04:09Z</time>
      </trkpt>
      <trkpt lat="44.97016" lon="5.42029">
        <ele>952.32</ele>
        <time>2014-10-25T10:04:10Z</time>
      </trkpt>
      <trkpt lat="44.97007" lon="5.42027">
        <ele>951.84</ele>
        <time>2014-10-25T10:04:12Z</time>
      </trkpt>
      <trkpt lat="44.97002" lon="5.42026">
        <ele>951.36</ele>
        <time>2014-10-25T10:04:13Z</time>
      </trkpt>
      <trkpt lat="44.96992" lon="5.42025">
        <ele>950.4</ele>
        <time>2014-10-25T10:04:15Z</time>
      </trkpt>
      <trkpt lat="44.96987" lon="5.42024">
        <ele>950.4</ele>
        <time>2014-10-25T10:04:16Z</time>
      </trkpt>
      <trkpt lat="44.96981" lon="5.42023">
        <ele>949.92</ele>
        <time>2014-10-25T10:04:17Z</time>
      </trkpt>
      <trkpt lat="44.96971" lon="5.42022">
        <ele>949.92</ele>
        <time>2014-10-25T10:04:19Z</time>
      </trkpt>
      <trkpt lat="44.96965" lon="5.42022">
        <ele>948.96</ele>
        <time>2014-10-25T10:04:20Z</time>
      </trkpt>
      <trkpt lat="44.9696" lon="5.42022">
        <ele>948.96</ele>
        <time>2014-10-25T10:04:21Z</time>
      </trkpt>
      <trkpt lat="44.96918" lon="5.42024">
        <ele>945.59</ele>
        <time>2014-10-25T10:04:28Z</time>
      </trkpt>
      <trkpt lat="44.96911" lon="5.42024">
        <ele>945.59</ele>
        <time>2014-10-25T10:04:29Z</time>
      </trkpt>
      <trkpt lat="44.96906" lon="5.42023">
        <ele>944.15</ele>
        <time>2014-10-25T10:04:30Z</time>
      </trkpt>
      <trkpt lat="44.96902" lon="5.42023">
        <ele>944.15</ele>
        <time>2014-10-25T10:04:31Z</time>
      </trkpt>
      <trkpt lat="44.96875" lon="5.42023">
        <ele>945.11</ele>
        <time>2014-10-25T10:04:42Z</time>
      </trkpt>
      <trkpt lat="44.96869" lon="5.42026">
        <ele>945.11</ele>
        <time>2014-10-25T10:04:45Z</time>
      </trkpt>
      <trkpt lat="44.96866" lon="5.42024">
        <ele>943.19</ele>
        <time>2014-10-25T10:04:46Z</time>
      </trkpt>
      <trkpt lat="44.96862" lon="5.42023">
        <ele>942.71</ele>
        <time>2014-10-25T10:04:47Z</time>
      </trkpt>
      <trkpt lat="44.96859" lon="5.42024">
        <ele>942.71</ele>
        <time>2014-10-25T10:04:48Z</time>
      </trkpt>
      <trkpt lat="44.96856" lon="5.42025">
        <ele>942.71</ele>
        <time>2014-10-25T10:04:49Z</time>
      </trkpt>
      <trkpt lat="44.96854" lon="5.42026">
        <ele>942.71</ele>
        <time>2014-10-25T10:04:50Z</time>
      </trkpt>
      <trkpt lat="44.96852" lon="5.42028">
        <ele>942.71</ele>
        <time>2014-10-25T10:04:51Z</time>
      </trkpt>
      <trkpt lat="44.9685" lon="5.42029">
        <ele>942.23</ele>
        <time>2014-10-25T10:04:52Z</time>
      </trkpt>
      <trkpt lat="44.96848" lon="5.42029">
        <ele>942.23</ele>
        <time>2014-10-25T10:04:53Z</time>
      </trkpt>
      <trkpt lat="44.96845" lon="5.4203">
        <ele>942.23</ele>
        <time>2014-10-25T10:04:54Z</time>
      </trkpt>
      <trkpt lat="44.96842" lon="5.42032">
        <ele>941.27</ele>
        <time>2014-10-25T10:04:55Z</time>
      </trkpt>
      <trkpt lat="44.96839" lon="5.42033">
        <ele>941.27</ele>
        <time>2014-10-25T10:04:56Z</time>
      </trkpt>
      <trkpt lat="44.96836" lon="5.42034">
        <ele>941.27</ele>
        <time>2014-10-25T10:04:57Z</time>
      </trkpt>
      <trkpt lat="44.96833" lon="5.42035">
        <ele>940.79</ele>
        <time>2014-10-25T10:04:58Z</time>
      </trkpt>
      <trkpt lat="44.96831" lon="5.42035">
        <ele>940.79</ele>
        <time>2014-10-25T10:04:59Z</time>
      </trkpt>
      <trkpt lat="44.96828" lon="5.42036">
        <ele>940.79</ele>
        <time>2014-10-25T10:05:00Z</time>
      </trkpt>
      <trkpt lat="44.96824" lon="5.42038">
        <ele>940.79</ele>
        <time>2014-10-25T10:05:01Z</time>
      </trkpt>
      <trkpt lat="44.96821" lon="5.4204">
        <ele>940.79</ele>
        <time>2014-10-25T10:05:02Z</time>
      </trkpt>
      <trkpt lat="44.96817" lon="5.42043">
        <ele>940.31</ele>
        <time>2014-10-25T10:05:03Z</time>
      </trkpt>
      <trkpt lat="44.96809" lon="5.42047">
        <ele>940.31</ele>
        <time>2014-10-25T10:05:05Z</time>
      </trkpt>
      <trkpt lat="44.96805" lon="5.42048">
        <ele>940.31</ele>
        <time>2014-10-25T10:05:06Z</time>
      </trkpt>
      <trkpt lat="44.96801" lon="5.4205">
        <ele>940.31</ele>
        <time>2014-10-25T10:05:07Z</time>
      </trkpt>
      <trkpt lat="44.96797" lon="5.42053">
        <ele>939.83</ele>
        <time>2014-10-25T10:05:08Z</time>
      </trkpt>
      <trkpt lat="44.96793" lon="5.42055">
        <ele>939.83</ele>
        <time>2014-10-25T10:05:09Z</time>
      </trkpt>
      <trkpt lat="44.96789" lon="5.42056">
        <ele>939.35</ele>
        <time>2014-10-25T10:05:10Z</time>
      </trkpt>
      <trkpt lat="44.96786" lon="5.42055">
        <ele>939.35</ele>
        <time>2014-10-25T10:05:11Z</time>
      </trkpt>
      <trkpt lat="44.96783" lon="5.42056">
        <ele>939.35</ele>
        <time>2014-10-25T10:05:12Z</time>
      </trkpt>
      <trkpt lat="44.9678" lon="5.42057">
        <ele>939.35</ele>
        <time>2014-10-25T10:05:13Z</time>
      </trkpt>
      <trkpt lat="44.96778" lon="5.42058">
        <ele>939.35</ele>
        <time>2014-10-25T10:05:14Z</time>
      </trkpt>
      <trkpt lat="44.96775" lon="5.4206">
        <ele>939.35</ele>
        <time>2014-10-25T10:05:15Z</time>
      </trkpt>
      <trkpt lat="44.96755" lon="5.42083">
        <ele>936.46</ele>
        <time>2014-10-25T10:05:24Z</time>
      </trkpt>
      <trkpt lat="44.96751" lon="5.42086">
        <ele>935.98</ele>
        <time>2014-10-25T10:05:25Z</time>
      </trkpt>
      <trkpt lat="44.96743" lon="5.42091">
        <ele>935.02</ele>
        <time>2014-10-25T10:05:27Z</time>
      </trkpt>
      <trkpt lat="44.96738" lon="5.42092">
        <ele>934.54</ele>
        <time>2014-10-25T10:05:28Z</time>
      </trkpt>
      <trkpt lat="44.96734" lon="5.42093">
        <ele>934.54</ele>
        <time>2014-10-25T10:05:29Z</time>
      </trkpt>
      <trkpt lat="44.96731" lon="5.42094">
        <ele>934.06</ele>
        <time>2014-10-25T10:05:30Z</time>
      </trkpt>
      <trkpt lat="44.96729" lon="5.42098">
        <ele>933.58</ele>
        <time>2014-10-25T10:05:31Z</time>
      </trkpt>
      <trkpt lat="44.96728" lon="5.42103">
        <ele>932.14</ele>
        <time>2014-10-25T10:05:32Z</time>
      </trkpt>
      <trkpt lat="44.96726" lon="5.42108">
        <ele>931.65</ele>
        <time>2014-10-25T10:05:33Z</time>
      </trkpt>
      <trkpt lat="44.96725" lon="5.42112">
        <ele>930.69</ele>
        <time>2014-10-25T10:05:34Z</time>
      </trkpt>
      <trkpt lat="44.96725" lon="5.42117">
        <ele>929.73</ele>
        <time>2014-10-25T10:05:35Z</time>
      </trkpt>
      <trkpt lat="44.96726" lon="5.42123">
        <ele>928.77</ele>
        <time>2014-10-25T10:05:36Z</time>
      </trkpt>
      <trkpt lat="44.96726" lon="5.42128">
        <ele>928.77</ele>
        <time>2014-10-25T10:05:37Z</time>
      </trkpt>
      <trkpt lat="44.96724" lon="5.42133">
        <ele>927.33</ele>
        <time>2014-10-25T10:05:38Z</time>
      </trkpt>
      <trkpt lat="44.96723" lon="5.42138">
        <ele>925.89</ele>
        <time>2014-10-25T10:05:39Z</time>
      </trkpt>
      <trkpt lat="44.96719" lon="5.42141">
        <ele>925.41</ele>
        <time>2014-10-25T10:05:40Z</time>
      </trkpt>
      <trkpt lat="44.96716" lon="5.42144">
        <ele>925.41</ele>
        <time>2014-10-25T10:05:41Z</time>
      </trkpt>
      <trkpt lat="44.96714" lon="5.42145">
        <ele>924.93</ele>
        <time>2014-10-25T10:05:42Z</time>
      </trkpt>
      <trkpt lat="44.96712" lon="5.42145">
        <ele>924.93</ele>
        <time>2014-10-25T10:05:43Z</time>
      </trkpt>
      <trkpt lat="44.96711" lon="5.42144">
        <ele>924.93</ele>
        <time>2014-10-25T10:05:44Z</time>
      </trkpt>
      <trkpt lat="44.96709" lon="5.42143">
        <ele>924.93</ele>
        <time>2014-10-25T10:05:45Z</time>
      </trkpt>
      <trkpt lat="44.96708" lon="5.42143">
        <ele>924.93</ele>
        <time>2014-10-25T10:05:46Z</time>
      </trkpt>
      <trkpt lat="44.96706" lon="5.42143">
        <ele>924.93</ele>
        <time>2014-10-25T10:05:47Z</time>
      </trkpt>
      <trkpt lat="44.96704" lon="5.42144">
        <ele>924.45</ele>
        <time>2014-10-25T10:05:48Z</time>
      </trkpt>
      <trkpt lat="44.96702" lon="5.42144">
        <ele>924.93</ele>
        <time>2014-10-25T10:05:49Z</time>
      </trkpt>
      <trkpt lat="44.96701" lon="5.42144">
        <ele>924.45</ele>
        <time>2014-10-25T10:05:50Z</time>
      </trkpt>
      <trkpt lat="44.96699" lon="5.42144">
        <ele>924.45</ele>
        <time>2014-10-25T10:05:51Z</time>
      </trkpt>
      <trkpt lat="44.9667" lon="5.4216">
        <ele>921.08</ele>
        <time>2014-10-25T10:06:04Z</time>
      </trkpt>
      <trkpt lat="44.96644" lon="5.4218">
        <ele>917.24</ele>
        <time>2014-10-25T10:06:09Z</time>
      </trkpt>
      <trkpt lat="44.96633" lon="5.42187">
        <ele>915.79</ele>
        <time>2014-10-25T10:06:11Z</time>
      </trkpt>
      <trkpt lat="44.96608" lon="5.42203">
        <ele>912.43</ele>
        <time>2014-10-25T10:06:15Z</time>
      </trkpt>
      <trkpt lat="44.96601" lon="5.42202">
        <ele>912.43</ele>
        <time>2014-10-25T10:06:16Z</time>
      </trkpt>
      <trkpt lat="44.96595" lon="5.42199">
        <ele>911.95</ele>
        <time>2014-10-25T10:06:17Z</time>
      </trkpt>
      <trkpt lat="44.96584" lon="5.42193">
        <ele>911.95</ele>
        <time>2014-10-25T10:06:19Z</time>
      </trkpt>
      <trkpt lat="44.96578" lon="5.4219">
        <ele>911.47</ele>
        <time>2014-10-25T10:06:20Z</time>
      </trkpt>
      <trkpt lat="44.96571" lon="5.42186">
        <ele>910.51</ele>
        <time>2014-10-25T10:06:21Z</time>
      </trkpt>
      <trkpt lat="44.96542" lon="5.4217">
        <ele>909.54</ele>
        <time>2014-10-25T10:06:27Z</time>
      </trkpt>
      <trkpt lat="44.9654" lon="5.4217">
        <ele>909.54</ele>
        <time>2014-10-25T10:06:40Z</time>
      </trkpt>
      <trkpt lat="44.9654" lon="5.4217">
        <ele>909.06</ele>
        <time>2014-10-25T10:07:06Z</time>
      </trkpt>
      <trkpt lat="44.96539" lon="5.42171">
        <ele>909.06</ele>
        <time>2014-10-25T10:07:33Z</time>
      </trkpt>
      <trkpt lat="44.96538" lon="5.42167">
        <ele>909.06</ele>
        <time>2014-10-25T10:07:51Z</time>
      </trkpt>
      <trkpt lat="44.96538" lon="5.42164">
        <ele>909.06</ele>
        <time>2014-10-25T10:07:52Z</time>
      </trkpt>
      <trkpt lat="44.96545" lon="5.42123">
        <ele>909.06</ele>
        <time>2014-10-25T10:08:02Z</time>
      </trkpt>
      <trkpt lat="44.96573" lon="5.42054">
        <ele>907.14</ele>
        <time>2014-10-25T10:08:17Z</time>
      </trkpt>
      <trkpt lat="44.96592" lon="5.42009">
        <ele>903.78</ele>
        <time>2014-10-25T10:08:24Z</time>
      </trkpt>
      <trkpt lat="44.96609" lon="5.41966">
        <ele>900.89</ele>
        <time>2014-10-25T10:08:29Z</time>
      </trkpt>
      <trkpt lat="44.96629" lon="5.41927">
        <ele>898.01</ele>
        <time>2014-10-25T10:08:33Z</time>
      </trkpt>
      <trkpt lat="44.96644" lon="5.41904">
        <ele>896.09</ele>
        <time>2014-10-25T10:08:36Z</time>
      </trkpt>
      <trkpt lat="44.96648" lon="5.419">
        <ele>895.61</ele>
        <time>2014-10-25T10:08:37Z</time>
      </trkpt>
      <trkpt lat="44.96651" lon="5.41896">
        <ele>895.61</ele>
        <time>2014-10-25T10:08:38Z</time>
      </trkpt>
      <trkpt lat="44.96654" lon="5.41893">
        <ele>895.61</ele>
        <time>2014-10-25T10:08:39Z</time>
      </trkpt>
      <trkpt lat="44.96654" lon="5.41891">
        <ele>895.12</ele>
        <time>2014-10-25T10:08:40Z</time>
      </trkpt>
      <trkpt lat="44.96653" lon="5.41889">
        <ele>895.12</ele>
        <time>2014-10-25T10:08:41Z</time>
      </trkpt>
      <trkpt lat="44.96652" lon="5.41887">
        <ele>895.12</ele>
        <time>2014-10-25T10:08:42Z</time>
      </trkpt>
      <trkpt lat="44.96643" lon="5.41883">
        <ele>895.12</ele>
        <time>2014-10-25T10:08:49Z</time>
      </trkpt>
      <trkpt lat="44.96641" lon="5.41885">
        <ele>895.12</ele>
        <time>2014-10-25T10:08:50Z</time>
      </trkpt>
      <trkpt lat="44.96587" lon="5.41901">
        <ele>894.16</ele>
        <time>2014-10-25T10:09:03Z</time>
      </trkpt>
      <trkpt lat="44.96514" lon="5.41903">
        <ele>893.2</ele>
        <time>2014-10-25T10:09:17Z</time>
      </trkpt>
      <trkpt lat="44.96447" lon="5.41904">
        <ele>893.2</ele>
        <time>2014-10-25T10:09:31Z</time>
      </trkpt>
      <trkpt lat="44.96372" lon="5.41927">
        <ele>889.84</ele>
        <time>2014-10-25T10:09:45Z</time>
      </trkpt>
      <trkpt lat="44.96305" lon="5.41976">
        <ele>886.47</ele>
        <time>2014-10-25T10:09:56Z</time>
      </trkpt>
      <trkpt lat="44.96292" lon="5.41985">
        <ele>885.51</ele>
        <time>2014-10-25T10:09:58Z</time>
      </trkpt>
      <trkpt lat="44.96285" lon="5.41988">
        <ele>885.51</ele>
        <time>2014-10-25T10:09:59Z</time>
      </trkpt>
      <trkpt lat="44.96279" lon="5.4199">
        <ele>885.03</ele>
        <time>2014-10-25T10:10:00Z</time>
      </trkpt>
      <trkpt lat="44.96272" lon="5.41992">
        <ele>885.03</ele>
        <time>2014-10-25T10:10:01Z</time>
      </trkpt>
      <trkpt lat="44.96265" lon="5.41993">
        <ele>884.07</ele>
        <time>2014-10-25T10:10:02Z</time>
      </trkpt>
      <trkpt lat="44.96258" lon="5.41994">
        <ele>884.07</ele>
        <time>2014-10-25T10:10:03Z</time>
      </trkpt>
      <trkpt lat="44.9625" lon="5.41993">
        <ele>884.07</ele>
        <time>2014-10-25T10:10:04Z</time>
      </trkpt>
      <trkpt lat="44.96228" lon="5.41993">
        <ele>883.11</ele>
        <time>2014-10-25T10:10:07Z</time>
      </trkpt>
      <trkpt lat="44.96221" lon="5.41995">
        <ele>882.15</ele>
        <time>2014-10-25T10:10:08Z</time>
      </trkpt>
      <trkpt lat="44.96191" lon="5.42005">
        <ele>881.19</ele>
        <time>2014-10-25T10:10:13Z</time>
      </trkpt>
      <trkpt lat="44.96188" lon="5.42004">
        <ele>881.19</ele>
        <time>2014-10-25T10:10:14Z</time>
      </trkpt>
      <trkpt lat="44.96186" lon="5.42">
        <ele>880.22</ele>
        <time>2014-10-25T10:10:15Z</time>
      </trkpt>
      <trkpt lat="44.96186" lon="5.41995">
        <ele>879.74</ele>
        <time>2014-10-25T10:10:16Z</time>
      </trkpt>
      <trkpt lat="44.96187" lon="5.41989">
        <ele>879.74</ele>
        <time>2014-10-25T10:10:17Z</time>
      </trkpt>
      <trkpt lat="44.96187" lon="5.41982">
        <ele>878.78</ele>
        <time>2014-10-25T10:10:18Z</time>
      </trkpt>
      <trkpt lat="44.96187" lon="5.41975">
        <ele>878.3</ele>
        <time>2014-10-25T10:10:19Z</time>
      </trkpt>
      <trkpt lat="44.96186" lon="5.41969">
        <ele>877.82</ele>
        <time>2014-10-25T10:10:20Z</time>
      </trkpt>
      <trkpt lat="44.96185" lon="5.41962">
        <ele>877.82</ele>
        <time>2014-10-25T10:10:21Z</time>
      </trkpt>
      <trkpt lat="44.96182" lon="5.41957">
        <ele>877.34</ele>
        <time>2014-10-25T10:10:22Z</time>
      </trkpt>
      <trkpt lat="44.96178" lon="5.41951">
        <ele>877.34</ele>
        <time>2014-10-25T10:10:23Z</time>
      </trkpt>
      <trkpt lat="44.96174" lon="5.41947">
        <ele>877.34</ele>
        <time>2014-10-25T10:10:24Z</time>
      </trkpt>
      <trkpt lat="44.96171" lon="5.41943">
        <ele>876.86</ele>
        <time>2014-10-25T10:10:25Z</time>
      </trkpt>
      <trkpt lat="44.96167" lon="5.41939">
        <ele>876.86</ele>
        <time>2014-10-25T10:10:26Z</time>
      </trkpt>
      <trkpt lat="44.9614" lon="5.41903">
        <ele>873.98</ele>
        <time>2014-10-25T10:10:33Z</time>
      </trkpt>
      <trkpt lat="44.96135" lon="5.41897">
        <ele>873.5</ele>
        <time>2014-10-25T10:10:34Z</time>
      </trkpt>
      <trkpt lat="44.96095" lon="5.41862">
        <ele>871.09</ele>
        <time>2014-10-25T10:10:41Z</time>
      </trkpt>
      <trkpt lat="44.9607" lon="5.41846">
        <ele>870.61</ele>
        <time>2014-10-25T10:10:46Z</time>
      </trkpt>
      <trkpt lat="44.96067" lon="5.41841">
        <ele>870.61</ele>
        <time>2014-10-25T10:10:47Z</time>
      </trkpt>
      <trkpt lat="44.96065" lon="5.41836">
        <ele>870.61</ele>
        <time>2014-10-25T10:10:48Z</time>
      </trkpt>
      <trkpt lat="44.96065" lon="5.41829">
        <ele>870.61</ele>
        <time>2014-10-25T10:10:49Z</time>
      </trkpt>
      <trkpt lat="44.96067" lon="5.41822">
        <ele>870.61</ele>
        <time>2014-10-25T10:10:50Z</time>
      </trkpt>
      <trkpt lat="44.96068" lon="5.41815">
        <ele>870.61</ele>
        <time>2014-10-25T10:10:51Z</time>
      </trkpt>
      <trkpt lat="44.96071" lon="5.41792">
        <ele>870.61</ele>
        <time>2014-10-25T10:10:54Z</time>
      </trkpt>
      <trkpt lat="44.96072" lon="5.41778">
        <ele>870.61</ele>
        <time>2014-10-25T10:10:56Z</time>
      </trkpt>
      <trkpt lat="44.96071" lon="5.41771">
        <ele>870.61</ele>
        <time>2014-10-25T10:10:57Z</time>
      </trkpt>
      <trkpt lat="44.96071" lon="5.41764">
        <ele>870.61</ele>
        <time>2014-10-25T10:10:58Z</time>
      </trkpt>
      <trkpt lat="44.96069" lon="5.41757">
        <ele>870.61</ele>
        <time>2014-10-25T10:10:59Z</time>
      </trkpt>
      <trkpt lat="44.96068" lon="5.4175">
        <ele>872.05</ele>
        <time>2014-10-25T10:11:00Z</time>
      </trkpt>
      <trkpt lat="44.96058" lon="5.4172">
        <ele>872.53</ele>
        <time>2014-10-25T10:11:06Z</time>
      </trkpt>
      <trkpt lat="44.96055" lon="5.41717">
        <ele>872.53</ele>
        <time>2014-10-25T10:11:07Z</time>
      </trkpt>
      <trkpt lat="44.96042" lon="5.41707">
        <ele>871.09</ele>
        <time>2014-10-25T10:11:10Z</time>
      </trkpt>
      <trkpt lat="44.96037" lon="5.41704">
        <ele>870.61</ele>
        <time>2014-10-25T10:11:11Z</time>
      </trkpt>
      <trkpt lat="44.95972" lon="5.41682">
        <ele>869.65</ele>
        <time>2014-10-25T10:11:24Z</time>
      </trkpt>
      <trkpt lat="44.95965" lon="5.41678">
        <ele>871.09</ele>
        <time>2014-10-25T10:11:26Z</time>
      </trkpt>
      <trkpt lat="44.95959" lon="5.41672">
        <ele>871.57</ele>
        <time>2014-10-25T10:11:34Z</time>
      </trkpt>
      <trkpt lat="44.95957" lon="5.4167">
        <ele>872.05</ele>
        <time>2014-10-25T10:12:00Z</time>
      </trkpt>
      <trkpt lat="44.95958" lon="5.41667">
        <ele>872.05</ele>
        <time>2014-10-25T10:12:15Z</time>
      </trkpt>
      <trkpt lat="44.95958" lon="5.41665">
        <ele>872.05</ele>
        <time>2014-10-25T10:12:16Z</time>
      </trkpt>
      <trkpt lat="44.95959" lon="5.41663">
        <ele>872.05</ele>
        <time>2014-10-25T10:12:17Z</time>
      </trkpt>
      <trkpt lat="44.95959" lon="5.41661">
        <ele>872.05</ele>
        <time>2014-10-25T10:12:18Z</time>
      </trkpt>
      <trkpt lat="44.9596" lon="5.41659">
        <ele>872.05</ele>
        <time>2014-10-25T10:12:19Z</time>
      </trkpt>
      <trkpt lat="44.95961" lon="5.41657">
        <ele>872.05</ele>
        <time>2014-10-25T10:12:20Z</time>
      </trkpt>
      <trkpt lat="44.95972" lon="5.41627">
        <ele>872.05</ele>
        <time>2014-10-25T10:12:34Z</time>
      </trkpt>
      <trkpt lat="44.95983" lon="5.41595">
        <ele>872.53</ele>
        <time>2014-10-25T10:12:47Z</time>
      </trkpt>
      <trkpt lat="44.95981" lon="5.41533">
        <ele>870.13</ele>
        <time>2014-10-25T10:13:00Z</time>
      </trkpt>
      <trkpt lat="44.95975" lon="5.41465">
        <ele>868.21</ele>
        <time>2014-10-25T10:13:12Z</time>
      </trkpt>
      <trkpt lat="44.95971" lon="5.41411">
        <ele>867.25</ele>
        <time>2014-10-25T10:13:22Z</time>
      </trkpt>
      <trkpt lat="44.9597" lon="5.41406">
        <ele>867.25</ele>
        <time>2014-10-25T10:13:23Z</time>
      </trkpt>
      <trkpt lat="44.9595" lon="5.41345">
        <ele>866.77</ele>
        <time>2014-10-25T10:13:35Z</time>
      </trkpt>
      <trkpt lat="44.95945" lon="5.41322">
        <ele>864.84</ele>
        <time>2014-10-25T10:13:46Z</time>
      </trkpt>
      <trkpt lat="44.95946" lon="5.41319">
        <ele>864.84</ele>
        <time>2014-10-25T10:14:11Z</time>
      </trkpt>
      <trkpt lat="44.95947" lon="5.41316">
        <ele>864.36</ele>
        <time>2014-10-25T10:14:34Z</time>
      </trkpt>
      <trkpt lat="44.95944" lon="5.41319">
        <ele>864.36</ele>
        <time>2014-10-25T10:15:07Z</time>
      </trkpt>
      <trkpt lat="44.95944" lon="5.41316">
        <ele>864.36</ele>
        <time>2014-10-25T10:15:35Z</time>
      </trkpt>
      <trkpt lat="44.95945" lon="5.41318">
        <ele>863.88</ele>
        <time>2014-10-25T10:16:03Z</time>
      </trkpt>
      <trkpt lat="44.95943" lon="5.4132">
        <ele>863.88</ele>
        <time>2014-10-25T10:16:39Z</time>
      </trkpt>
      <trkpt lat="44.95943" lon="5.41317">
        <ele>863.88</ele>
        <time>2014-10-25T10:17:23Z</time>
      </trkpt>
      <trkpt lat="44.95941" lon="5.4132">
        <ele>863.88</ele>
        <time>2014-10-25T10:18:00Z</time>
      </trkpt>
      <trkpt lat="44.95941" lon="5.41319">
        <ele>863.88</ele>
        <time>2014-10-25T10:18:34Z</time>
      </trkpt>
      <trkpt lat="44.95943" lon="5.41319">
        <ele>864.84</ele>
        <time>2014-10-25T10:18:48Z</time>
      </trkpt>
      <trkpt lat="44.95945" lon="5.41321">
        <ele>864.84</ele>
        <time>2014-10-25T10:19:22Z</time>
      </trkpt>
      <trkpt lat="44.95946" lon="5.41315">
        <ele>864.84</ele>
        <time>2014-10-25T10:19:41Z</time>
      </trkpt>
      <trkpt lat="44.95948" lon="5.41316">
        <ele>864.84</ele>
        <time>2014-10-25T10:19:43Z</time>
      </trkpt>
      <trkpt lat="44.95948" lon="5.41316">
        <ele>864.84</ele>
        <time>2014-10-25T10:19:44Z</time>
      </trkpt>
      <trkpt lat="44.95949" lon="5.41317">
        <ele>864.84</ele>
        <time>2014-10-25T10:19:45Z</time>
      </trkpt>
      <trkpt lat="44.9595" lon="5.41318">
        <ele>864.84</ele>
        <time>2014-10-25T10:19:46Z</time>
      </trkpt>
      <trkpt lat="44.95952" lon="5.41318">
        <ele>864.84</ele>
        <time>2014-10-25T10:19:47Z</time>
      </trkpt>
      <trkpt lat="44.95953" lon="5.41318">
        <ele>864.84</ele>
        <time>2014-10-25T10:19:48Z</time>
      </trkpt>
      <trkpt lat="44.95955" lon="5.41318">
        <ele>864.84</ele>
        <time>2014-10-25T10:19:49Z</time>
      </trkpt>
      <trkpt lat="44.95963" lon="5.41316">
        <ele>864.84</ele>
        <time>2014-10-25T10:20:02Z</time>
      </trkpt>
      <trkpt lat="44.95963" lon="5.41319">
        <ele>864.84</ele>
        <time>2014-10-25T10:20:25Z</time>
      </trkpt>
      <trkpt lat="44.95965" lon="5.41315">
        <ele>864.84</ele>
        <time>2014-10-25T10:20:49Z</time>
      </trkpt>
      <trkpt lat="44.95962" lon="5.41314">
        <ele>864.84</ele>
        <time>2014-10-25T10:20:59Z</time>
      </trkpt>
      <trkpt lat="44.95961" lon="5.41315">
        <ele>864.84</ele>
        <time>2014-10-25T10:21:00Z</time>
      </trkpt>
      <trkpt lat="44.95959" lon="5.41319">
        <ele>864.84</ele>
        <time>2014-10-25T10:21:02Z</time>
      </trkpt>
      <trkpt lat="44.95957" lon="5.41319">
        <ele>864.84</ele>
        <time>2014-10-25T10:21:03Z</time>
      </trkpt>
      <trkpt lat="44.95956" lon="5.41317">
        <ele>864.84</ele>
        <time>2014-10-25T10:21:04Z</time>
      </trkpt>
      <trkpt lat="44.95954" lon="5.41316">
        <ele>864.84</ele>
        <time>2014-10-25T10:21:06Z</time>
      </trkpt>
      <trkpt lat="44.95941" lon="5.41307">
        <ele>863.4</ele>
        <time>2014-10-25T10:21:20Z</time>
      </trkpt>
      <trkpt lat="44.9594" lon="5.41302">
        <ele>862.92</ele>
        <time>2014-10-25T10:21:28Z</time>
      </trkpt>
      <trkpt lat="44.95937" lon="5.41297">
        <ele>862.92</ele>
        <time>2014-10-25T10:21:30Z</time>
      </trkpt>
      <trkpt lat="44.95936" lon="5.41294">
        <ele>862.92</ele>
        <time>2014-10-25T10:21:31Z</time>
      </trkpt>
      <trkpt lat="44.95935" lon="5.4129">
        <ele>862.92</ele>
        <time>2014-10-25T10:21:32Z</time>
      </trkpt>
      <trkpt lat="44.95933" lon="5.41286">
        <ele>861.96</ele>
        <time>2014-10-25T10:21:33Z</time>
      </trkpt>
      <trkpt lat="44.95923" lon="5.41254">
        <ele>861</ele>
        <time>2014-10-25T10:21:39Z</time>
      </trkpt>
      <trkpt lat="44.95922" lon="5.41248">
        <ele>861</ele>
        <time>2014-10-25T10:21:40Z</time>
      </trkpt>
      <trkpt lat="44.95922" lon="5.41241">
        <ele>861</ele>
        <time>2014-10-25T10:21:41Z</time>
      </trkpt>
      <trkpt lat="44.95922" lon="5.41234">
        <ele>860.52</ele>
        <time>2014-10-25T10:21:42Z</time>
      </trkpt>
      <trkpt lat="44.95923" lon="5.41228">
        <ele>860.52</ele>
        <time>2014-10-25T10:21:43Z</time>
      </trkpt>
      <trkpt lat="44.95924" lon="5.41209">
        <ele>860.52</ele>
        <time>2014-10-25T10:21:46Z</time>
      </trkpt>
      <trkpt lat="44.95925" lon="5.41203">
        <ele>860.04</ele>
        <time>2014-10-25T10:21:47Z</time>
      </trkpt>
      <trkpt lat="44.95937" lon="5.41132">
        <ele>860.04</ele>
        <time>2014-10-25T10:22:00Z</time>
      </trkpt>
      <trkpt lat="44.95952" lon="5.41116">
        <ele>859.56</ele>
        <time>2014-10-25T10:22:07Z</time>
      </trkpt>
      <trkpt lat="44.95953" lon="5.41114">
        <ele>859.56</ele>
        <time>2014-10-25T10:22:09Z</time>
      </trkpt>
      <trkpt lat="44.95954" lon="5.41114">
        <ele>859.56</ele>
        <time>2014-10-25T10:22:10Z</time>
      </trkpt>
      <trkpt lat="44.95956" lon="5.41114">
        <ele>859.56</ele>
        <time>2014-10-25T10:22:11Z</time>
      </trkpt>
      <trkpt lat="44.95959" lon="5.41113">
        <ele>859.56</ele>
        <time>2014-10-25T10:22:12Z</time>
      </trkpt>
      <trkpt lat="44.95961" lon="5.41112">
        <ele>859.56</ele>
        <time>2014-10-25T10:22:13Z</time>
      </trkpt>
      <trkpt lat="44.95987" lon="5.41094">
        <ele>859.56</ele>
        <time>2014-10-25T10:22:26Z</time>
      </trkpt>
      <trkpt lat="44.96011" lon="5.41072">
        <ele>859.56</ele>
        <time>2014-10-25T10:22:38Z</time>
      </trkpt>
      <trkpt lat="44.96028" lon="5.41026">
        <ele>859.56</ele>
        <time>2014-10-25T10:22:51Z</time>
      </trkpt>
      <trkpt lat="44.96042" lon="5.40972">
        <ele>859.08</ele>
        <time>2014-10-25T10:23:02Z</time>
      </trkpt>
      <trkpt lat="44.96056" lon="5.4092">
        <ele>858.11</ele>
        <time>2014-10-25T10:23:14Z</time>
      </trkpt>
      <trkpt lat="44.96055" lon="5.4091">
        <ele>858.11</ele>
        <time>2014-10-25T10:23:18Z</time>
      </trkpt>
      <trkpt lat="44.96054" lon="5.40905">
        <ele>858.11</ele>
        <time>2014-10-25T10:23:19Z</time>
      </trkpt>
      <trkpt lat="44.96055" lon="5.409">
        <ele>857.15</ele>
        <time>2014-10-25T10:23:20Z</time>
      </trkpt>
      <trkpt lat="44.96056" lon="5.40893">
        <ele>856.67</ele>
        <time>2014-10-25T10:23:21Z</time>
      </trkpt>
      <trkpt lat="44.96057" lon="5.40885">
        <ele>855.71</ele>
        <time>2014-10-25T10:23:22Z</time>
      </trkpt>
      <trkpt lat="44.96082" lon="5.40793">
        <ele>854.75</ele>
        <time>2014-10-25T10:23:36Z</time>
      </trkpt>
      <trkpt lat="44.96105" lon="5.4071">
        <ele>854.27</ele>
        <time>2014-10-25T10:23:52Z</time>
      </trkpt>
      <trkpt lat="44.96125" lon="5.40627">
        <ele>853.79</ele>
        <time>2014-10-25T10:24:07Z</time>
      </trkpt>
      <trkpt lat="44.96124" lon="5.40595">
        <ele>854.75</ele>
        <time>2014-10-25T10:24:14Z</time>
      </trkpt>
      <trkpt lat="44.96127" lon="5.40562">
        <ele>855.23</ele>
        <time>2014-10-25T10:24:19Z</time>
      </trkpt>
      <trkpt lat="44.96128" lon="5.40549">
        <ele>855.23</ele>
        <time>2014-10-25T10:24:21Z</time>
      </trkpt>
      <trkpt lat="44.96129" lon="5.40507">
        <ele>855.23</ele>
        <time>2014-10-25T10:24:27Z</time>
      </trkpt>
      <trkpt lat="44.9613" lon="5.40499">
        <ele>855.23</ele>
        <time>2014-10-25T10:24:28Z</time>
      </trkpt>
      <trkpt lat="44.96139" lon="5.40464">
        <ele>853.79</ele>
        <time>2014-10-25T10:24:33Z</time>
      </trkpt>
      <trkpt lat="44.96141" lon="5.40458">
        <ele>853.79</ele>
        <time>2014-10-25T10:24:34Z</time>
      </trkpt>
      <trkpt lat="44.96144" lon="5.40452">
        <ele>853.79</ele>
        <time>2014-10-25T10:24:35Z</time>
      </trkpt>
      <trkpt lat="44.9615" lon="5.40441">
        <ele>853.79</ele>
        <time>2014-10-25T10:24:37Z</time>
      </trkpt>
      <trkpt lat="44.96164" lon="5.40417">
        <ele>853.31</ele>
        <time>2014-10-25T10:24:42Z</time>
      </trkpt>
      <trkpt lat="44.96169" lon="5.40407">
        <ele>852.83</ele>
        <time>2014-10-25T10:24:44Z</time>
      </trkpt>
      <trkpt lat="44.96172" lon="5.40402">
        <ele>851.87</ele>
        <time>2014-10-25T10:24:45Z</time>
      </trkpt>
      <trkpt lat="44.96178" lon="5.40387">
        <ele>851.87</ele>
        <time>2014-10-25T10:24:48Z</time>
      </trkpt>
      <trkpt lat="44.9618" lon="5.40382">
        <ele>851.87</ele>
        <time>2014-10-25T10:24:49Z</time>
      </trkpt>
      <trkpt lat="44.96182" lon="5.40376">
        <ele>851.87</ele>
        <time>2014-10-25T10:24:50Z</time>
      </trkpt>
      <trkpt lat="44.96183" lon="5.40372">
        <ele>851.87</ele>
        <time>2014-10-25T10:24:51Z</time>
      </trkpt>
      <trkpt lat="44.96185" lon="5.40366">
        <ele>851.87</ele>
        <time>2014-10-25T10:24:52Z</time>
      </trkpt>
      <trkpt lat="44.96191" lon="5.40348">
        <ele>851.87</ele>
        <time>2014-10-25T10:24:55Z</time>
      </trkpt>
      <trkpt lat="44.96192" lon="5.40342">
        <ele>852.35</ele>
        <time>2014-10-25T10:24:56Z</time>
      </trkpt>
      <trkpt lat="44.96193" lon="5.40335">
        <ele>851.87</ele>
        <time>2014-10-25T10:24:57Z</time>
      </trkpt>
      <trkpt lat="44.96194" lon="5.40329">
        <ele>852.35</ele>
        <time>2014-10-25T10:24:58Z</time>
      </trkpt>
      <trkpt lat="44.96194" lon="5.40322">
        <ele>851.87</ele>
        <time>2014-10-25T10:24:59Z</time>
      </trkpt>
      <trkpt lat="44.96195" lon="5.40316">
        <ele>852.35</ele>
        <time>2014-10-25T10:25:00Z</time>
      </trkpt>
      <trkpt lat="44.96195" lon="5.40309">
        <ele>852.35</ele>
        <time>2014-10-25T10:25:01Z</time>
      </trkpt>
      <trkpt lat="44.96196" lon="5.40303">
        <ele>851.38</ele>
        <time>2014-10-25T10:25:02Z</time>
      </trkpt>
      <trkpt lat="44.96197" lon="5.40297">
        <ele>851.38</ele>
        <time>2014-10-25T10:25:03Z</time>
      </trkpt>
      <trkpt lat="44.96197" lon="5.40291">
        <ele>850.9</ele>
        <time>2014-10-25T10:25:04Z</time>
      </trkpt>
      <trkpt lat="44.96198" lon="5.40285">
        <ele>850.9</ele>
        <time>2014-10-25T10:25:05Z</time>
      </trkpt>
      <trkpt lat="44.96198" lon="5.4028">
        <ele>850.9</ele>
        <time>2014-10-25T10:25:06Z</time>
      </trkpt>
      <trkpt lat="44.96203" lon="5.40215">
        <ele>848.5</ele>
        <time>2014-10-25T10:25:16Z</time>
      </trkpt>
      <trkpt lat="44.96204" lon="5.40209">
        <ele>848.5</ele>
        <time>2014-10-25T10:25:17Z</time>
      </trkpt>
      <trkpt lat="44.96207" lon="5.40183">
        <ele>848.02</ele>
        <time>2014-10-25T10:25:21Z</time>
      </trkpt>
      <trkpt lat="44.96212" lon="5.40145">
        <ele>848.5</ele>
        <time>2014-10-25T10:25:28Z</time>
      </trkpt>
      <trkpt lat="44.9621" lon="5.40142">
        <ele>848.5</ele>
        <time>2014-10-25T10:25:29Z</time>
      </trkpt>
      <trkpt lat="44.96209" lon="5.4014">
        <ele>848.5</ele>
        <time>2014-10-25T10:25:30Z</time>
      </trkpt>
      <trkpt lat="44.96207" lon="5.40139">
        <ele>848.5</ele>
        <time>2014-10-25T10:25:31Z</time>
      </trkpt>
      <trkpt lat="44.96205" lon="5.4014">
        <ele>848.5</ele>
        <time>2014-10-25T10:25:32Z</time>
      </trkpt>
      <trkpt lat="44.96205" lon="5.40139">
        <ele>849.94</ele>
        <time>2014-10-25T10:25:43Z</time>
      </trkpt>
      <trkpt lat="44.96204" lon="5.40138">
        <ele>849.94</ele>
        <time>2014-10-25T10:25:45Z</time>
      </trkpt>
      <trkpt lat="44.96196" lon="5.40135">
        <ele>848.5</ele>
        <time>2014-10-25T10:25:55Z</time>
      </trkpt>
      <trkpt lat="44.96196" lon="5.40135">
        <ele>849.94</ele>
        <time>2014-10-25T10:26:12Z</time>
      </trkpt>
      <trkpt lat="44.96195" lon="5.40136">
        <ele>849.94</ele>
        <time>2014-10-25T10:26:30Z</time>
      </trkpt>
      <trkpt lat="44.96196" lon="5.40137">
        <ele>849.46</ele>
        <time>2014-10-25T10:26:53Z</time>
      </trkpt>
      <trkpt lat="44.96195" lon="5.40134">
        <ele>849.46</ele>
        <time>2014-10-25T10:27:18Z</time>
      </trkpt>
      <trkpt lat="44.96194" lon="5.40133">
        <ele>849.46</ele>
        <time>2014-10-25T10:27:41Z</time>
      </trkpt>
      <trkpt lat="44.96196" lon="5.40133">
        <ele>849.46</ele>
        <time>2014-10-25T10:28:06Z</time>
      </trkpt>
      <trkpt lat="44.96194" lon="5.40134">
        <ele>849.46</ele>
        <time>2014-10-25T10:28:32Z</time>
      </trkpt>
      <trkpt lat="44.96195" lon="5.40135">
        <ele>849.46</ele>
        <time>2014-10-25T10:29:07Z</time>
      </trkpt>
      <trkpt lat="44.96196" lon="5.40136">
        <ele>849.46</ele>
        <time>2014-10-25T10:29:31Z</time>
      </trkpt>
      <trkpt lat="44.96195" lon="5.40135">
        <ele>848.98</ele>
        <time>2014-10-25T10:29:57Z</time>
      </trkpt>
      <trkpt lat="44.96175" lon="5.40134">
        <ele>848.98</ele>
        <time>2014-10-25T10:30:09Z</time>
      </trkpt>
      <trkpt lat="44.96134" lon="5.40132">
        <ele>849.46</ele>
        <time>2014-10-25T10:30:26Z</time>
      </trkpt>
      <trkpt lat="44.96094" lon="5.40136">
        <ele>850.9</ele>
        <time>2014-10-25T10:30:41Z</time>
      </trkpt>
      <trkpt lat="44.96058" lon="5.40142">
        <ele>850.9</ele>
        <time>2014-10-25T10:30:54Z</time>
      </trkpt>
      <trkpt lat="44.96004" lon="5.4014">
        <ele>851.87</ele>
        <time>2014-10-25T10:31:12Z</time>
      </trkpt>
      <trkpt lat="44.9596" lon="5.40137">
        <ele>853.31</ele>
        <time>2014-10-25T10:31:28Z</time>
      </trkpt>
      <trkpt lat="44.95903" lon="5.40139">
        <ele>854.75</ele>
        <time>2014-10-25T10:31:48Z</time>
      </trkpt>
      <trkpt lat="44.95856" lon="5.40141">
        <ele>856.67</ele>
        <time>2014-10-25T10:32:06Z</time>
      </trkpt>
      <trkpt lat="44.95818" lon="5.40141">
        <ele>858.11</ele>
        <time>2014-10-25T10:32:19Z</time>
      </trkpt>
      <trkpt lat="44.95766" lon="5.40143">
        <ele>858.59</ele>
        <time>2014-10-25T10:32:33Z</time>
      </trkpt>
      <trkpt lat="44.95721" lon="5.40139">
        <ele>859.08</ele>
        <time>2014-10-25T10:32:47Z</time>
      </trkpt>
      <trkpt lat="44.95674" lon="5.40137">
        <ele>861</ele>
        <time>2014-10-25T10:33:03Z</time>
      </trkpt>
      <trkpt lat="44.95638" lon="5.40149">
        <ele>862.44</ele>
        <time>2014-10-25T10:33:19Z</time>
      </trkpt>
      <trkpt lat="44.95604" lon="5.40175">
        <ele>863.88</ele>
        <time>2014-10-25T10:33:33Z</time>
      </trkpt>
      <trkpt lat="44.95575" lon="5.40217">
        <ele>864.84</ele>
        <time>2014-10-25T10:33:48Z</time>
      </trkpt>
      <trkpt lat="44.95543" lon="5.40274">
        <ele>866.29</ele>
        <time>2014-10-25T10:34:05Z</time>
      </trkpt>
      <trkpt lat="44.95508" lon="5.40319">
        <ele>867.73</ele>
        <time>2014-10-25T10:34:20Z</time>
      </trkpt>
      <trkpt lat="44.95475" lon="5.4037">
        <ele>870.13</ele>
        <time>2014-10-25T10:34:36Z</time>
      </trkpt>
      <trkpt lat="44.95455" lon="5.40405">
        <ele>873.01</ele>
        <time>2014-10-25T10:34:47Z</time>
      </trkpt>
      <trkpt lat="44.95425" lon="5.40392">
        <ele>874.46</ele>
        <time>2014-10-25T10:34:59Z</time>
      </trkpt>
      <trkpt lat="44.95396" lon="5.40351">
        <ele>876.86</ele>
        <time>2014-10-25T10:35:14Z</time>
      </trkpt>
      <trkpt lat="44.95363" lon="5.40292">
        <ele>879.26</ele>
        <time>2014-10-25T10:35:31Z</time>
      </trkpt>
      <trkpt lat="44.95326" lon="5.40252">
        <ele>880.71</ele>
        <time>2014-10-25T10:35:46Z</time>
      </trkpt>
      <trkpt lat="44.95289" lon="5.40207">
        <ele>882.63</ele>
        <time>2014-10-25T10:36:00Z</time>
      </trkpt>
      <trkpt lat="44.95245" lon="5.4015">
        <ele>884.07</ele>
        <time>2014-10-25T10:36:16Z</time>
      </trkpt>
      <trkpt lat="44.95194" lon="5.40127">
        <ele>885.51</ele>
        <time>2014-10-25T10:36:31Z</time>
      </trkpt>
      <trkpt lat="44.95151" lon="5.40075">
        <ele>887.91</ele>
        <time>2014-10-25T10:36:47Z</time>
      </trkpt>
      <trkpt lat="44.95114" lon="5.40027">
        <ele>890.32</ele>
        <time>2014-10-25T10:37:05Z</time>
      </trkpt>
      <trkpt lat="44.95064" lon="5.40007">
        <ele>892.72</ele>
        <time>2014-10-25T10:37:22Z</time>
      </trkpt>
      <trkpt lat="44.95049" lon="5.40001">
        <ele>893.68</ele>
        <time>2014-10-25T10:37:27Z</time>
      </trkpt>
      <trkpt lat="44.95018" lon="5.3996">
        <ele>896.09</ele>
        <time>2014-10-25T10:37:41Z</time>
      </trkpt>
      <trkpt lat="44.95006" lon="5.39911">
        <ele>898.49</ele>
        <time>2014-10-25T10:37:55Z</time>
      </trkpt>
      <trkpt lat="44.95026" lon="5.39882">
        <ele>901.37</ele>
        <time>2014-10-25T10:38:07Z</time>
      </trkpt>
      <trkpt lat="44.95024" lon="5.39879">
        <ele>901.37</ele>
        <time>2014-10-25T10:38:13Z</time>
      </trkpt>
      <trkpt lat="44.95023" lon="5.39879">
        <ele>901.37</ele>
        <time>2014-10-25T10:38:14Z</time>
      </trkpt>
      <trkpt lat="44.95021" lon="5.39881">
        <ele>901.37</ele>
        <time>2014-10-25T10:38:15Z</time>
      </trkpt>
      <trkpt lat="44.95019" lon="5.39883">
        <ele>901.37</ele>
        <time>2014-10-25T10:38:16Z</time>
      </trkpt>
      <trkpt lat="44.95017" lon="5.39885">
        <ele>901.37</ele>
        <time>2014-10-25T10:38:17Z</time>
      </trkpt>
      <trkpt lat="44.95" lon="5.39908">
        <ele>899.45</ele>
        <time>2014-10-25T10:38:25Z</time>
      </trkpt>
      <trkpt lat="44.94998" lon="5.39908">
        <ele>899.45</ele>
        <time>2014-10-25T10:38:34Z</time>
      </trkpt>
      <trkpt lat="44.94992" lon="5.39903">
        <ele>900.89</ele>
        <time>2014-10-25T10:38:39Z</time>
      </trkpt>
      <trkpt lat="44.94984" lon="5.39899">
        <ele>903.3</ele>
        <time>2014-10-25T10:38:49Z</time>
      </trkpt>
      <trkpt lat="44.94981" lon="5.39897">
        <ele>904.26</ele>
        <time>2014-10-25T10:39:05Z</time>
      </trkpt>
      <trkpt lat="44.94979" lon="5.39894">
        <ele>904.26</ele>
        <time>2014-10-25T10:39:28Z</time>
      </trkpt>
      <trkpt lat="44.94986" lon="5.39885">
        <ele>906.66</ele>
        <time>2014-10-25T10:39:44Z</time>
      </trkpt>
      <trkpt lat="44.94989" lon="5.39882">
        <ele>907.62</ele>
        <time>2014-10-25T10:39:48Z</time>
      </trkpt>
      <trkpt lat="44.94999" lon="5.39872">
        <ele>909.54</ele>
        <time>2014-10-25T10:40:05Z</time>
      </trkpt>
      <trkpt lat="44.94999" lon="5.39867">
        <ele>909.54</ele>
        <time>2014-10-25T10:40:20Z</time>
      </trkpt>
      <trkpt lat="44.94983" lon="5.39868">
        <ele>910.03</ele>
        <time>2014-10-25T10:40:34Z</time>
      </trkpt>
      <trkpt lat="44.94967" lon="5.39873">
        <ele>910.03</ele>
        <time>2014-10-25T10:40:47Z</time>
      </trkpt>
      <trkpt lat="44.94966" lon="5.39871">
        <ele>910.51</ele>
        <time>2014-10-25T10:41:15Z</time>
      </trkpt>
      <trkpt lat="44.94968" lon="5.3987">
        <ele>910.51</ele>
        <time>2014-10-25T10:41:18Z</time>
      </trkpt>
      <trkpt lat="44.94991" lon="5.39867">
        <ele>910.99</ele>
        <time>2014-10-25T10:41:31Z</time>
      </trkpt>
      <trkpt lat="44.94999" lon="5.39867">
        <ele>910.99</ele>
        <time>2014-10-25T10:41:44Z</time>
      </trkpt>
      <trkpt lat="44.95" lon="5.39865">
        <ele>910.99</ele>
        <time>2014-10-25T10:42:04Z</time>
      </trkpt>
      <trkpt lat="44.95" lon="5.39866">
        <ele>909.54</ele>
        <time>2014-10-25T10:42:29Z</time>
      </trkpt>
      <trkpt lat="44.95001" lon="5.39866">
        <ele>910.99</ele>
        <time>2014-10-25T10:42:50Z</time>
      </trkpt>
      <trkpt lat="44.95001" lon="5.39865">
        <ele>910.99</ele>
        <time>2014-10-25T10:42:51Z</time>
      </trkpt>
      <trkpt lat="44.95014" lon="5.39858">
        <ele>910.03</ele>
        <time>2014-10-25T10:43:04Z</time>
      </trkpt>
      <trkpt lat="44.95031" lon="5.39824">
        <ele>909.54</ele>
        <time>2014-10-25T10:43:16Z</time>
      </trkpt>
      <trkpt lat="44.95029" lon="5.39801">
        <ele>909.54</ele>
        <time>2014-10-25T10:43:23Z</time>
      </trkpt>
      <trkpt lat="44.95026" lon="5.39793">
        <ele>909.54</ele>
        <time>2014-10-25T10:43:27Z</time>
      </trkpt>
      <trkpt lat="44.95025" lon="5.39793">
        <ele>909.54</ele>
        <time>2014-10-25T10:43:28Z</time>
      </trkpt>
      <trkpt lat="44.95023" lon="5.39793">
        <ele>909.54</ele>
        <time>2014-10-25T10:43:29Z</time>
      </trkpt>
      <trkpt lat="44.95022" lon="5.39794">
        <ele>910.51</ele>
        <time>2014-10-25T10:43:30Z</time>
      </trkpt>
      <trkpt lat="44.95021" lon="5.39794">
        <ele>910.51</ele>
        <time>2014-10-25T10:43:31Z</time>
      </trkpt>
      <trkpt lat="44.95015" lon="5.39796">
        <ele>910.99</ele>
        <time>2014-10-25T10:43:37Z</time>
      </trkpt>
      <trkpt lat="44.95014" lon="5.39797">
        <ele>910.99</ele>
        <time>2014-10-25T10:43:38Z</time>
      </trkpt>
      <trkpt lat="44.95013" lon="5.39798">
        <ele>910.99</ele>
        <time>2014-10-25T10:43:39Z</time>
      </trkpt>
      <trkpt lat="44.95012" lon="5.39798">
        <ele>910.99</ele>
        <time>2014-10-25T10:43:40Z</time>
      </trkpt>
      <trkpt lat="44.9501" lon="5.39797">
        <ele>910.99</ele>
        <time>2014-10-25T10:43:41Z</time>
      </trkpt>
      <trkpt lat="44.95009" lon="5.39797">
        <ele>911.47</ele>
        <time>2014-10-25T10:43:42Z</time>
      </trkpt>
      <trkpt lat="44.95008" lon="5.39797">
        <ele>911.47</ele>
        <time>2014-10-25T10:43:43Z</time>
      </trkpt>
      <trkpt lat="44.95006" lon="5.39797">
        <ele>911.47</ele>
        <time>2014-10-25T10:43:44Z</time>
      </trkpt>
      <trkpt lat="44.95005" lon="5.39798">
        <ele>911.47</ele>
        <time>2014-10-25T10:43:45Z</time>
      </trkpt>
      <trkpt lat="44.95003" lon="5.39799">
        <ele>911.95</ele>
        <time>2014-10-25T10:43:46Z</time>
      </trkpt>
      <trkpt lat="44.95001" lon="5.39799">
        <ele>911.95</ele>
        <time>2014-10-25T10:43:47Z</time>
      </trkpt>
      <trkpt lat="44.94999" lon="5.398">
        <ele>912.43</ele>
        <time>2014-10-25T10:43:48Z</time>
      </trkpt>
      <trkpt lat="44.94966" lon="5.39804">
        <ele>914.83</ele>
        <time>2014-10-25T10:44:03Z</time>
      </trkpt>
      <trkpt lat="44.94938" lon="5.39779">
        <ele>917.24</ele>
        <time>2014-10-25T10:44:18Z</time>
      </trkpt>
      <trkpt lat="44.94913" lon="5.39752">
        <ele>919.64</ele>
        <time>2014-10-25T10:44:34Z</time>
      </trkpt>
      <trkpt lat="44.94904" lon="5.39713">
        <ele>921.56</ele>
        <time>2014-10-25T10:44:48Z</time>
      </trkpt>
      <trkpt lat="44.94919" lon="5.39671">
        <ele>923.96</ele>
        <time>2014-10-25T10:45:02Z</time>
      </trkpt>
      <trkpt lat="44.9493" lon="5.39629">
        <ele>926.37</ele>
        <time>2014-10-25T10:45:15Z</time>
      </trkpt>
      <trkpt lat="44.94907" lon="5.39615">
        <ele>927.81</ele>
        <time>2014-10-25T10:45:24Z</time>
      </trkpt>
      <trkpt lat="44.9487" lon="5.39609">
        <ele>930.69</ele>
        <time>2014-10-25T10:45:38Z</time>
      </trkpt>
      <trkpt lat="44.9482" lon="5.39574">
        <ele>933.58</ele>
        <time>2014-10-25T10:45:57Z</time>
      </trkpt>
      <trkpt lat="44.94767" lon="5.39555">
        <ele>935.98</ele>
        <time>2014-10-25T10:46:15Z</time>
      </trkpt>
      <trkpt lat="44.94728" lon="5.39545">
        <ele>938.86</ele>
        <time>2014-10-25T10:46:29Z</time>
      </trkpt>
      <trkpt lat="44.9472" lon="5.39541">
        <ele>939.83</ele>
        <time>2014-10-25T10:46:32Z</time>
      </trkpt>
      <trkpt lat="44.94718" lon="5.39538">
        <ele>939.83</ele>
        <time>2014-10-25T10:46:33Z</time>
      </trkpt>
      <trkpt lat="44.94711" lon="5.39525">
        <ele>940.79</ele>
        <time>2014-10-25T10:46:39Z</time>
      </trkpt>
      <trkpt lat="44.9471" lon="5.39524">
        <ele>940.79</ele>
        <time>2014-10-25T10:46:40Z</time>
      </trkpt>
      <trkpt lat="44.94708" lon="5.39524">
        <ele>940.79</ele>
        <time>2014-10-25T10:46:41Z</time>
      </trkpt>
      <trkpt lat="44.94706" lon="5.39524">
        <ele>940.79</ele>
        <time>2014-10-25T10:46:42Z</time>
      </trkpt>
      <trkpt lat="44.94703" lon="5.39526">
        <ele>940.79</ele>
        <time>2014-10-25T10:46:43Z</time>
      </trkpt>
      <trkpt lat="44.947" lon="5.39528">
        <ele>940.79</ele>
        <time>2014-10-25T10:46:44Z</time>
      </trkpt>
      <trkpt lat="44.94698" lon="5.3953">
        <ele>940.79</ele>
        <time>2014-10-25T10:46:45Z</time>
      </trkpt>
      <trkpt lat="44.94695" lon="5.39533">
        <ele>940.79</ele>
        <time>2014-10-25T10:46:46Z</time>
      </trkpt>
      <trkpt lat="44.94674" lon="5.39548">
        <ele>941.27</ele>
        <time>2014-10-25T10:46:57Z</time>
      </trkpt>
      <trkpt lat="44.94671" lon="5.39545">
        <ele>941.27</ele>
        <time>2014-10-25T10:47:12Z</time>
      </trkpt>
      <trkpt lat="44.9467" lon="5.39546">
        <ele>941.75</ele>
        <time>2014-10-25T10:47:36Z</time>
      </trkpt>
      <trkpt lat="44.94665" lon="5.39538">
        <ele>941.75</ele>
        <time>2014-10-25T10:47:51Z</time>
      </trkpt>
      <trkpt lat="44.94661" lon="5.39537">
        <ele>941.75</ele>
        <time>2014-10-25T10:48:05Z</time>
      </trkpt>
      <trkpt lat="44.94668" lon="5.39543">
        <ele>941.75</ele>
        <time>2014-10-25T10:48:18Z</time>
      </trkpt>
      <trkpt lat="44.94672" lon="5.39542">
        <ele>941.75</ele>
        <time>2014-10-25T10:48:31Z</time>
      </trkpt>
      <trkpt lat="44.94672" lon="5.39543">
        <ele>941.75</ele>
        <time>2014-10-25T10:48:32Z</time>
      </trkpt>
      <trkpt lat="44.94672" lon="5.39545">
        <ele>941.75</ele>
        <time>2014-10-25T10:48:33Z</time>
      </trkpt>
      <trkpt lat="44.9467" lon="5.39546">
        <ele>941.75</ele>
        <time>2014-10-25T10:48:35Z</time>
      </trkpt>
      <trkpt lat="44.94669" lon="5.39546">
        <ele>941.75</ele>
        <time>2014-10-25T10:48:36Z</time>
      </trkpt>
      <trkpt lat="44.94668" lon="5.39544">
        <ele>941.75</ele>
        <time>2014-10-25T10:48:37Z</time>
      </trkpt>
      <trkpt lat="44.94667" lon="5.39542">
        <ele>941.75</ele>
        <time>2014-10-25T10:48:38Z</time>
      </trkpt>
      <trkpt lat="44.94665" lon="5.39541">
        <ele>941.75</ele>
        <time>2014-10-25T10:48:39Z</time>
      </trkpt>
      <trkpt lat="44.94662" lon="5.39539">
        <ele>941.75</ele>
        <time>2014-10-25T10:48:40Z</time>
      </trkpt>
      <trkpt lat="44.94651" lon="5.3953">
        <ele>941.27</ele>
        <time>2014-10-25T10:48:44Z</time>
      </trkpt>
      <trkpt lat="44.94648" lon="5.39529">
        <ele>941.27</ele>
        <time>2014-10-25T10:48:45Z</time>
      </trkpt>
      <trkpt lat="44.94637" lon="5.39519">
        <ele>939.83</ele>
        <time>2014-10-25T10:48:49Z</time>
      </trkpt>
      <trkpt lat="44.94635" lon="5.39515">
        <ele>939.83</ele>
        <time>2014-10-25T10:48:50Z</time>
      </trkpt>
      <trkpt lat="44.94632" lon="5.39513">
        <ele>939.83</ele>
        <time>2014-10-25T10:48:51Z</time>
      </trkpt>
      <trkpt lat="44.94628" lon="5.39511">
        <ele>939.83</ele>
        <time>2014-10-25T10:48:52Z</time>
      </trkpt>
      <trkpt lat="44.94625" lon="5.39508">
        <ele>939.83</ele>
        <time>2014-10-25T10:48:53Z</time>
      </trkpt>
      <trkpt lat="44.94623" lon="5.39505">
        <ele>939.83</ele>
        <time>2014-10-25T10:48:54Z</time>
      </trkpt>
      <trkpt lat="44.94621" lon="5.39502">
        <ele>939.83</ele>
        <time>2014-10-25T10:48:55Z</time>
      </trkpt>
      <trkpt lat="44.94619" lon="5.39499">
        <ele>939.83</ele>
        <time>2014-10-25T10:48:56Z</time>
      </trkpt>
      <trkpt lat="44.94617" lon="5.39496">
        <ele>939.83</ele>
        <time>2014-10-25T10:48:57Z</time>
      </trkpt>
      <trkpt lat="44.94615" lon="5.39493">
        <ele>939.83</ele>
        <time>2014-10-25T10:48:58Z</time>
      </trkpt>
      <trkpt lat="44.9461" lon="5.39484">
        <ele>935.98</ele>
        <time>2014-10-25T10:49:01Z</time>
      </trkpt>
      <trkpt lat="44.94609" lon="5.39482">
        <ele>943.19</ele>
        <time>2014-10-25T10:49:02Z</time>
      </trkpt>
      <trkpt lat="44.94608" lon="5.39479">
        <ele>939.35</ele>
        <time>2014-10-25T10:49:03Z</time>
      </trkpt>
      <trkpt lat="44.94603" lon="5.39469">
        <ele>940.79</ele>
        <time>2014-10-25T10:49:13Z</time>
      </trkpt>
      <trkpt lat="44.94603" lon="5.39469">
        <ele>939.35</ele>
        <time>2014-10-25T10:49:15Z</time>
      </trkpt>
      <trkpt lat="44.94594" lon="5.39458">
        <ele>940.79</ele>
        <time>2014-10-25T10:49:26Z</time>
      </trkpt>
      <trkpt lat="44.94593" lon="5.39457">
        <ele>940.79</ele>
        <time>2014-10-25T10:49:27Z</time>
      </trkpt>
      <trkpt lat="44.94592" lon="5.39456">
        <ele>941.27</ele>
        <time>2014-10-25T10:49:28Z</time>
      </trkpt>
      <trkpt lat="44.94581" lon="5.39442">
        <ele>942.71</ele>
        <time>2014-10-25T10:49:36Z</time>
      </trkpt>
      <trkpt lat="44.94579" lon="5.39442">
        <ele>942.71</ele>
        <time>2014-10-25T10:49:37Z</time>
      </trkpt>
      <trkpt lat="44.94578" lon="5.39442">
        <ele>942.71</ele>
        <time>2014-10-25T10:49:38Z</time>
      </trkpt>
      <trkpt lat="44.94576" lon="5.39441">
        <ele>942.71</ele>
        <time>2014-10-25T10:49:39Z</time>
      </trkpt>
      <trkpt lat="44.94574" lon="5.3944">
        <ele>942.71</ele>
        <time>2014-10-25T10:49:40Z</time>
      </trkpt>
      <trkpt lat="44.94572" lon="5.39439">
        <ele>942.71</ele>
        <time>2014-10-25T10:49:41Z</time>
      </trkpt>
      <trkpt lat="44.94566" lon="5.39435">
        <ele>943.19</ele>
        <time>2014-10-25T10:49:45Z</time>
      </trkpt>
      <trkpt lat="44.94546" lon="5.39418">
        <ele>945.59</ele>
        <time>2014-10-25T10:49:57Z</time>
      </trkpt>
      <trkpt lat="44.94522" lon="5.39396">
        <ele>946.07</ele>
        <time>2014-10-25T10:50:09Z</time>
      </trkpt>
      <trkpt lat="44.94504" lon="5.39378">
        <ele>946.07</ele>
        <time>2014-10-25T10:50:22Z</time>
      </trkpt>
      <trkpt lat="44.94498" lon="5.39372">
        <ele>946.07</ele>
        <time>2014-10-25T10:50:25Z</time>
      </trkpt>
      <trkpt lat="44.94496" lon="5.3937">
        <ele>946.07</ele>
        <time>2014-10-25T10:50:26Z</time>
      </trkpt>
      <trkpt lat="44.94494" lon="5.39369">
        <ele>946.07</ele>
        <time>2014-10-25T10:50:27Z</time>
      </trkpt>
      <trkpt lat="44.94492" lon="5.39368">
        <ele>946.07</ele>
        <time>2014-10-25T10:50:28Z</time>
      </trkpt>
      <trkpt lat="44.9449" lon="5.39367">
        <ele>946.07</ele>
        <time>2014-10-25T10:50:29Z</time>
      </trkpt>
      <trkpt lat="44.94473" lon="5.39352">
        <ele>946.07</ele>
        <time>2014-10-25T10:50:43Z</time>
      </trkpt>
      <trkpt lat="44.94471" lon="5.39353">
        <ele>946.07</ele>
        <time>2014-10-25T10:51:13Z</time>
      </trkpt>
      <trkpt lat="44.94469" lon="5.39351">
        <ele>946.07</ele>
        <time>2014-10-25T10:51:50Z</time>
      </trkpt>
      <trkpt lat="44.94456" lon="5.3934">
        <ele>947.04</ele>
        <time>2014-10-25T10:52:05Z</time>
      </trkpt>
      <trkpt lat="44.94434" lon="5.3932">
        <ele>947.52</ele>
        <time>2014-10-25T10:52:16Z</time>
      </trkpt>
      <trkpt lat="44.94408" lon="5.39313">
        <ele>949.44</ele>
        <time>2014-10-25T10:52:28Z</time>
      </trkpt>
      <trkpt lat="44.9438" lon="5.39309">
        <ele>951.36</ele>
        <time>2014-10-25T10:52:39Z</time>
      </trkpt>
      <trkpt lat="44.94355" lon="5.39312">
        <ele>953.77</ele>
        <time>2014-10-25T10:52:50Z</time>
      </trkpt>
      <trkpt lat="44.94328" lon="5.39324">
        <ele>956.17</ele>
        <time>2014-10-25T10:53:03Z</time>
      </trkpt>
      <trkpt lat="44.94317" lon="5.39329">
        <ele>957.61</ele>
        <time>2014-10-25T10:53:10Z</time>
      </trkpt>
      <trkpt lat="44.94316" lon="5.39328">
        <ele>957.61</ele>
        <time>2014-10-25T10:53:11Z</time>
      </trkpt>
      <trkpt lat="44.94314" lon="5.39328">
        <ele>957.61</ele>
        <time>2014-10-25T10:53:12Z</time>
      </trkpt>
      <trkpt lat="44.94312" lon="5.39328">
        <ele>958.09</ele>
        <time>2014-10-25T10:53:13Z</time>
      </trkpt>
      <trkpt lat="44.9431" lon="5.39328">
        <ele>958.09</ele>
        <time>2014-10-25T10:53:14Z</time>
      </trkpt>
      <trkpt lat="44.94286" lon="5.39338">
        <ele>960.01</ele>
        <time>2014-10-25T10:53:26Z</time>
      </trkpt>
      <trkpt lat="44.94284" lon="5.39341">
        <ele>960.49</ele>
        <time>2014-10-25T10:53:28Z</time>
      </trkpt>
      <trkpt lat="44.94264" lon="5.3936">
        <ele>963.38</ele>
        <time>2014-10-25T10:53:41Z</time>
      </trkpt>
      <trkpt lat="44.94256" lon="5.39371">
        <ele>964.34</ele>
        <time>2014-10-25T10:53:47Z</time>
      </trkpt>
      <trkpt lat="44.94255" lon="5.39373">
        <ele>964.34</ele>
        <time>2014-10-25T10:53:48Z</time>
      </trkpt>
      <trkpt lat="44.94254" lon="5.39376">
        <ele>965.3</ele>
        <time>2014-10-25T10:54:00Z</time>
      </trkpt>
      <trkpt lat="44.94256" lon="5.39376">
        <ele>965.3</ele>
        <time>2014-10-25T10:54:02Z</time>
      </trkpt>
      <trkpt lat="44.94259" lon="5.39372">
        <ele>965.3</ele>
        <time>2014-10-25T10:54:14Z</time>
      </trkpt>
      <trkpt lat="44.94255" lon="5.39371">
        <ele>965.3</ele>
        <time>2014-10-25T10:54:36Z</time>
      </trkpt>
      <trkpt lat="44.94253" lon="5.39372">
        <ele>965.3</ele>
        <time>2014-10-25T10:54:38Z</time>
      </trkpt>
      <trkpt lat="44.94252" lon="5.39374">
        <ele>965.3</ele>
        <time>2014-10-25T10:54:39Z</time>
      </trkpt>
      <trkpt lat="44.94251" lon="5.39375">
        <ele>965.3</ele>
        <time>2014-10-25T10:54:40Z</time>
      </trkpt>
      <trkpt lat="44.94251" lon="5.39377">
        <ele>965.3</ele>
        <time>2014-10-25T10:54:41Z</time>
      </trkpt>
      <trkpt lat="44.9425" lon="5.39378">
        <ele>965.3</ele>
        <time>2014-10-25T10:54:42Z</time>
      </trkpt>
      <trkpt lat="44.94248" lon="5.39379">
        <ele>965.3</ele>
        <time>2014-10-25T10:54:43Z</time>
      </trkpt>
      <trkpt lat="44.94247" lon="5.3938">
        <ele>965.78</ele>
        <time>2014-10-25T10:54:44Z</time>
      </trkpt>
      <trkpt lat="44.94245" lon="5.39381">
        <ele>965.78</ele>
        <time>2014-10-25T10:54:45Z</time>
      </trkpt>
      <trkpt lat="44.94244" lon="5.39383">
        <ele>965.78</ele>
        <time>2014-10-25T10:54:46Z</time>
      </trkpt>
      <trkpt lat="44.94242" lon="5.39385">
        <ele>966.26</ele>
        <time>2014-10-25T10:54:47Z</time>
      </trkpt>
      <trkpt lat="44.9424" lon="5.39386">
        <ele>966.26</ele>
        <time>2014-10-25T10:54:48Z</time>
      </trkpt>
      <trkpt lat="44.94239" lon="5.39387">
        <ele>966.26</ele>
        <time>2014-10-25T10:54:49Z</time>
      </trkpt>
      <trkpt lat="44.94237" lon="5.39388">
        <ele>966.74</ele>
        <time>2014-10-25T10:54:50Z</time>
      </trkpt>
      <trkpt lat="44.94236" lon="5.3939">
        <ele>966.74</ele>
        <time>2014-10-25T10:54:51Z</time>
      </trkpt>
      <trkpt lat="44.94235" lon="5.39391">
        <ele>966.74</ele>
        <time>2014-10-25T10:54:52Z</time>
      </trkpt>
      <trkpt lat="44.94233" lon="5.39392">
        <ele>966.74</ele>
        <time>2014-10-25T10:54:53Z</time>
      </trkpt>
      <trkpt lat="44.94219" lon="5.39403">
        <ele>969.15</ele>
        <time>2014-10-25T10:55:03Z</time>
      </trkpt>
      <trkpt lat="44.94216" lon="5.39407">
        <ele>969.63</ele>
        <time>2014-10-25T10:55:07Z</time>
      </trkpt>
      <trkpt lat="44.94214" lon="5.39407">
        <ele>969.63</ele>
        <time>2014-10-25T10:55:08Z</time>
      </trkpt>
      <trkpt lat="44.94202" lon="5.39402">
        <ele>971.07</ele>
        <time>2014-10-25T10:55:22Z</time>
      </trkpt>
      <trkpt lat="44.94197" lon="5.394">
        <ele>971.55</ele>
        <time>2014-10-25T10:55:40Z</time>
      </trkpt>
      <trkpt lat="44.94195" lon="5.39403">
        <ele>972.03</ele>
        <time>2014-10-25T10:55:43Z</time>
      </trkpt>
      <trkpt lat="44.94195" lon="5.39405">
        <ele>972.03</ele>
        <time>2014-10-25T10:55:44Z</time>
      </trkpt>
      <trkpt lat="44.94194" lon="5.39406">
        <ele>972.51</ele>
        <time>2014-10-25T10:55:45Z</time>
      </trkpt>
      <trkpt lat="44.94185" lon="5.39418">
        <ele>976.36</ele>
        <time>2014-10-25T10:55:51Z</time>
      </trkpt>
      <trkpt lat="44.94184" lon="5.39421">
        <ele>976.84</ele>
        <time>2014-10-25T10:55:53Z</time>
      </trkpt>
      <trkpt lat="44.94183" lon="5.39423">
        <ele>976.84</ele>
        <time>2014-10-25T10:55:54Z</time>
      </trkpt>
      <trkpt lat="44.94183" lon="5.39424">
        <ele>977.32</ele>
        <time>2014-10-25T10:55:55Z</time>
      </trkpt>
      <trkpt lat="44.94183" lon="5.39429">
        <ele>977.8</ele>
        <time>2014-10-25T10:55:58Z</time>
      </trkpt>
      <trkpt lat="44.94183" lon="5.39431">
        <ele>977.8</ele>
        <time>2014-10-25T10:55:59Z</time>
      </trkpt>
      <trkpt lat="44.94183" lon="5.39433">
        <ele>978.28</ele>
        <time>2014-10-25T10:56:00Z</time>
      </trkpt>
      <trkpt lat="44.94184" lon="5.39436">
        <ele>978.28</ele>
        <time>2014-10-25T10:56:01Z</time>
      </trkpt>
      <trkpt lat="44.94184" lon="5.39438">
        <ele>978.76</ele>
        <time>2014-10-25T10:56:02Z</time>
      </trkpt>
      <trkpt lat="44.94185" lon="5.39441">
        <ele>978.76</ele>
        <time>2014-10-25T10:56:03Z</time>
      </trkpt>
      <trkpt lat="44.94186" lon="5.39444">
        <ele>979.72</ele>
        <time>2014-10-25T10:56:04Z</time>
      </trkpt>
      <trkpt lat="44.94187" lon="5.39451">
        <ele>981.16</ele>
        <time>2014-10-25T10:56:08Z</time>
      </trkpt>
      <trkpt lat="44.94186" lon="5.39453">
        <ele>981.64</ele>
        <time>2014-10-25T10:56:09Z</time>
      </trkpt>
      <trkpt lat="44.94185" lon="5.39455">
        <ele>981.64</ele>
        <time>2014-10-25T10:56:10Z</time>
      </trkpt>
      <trkpt lat="44.94185" lon="5.39457">
        <ele>982.12</ele>
        <time>2014-10-25T10:56:11Z</time>
      </trkpt>
      <trkpt lat="44.94184" lon="5.39458">
        <ele>982.12</ele>
        <time>2014-10-25T10:56:12Z</time>
      </trkpt>
      <trkpt lat="44.94181" lon="5.39458">
        <ele>983.09</ele>
        <time>2014-10-25T10:56:15Z</time>
      </trkpt>
      <trkpt lat="44.94181" lon="5.39456">
        <ele>983.09</ele>
        <time>2014-10-25T10:56:16Z</time>
      </trkpt>
      <trkpt lat="44.9418" lon="5.39453">
        <ele>983.09</ele>
        <time>2014-10-25T10:56:17Z</time>
      </trkpt>
      <trkpt lat="44.94179" lon="5.39449">
        <ele>983.09</ele>
        <time>2014-10-25T10:56:18Z</time>
      </trkpt>
      <trkpt lat="44.94178" lon="5.39445">
        <ele>981.16</ele>
        <time>2014-10-25T10:56:19Z</time>
      </trkpt>
      <trkpt lat="44.94176" lon="5.3944">
        <ele>981.16</ele>
        <time>2014-10-25T10:56:20Z</time>
      </trkpt>
      <trkpt lat="44.94175" lon="5.39436">
        <ele>980.2</ele>
        <time>2014-10-25T10:56:21Z</time>
      </trkpt>
      <trkpt lat="44.94174" lon="5.3943">
        <ele>979.72</ele>
        <time>2014-10-25T10:56:22Z</time>
      </trkpt>
      <trkpt lat="44.94173" lon="5.39424">
        <ele>979.72</ele>
        <time>2014-10-25T10:56:23Z</time>
      </trkpt>
      <trkpt lat="44.94173" lon="5.39418">
        <ele>979.24</ele>
        <time>2014-10-25T10:56:24Z</time>
      </trkpt>
      <trkpt lat="44.94173" lon="5.39413">
        <ele>979.24</ele>
        <time>2014-10-25T10:56:25Z</time>
      </trkpt>
      <trkpt lat="44.94174" lon="5.39407">
        <ele>978.28</ele>
        <time>2014-10-25T10:56:26Z</time>
      </trkpt>
      <trkpt lat="44.94175" lon="5.39401">
        <ele>978.28</ele>
        <time>2014-10-25T10:56:27Z</time>
      </trkpt>
      <trkpt lat="44.94177" lon="5.39396">
        <ele>977.32</ele>
        <time>2014-10-25T10:56:28Z</time>
      </trkpt>
      <trkpt lat="44.94177" lon="5.3939">
        <ele>977.32</ele>
        <time>2014-10-25T10:56:29Z</time>
      </trkpt>
      <trkpt lat="44.94178" lon="5.39383">
        <ele>976.36</ele>
        <time>2014-10-25T10:56:30Z</time>
      </trkpt>
      <trkpt lat="44.94179" lon="5.39379">
        <ele>976.36</ele>
        <time>2014-10-25T10:56:31Z</time>
      </trkpt>
      <trkpt lat="44.9418" lon="5.3937">
        <ele>975.39</ele>
        <time>2014-10-25T10:56:35Z</time>
      </trkpt>
      <trkpt lat="44.94181" lon="5.39368">
        <ele>975.39</ele>
        <time>2014-10-25T10:56:36Z</time>
      </trkpt>
      <trkpt lat="44.94183" lon="5.39364">
        <ele>975.39</ele>
        <time>2014-10-25T10:56:46Z</time>
      </trkpt>
      <trkpt lat="44.94184" lon="5.39361">
        <ele>974.91</ele>
        <time>2014-10-25T10:57:09Z</time>
      </trkpt>
      <trkpt lat="44.94183" lon="5.39364">
        <ele>974.91</ele>
        <time>2014-10-25T10:57:31Z</time>
      </trkpt>
      <trkpt lat="44.94182" lon="5.39363">
        <ele>975.39</ele>
        <time>2014-10-25T10:57:54Z</time>
      </trkpt>
      <trkpt lat="44.94181" lon="5.39363">
        <ele>975.39</ele>
        <time>2014-10-25T10:58:08Z</time>
      </trkpt>
      <trkpt lat="44.94182" lon="5.39363">
        <ele>975.39</ele>
        <time>2014-10-25T10:58:13Z</time>
      </trkpt>
      <trkpt lat="44.94182" lon="5.39365">
        <ele>975.39</ele>
        <time>2014-10-25T10:58:14Z</time>
      </trkpt>
      <trkpt lat="44.94182" lon="5.39369">
        <ele>975.39</ele>
        <time>2014-10-25T10:58:16Z</time>
      </trkpt>
      <trkpt lat="44.94185" lon="5.39382">
        <ele>973.95</ele>
        <time>2014-10-25T10:58:21Z</time>
      </trkpt>
      <trkpt lat="44.94186" lon="5.39384">
        <ele>972.99</ele>
        <time>2014-10-25T10:58:22Z</time>
      </trkpt>
      <trkpt lat="44.94187" lon="5.39386">
        <ele>972.99</ele>
        <time>2014-10-25T10:58:23Z</time>
      </trkpt>
      <trkpt lat="44.94188" lon="5.39388">
        <ele>972.99</ele>
        <time>2014-10-25T10:58:24Z</time>
      </trkpt>
      <trkpt lat="44.94188" lon="5.39389">
        <ele>972.99</ele>
        <time>2014-10-25T10:58:25Z</time>
      </trkpt>
      <trkpt lat="44.94188" lon="5.39392">
        <ele>972.51</ele>
        <time>2014-10-25T10:58:27Z</time>
      </trkpt>
      <trkpt lat="44.94188" lon="5.39395">
        <ele>972.51</ele>
        <time>2014-10-25T10:58:28Z</time>
      </trkpt>
      <trkpt lat="44.94187" lon="5.39397">
        <ele>972.51</ele>
        <time>2014-10-25T10:58:29Z</time>
      </trkpt>
      <trkpt lat="44.94181" lon="5.39407">
        <ele>975.39</ele>
        <time>2014-10-25T10:58:33Z</time>
      </trkpt>
      <trkpt lat="44.9418" lon="5.3941">
        <ele>975.88</ele>
        <time>2014-10-25T10:58:34Z</time>
      </trkpt>
      <trkpt lat="44.9418" lon="5.39413">
        <ele>976.84</ele>
        <time>2014-10-25T10:58:35Z</time>
      </trkpt>
      <trkpt lat="44.9418" lon="5.39418">
        <ele>978.28</ele>
        <time>2014-10-25T10:58:37Z</time>
      </trkpt>
      <trkpt lat="44.94181" lon="5.39421">
        <ele>978.28</ele>
        <time>2014-10-25T10:58:38Z</time>
      </trkpt>
      <trkpt lat="44.94182" lon="5.39431">
        <ele>979.72</ele>
        <time>2014-10-25T10:58:42Z</time>
      </trkpt>
      <trkpt lat="44.94185" lon="5.39445">
        <ele>982.12</ele>
        <time>2014-10-25T10:58:48Z</time>
      </trkpt>
      <trkpt lat="44.94184" lon="5.3945">
        <ele>983.09</ele>
        <time>2014-10-25T10:58:51Z</time>
      </trkpt>
      <trkpt lat="44.94183" lon="5.39452">
        <ele>983.09</ele>
        <time>2014-10-25T10:58:52Z</time>
      </trkpt>
      <trkpt lat="44.94183" lon="5.39456">
        <ele>984.05</ele>
        <time>2014-10-25T10:58:54Z</time>
      </trkpt>
      <trkpt lat="44.94183" lon="5.39457">
        <ele>984.05</ele>
        <time>2014-10-25T10:58:55Z</time>
      </trkpt>
      <trkpt lat="44.94184" lon="5.39459">
        <ele>984.05</ele>
        <time>2014-10-25T10:58:56Z</time>
      </trkpt>
      <trkpt lat="44.94193" lon="5.39478">
        <ele>986.93</ele>
        <time>2014-10-25T10:59:07Z</time>
      </trkpt>
      <trkpt lat="44.94193" lon="5.3948">
        <ele>986.93</ele>
        <time>2014-10-25T10:59:08Z</time>
      </trkpt>
      <trkpt lat="44.94193" lon="5.39481">
        <ele>986.93</ele>
        <time>2014-10-25T10:59:09Z</time>
      </trkpt>
      <trkpt lat="44.94192" lon="5.39483">
        <ele>986.93</ele>
        <time>2014-10-25T10:59:10Z</time>
      </trkpt>
      <trkpt lat="44.94191" lon="5.39484">
        <ele>987.41</ele>
        <time>2014-10-25T10:59:11Z</time>
      </trkpt>
      <trkpt lat="44.9419" lon="5.39485">
        <ele>987.41</ele>
        <time>2014-10-25T10:59:12Z</time>
      </trkpt>
      <trkpt lat="44.94189" lon="5.39486">
        <ele>987.41</ele>
        <time>2014-10-25T10:59:13Z</time>
      </trkpt>
      <trkpt lat="44.9417" lon="5.39504">
        <ele>990.3</ele>
        <time>2014-10-25T10:59:27Z</time>
      </trkpt>
      <trkpt lat="44.94148" lon="5.39519">
        <ele>992.7</ele>
        <time>2014-10-25T10:59:42Z</time>
      </trkpt>
      <trkpt lat="44.94143" lon="5.3952">
        <ele>993.18</ele>
        <time>2014-10-25T10:59:55Z</time>
      </trkpt>
      <trkpt lat="44.94146" lon="5.39524">
        <ele>993.66</ele>
        <time>2014-10-25T11:00:24Z</time>
      </trkpt>
      <trkpt lat="44.94144" lon="5.39523">
        <ele>993.66</ele>
        <time>2014-10-25T11:00:49Z</time>
      </trkpt>
      <trkpt lat="44.94139" lon="5.39521">
        <ele>994.14</ele>
        <time>2014-10-25T11:00:55Z</time>
      </trkpt>
      <trkpt lat="44.94138" lon="5.3952">
        <ele>994.14</ele>
        <time>2014-10-25T11:00:56Z</time>
      </trkpt>
      <trkpt lat="44.94136" lon="5.39519">
        <ele>994.14</ele>
        <time>2014-10-25T11:00:57Z</time>
      </trkpt>
      <trkpt lat="44.94134" lon="5.39519">
        <ele>994.14</ele>
        <time>2014-10-25T11:00:58Z</time>
      </trkpt>
      <trkpt lat="44.94133" lon="5.3952">
        <ele>994.14</ele>
        <time>2014-10-25T11:00:59Z</time>
      </trkpt>
      <trkpt lat="44.94132" lon="5.3952">
        <ele>994.62</ele>
        <time>2014-10-25T11:01:00Z</time>
      </trkpt>
      <trkpt lat="44.9413" lon="5.39521">
        <ele>994.62</ele>
        <time>2014-10-25T11:01:01Z</time>
      </trkpt>
      <trkpt lat="44.94128" lon="5.39522">
        <ele>994.62</ele>
        <time>2014-10-25T11:01:02Z</time>
      </trkpt>
      <trkpt lat="44.94127" lon="5.39523">
        <ele>994.62</ele>
        <time>2014-10-25T11:01:03Z</time>
      </trkpt>
      <trkpt lat="44.94125" lon="5.39523">
        <ele>994.62</ele>
        <time>2014-10-25T11:01:04Z</time>
      </trkpt>
      <trkpt lat="44.94112" lon="5.39534">
        <ele>996.06</ele>
        <time>2014-10-25T11:01:12Z</time>
      </trkpt>
      <trkpt lat="44.94111" lon="5.39534">
        <ele>996.06</ele>
        <time>2014-10-25T11:01:13Z</time>
      </trkpt>
      <trkpt lat="44.94109" lon="5.39534">
        <ele>996.06</ele>
        <time>2014-10-25T11:01:14Z</time>
      </trkpt>
      <trkpt lat="44.94108" lon="5.39535">
        <ele>996.06</ele>
        <time>2014-10-25T11:01:15Z</time>
      </trkpt>
      <trkpt lat="44.94106" lon="5.39536">
        <ele>996.06</ele>
        <time>2014-10-25T11:01:16Z</time>
      </trkpt>
      <trkpt lat="44.94106" lon="5.39537">
        <ele>996.06</ele>
        <time>2014-10-25T11:01:17Z</time>
      </trkpt>
      <trkpt lat="44.94107" lon="5.39538">
        <ele>996.06</ele>
        <time>2014-10-25T11:01:18Z</time>
      </trkpt>
      <trkpt lat="44.94108" lon="5.39537">
        <ele>996.06</ele>
        <time>2014-10-25T11:01:19Z</time>
      </trkpt>
      <trkpt lat="44.94109" lon="5.39536">
        <ele>996.06</ele>
        <time>2014-10-25T11:01:20Z</time>
      </trkpt>
      <trkpt lat="44.94109" lon="5.39533">
        <ele>996.06</ele>
        <time>2014-10-25T11:01:21Z</time>
      </trkpt>
      <trkpt lat="44.94109" lon="5.39528">
        <ele>996.06</ele>
        <time>2014-10-25T11:01:22Z</time>
      </trkpt>
      <trkpt lat="44.94109" lon="5.39512">
        <ele>996.06</ele>
        <time>2014-10-25T11:01:26Z</time>
      </trkpt>
      <trkpt lat="44.94111" lon="5.39513">
        <ele>996.06</ele>
        <time>2014-10-25T11:01:27Z</time>
      </trkpt>
      <trkpt lat="44.94112" lon="5.39515">
        <ele>996.06</ele>
        <time>2014-10-25T11:01:28Z</time>
      </trkpt>
      <trkpt lat="44.94112" lon="5.39519">
        <ele>996.06</ele>
        <time>2014-10-25T11:01:29Z</time>
      </trkpt>
      <trkpt lat="44.94111" lon="5.39522">
        <ele>996.06</ele>
        <time>2014-10-25T11:01:30Z</time>
      </trkpt>
      <trkpt lat="44.94111" lon="5.39525">
        <ele>996.06</ele>
        <time>2014-10-25T11:01:31Z</time>
      </trkpt>
      <trkpt lat="44.9411" lon="5.39528">
        <ele>996.06</ele>
        <time>2014-10-25T11:01:32Z</time>
      </trkpt>
      <trkpt lat="44.94109" lon="5.3953">
        <ele>996.06</ele>
        <time>2014-10-25T11:01:33Z</time>
      </trkpt>
      <trkpt lat="44.94109" lon="5.39532">
        <ele>996.06</ele>
        <time>2014-10-25T11:01:34Z</time>
      </trkpt>
      <trkpt lat="44.94108" lon="5.39533">
        <ele>996.06</ele>
        <time>2014-10-25T11:01:35Z</time>
      </trkpt>
      <trkpt lat="44.94107" lon="5.39535">
        <ele>996.06</ele>
        <time>2014-10-25T11:01:36Z</time>
      </trkpt>
      <trkpt lat="44.94106" lon="5.39535">
        <ele>996.06</ele>
        <time>2014-10-25T11:01:37Z</time>
      </trkpt>
      <trkpt lat="44.94105" lon="5.39536">
        <ele>996.06</ele>
        <time>2014-10-25T11:01:38Z</time>
      </trkpt>
      <trkpt lat="44.94103" lon="5.39536">
        <ele>996.06</ele>
        <time>2014-10-25T11:01:39Z</time>
      </trkpt>
      <trkpt lat="44.941" lon="5.39537">
        <ele>996.54</ele>
        <time>2014-10-25T11:01:41Z</time>
      </trkpt>
      <trkpt lat="44.94099" lon="5.39537">
        <ele>996.54</ele>
        <time>2014-10-25T11:01:42Z</time>
      </trkpt>
      <trkpt lat="44.94098" lon="5.39536">
        <ele>996.54</ele>
        <time>2014-10-25T11:01:43Z</time>
      </trkpt>
      <trkpt lat="44.94097" lon="5.39535">
        <ele>996.54</ele>
        <time>2014-10-25T11:01:44Z</time>
      </trkpt>
      <trkpt lat="44.94096" lon="5.39534">
        <ele>996.54</ele>
        <time>2014-10-25T11:01:45Z</time>
      </trkpt>
      <trkpt lat="44.94095" lon="5.39533">
        <ele>996.54</ele>
        <time>2014-10-25T11:01:46Z</time>
      </trkpt>
      <trkpt lat="44.9409" lon="5.39531">
        <ele>996.54</ele>
        <time>2014-10-25T11:01:57Z</time>
      </trkpt>
      <trkpt lat="44.94093" lon="5.39531">
        <ele>996.54</ele>
        <time>2014-10-25T11:02:24Z</time>
      </trkpt>
      <trkpt lat="44.9409" lon="5.3953">
        <ele>996.54</ele>
        <time>2014-10-25T11:02:49Z</time>
      </trkpt>
      <trkpt lat="44.9409" lon="5.39531">
        <ele>996.54</ele>
        <time>2014-10-25T11:03:17Z</time>
      </trkpt>
      <trkpt lat="44.9409" lon="5.39532">
        <ele>997.02</ele>
        <time>2014-10-25T11:03:41Z</time>
      </trkpt>
      <trkpt lat="44.94088" lon="5.3953">
        <ele>997.02</ele>
        <time>2014-10-25T11:04:03Z</time>
      </trkpt>
      <trkpt lat="44.94088" lon="5.39535">
        <ele>997.02</ele>
        <time>2014-10-25T11:04:30Z</time>
      </trkpt>
      <trkpt lat="44.94087" lon="5.39533">
        <ele>997.02</ele>
        <time>2014-10-25T11:04:54Z</time>
      </trkpt>
      <trkpt lat="44.94089" lon="5.39533">
        <ele>997.02</ele>
        <time>2014-10-25T11:05:16Z</time>
      </trkpt>
      <trkpt lat="44.94089" lon="5.39531">
        <ele>997.02</ele>
        <time>2014-10-25T11:05:43Z</time>
      </trkpt>
      <trkpt lat="44.94089" lon="5.39534">
        <ele>997.02</ele>
        <time>2014-10-25T11:06:10Z</time>
      </trkpt>
      <trkpt lat="44.94092" lon="5.39533">
        <ele>997.02</ele>
        <time>2014-10-25T11:06:31Z</time>
      </trkpt>
      <trkpt lat="44.94089" lon="5.39532">
        <ele>997.51</ele>
        <time>2014-10-25T11:06:57Z</time>
      </trkpt>
      <trkpt lat="44.94088" lon="5.39533">
        <ele>997.51</ele>
        <time>2014-10-25T11:07:23Z</time>
      </trkpt>
      <trkpt lat="44.94089" lon="5.39534">
        <ele>997.99</ele>
        <time>2014-10-25T11:07:47Z</time>
      </trkpt>
      <trkpt lat="44.9409" lon="5.39534">
        <ele>997.99</ele>
        <time>2014-10-25T11:08:10Z</time>
      </trkpt>
      <trkpt lat="44.94089" lon="5.39534">
        <ele>997.99</ele>
        <time>2014-10-25T11:08:41Z</time>
      </trkpt>
      <trkpt lat="44.9409" lon="5.3953">
        <ele>997.99</ele>
        <time>2014-10-25T11:09:05Z</time>
      </trkpt>
      <trkpt lat="44.94089" lon="5.39536">
        <ele>997.99</ele>
        <time>2014-10-25T11:09:36Z</time>
      </trkpt>
      <trkpt lat="44.94093" lon="5.39533">
        <ele>997.99</ele>
        <time>2014-10-25T11:10:08Z</time>
      </trkpt>
      <trkpt lat="44.9409" lon="5.39534">
        <ele>997.99</ele>
        <time>2014-10-25T11:10:38Z</time>
      </trkpt>
      <trkpt lat="44.94091" lon="5.39532">
        <ele>997.99</ele>
        <time>2014-10-25T11:11:13Z</time>
      </trkpt>
      <trkpt lat="44.94088" lon="5.39533">
        <ele>998.47</ele>
        <time>2014-10-25T11:11:44Z</time>
      </trkpt>
      <trkpt lat="44.94087" lon="5.39533">
        <ele>998.47</ele>
        <time>2014-10-25T11:12:14Z</time>
      </trkpt>
      <trkpt lat="44.94093" lon="5.39535">
        <ele>997.99</ele>
        <time>2014-10-25T11:13:04Z</time>
      </trkpt>
      <trkpt lat="44.9409" lon="5.39534">
        <ele>997.99</ele>
        <time>2014-10-25T11:13:35Z</time>
      </trkpt>
      <trkpt lat="44.94087" lon="5.39531">
        <ele>997.99</ele>
        <time>2014-10-25T11:14:15Z</time>
      </trkpt>
      <trkpt lat="44.94087" lon="5.39536">
        <ele>998.47</ele>
        <time>2014-10-25T11:14:44Z</time>
      </trkpt>
      <trkpt lat="44.94089" lon="5.39536">
        <ele>998.47</ele>
        <time>2014-10-25T11:15:31Z</time>
      </trkpt>
      <trkpt lat="44.94088" lon="5.39533">
        <ele>998.47</ele>
        <time>2014-10-25T11:16:04Z</time>
      </trkpt>
      <trkpt lat="44.94088" lon="5.39533">
        <ele>998.47</ele>
        <time>2014-10-25T11:16:39Z</time>
      </trkpt>
      <trkpt lat="44.94087" lon="5.39535">
        <ele>998.95</ele>
        <time>2014-10-25T11:17:25Z</time>
      </trkpt>
      <trkpt lat="44.94087" lon="5.3953">
        <ele>998.95</ele>
        <time>2014-10-25T11:18:00Z</time>
      </trkpt>
      <trkpt lat="44.94088" lon="5.39533">
        <ele>998.47</ele>
        <time>2014-10-25T11:18:30Z</time>
      </trkpt>
      <trkpt lat="44.94088" lon="5.3953">
        <ele>998.47</ele>
        <time>2014-10-25T11:19:12Z</time>
      </trkpt>
      <trkpt lat="44.94087" lon="5.39536">
        <ele>998.47</ele>
        <time>2014-10-25T11:19:57Z</time>
      </trkpt>
      <trkpt lat="44.94092" lon="5.39535">
        <ele>998.47</ele>
        <time>2014-10-25T11:20:43Z</time>
      </trkpt>
      <trkpt lat="44.94086" lon="5.39535">
        <ele>998.47</ele>
        <time>2014-10-25T11:21:21Z</time>
      </trkpt>
      <trkpt lat="44.94088" lon="5.39537">
        <ele>998.47</ele>
        <time>2014-10-25T11:21:55Z</time>
      </trkpt>
      <trkpt lat="44.94085" lon="5.39535">
        <ele>997.99</ele>
        <time>2014-10-25T11:22:40Z</time>
      </trkpt>
      <trkpt lat="44.9409" lon="5.39537">
        <ele>997.99</ele>
        <time>2014-10-25T11:23:19Z</time>
      </trkpt>
      <trkpt lat="44.94087" lon="5.39539">
        <ele>997.99</ele>
        <time>2014-10-25T11:23:57Z</time>
      </trkpt>
      <trkpt lat="44.94088" lon="5.39535">
        <ele>997.99</ele>
        <time>2014-10-25T11:24:45Z</time>
      </trkpt>
      <trkpt lat="44.94088" lon="5.39538">
        <ele>997.51</ele>
        <time>2014-10-25T11:25:25Z</time>
      </trkpt>
      <trkpt lat="44.94088" lon="5.39541">
        <ele>997.99</ele>
        <time>2014-10-25T11:26:06Z</time>
      </trkpt>
      <trkpt lat="44.94087" lon="5.39538">
        <ele>997.99</ele>
        <time>2014-10-25T11:26:51Z</time>
      </trkpt>
      <trkpt lat="44.94088" lon="5.39537">
        <ele>997.99</ele>
        <time>2014-10-25T11:27:31Z</time>
      </trkpt>
      <trkpt lat="44.94089" lon="5.39536">
        <ele>997.99</ele>
        <time>2014-10-25T11:28:01Z</time>
      </trkpt>
      <trkpt lat="44.94089" lon="5.39535">
        <ele>997.99</ele>
        <time>2014-10-25T11:28:37Z</time>
      </trkpt>
      <trkpt lat="44.94088" lon="5.39535">
        <ele>997.99</ele>
        <time>2014-10-25T11:29:08Z</time>
      </trkpt>
      <trkpt lat="44.94086" lon="5.39535">
        <ele>997.99</ele>
        <time>2014-10-25T11:29:40Z</time>
      </trkpt>
      <trkpt lat="44.94089" lon="5.39534">
        <ele>997.99</ele>
        <time>2014-10-25T11:30:05Z</time>
      </trkpt>
      <trkpt lat="44.94087" lon="5.39535">
        <ele>997.99</ele>
        <time>2014-10-25T11:30:34Z</time>
      </trkpt>
      <trkpt lat="44.94086" lon="5.39531">
        <ele>997.99</ele>
        <time>2014-10-25T11:31:05Z</time>
      </trkpt>
      <trkpt lat="44.94087" lon="5.39531">
        <ele>997.99</ele>
        <time>2014-10-25T11:31:30Z</time>
      </trkpt>
      <trkpt lat="44.94089" lon="5.39535">
        <ele>997.99</ele>
        <time>2014-10-25T11:32:03Z</time>
      </trkpt>
      <trkpt lat="44.94089" lon="5.39534">
        <ele>997.99</ele>
        <time>2014-10-25T11:32:38Z</time>
      </trkpt>
      <trkpt lat="44.94088" lon="5.39531">
        <ele>997.99</ele>
        <time>2014-10-25T11:33:11Z</time>
      </trkpt>
      <trkpt lat="44.94084" lon="5.3953">
        <ele>997.99</ele>
        <time>2014-10-25T11:33:40Z</time>
      </trkpt>
      <trkpt lat="44.94087" lon="5.3953">
        <ele>997.99</ele>
        <time>2014-10-25T11:34:19Z</time>
      </trkpt>
      <trkpt lat="44.94088" lon="5.3953">
        <ele>997.99</ele>
        <time>2014-10-25T11:34:58Z</time>
      </trkpt>
      <trkpt lat="44.94086" lon="5.39535">
        <ele>997.99</ele>
        <time>2014-10-25T11:35:31Z</time>
      </trkpt>
      <trkpt lat="44.94088" lon="5.39532">
        <ele>997.51</ele>
        <time>2014-10-25T11:36:08Z</time>
      </trkpt>
      <trkpt lat="44.94087" lon="5.39536">
        <ele>997.51</ele>
        <time>2014-10-25T11:36:50Z</time>
      </trkpt>
      <trkpt lat="44.94084" lon="5.39529">
        <ele>997.51</ele>
        <time>2014-10-25T11:37:34Z</time>
      </trkpt>
      <trkpt lat="44.94091" lon="5.3953">
        <ele>997.51</ele>
        <time>2014-10-25T11:38:15Z</time>
      </trkpt>
      <trkpt lat="44.94088" lon="5.39536">
        <ele>997.51</ele>
        <time>2014-10-25T11:38:48Z</time>
      </trkpt>
      <trkpt lat="44.9409" lon="5.39532">
        <ele>997.51</ele>
        <time>2014-10-25T11:39:32Z</time>
      </trkpt>
      <trkpt lat="44.94091" lon="5.39537">
        <ele>997.51</ele>
        <time>2014-10-25T11:40:14Z</time>
      </trkpt>
      <trkpt lat="44.94088" lon="5.39533">
        <ele>997.51</ele>
        <time>2014-10-25T11:40:58Z</time>
      </trkpt>
      <trkpt lat="44.94087" lon="5.39536">
        <ele>997.51</ele>
        <time>2014-10-25T11:41:39Z</time>
      </trkpt>
      <trkpt lat="44.94087" lon="5.39533">
        <ele>997.51</ele>
        <time>2014-10-25T11:42:09Z</time>
      </trkpt>
      <trkpt lat="44.94089" lon="5.39531">
        <ele>997.51</ele>
        <time>2014-10-25T11:42:47Z</time>
      </trkpt>
      <trkpt lat="44.94089" lon="5.39538">
        <ele>997.51</ele>
        <time>2014-10-25T11:43:25Z</time>
      </trkpt>
      <trkpt lat="44.94087" lon="5.39537">
        <ele>997.02</ele>
        <time>2014-10-25T11:43:59Z</time>
      </trkpt>
      <trkpt lat="44.9409" lon="5.39533">
        <ele>997.02</ele>
        <time>2014-10-25T11:44:22Z</time>
      </trkpt>
      <trkpt lat="44.94089" lon="5.39531">
        <ele>997.02</ele>
        <time>2014-10-25T11:44:55Z</time>
      </trkpt>
      <trkpt lat="44.94092" lon="5.39538">
        <ele>997.02</ele>
        <time>2014-10-25T11:45:30Z</time>
      </trkpt>
      <trkpt lat="44.9409" lon="5.39535">
        <ele>996.54</ele>
        <time>2014-10-25T11:46:10Z</time>
      </trkpt>
      <trkpt lat="44.94091" lon="5.39533">
        <ele>996.54</ele>
        <time>2014-10-25T11:46:44Z</time>
      </trkpt>
      <trkpt lat="44.94091" lon="5.39535">
        <ele>997.02</ele>
        <time>2014-10-25T11:47:25Z</time>
      </trkpt>
      <trkpt lat="44.94091" lon="5.39535">
        <ele>996.54</ele>
        <time>2014-10-25T11:48:08Z</time>
      </trkpt>
      <trkpt lat="44.94091" lon="5.39534">
        <ele>996.54</ele>
        <time>2014-10-25T11:48:37Z</time>
      </trkpt>
      <trkpt lat="44.94089" lon="5.39532">
        <ele>996.54</ele>
        <time>2014-10-25T11:49:17Z</time>
      </trkpt>
      <trkpt lat="44.94089" lon="5.39534">
        <ele>996.54</ele>
        <time>2014-10-25T11:49:46Z</time>
      </trkpt>
      <trkpt lat="44.94092" lon="5.39535">
        <ele>996.54</ele>
        <time>2014-10-25T11:50:28Z</time>
      </trkpt>
      <trkpt lat="44.94088" lon="5.39535">
        <ele>996.06</ele>
        <time>2014-10-25T11:51:16Z</time>
      </trkpt>
      <trkpt lat="44.94092" lon="5.39532">
        <ele>996.06</ele>
        <time>2014-10-25T11:51:58Z</time>
      </trkpt>
      <trkpt lat="44.94092" lon="5.3953">
        <ele>996.54</ele>
        <time>2014-10-25T11:52:16Z</time>
      </trkpt>
      <trkpt lat="44.94091" lon="5.39528">
        <ele>996.54</ele>
        <time>2014-10-25T11:52:17Z</time>
      </trkpt>
      <trkpt lat="44.9409" lon="5.39527">
        <ele>996.54</ele>
        <time>2014-10-25T11:52:18Z</time>
      </trkpt>
      <trkpt lat="44.94085" lon="5.39527">
        <ele>996.54</ele>
        <time>2014-10-25T11:52:22Z</time>
      </trkpt>
      <trkpt lat="44.94082" lon="5.39531">
        <ele>996.54</ele>
        <time>2014-10-25T11:52:26Z</time>
      </trkpt>
      <trkpt lat="44.94088" lon="5.39542">
        <ele>997.02</ele>
        <time>2014-10-25T11:52:34Z</time>
      </trkpt>
      <trkpt lat="44.94095" lon="5.39542">
        <ele>997.02</ele>
        <time>2014-10-25T11:52:39Z</time>
      </trkpt>
      <trkpt lat="44.94102" lon="5.39537">
        <ele>997.02</ele>
        <time>2014-10-25T11:52:44Z</time>
      </trkpt>
      <trkpt lat="44.94103" lon="5.39534">
        <ele>997.02</ele>
        <time>2014-10-25T11:52:45Z</time>
      </trkpt>
      <trkpt lat="44.94104" lon="5.39532">
        <ele>997.02</ele>
        <time>2014-10-25T11:52:46Z</time>
      </trkpt>
      <trkpt lat="44.94108" lon="5.39516">
        <ele>995.1</ele>
        <time>2014-10-25T11:52:51Z</time>
      </trkpt>
      <trkpt lat="44.94107" lon="5.39516">
        <ele>994.62</ele>
        <time>2014-10-25T11:52:58Z</time>
      </trkpt>
      <trkpt lat="44.94108" lon="5.3952">
        <ele>994.62</ele>
        <time>2014-10-25T11:52:59Z</time>
      </trkpt>
      <trkpt lat="44.94108" lon="5.39523">
        <ele>994.62</ele>
        <time>2014-10-25T11:53:01Z</time>
      </trkpt>
      <trkpt lat="44.94108" lon="5.39525">
        <ele>995.1</ele>
        <time>2014-10-25T11:53:02Z</time>
      </trkpt>
      <trkpt lat="44.94107" lon="5.3953">
        <ele>995.1</ele>
        <time>2014-10-25T11:53:04Z</time>
      </trkpt>
      <trkpt lat="44.94106" lon="5.3953">
        <ele>995.1</ele>
        <time>2014-10-25T11:53:05Z</time>
      </trkpt>
      <trkpt lat="44.94105" lon="5.3953">
        <ele>995.1</ele>
        <time>2014-10-25T11:53:06Z</time>
      </trkpt>
      <trkpt lat="44.94104" lon="5.39525">
        <ele>995.1</ele>
        <time>2014-10-25T11:53:10Z</time>
      </trkpt>
      <trkpt lat="44.94105" lon="5.39524">
        <ele>995.1</ele>
        <time>2014-10-25T11:53:11Z</time>
      </trkpt>
      <trkpt lat="44.94106" lon="5.39522">
        <ele>995.1</ele>
        <time>2014-10-25T11:53:12Z</time>
      </trkpt>
      <trkpt lat="44.9411" lon="5.39515">
        <ele>995.1</ele>
        <time>2014-10-25T11:53:16Z</time>
      </trkpt>
      <trkpt lat="44.94112" lon="5.39515">
        <ele>995.1</ele>
        <time>2014-10-25T11:53:17Z</time>
      </trkpt>
      <trkpt lat="44.94114" lon="5.39516">
        <ele>994.62</ele>
        <time>2014-10-25T11:53:18Z</time>
      </trkpt>
      <trkpt lat="44.94115" lon="5.39518">
        <ele>994.62</ele>
        <time>2014-10-25T11:53:19Z</time>
      </trkpt>
      <trkpt lat="44.94114" lon="5.3952">
        <ele>994.62</ele>
        <time>2014-10-25T11:53:20Z</time>
      </trkpt>
      <trkpt lat="44.94113" lon="5.39522">
        <ele>994.62</ele>
        <time>2014-10-25T11:53:21Z</time>
      </trkpt>
      <trkpt lat="44.94112" lon="5.39524">
        <ele>994.62</ele>
        <time>2014-10-25T11:53:22Z</time>
      </trkpt>
      <trkpt lat="44.94108" lon="5.39531">
        <ele>994.62</ele>
        <time>2014-10-25T11:53:27Z</time>
      </trkpt>
      <trkpt lat="44.94107" lon="5.39531">
        <ele>995.1</ele>
        <time>2014-10-25T11:53:28Z</time>
      </trkpt>
      <trkpt lat="44.94106" lon="5.39524">
        <ele>994.62</ele>
        <time>2014-10-25T11:53:30Z</time>
      </trkpt>
      <trkpt lat="44.94106" lon="5.39521">
        <ele>994.62</ele>
        <time>2014-10-25T11:53:31Z</time>
      </trkpt>
      <trkpt lat="44.94108" lon="5.39516">
        <ele>994.62</ele>
        <time>2014-10-25T11:53:35Z</time>
      </trkpt>
      <trkpt lat="44.9411" lon="5.39513">
        <ele>994.62</ele>
        <time>2014-10-25T11:53:37Z</time>
      </trkpt>
      <trkpt lat="44.9411" lon="5.39511">
        <ele>994.62</ele>
        <time>2014-10-25T11:53:46Z</time>
      </trkpt>
      <trkpt lat="44.94111" lon="5.39512">
        <ele>994.62</ele>
        <time>2014-10-25T11:53:53Z</time>
      </trkpt>
      <trkpt lat="44.9411" lon="5.39514">
        <ele>994.62</ele>
        <time>2014-10-25T11:53:54Z</time>
      </trkpt>
      <trkpt lat="44.9411" lon="5.39516">
        <ele>994.62</ele>
        <time>2014-10-25T11:53:55Z</time>
      </trkpt>
      <trkpt lat="44.94109" lon="5.39519">
        <ele>994.62</ele>
        <time>2014-10-25T11:53:56Z</time>
      </trkpt>
      <trkpt lat="44.94108" lon="5.39522">
        <ele>994.62</ele>
        <time>2014-10-25T11:53:57Z</time>
      </trkpt>
      <trkpt lat="44.94106" lon="5.39527">
        <ele>994.62</ele>
        <time>2014-10-25T11:53:59Z</time>
      </trkpt>
      <trkpt lat="44.94108" lon="5.39538">
        <ele>994.62</ele>
        <time>2014-10-25T11:54:04Z</time>
      </trkpt>
      <trkpt lat="44.94109" lon="5.39538">
        <ele>994.62</ele>
        <time>2014-10-25T11:54:05Z</time>
      </trkpt>
      <trkpt lat="44.94114" lon="5.39529">
        <ele>994.62</ele>
        <time>2014-10-25T11:54:10Z</time>
      </trkpt>
      <trkpt lat="44.94116" lon="5.39524">
        <ele>994.62</ele>
        <time>2014-10-25T11:54:11Z</time>
      </trkpt>
      <trkpt lat="44.94118" lon="5.39519">
        <ele>994.62</ele>
        <time>2014-10-25T11:54:12Z</time>
      </trkpt>
      <trkpt lat="44.94121" lon="5.39515">
        <ele>994.14</ele>
        <time>2014-10-25T11:54:13Z</time>
      </trkpt>
      <trkpt lat="44.94125" lon="5.39513">
        <ele>994.14</ele>
        <time>2014-10-25T11:54:14Z</time>
      </trkpt>
      <trkpt lat="44.94129" lon="5.39512">
        <ele>993.66</ele>
        <time>2014-10-25T11:54:15Z</time>
      </trkpt>
      <trkpt lat="44.94133" lon="5.39512">
        <ele>993.66</ele>
        <time>2014-10-25T11:54:16Z</time>
      </trkpt>
      <trkpt lat="44.94139" lon="5.39512">
        <ele>993.18</ele>
        <time>2014-10-25T11:54:18Z</time>
      </trkpt>
      <trkpt lat="44.9414" lon="5.3951">
        <ele>993.18</ele>
        <time>2014-10-25T11:54:19Z</time>
      </trkpt>
      <trkpt lat="44.9414" lon="5.39508">
        <ele>992.7</ele>
        <time>2014-10-25T11:54:20Z</time>
      </trkpt>
      <trkpt lat="44.94136" lon="5.39504">
        <ele>991.74</ele>
        <time>2014-10-25T11:54:25Z</time>
      </trkpt>
      <trkpt lat="44.94136" lon="5.3951">
        <ele>992.22</ele>
        <time>2014-10-25T11:54:31Z</time>
      </trkpt>
      <trkpt lat="44.94134" lon="5.39519">
        <ele>993.66</ele>
        <time>2014-10-25T11:54:36Z</time>
      </trkpt>
      <trkpt lat="44.94133" lon="5.39521">
        <ele>994.14</ele>
        <time>2014-10-25T11:54:37Z</time>
      </trkpt>
      <trkpt lat="44.94131" lon="5.39522">
        <ele>994.14</ele>
        <time>2014-10-25T11:54:38Z</time>
      </trkpt>
      <trkpt lat="44.9413" lon="5.39523">
        <ele>994.62</ele>
        <time>2014-10-25T11:54:39Z</time>
      </trkpt>
      <trkpt lat="44.94128" lon="5.39523">
        <ele>994.62</ele>
        <time>2014-10-25T11:54:40Z</time>
      </trkpt>
      <trkpt lat="44.94127" lon="5.39523">
        <ele>994.62</ele>
        <time>2014-10-25T11:54:41Z</time>
      </trkpt>
      <trkpt lat="44.94126" lon="5.39522">
        <ele>994.62</ele>
        <time>2014-10-25T11:54:42Z</time>
      </trkpt>
      <trkpt lat="44.94125" lon="5.3952">
        <ele>994.62</ele>
        <time>2014-10-25T11:54:43Z</time>
      </trkpt>
      <trkpt lat="44.94123" lon="5.39515">
        <ele>994.62</ele>
        <time>2014-10-25T11:54:45Z</time>
      </trkpt>
      <trkpt lat="44.94123" lon="5.3951">
        <ele>994.62</ele>
        <time>2014-10-25T11:54:46Z</time>
      </trkpt>
      <trkpt lat="44.94123" lon="5.39504">
        <ele>994.62</ele>
        <time>2014-10-25T11:54:47Z</time>
      </trkpt>
      <trkpt lat="44.94124" lon="5.39498">
        <ele>994.62</ele>
        <time>2014-10-25T11:54:48Z</time>
      </trkpt>
      <trkpt lat="44.94125" lon="5.39492">
        <ele>993.18</ele>
        <time>2014-10-25T11:54:49Z</time>
      </trkpt>
      <trkpt lat="44.94128" lon="5.39488">
        <ele>993.18</ele>
        <time>2014-10-25T11:54:50Z</time>
      </trkpt>
      <trkpt lat="44.9413" lon="5.39484">
        <ele>992.22</ele>
        <time>2014-10-25T11:54:51Z</time>
      </trkpt>
      <trkpt lat="44.94129" lon="5.39484">
        <ele>992.22</ele>
        <time>2014-10-25T11:54:59Z</time>
      </trkpt>
      <trkpt lat="44.94129" lon="5.39486">
        <ele>992.22</ele>
        <time>2014-10-25T11:55:01Z</time>
      </trkpt>
      <trkpt lat="44.94129" lon="5.3949">
        <ele>992.22</ele>
        <time>2014-10-25T11:55:05Z</time>
      </trkpt>
      <trkpt lat="44.94124" lon="5.39499">
        <ele>992.22</ele>
        <time>2014-10-25T11:55:10Z</time>
      </trkpt>
      <trkpt lat="44.94123" lon="5.39501">
        <ele>992.22</ele>
        <time>2014-10-25T11:55:11Z</time>
      </trkpt>
      <trkpt lat="44.94123" lon="5.39503">
        <ele>992.22</ele>
        <time>2014-10-25T11:55:12Z</time>
      </trkpt>
      <trkpt lat="44.94123" lon="5.39505">
        <ele>992.22</ele>
        <time>2014-10-25T11:55:13Z</time>
      </trkpt>
      <trkpt lat="44.94123" lon="5.3951">
        <ele>994.14</ele>
        <time>2014-10-25T11:55:16Z</time>
      </trkpt>
      <trkpt lat="44.94122" lon="5.39511">
        <ele>994.14</ele>
        <time>2014-10-25T11:55:17Z</time>
      </trkpt>
      <trkpt lat="44.94122" lon="5.39513">
        <ele>994.14</ele>
        <time>2014-10-25T11:55:18Z</time>
      </trkpt>
      <trkpt lat="44.94121" lon="5.39515">
        <ele>994.14</ele>
        <time>2014-10-25T11:55:19Z</time>
      </trkpt>
      <trkpt lat="44.9412" lon="5.39515">
        <ele>994.14</ele>
        <time>2014-10-25T11:55:20Z</time>
      </trkpt>
      <trkpt lat="44.94115" lon="5.39517">
        <ele>994.62</ele>
        <time>2014-10-25T11:55:25Z</time>
      </trkpt>
      <trkpt lat="44.94114" lon="5.39516">
        <ele>994.62</ele>
        <time>2014-10-25T11:55:26Z</time>
      </trkpt>
      <trkpt lat="44.94114" lon="5.39515">
        <ele>994.62</ele>
        <time>2014-10-25T11:55:27Z</time>
      </trkpt>
      <trkpt lat="44.94114" lon="5.39513">
        <ele>994.62</ele>
        <time>2014-10-25T11:55:28Z</time>
      </trkpt>
      <trkpt lat="44.94114" lon="5.39512">
        <ele>994.14</ele>
        <time>2014-10-25T11:55:29Z</time>
      </trkpt>
      <trkpt lat="44.94116" lon="5.39511">
        <ele>994.14</ele>
        <time>2014-10-25T11:55:30Z</time>
      </trkpt>
      <trkpt lat="44.94119" lon="5.39508">
        <ele>994.14</ele>
        <time>2014-10-25T11:55:32Z</time>
      </trkpt>
      <trkpt lat="44.94122" lon="5.39504">
        <ele>994.14</ele>
        <time>2014-10-25T11:55:33Z</time>
      </trkpt>
      <trkpt lat="44.94124" lon="5.39498">
        <ele>994.14</ele>
        <time>2014-10-25T11:55:34Z</time>
      </trkpt>
      <trkpt lat="44.94126" lon="5.39493">
        <ele>993.18</ele>
        <time>2014-10-25T11:55:35Z</time>
      </trkpt>
      <trkpt lat="44.94129" lon="5.39487">
        <ele>992.7</ele>
        <time>2014-10-25T11:55:36Z</time>
      </trkpt>
      <trkpt lat="44.94132" lon="5.39483">
        <ele>992.22</ele>
        <time>2014-10-25T11:55:37Z</time>
      </trkpt>
      <trkpt lat="44.94142" lon="5.39465">
        <ele>990.3</ele>
        <time>2014-10-25T11:55:45Z</time>
      </trkpt>
      <trkpt lat="44.94143" lon="5.39466">
        <ele>990.3</ele>
        <time>2014-10-25T11:55:48Z</time>
      </trkpt>
      <trkpt lat="44.94149" lon="5.39475">
        <ele>989.81</ele>
        <time>2014-10-25T11:55:53Z</time>
      </trkpt>
      <trkpt lat="44.94153" lon="5.39475">
        <ele>988.85</ele>
        <time>2014-10-25T11:55:56Z</time>
      </trkpt>
      <trkpt lat="44.94162" lon="5.39471">
        <ele>986.93</ele>
        <time>2014-10-25T11:56:07Z</time>
      </trkpt>
      <trkpt lat="44.94156" lon="5.39477">
        <ele>988.85</ele>
        <time>2014-10-25T11:56:13Z</time>
      </trkpt>
      <trkpt lat="44.94154" lon="5.39479">
        <ele>989.33</ele>
        <time>2014-10-25T11:56:14Z</time>
      </trkpt>
      <trkpt lat="44.94152" lon="5.39481">
        <ele>989.33</ele>
        <time>2014-10-25T11:56:15Z</time>
      </trkpt>
      <trkpt lat="44.94151" lon="5.39484">
        <ele>989.81</ele>
        <time>2014-10-25T11:56:16Z</time>
      </trkpt>
      <trkpt lat="44.94149" lon="5.39487">
        <ele>989.81</ele>
        <time>2014-10-25T11:56:17Z</time>
      </trkpt>
      <trkpt lat="44.94133" lon="5.39508">
        <ele>992.7</ele>
        <time>2014-10-25T11:56:24Z</time>
      </trkpt>
      <trkpt lat="44.94118" lon="5.39518">
        <ele>994.62</ele>
        <time>2014-10-25T11:56:34Z</time>
      </trkpt>
      <trkpt lat="44.94107" lon="5.39525">
        <ele>995.1</ele>
        <time>2014-10-25T11:56:44Z</time>
      </trkpt>
      <trkpt lat="44.94107" lon="5.39526">
        <ele>995.1</ele>
        <time>2014-10-25T11:56:45Z</time>
      </trkpt>
      <trkpt lat="44.94107" lon="5.39529">
        <ele>995.58</ele>
        <time>2014-10-25T11:56:48Z</time>
      </trkpt>
      <trkpt lat="44.94108" lon="5.39531">
        <ele>995.58</ele>
        <time>2014-10-25T11:56:49Z</time>
      </trkpt>
      <trkpt lat="44.94107" lon="5.39533">
        <ele>995.58</ele>
        <time>2014-10-25T11:56:50Z</time>
      </trkpt>
      <trkpt lat="44.94104" lon="5.39534">
        <ele>996.06</ele>
        <time>2014-10-25T11:56:58Z</time>
      </trkpt>
      <trkpt lat="44.94104" lon="5.39532">
        <ele>996.06</ele>
        <time>2014-10-25T11:56:59Z</time>
      </trkpt>
      <trkpt lat="44.94099" lon="5.39519">
        <ele>995.58</ele>
        <time>2014-10-25T11:57:06Z</time>
      </trkpt>
      <trkpt lat="44.94091" lon="5.39517">
        <ele>996.06</ele>
        <time>2014-10-25T11:57:13Z</time>
      </trkpt>
      <trkpt lat="44.94088" lon="5.39523">
        <ele>996.06</ele>
        <time>2014-10-25T11:57:17Z</time>
      </trkpt>
      <trkpt lat="44.94083" lon="5.39535">
        <ele>996.54</ele>
        <time>2014-10-25T11:57:26Z</time>
      </trkpt>
      <trkpt lat="44.94088" lon="5.39528">
        <ele>996.54</ele>
        <time>2014-10-25T11:57:35Z</time>
      </trkpt>
      <trkpt lat="44.94087" lon="5.39524">
        <ele>996.54</ele>
        <time>2014-10-25T11:57:38Z</time>
      </trkpt>
      <trkpt lat="44.94083" lon="5.39527">
        <ele>996.54</ele>
        <time>2014-10-25T11:57:44Z</time>
      </trkpt>
      <trkpt lat="44.94082" lon="5.39521">
        <ele>996.54</ele>
        <time>2014-10-25T11:57:49Z</time>
      </trkpt>
      <trkpt lat="44.94089" lon="5.39523">
        <ele>996.54</ele>
        <time>2014-10-25T11:57:56Z</time>
      </trkpt>
      <trkpt lat="44.94096" lon="5.39521">
        <ele>996.54</ele>
        <time>2014-10-25T11:58:02Z</time>
      </trkpt>
      <trkpt lat="44.94088" lon="5.39517">
        <ele>996.54</ele>
        <time>2014-10-25T11:58:11Z</time>
      </trkpt>
      <trkpt lat="44.94089" lon="5.39525">
        <ele>996.54</ele>
        <time>2014-10-25T11:58:21Z</time>
      </trkpt>
      <trkpt lat="44.94092" lon="5.39544">
        <ele>996.54</ele>
        <time>2014-10-25T11:58:27Z</time>
      </trkpt>
      <trkpt lat="44.9409" lon="5.39551">
        <ele>997.51</ele>
        <time>2014-10-25T11:58:30Z</time>
      </trkpt>
      <trkpt lat="44.94091" lon="5.39556">
        <ele>998.47</ele>
        <time>2014-10-25T11:58:35Z</time>
      </trkpt>
      <trkpt lat="44.94094" lon="5.39548">
        <ele>998.47</ele>
        <time>2014-10-25T11:58:41Z</time>
      </trkpt>
      <trkpt lat="44.94091" lon="5.39543">
        <ele>996.54</ele>
        <time>2014-10-25T11:58:44Z</time>
      </trkpt>
      <trkpt lat="44.9409" lon="5.39539">
        <ele>996.54</ele>
        <time>2014-10-25T11:58:45Z</time>
      </trkpt>
      <trkpt lat="44.9409" lon="5.39532">
        <ele>996.06</ele>
        <time>2014-10-25T11:58:54Z</time>
      </trkpt>
      <trkpt lat="44.9409" lon="5.39533">
        <ele>996.06</ele>
        <time>2014-10-25T11:59:10Z</time>
      </trkpt>
      <trkpt lat="44.94087" lon="5.3953">
        <ele>995.58</ele>
        <time>2014-10-25T11:59:32Z</time>
      </trkpt>
      <trkpt lat="44.94085" lon="5.39532">
        <ele>995.58</ele>
        <time>2014-10-25T12:00:01Z</time>
      </trkpt>
      <trkpt lat="44.94087" lon="5.3953">
        <ele>996.06</ele>
        <time>2014-10-25T12:00:24Z</time>
      </trkpt>
      <trkpt lat="44.94088" lon="5.39529">
        <ele>996.06</ele>
        <time>2014-10-25T12:00:49Z</time>
      </trkpt>
      <trkpt lat="44.94087" lon="5.39531">
        <ele>996.06</ele>
        <time>2014-10-25T12:01:13Z</time>
      </trkpt>
      <trkpt lat="44.94088" lon="5.39533">
        <ele>996.06</ele>
        <time>2014-10-25T12:01:32Z</time>
      </trkpt>
      <trkpt lat="44.9409" lon="5.39535">
        <ele>996.06</ele>
        <time>2014-10-25T12:01:53Z</time>
      </trkpt>
      <trkpt lat="44.94092" lon="5.3954">
        <ele>996.06</ele>
        <time>2014-10-25T12:02:19Z</time>
      </trkpt>
      <trkpt lat="44.9409" lon="5.3954">
        <ele>996.06</ele>
        <time>2014-10-25T12:02:41Z</time>
      </trkpt>
      <trkpt lat="44.94091" lon="5.39541">
        <ele>996.06</ele>
        <time>2014-10-25T12:03:07Z</time>
      </trkpt>
      <trkpt lat="44.94091" lon="5.39535">
        <ele>996.06</ele>
        <time>2014-10-25T12:03:11Z</time>
      </trkpt>
      <trkpt lat="44.94086" lon="5.39528">
        <ele>996.06</ele>
        <time>2014-10-25T12:03:17Z</time>
      </trkpt>
      <trkpt lat="44.94085" lon="5.3953">
        <ele>996.06</ele>
        <time>2014-10-25T12:03:30Z</time>
      </trkpt>
      <trkpt lat="44.94084" lon="5.39532">
        <ele>996.06</ele>
        <time>2014-10-25T12:03:36Z</time>
      </trkpt>
      <trkpt lat="44.94083" lon="5.39541">
        <ele>997.51</ele>
        <time>2014-10-25T12:03:44Z</time>
      </trkpt>
      <trkpt lat="44.9408" lon="5.39545">
        <ele>997.51</ele>
        <time>2014-10-25T12:03:47Z</time>
      </trkpt>
      <trkpt lat="44.94078" lon="5.39546">
        <ele>997.51</ele>
        <time>2014-10-25T12:03:48Z</time>
      </trkpt>
      <trkpt lat="44.94076" lon="5.39547">
        <ele>997.51</ele>
        <time>2014-10-25T12:03:49Z</time>
      </trkpt>
      <trkpt lat="44.94074" lon="5.39548">
        <ele>997.51</ele>
        <time>2014-10-25T12:03:50Z</time>
      </trkpt>
      <trkpt lat="44.94073" lon="5.39548">
        <ele>997.51</ele>
        <time>2014-10-25T12:03:51Z</time>
      </trkpt>
      <trkpt lat="44.94071" lon="5.39549">
        <ele>997.51</ele>
        <time>2014-10-25T12:03:52Z</time>
      </trkpt>
      <trkpt lat="44.94069" lon="5.39551">
        <ele>997.51</ele>
        <time>2014-10-25T12:03:53Z</time>
      </trkpt>
      <trkpt lat="44.94068" lon="5.39553">
        <ele>997.51</ele>
        <time>2014-10-25T12:03:54Z</time>
      </trkpt>
      <trkpt lat="44.94067" lon="5.39556">
        <ele>997.51</ele>
        <time>2014-10-25T12:03:55Z</time>
      </trkpt>
      <trkpt lat="44.94064" lon="5.3956">
        <ele>998.47</ele>
        <time>2014-10-25T12:03:57Z</time>
      </trkpt>
      <trkpt lat="44.94063" lon="5.39561">
        <ele>998.47</ele>
        <time>2014-10-25T12:03:58Z</time>
      </trkpt>
      <trkpt lat="44.94061" lon="5.39561">
        <ele>998.47</ele>
        <time>2014-10-25T12:03:59Z</time>
      </trkpt>
      <trkpt lat="44.9406" lon="5.39562">
        <ele>998.47</ele>
        <time>2014-10-25T12:04:00Z</time>
      </trkpt>
      <trkpt lat="44.94059" lon="5.39562">
        <ele>998.47</ele>
        <time>2014-10-25T12:04:01Z</time>
      </trkpt>
      <trkpt lat="44.94057" lon="5.39563">
        <ele>998.47</ele>
        <time>2014-10-25T12:04:02Z</time>
      </trkpt>
      <trkpt lat="44.94043" lon="5.39569">
        <ele>998.47</ele>
        <time>2014-10-25T12:04:15Z</time>
      </trkpt>
      <trkpt lat="44.94042" lon="5.3957">
        <ele>998.47</ele>
        <time>2014-10-25T12:04:16Z</time>
      </trkpt>
      <trkpt lat="44.94041" lon="5.39571">
        <ele>998.47</ele>
        <time>2014-10-25T12:04:17Z</time>
      </trkpt>
      <trkpt lat="44.94039" lon="5.39571">
        <ele>998.47</ele>
        <time>2014-10-25T12:04:18Z</time>
      </trkpt>
      <trkpt lat="44.94038" lon="5.39572">
        <ele>998.47</ele>
        <time>2014-10-25T12:04:19Z</time>
      </trkpt>
      <trkpt lat="44.94017" lon="5.39584">
        <ele>998.47</ele>
        <time>2014-10-25T12:04:35Z</time>
      </trkpt>
      <trkpt lat="44.94006" lon="5.39613">
        <ele>998.47</ele>
        <time>2014-10-25T12:04:49Z</time>
      </trkpt>
      <trkpt lat="44.93994" lon="5.3965">
        <ele>998.95</ele>
        <time>2014-10-25T12:05:03Z</time>
      </trkpt>
      <trkpt lat="44.93982" lon="5.39671">
        <ele>1000.87</ele>
        <time>2014-10-25T12:05:13Z</time>
      </trkpt>
      <trkpt lat="44.93966" lon="5.39697">
        <ele>1001.83</ele>
        <time>2014-10-25T12:05:28Z</time>
      </trkpt>
      <trkpt lat="44.93948" lon="5.39729">
        <ele>1002.79</ele>
        <time>2014-10-25T12:05:43Z</time>
      </trkpt>
      <trkpt lat="44.93929" lon="5.39747">
        <ele>1004.72</ele>
        <time>2014-10-25T12:05:58Z</time>
      </trkpt>
      <trkpt lat="44.93925" lon="5.3975">
        <ele>1005.68</ele>
        <time>2014-10-25T12:06:01Z</time>
      </trkpt>
      <trkpt lat="44.93924" lon="5.39752">
        <ele>1006.16</ele>
        <time>2014-10-25T12:06:02Z</time>
      </trkpt>
      <trkpt lat="44.93924" lon="5.39754">
        <ele>1006.16</ele>
        <time>2014-10-25T12:06:03Z</time>
      </trkpt>
      <trkpt lat="44.93923" lon="5.39755">
        <ele>1006.16</ele>
        <time>2014-10-25T12:06:04Z</time>
      </trkpt>
      <trkpt lat="44.93923" lon="5.39758">
        <ele>1006.64</ele>
        <time>2014-10-25T12:06:05Z</time>
      </trkpt>
      <trkpt lat="44.93922" lon="5.39759">
        <ele>1007.12</ele>
        <time>2014-10-25T12:06:06Z</time>
      </trkpt>
      <trkpt lat="44.9391" lon="5.3977">
        <ele>1009.52</ele>
        <time>2014-10-25T12:06:16Z</time>
      </trkpt>
      <trkpt lat="44.93909" lon="5.39771">
        <ele>1010</ele>
        <time>2014-10-25T12:06:17Z</time>
      </trkpt>
      <trkpt lat="44.93907" lon="5.39773">
        <ele>1010.48</ele>
        <time>2014-10-25T12:06:27Z</time>
      </trkpt>
      <trkpt lat="44.93906" lon="5.39774">
        <ele>1010.48</ele>
        <time>2014-10-25T12:06:32Z</time>
      </trkpt>
      <trkpt lat="44.93905" lon="5.39776">
        <ele>1010.48</ele>
        <time>2014-10-25T12:06:33Z</time>
      </trkpt>
      <trkpt lat="44.93904" lon="5.39777">
        <ele>1010.48</ele>
        <time>2014-10-25T12:06:34Z</time>
      </trkpt>
      <trkpt lat="44.9389" lon="5.39787">
        <ele>1014.33</ele>
        <time>2014-10-25T12:06:42Z</time>
      </trkpt>
      <trkpt lat="44.93872" lon="5.39798">
        <ele>1017.21</ele>
        <time>2014-10-25T12:06:57Z</time>
      </trkpt>
      <trkpt lat="44.93867" lon="5.39803">
        <ele>1018.17</ele>
        <time>2014-10-25T12:07:02Z</time>
      </trkpt>
      <trkpt lat="44.93865" lon="5.39803">
        <ele>1018.17</ele>
        <time>2014-10-25T12:07:03Z</time>
      </trkpt>
      <trkpt lat="44.93864" lon="5.39802">
        <ele>1018.65</ele>
        <time>2014-10-25T12:07:04Z</time>
      </trkpt>
      <trkpt lat="44.93863" lon="5.39802">
        <ele>1018.65</ele>
        <time>2014-10-25T12:07:05Z</time>
      </trkpt>
      <trkpt lat="44.93854" lon="5.39799">
        <ele>1019.13</ele>
        <time>2014-10-25T12:07:13Z</time>
      </trkpt>
      <trkpt lat="44.93851" lon="5.39798">
        <ele>1019.13</ele>
        <time>2014-10-25T12:07:16Z</time>
      </trkpt>
      <trkpt lat="44.93848" lon="5.39797">
        <ele>1019.62</ele>
        <time>2014-10-25T12:07:19Z</time>
      </trkpt>
      <trkpt lat="44.93835" lon="5.39784">
        <ele>1022.02</ele>
        <time>2014-10-25T12:07:32Z</time>
      </trkpt>
      <trkpt lat="44.93822" lon="5.39775">
        <ele>1024.42</ele>
        <time>2014-10-25T12:07:45Z</time>
      </trkpt>
      <trkpt lat="44.93816" lon="5.39773">
        <ele>1024.9</ele>
        <time>2014-10-25T12:07:49Z</time>
      </trkpt>
      <trkpt lat="44.93807" lon="5.39774">
        <ele>1026.83</ele>
        <time>2014-10-25T12:07:57Z</time>
      </trkpt>
      <trkpt lat="44.93805" lon="5.39774">
        <ele>1027.79</ele>
        <time>2014-10-25T12:07:58Z</time>
      </trkpt>
      <trkpt lat="44.93804" lon="5.39774">
        <ele>1027.79</ele>
        <time>2014-10-25T12:07:59Z</time>
      </trkpt>
      <trkpt lat="44.93782" lon="5.39779">
        <ele>1029.23</ele>
        <time>2014-10-25T12:08:14Z</time>
      </trkpt>
      <trkpt lat="44.93781" lon="5.39779">
        <ele>1029.23</ele>
        <time>2014-10-25T12:08:15Z</time>
      </trkpt>
      <trkpt lat="44.93779" lon="5.39779">
        <ele>1029.71</ele>
        <time>2014-10-25T12:08:16Z</time>
      </trkpt>
      <trkpt lat="44.93778" lon="5.39779">
        <ele>1029.71</ele>
        <time>2014-10-25T12:08:17Z</time>
      </trkpt>
      <trkpt lat="44.93776" lon="5.39779">
        <ele>1029.71</ele>
        <time>2014-10-25T12:08:18Z</time>
      </trkpt>
      <trkpt lat="44.93775" lon="5.3978">
        <ele>1029.71</ele>
        <time>2014-10-25T12:08:19Z</time>
      </trkpt>
      <trkpt lat="44.93757" lon="5.39783">
        <ele>1031.63</ele>
        <time>2014-10-25T12:08:32Z</time>
      </trkpt>
      <trkpt lat="44.93735" lon="5.39783">
        <ele>1033.07</ele>
        <time>2014-10-25T12:08:46Z</time>
      </trkpt>
      <trkpt lat="44.93715" lon="5.39786">
        <ele>1034.52</ele>
        <time>2014-10-25T12:09:00Z</time>
      </trkpt>
      <trkpt lat="44.93696" lon="5.39784">
        <ele>1036.44</ele>
        <time>2014-10-25T12:09:15Z</time>
      </trkpt>
      <trkpt lat="44.93678" lon="5.39786">
        <ele>1039.32</ele>
        <time>2014-10-25T12:09:28Z</time>
      </trkpt>
      <trkpt lat="44.93676" lon="5.39787">
        <ele>1039.32</ele>
        <time>2014-10-25T12:09:29Z</time>
      </trkpt>
      <trkpt lat="44.93672" lon="5.39791">
        <ele>1040.76</ele>
        <time>2014-10-25T12:09:32Z</time>
      </trkpt>
      <trkpt lat="44.93671" lon="5.39792">
        <ele>1040.76</ele>
        <time>2014-10-25T12:09:33Z</time>
      </trkpt>
      <trkpt lat="44.93669" lon="5.39793">
        <ele>1041.73</ele>
        <time>2014-10-25T12:09:34Z</time>
      </trkpt>
      <trkpt lat="44.93667" lon="5.39795">
        <ele>1042.21</ele>
        <time>2014-10-25T12:09:36Z</time>
      </trkpt>
      <trkpt lat="44.93665" lon="5.39795">
        <ele>1042.69</ele>
        <time>2014-10-25T12:09:37Z</time>
      </trkpt>
      <trkpt lat="44.93664" lon="5.39795">
        <ele>1042.69</ele>
        <time>2014-10-25T12:09:38Z</time>
      </trkpt>
      <trkpt lat="44.93662" lon="5.39796">
        <ele>1043.17</ele>
        <time>2014-10-25T12:09:39Z</time>
      </trkpt>
      <trkpt lat="44.93661" lon="5.39796">
        <ele>1043.17</ele>
        <time>2014-10-25T12:09:40Z</time>
      </trkpt>
      <trkpt lat="44.93659" lon="5.39795">
        <ele>1044.13</ele>
        <time>2014-10-25T12:09:41Z</time>
      </trkpt>
      <trkpt lat="44.93658" lon="5.39795">
        <ele>1044.13</ele>
        <time>2014-10-25T12:09:42Z</time>
      </trkpt>
      <trkpt lat="44.93656" lon="5.39795">
        <ele>1044.61</ele>
        <time>2014-10-25T12:09:43Z</time>
      </trkpt>
      <trkpt lat="44.93655" lon="5.39795">
        <ele>1044.61</ele>
        <time>2014-10-25T12:09:44Z</time>
      </trkpt>
      <trkpt lat="44.93654" lon="5.39796">
        <ele>1045.09</ele>
        <time>2014-10-25T12:09:45Z</time>
      </trkpt>
      <trkpt lat="44.93653" lon="5.39796">
        <ele>1045.09</ele>
        <time>2014-10-25T12:09:46Z</time>
      </trkpt>
      <trkpt lat="44.93651" lon="5.39795">
        <ele>1045.57</ele>
        <time>2014-10-25T12:09:47Z</time>
      </trkpt>
      <trkpt lat="44.9365" lon="5.39795">
        <ele>1045.57</ele>
        <time>2014-10-25T12:09:48Z</time>
      </trkpt>
      <trkpt lat="44.93648" lon="5.39795">
        <ele>1046.05</ele>
        <time>2014-10-25T12:09:49Z</time>
      </trkpt>
      <trkpt lat="44.93647" lon="5.39795">
        <ele>1046.05</ele>
        <time>2014-10-25T12:09:50Z</time>
      </trkpt>
      <trkpt lat="44.93645" lon="5.39795">
        <ele>1046.05</ele>
        <time>2014-10-25T12:09:51Z</time>
      </trkpt>
      <trkpt lat="44.93641" lon="5.39796">
        <ele>1046.53</ele>
        <time>2014-10-25T12:09:54Z</time>
      </trkpt>
      <trkpt lat="44.93639" lon="5.39796">
        <ele>1047.01</ele>
        <time>2014-10-25T12:09:55Z</time>
      </trkpt>
      <trkpt lat="44.93638" lon="5.39797">
        <ele>1047.01</ele>
        <time>2014-10-25T12:09:56Z</time>
      </trkpt>
      <trkpt lat="44.93636" lon="5.39797">
        <ele>1047.97</ele>
        <time>2014-10-25T12:09:57Z</time>
      </trkpt>
      <trkpt lat="44.93635" lon="5.39798">
        <ele>1047.97</ele>
        <time>2014-10-25T12:09:58Z</time>
      </trkpt>
      <trkpt lat="44.93633" lon="5.39798">
        <ele>1047.97</ele>
        <time>2014-10-25T12:09:59Z</time>
      </trkpt>
      <trkpt lat="44.93612" lon="5.39798">
        <ele>1050.38</ele>
        <time>2014-10-25T12:10:15Z</time>
      </trkpt>
      <trkpt lat="44.93609" lon="5.39798">
        <ele>1050.86</ele>
        <time>2014-10-25T12:10:18Z</time>
      </trkpt>
      <trkpt lat="44.93607" lon="5.39799">
        <ele>1051.34</ele>
        <time>2014-10-25T12:10:20Z</time>
      </trkpt>
      <trkpt lat="44.93581" lon="5.39801">
        <ele>1053.26</ele>
        <time>2014-10-25T12:10:37Z</time>
      </trkpt>
      <trkpt lat="44.9356" lon="5.39807">
        <ele>1055.18</ele>
        <time>2014-10-25T12:10:50Z</time>
      </trkpt>
      <trkpt lat="44.93532" lon="5.39816">
        <ele>1056.63</ele>
        <time>2014-10-25T12:11:04Z</time>
      </trkpt>
      <trkpt lat="44.93503" lon="5.3982">
        <ele>1058.07</ele>
        <time>2014-10-25T12:11:18Z</time>
      </trkpt>
      <trkpt lat="44.93468" lon="5.39824">
        <ele>1059.03</ele>
        <time>2014-10-25T12:11:36Z</time>
      </trkpt>
      <trkpt lat="44.93461" lon="5.39824">
        <ele>1059.51</ele>
        <time>2014-10-25T12:11:49Z</time>
      </trkpt>
      <trkpt lat="44.93461" lon="5.39825">
        <ele>1059.99</ele>
        <time>2014-10-25T12:12:23Z</time>
      </trkpt>
      <trkpt lat="44.93462" lon="5.39825">
        <ele>1060.47</ele>
        <time>2014-10-25T12:12:47Z</time>
      </trkpt>
      <trkpt lat="44.9346" lon="5.39824">
        <ele>1059.99</ele>
        <time>2014-10-25T12:12:59Z</time>
      </trkpt>
      <trkpt lat="44.93456" lon="5.3983">
        <ele>1059.99</ele>
        <time>2014-10-25T12:13:07Z</time>
      </trkpt>
      <trkpt lat="44.93455" lon="5.39832">
        <ele>1059.99</ele>
        <time>2014-10-25T12:13:08Z</time>
      </trkpt>
      <trkpt lat="44.93454" lon="5.39833">
        <ele>1059.99</ele>
        <time>2014-10-25T12:13:09Z</time>
      </trkpt>
      <trkpt lat="44.93452" lon="5.39834">
        <ele>1059.99</ele>
        <time>2014-10-25T12:13:10Z</time>
      </trkpt>
      <trkpt lat="44.93451" lon="5.39834">
        <ele>1059.99</ele>
        <time>2014-10-25T12:13:11Z</time>
      </trkpt>
      <trkpt lat="44.93437" lon="5.39847">
        <ele>1059.99</ele>
        <time>2014-10-25T12:13:29Z</time>
      </trkpt>
      <trkpt lat="44.93436" lon="5.3985">
        <ele>1059.99</ele>
        <time>2014-10-25T12:13:34Z</time>
      </trkpt>
      <trkpt lat="44.93436" lon="5.39858">
        <ele>1059.99</ele>
        <time>2014-10-25T12:13:38Z</time>
      </trkpt>
      <trkpt lat="44.93422" lon="5.39878">
        <ele>1060.95</ele>
        <time>2014-10-25T12:13:52Z</time>
      </trkpt>
      <trkpt lat="44.93422" lon="5.39879">
        <ele>1061.43</ele>
        <time>2014-10-25T12:13:58Z</time>
      </trkpt>
      <trkpt lat="44.93408" lon="5.399">
        <ele>1063.36</ele>
        <time>2014-10-25T12:14:09Z</time>
      </trkpt>
      <trkpt lat="44.93403" lon="5.39905">
        <ele>1063.84</ele>
        <time>2014-10-25T12:14:14Z</time>
      </trkpt>
      <trkpt lat="44.93394" lon="5.39919">
        <ele>1067.2</ele>
        <time>2014-10-25T12:14:26Z</time>
      </trkpt>
      <trkpt lat="44.93386" lon="5.39929">
        <ele>1069.6</ele>
        <time>2014-10-25T12:14:40Z</time>
      </trkpt>
      <trkpt lat="44.93385" lon="5.39929">
        <ele>1069.6</ele>
        <time>2014-10-25T12:14:43Z</time>
      </trkpt>
      <trkpt lat="44.93381" lon="5.39934">
        <ele>1070.08</ele>
        <time>2014-10-25T12:14:47Z</time>
      </trkpt>
      <trkpt lat="44.93362" lon="5.3995">
        <ele>1072.97</ele>
        <time>2014-10-25T12:15:02Z</time>
      </trkpt>
      <trkpt lat="44.93359" lon="5.39953">
        <ele>1073.45</ele>
        <time>2014-10-25T12:15:05Z</time>
      </trkpt>
      <trkpt lat="44.93351" lon="5.39965">
        <ele>1076.81</ele>
        <time>2014-10-25T12:15:13Z</time>
      </trkpt>
      <trkpt lat="44.93344" lon="5.39975">
        <ele>1079.7</ele>
        <time>2014-10-25T12:15:25Z</time>
      </trkpt>
      <trkpt lat="44.93339" lon="5.39982">
        <ele>1081.62</ele>
        <time>2014-10-25T12:15:37Z</time>
      </trkpt>
      <trkpt lat="44.93329" lon="5.39994">
        <ele>1084.5</ele>
        <time>2014-10-25T12:15:54Z</time>
      </trkpt>
      <trkpt lat="44.9332" lon="5.4">
        <ele>1087.39</ele>
        <time>2014-10-25T12:16:09Z</time>
      </trkpt>
      <trkpt lat="44.93308" lon="5.40011">
        <ele>1090.27</ele>
        <time>2014-10-25T12:16:25Z</time>
      </trkpt>
      <trkpt lat="44.93298" lon="5.40023">
        <ele>1091.71</ele>
        <time>2014-10-25T12:16:41Z</time>
      </trkpt>
      <trkpt lat="44.93295" lon="5.40024">
        <ele>1093.64</ele>
        <time>2014-10-25T12:16:56Z</time>
      </trkpt>
      <trkpt lat="44.93293" lon="5.40029">
        <ele>1093.64</ele>
        <time>2014-10-25T12:17:14Z</time>
      </trkpt>
      <trkpt lat="44.93292" lon="5.40036">
        <ele>1096.52</ele>
        <time>2014-10-25T12:17:27Z</time>
      </trkpt>
      <trkpt lat="44.93291" lon="5.40046">
        <ele>1099.4</ele>
        <time>2014-10-25T12:17:40Z</time>
      </trkpt>
      <trkpt lat="44.93289" lon="5.40058">
        <ele>1102.77</ele>
        <time>2014-10-25T12:17:56Z</time>
      </trkpt>
      <trkpt lat="44.93289" lon="5.4007">
        <ele>1105.65</ele>
        <time>2014-10-25T12:18:12Z</time>
      </trkpt>
      <trkpt lat="44.93289" lon="5.40082">
        <ele>1108.06</ele>
        <time>2014-10-25T12:18:27Z</time>
      </trkpt>
      <trkpt lat="44.93287" lon="5.40088">
        <ele>1109.02</ele>
        <time>2014-10-25T12:18:41Z</time>
      </trkpt>
      <trkpt lat="44.93282" lon="5.401">
        <ele>1110.94</ele>
        <time>2014-10-25T12:18:55Z</time>
      </trkpt>
      <trkpt lat="44.93278" lon="5.40107">
        <ele>1113.82</ele>
        <time>2014-10-25T12:19:08Z</time>
      </trkpt>
      <trkpt lat="44.93272" lon="5.40122">
        <ele>1115.27</ele>
        <time>2014-10-25T12:19:21Z</time>
      </trkpt>
      <trkpt lat="44.93271" lon="5.4013">
        <ele>1115.75</ele>
        <time>2014-10-25T12:19:36Z</time>
      </trkpt>
      <trkpt lat="44.9327" lon="5.40135">
        <ele>1115.75</ele>
        <time>2014-10-25T12:19:42Z</time>
      </trkpt>
      <trkpt lat="44.9327" lon="5.40158">
        <ele>1117.19</ele>
        <time>2014-10-25T12:19:55Z</time>
      </trkpt>
      <trkpt lat="44.93271" lon="5.40165">
        <ele>1118.15</ele>
        <time>2014-10-25T12:19:58Z</time>
      </trkpt>
      <trkpt lat="44.93269" lon="5.40202">
        <ele>1121.52</ele>
        <time>2014-10-25T12:20:15Z</time>
      </trkpt>
      <trkpt lat="44.93267" lon="5.40211">
        <ele>1123.92</ele>
        <time>2014-10-25T12:20:19Z</time>
      </trkpt>
      <trkpt lat="44.93265" lon="5.40223">
        <ele>1125.36</ele>
        <time>2014-10-25T12:20:25Z</time>
      </trkpt>
      <trkpt lat="44.93258" lon="5.40246">
        <ele>1129.21</ele>
        <time>2014-10-25T12:20:36Z</time>
      </trkpt>
      <trkpt lat="44.93254" lon="5.40255">
        <ele>1130.17</ele>
        <time>2014-10-25T12:20:47Z</time>
      </trkpt>
      <trkpt lat="44.93246" lon="5.40269">
        <ele>1132.09</ele>
        <time>2014-10-25T12:21:02Z</time>
      </trkpt>
      <trkpt lat="44.93239" lon="5.40284">
        <ele>1133.53</ele>
        <time>2014-10-25T12:21:17Z</time>
      </trkpt>
      <trkpt lat="44.93236" lon="5.40289">
        <ele>1134.01</ele>
        <time>2014-10-25T12:21:32Z</time>
      </trkpt>
      <trkpt lat="44.93234" lon="5.40295">
        <ele>1134.49</ele>
        <time>2014-10-25T12:21:36Z</time>
      </trkpt>
      <trkpt lat="44.93225" lon="5.40326">
        <ele>1135.94</ele>
        <time>2014-10-25T12:21:51Z</time>
      </trkpt>
      <trkpt lat="44.93224" lon="5.40342">
        <ele>1137.38</ele>
        <time>2014-10-25T12:22:06Z</time>
      </trkpt>
      <trkpt lat="44.93226" lon="5.40343">
        <ele>1136.42</ele>
        <time>2014-10-25T12:22:40Z</time>
      </trkpt>
      <trkpt lat="44.93223" lon="5.40342">
        <ele>1136.42</ele>
        <time>2014-10-25T12:23:16Z</time>
      </trkpt>
      <trkpt lat="44.93223" lon="5.4034">
        <ele>1136.42</ele>
        <time>2014-10-25T12:23:30Z</time>
      </trkpt>
      <trkpt lat="44.93221" lon="5.40336">
        <ele>1136.42</ele>
        <time>2014-10-25T12:24:02Z</time>
      </trkpt>
      <trkpt lat="44.9322" lon="5.40335">
        <ele>1136.42</ele>
        <time>2014-10-25T12:24:30Z</time>
      </trkpt>
      <trkpt lat="44.9322" lon="5.4034">
        <ele>1136.42</ele>
        <time>2014-10-25T12:24:51Z</time>
      </trkpt>
      <trkpt lat="44.93221" lon="5.40343">
        <ele>1136.42</ele>
        <time>2014-10-25T12:25:16Z</time>
      </trkpt>
      <trkpt lat="44.93222" lon="5.40344">
        <ele>1136.42</ele>
        <time>2014-10-25T12:25:45Z</time>
      </trkpt>
      <trkpt lat="44.93223" lon="5.40343">
        <ele>1136.42</ele>
        <time>2014-10-25T12:26:14Z</time>
      </trkpt>
      <trkpt lat="44.93221" lon="5.40351">
        <ele>1136.42</ele>
        <time>2014-10-25T12:26:34Z</time>
      </trkpt>
      <trkpt lat="44.9322" lon="5.40355">
        <ele>1135.94</ele>
        <time>2014-10-25T12:26:35Z</time>
      </trkpt>
      <trkpt lat="44.93202" lon="5.40385">
        <ele>1134.97</ele>
        <time>2014-10-25T12:26:42Z</time>
      </trkpt>
      <trkpt lat="44.932" lon="5.40387">
        <ele>1134.97</ele>
        <time>2014-10-25T12:26:43Z</time>
      </trkpt>
      <trkpt lat="44.93199" lon="5.40389">
        <ele>1135.45</ele>
        <time>2014-10-25T12:26:44Z</time>
      </trkpt>
      <trkpt lat="44.93195" lon="5.40393">
        <ele>1136.9</ele>
        <time>2014-10-25T12:26:47Z</time>
      </trkpt>
      <trkpt lat="44.9319" lon="5.40397">
        <ele>1138.82</ele>
        <time>2014-10-25T12:26:51Z</time>
      </trkpt>
      <trkpt lat="44.93177" lon="5.40409">
        <ele>1143.14</ele>
        <time>2014-10-25T12:27:02Z</time>
      </trkpt>
      <trkpt lat="44.93173" lon="5.40413">
        <ele>1143.63</ele>
        <time>2014-10-25T12:27:06Z</time>
      </trkpt>
      <trkpt lat="44.93169" lon="5.4042">
        <ele>1144.11</ele>
        <time>2014-10-25T12:27:10Z</time>
      </trkpt>
      <trkpt lat="44.9316" lon="5.40447">
        <ele>1144.11</ele>
        <time>2014-10-25T12:27:24Z</time>
      </trkpt>
      <trkpt lat="44.93153" lon="5.40461">
        <ele>1141.22</ele>
        <time>2014-10-25T12:27:28Z</time>
      </trkpt>
      <trkpt lat="44.93131" lon="5.40472">
        <ele>1142.66</ele>
        <time>2014-10-25T12:27:40Z</time>
      </trkpt>
      <trkpt lat="44.93119" lon="5.40475">
        <ele>1146.03</ele>
        <time>2014-10-25T12:27:48Z</time>
      </trkpt>
      <trkpt lat="44.93108" lon="5.40479">
        <ele>1148.91</ele>
        <time>2014-10-25T12:27:55Z</time>
      </trkpt>
      <trkpt lat="44.93106" lon="5.40482">
        <ele>1149.87</ele>
        <time>2014-10-25T12:27:57Z</time>
      </trkpt>
      <trkpt lat="44.93105" lon="5.40488">
        <ele>1151.8</ele>
        <time>2014-10-25T12:28:09Z</time>
      </trkpt>
      <trkpt lat="44.93097" lon="5.40495">
        <ele>1154.2</ele>
        <time>2014-10-25T12:28:23Z</time>
      </trkpt>
      <trkpt lat="44.93086" lon="5.40501">
        <ele>1157.08</ele>
        <time>2014-10-25T12:28:42Z</time>
      </trkpt>
      <trkpt lat="44.93071" lon="5.40502">
        <ele>1159.97</ele>
        <time>2014-10-25T12:28:57Z</time>
      </trkpt>
      <trkpt lat="44.93065" lon="5.40504">
        <ele>1160.45</ele>
        <time>2014-10-25T12:29:11Z</time>
      </trkpt>
      <trkpt lat="44.93063" lon="5.40506">
        <ele>1160.45</ele>
        <time>2014-10-25T12:29:34Z</time>
      </trkpt>
      <trkpt lat="44.93053" lon="5.4052">
        <ele>1163.33</ele>
        <time>2014-10-25T12:29:46Z</time>
      </trkpt>
      <trkpt lat="44.93048" lon="5.4052">
        <ele>1163.81</ele>
        <time>2014-10-25T12:30:00Z</time>
      </trkpt>
      <trkpt lat="44.93045" lon="5.40519">
        <ele>1163.81</ele>
        <time>2014-10-25T12:30:25Z</time>
      </trkpt>
      <trkpt lat="44.93045" lon="5.40523">
        <ele>1164.29</ele>
        <time>2014-10-25T12:30:49Z</time>
      </trkpt>
      <trkpt lat="44.93046" lon="5.40523">
        <ele>1164.29</ele>
        <time>2014-10-25T12:31:20Z</time>
      </trkpt>
      <trkpt lat="44.93043" lon="5.40522">
        <ele>1164.77</ele>
        <time>2014-10-25T12:31:51Z</time>
      </trkpt>
      <trkpt lat="44.93041" lon="5.40522">
        <ele>1164.77</ele>
        <time>2014-10-25T12:31:53Z</time>
      </trkpt>
      <trkpt lat="44.93027" lon="5.40526">
        <ele>1162.85</ele>
        <time>2014-10-25T12:32:00Z</time>
      </trkpt>
      <trkpt lat="44.92996" lon="5.40552">
        <ele>1161.41</ele>
        <time>2014-10-25T12:32:10Z</time>
      </trkpt>
      <trkpt lat="44.92981" lon="5.40564">
        <ele>1162.85</ele>
        <time>2014-10-25T12:32:15Z</time>
      </trkpt>
      <trkpt lat="44.9296" lon="5.40581">
        <ele>1159.97</ele>
        <time>2014-10-25T12:32:23Z</time>
      </trkpt>
      <trkpt lat="44.92945" lon="5.40591">
        <ele>1158.05</ele>
        <time>2014-10-25T12:32:26Z</time>
      </trkpt>
      <trkpt lat="44.92933" lon="5.40596">
        <ele>1157.08</ele>
        <time>2014-10-25T12:32:28Z</time>
      </trkpt>
      <trkpt lat="44.92913" lon="5.40603">
        <ele>1156.12</ele>
        <time>2014-10-25T12:32:32Z</time>
      </trkpt>
      <trkpt lat="44.92908" lon="5.40605">
        <ele>1156.12</ele>
        <time>2014-10-25T12:32:33Z</time>
      </trkpt>
      <trkpt lat="44.92877" lon="5.40618">
        <ele>1153.24</ele>
        <time>2014-10-25T12:32:39Z</time>
      </trkpt>
      <trkpt lat="44.92859" lon="5.40621">
        <ele>1150.84</ele>
        <time>2014-10-25T12:32:42Z</time>
      </trkpt>
      <trkpt lat="44.92854" lon="5.40621">
        <ele>1150.84</ele>
        <time>2014-10-25T12:32:43Z</time>
      </trkpt>
      <trkpt lat="44.92852" lon="5.40621">
        <ele>1150.84</ele>
        <time>2014-10-25T12:32:44Z</time>
      </trkpt>
      <trkpt lat="44.9283" lon="5.40626">
        <ele>1149.39</ele>
        <time>2014-10-25T12:32:51Z</time>
      </trkpt>
      <trkpt lat="44.92826" lon="5.40625">
        <ele>1149.39</ele>
        <time>2014-10-25T12:32:52Z</time>
      </trkpt>
      <trkpt lat="44.92816" lon="5.40616">
        <ele>1146.99</ele>
        <time>2014-10-25T12:32:55Z</time>
      </trkpt>
      <trkpt lat="44.92811" lon="5.40615">
        <ele>1146.03</ele>
        <time>2014-10-25T12:32:56Z</time>
      </trkpt>
      <trkpt lat="44.92807" lon="5.40615">
        <ele>1146.03</ele>
        <time>2014-10-25T12:32:57Z</time>
      </trkpt>
      <trkpt lat="44.92803" lon="5.40615">
        <ele>1146.03</ele>
        <time>2014-10-25T12:32:58Z</time>
      </trkpt>
      <trkpt lat="44.92799" lon="5.40616">
        <ele>1145.07</ele>
        <time>2014-10-25T12:32:59Z</time>
      </trkpt>
      <trkpt lat="44.92795" lon="5.40617">
        <ele>1145.07</ele>
        <time>2014-10-25T12:33:00Z</time>
      </trkpt>
      <trkpt lat="44.92765" lon="5.40636">
        <ele>1144.11</ele>
        <time>2014-10-25T12:33:09Z</time>
      </trkpt>
      <trkpt lat="44.92758" lon="5.40641">
        <ele>1143.63</ele>
        <time>2014-10-25T12:33:11Z</time>
      </trkpt>
      <trkpt lat="44.92744" lon="5.40651">
        <ele>1140.74</ele>
        <time>2014-10-25T12:33:14Z</time>
      </trkpt>
      <trkpt lat="44.92737" lon="5.40659">
        <ele>1139.3</ele>
        <time>2014-10-25T12:33:16Z</time>
      </trkpt>
      <trkpt lat="44.92734" lon="5.40664">
        <ele>1138.34</ele>
        <time>2014-10-25T12:33:17Z</time>
      </trkpt>
      <trkpt lat="44.92731" lon="5.40668">
        <ele>1137.86</ele>
        <time>2014-10-25T12:33:18Z</time>
      </trkpt>
      <trkpt lat="44.92728" lon="5.40674">
        <ele>1136.9</ele>
        <time>2014-10-25T12:33:19Z</time>
      </trkpt>
      <trkpt lat="44.92725" lon="5.40681">
        <ele>1135.45</ele>
        <time>2014-10-25T12:33:20Z</time>
      </trkpt>
      <trkpt lat="44.9272" lon="5.40694">
        <ele>1134.49</ele>
        <time>2014-10-25T12:33:22Z</time>
      </trkpt>
      <trkpt lat="44.92716" lon="5.40706">
        <ele>1134.01</ele>
        <time>2014-10-25T12:33:24Z</time>
      </trkpt>
      <trkpt lat="44.92713" lon="5.40712">
        <ele>1134.01</ele>
        <time>2014-10-25T12:33:25Z</time>
      </trkpt>
      <trkpt lat="44.9271" lon="5.40718">
        <ele>1133.05</ele>
        <time>2014-10-25T12:33:26Z</time>
      </trkpt>
      <trkpt lat="44.92706" lon="5.4073">
        <ele>1133.05</ele>
        <time>2014-10-25T12:33:28Z</time>
      </trkpt>
      <trkpt lat="44.92706" lon="5.40734">
        <ele>1133.53</ele>
        <time>2014-10-25T12:33:29Z</time>
      </trkpt>
      <trkpt lat="44.92707" lon="5.40738">
        <ele>1133.53</ele>
        <time>2014-10-25T12:33:30Z</time>
      </trkpt>
      <trkpt lat="44.92707" lon="5.40741">
        <ele>1133.53</ele>
        <time>2014-10-25T12:33:31Z</time>
      </trkpt>
      <trkpt lat="44.92708" lon="5.40745">
        <ele>1133.53</ele>
        <time>2014-10-25T12:33:32Z</time>
      </trkpt>
      <trkpt lat="44.92714" lon="5.40793">
        <ele>1131.61</ele>
        <time>2014-10-25T12:33:42Z</time>
      </trkpt>
      <trkpt lat="44.92714" lon="5.40799">
        <ele>1131.13</ele>
        <time>2014-10-25T12:33:43Z</time>
      </trkpt>
      <trkpt lat="44.92723" lon="5.40849">
        <ele>1129.21</ele>
        <time>2014-10-25T12:33:52Z</time>
      </trkpt>
      <trkpt lat="44.92725" lon="5.40861">
        <ele>1129.21</ele>
        <time>2014-10-25T12:33:55Z</time>
      </trkpt>
      <trkpt lat="44.92725" lon="5.40865">
        <ele>1129.21</ele>
        <time>2014-10-25T12:33:56Z</time>
      </trkpt>
      <trkpt lat="44.92721" lon="5.40915">
        <ele>1131.13</ele>
        <time>2014-10-25T12:34:06Z</time>
      </trkpt>
      <trkpt lat="44.92709" lon="5.40956">
        <ele>1130.65</ele>
        <time>2014-10-25T12:34:16Z</time>
      </trkpt>
      <trkpt lat="44.92708" lon="5.40963">
        <ele>1130.65</ele>
        <time>2014-10-25T12:34:17Z</time>
      </trkpt>
      <trkpt lat="44.92707" lon="5.40969">
        <ele>1130.17</ele>
        <time>2014-10-25T12:34:18Z</time>
      </trkpt>
      <trkpt lat="44.92704" lon="5.41001">
        <ele>1127.28</ele>
        <time>2014-10-25T12:34:22Z</time>
      </trkpt>
      <trkpt lat="44.92707" lon="5.41029">
        <ele>1123.92</ele>
        <time>2014-10-25T12:34:25Z</time>
      </trkpt>
      <trkpt lat="44.92708" lon="5.41039">
        <ele>1122</ele>
        <time>2014-10-25T12:34:26Z</time>
      </trkpt>
      <trkpt lat="44.92711" lon="5.41058">
        <ele>1119.11</ele>
        <time>2014-10-25T12:34:28Z</time>
      </trkpt>
      <trkpt lat="44.92713" lon="5.41073">
        <ele>1116.71</ele>
        <time>2014-10-25T12:34:30Z</time>
      </trkpt>
      <trkpt lat="44.92712" lon="5.41081">
        <ele>1115.75</ele>
        <time>2014-10-25T12:34:31Z</time>
      </trkpt>
      <trkpt lat="44.92708" lon="5.41099">
        <ele>1113.34</ele>
        <time>2014-10-25T12:34:33Z</time>
      </trkpt>
      <trkpt lat="44.92705" lon="5.41119">
        <ele>1110.94</ele>
        <time>2014-10-25T12:34:35Z</time>
      </trkpt>
      <trkpt lat="44.92702" lon="5.41128">
        <ele>1110.46</ele>
        <time>2014-10-25T12:34:36Z</time>
      </trkpt>
      <trkpt lat="44.92698" lon="5.41134">
        <ele>1109.02</ele>
        <time>2014-10-25T12:34:37Z</time>
      </trkpt>
      <trkpt lat="44.92694" lon="5.41139">
        <ele>1108.54</ele>
        <time>2014-10-25T12:34:38Z</time>
      </trkpt>
      <trkpt lat="44.9269" lon="5.41144">
        <ele>1108.06</ele>
        <time>2014-10-25T12:34:39Z</time>
      </trkpt>
      <trkpt lat="44.92688" lon="5.4115">
        <ele>1108.06</ele>
        <time>2014-10-25T12:34:40Z</time>
      </trkpt>
      <trkpt lat="44.92687" lon="5.41157">
        <ele>1107.1</ele>
        <time>2014-10-25T12:34:41Z</time>
      </trkpt>
      <trkpt lat="44.92685" lon="5.41164">
        <ele>1105.65</ele>
        <time>2014-10-25T12:34:42Z</time>
      </trkpt>
      <trkpt lat="44.92682" lon="5.4117">
        <ele>1105.17</ele>
        <time>2014-10-25T12:34:43Z</time>
      </trkpt>
      <trkpt lat="44.9268" lon="5.41176">
        <ele>1105.65</ele>
        <time>2014-10-25T12:34:44Z</time>
      </trkpt>
      <trkpt lat="44.92677" lon="5.41181">
        <ele>1105.17</ele>
        <time>2014-10-25T12:34:45Z</time>
      </trkpt>
      <trkpt lat="44.92674" lon="5.41187">
        <ele>1104.21</ele>
        <time>2014-10-25T12:34:46Z</time>
      </trkpt>
      <trkpt lat="44.92671" lon="5.41193">
        <ele>1104.21</ele>
        <time>2014-10-25T12:34:47Z</time>
      </trkpt>
      <trkpt lat="44.92657" lon="5.41228">
        <ele>1104.21</ele>
        <time>2014-10-25T12:34:56Z</time>
      </trkpt>
      <trkpt lat="44.92653" lon="5.41252">
        <ele>1102.77</ele>
        <time>2014-10-25T12:35:00Z</time>
      </trkpt>
      <trkpt lat="44.92637" lon="5.41305">
        <ele>1103.73</ele>
        <time>2014-10-25T12:35:11Z</time>
      </trkpt>
      <trkpt lat="44.92635" lon="5.41309">
        <ele>1104.69</ele>
        <time>2014-10-25T12:35:13Z</time>
      </trkpt>
      <trkpt lat="44.92634" lon="5.4131">
        <ele>1104.69</ele>
        <time>2014-10-25T12:35:14Z</time>
      </trkpt>
      <trkpt lat="44.92632" lon="5.41311">
        <ele>1104.69</ele>
        <time>2014-10-25T12:35:15Z</time>
      </trkpt>
      <trkpt lat="44.92624" lon="5.41309">
        <ele>1103.25</ele>
        <time>2014-10-25T12:35:28Z</time>
      </trkpt>
      <trkpt lat="44.92624" lon="5.4131">
        <ele>1102.77</ele>
        <time>2014-10-25T12:35:59Z</time>
      </trkpt>
      <trkpt lat="44.92623" lon="5.41311">
        <ele>1102.29</ele>
        <time>2014-10-25T12:36:28Z</time>
      </trkpt>
      <trkpt lat="44.9262" lon="5.41311">
        <ele>1102.29</ele>
        <time>2014-10-25T12:36:55Z</time>
      </trkpt>
      <trkpt lat="44.92617" lon="5.41311">
        <ele>1101.81</ele>
        <time>2014-10-25T12:36:56Z</time>
      </trkpt>
      <trkpt lat="44.92614" lon="5.41311">
        <ele>1101.81</ele>
        <time>2014-10-25T12:36:57Z</time>
      </trkpt>
      <trkpt lat="44.92611" lon="5.4131">
        <ele>1101.33</ele>
        <time>2014-10-25T12:36:58Z</time>
      </trkpt>
      <trkpt lat="44.92607" lon="5.41307">
        <ele>1100.85</ele>
        <time>2014-10-25T12:36:59Z</time>
      </trkpt>
      <trkpt lat="44.92603" lon="5.41304">
        <ele>1100.85</ele>
        <time>2014-10-25T12:37:00Z</time>
      </trkpt>
      <trkpt lat="44.92599" lon="5.41301">
        <ele>1099.89</ele>
        <time>2014-10-25T12:37:01Z</time>
      </trkpt>
      <trkpt lat="44.92571" lon="5.41282">
        <ele>1098.92</ele>
        <time>2014-10-25T12:37:07Z</time>
      </trkpt>
      <trkpt lat="44.92566" lon="5.41279">
        <ele>1097.96</ele>
        <time>2014-10-25T12:37:08Z</time>
      </trkpt>
      <trkpt lat="44.92561" lon="5.41277">
        <ele>1097.96</ele>
        <time>2014-10-25T12:37:09Z</time>
      </trkpt>
      <trkpt lat="44.92556" lon="5.41275">
        <ele>1097.96</ele>
        <time>2014-10-25T12:37:10Z</time>
      </trkpt>
      <trkpt lat="44.92552" lon="5.41272">
        <ele>1097</ele>
        <time>2014-10-25T12:37:11Z</time>
      </trkpt>
      <trkpt lat="44.92543" lon="5.41267">
        <ele>1097</ele>
        <time>2014-10-25T12:37:13Z</time>
      </trkpt>
      <trkpt lat="44.92538" lon="5.41265">
        <ele>1097</ele>
        <time>2014-10-25T12:37:14Z</time>
      </trkpt>
      <trkpt lat="44.92535" lon="5.41264">
        <ele>1097</ele>
        <time>2014-10-25T12:37:15Z</time>
      </trkpt>
      <trkpt lat="44.92532" lon="5.41265">
        <ele>1096.52</ele>
        <time>2014-10-25T12:37:23Z</time>
      </trkpt>
      <trkpt lat="44.9253" lon="5.41264">
        <ele>1096.52</ele>
        <time>2014-10-25T12:37:24Z</time>
      </trkpt>
      <trkpt lat="44.92515" lon="5.41264">
        <ele>1095.08</ele>
        <time>2014-10-25T12:37:28Z</time>
      </trkpt>
      <trkpt lat="44.92511" lon="5.41265">
        <ele>1095.08</ele>
        <time>2014-10-25T12:37:29Z</time>
      </trkpt>
      <trkpt lat="44.9249" lon="5.41271">
        <ele>1094.6</ele>
        <time>2014-10-25T12:37:33Z</time>
      </trkpt>
      <trkpt lat="44.92478" lon="5.41277">
        <ele>1094.12</ele>
        <time>2014-10-25T12:37:35Z</time>
      </trkpt>
      <trkpt lat="44.92472" lon="5.41278">
        <ele>1094.12</ele>
        <time>2014-10-25T12:37:36Z</time>
      </trkpt>
      <trkpt lat="44.92466" lon="5.41279">
        <ele>1094.12</ele>
        <time>2014-10-25T12:37:37Z</time>
      </trkpt>
      <trkpt lat="44.9246" lon="5.4128">
        <ele>1094.12</ele>
        <time>2014-10-25T12:37:38Z</time>
      </trkpt>
      <trkpt lat="44.92455" lon="5.4128">
        <ele>1094.12</ele>
        <time>2014-10-25T12:37:39Z</time>
      </trkpt>
      <trkpt lat="44.9245" lon="5.41279">
        <ele>1094.12</ele>
        <time>2014-10-25T12:37:40Z</time>
      </trkpt>
      <trkpt lat="44.92441" lon="5.41276">
        <ele>1095.56</ele>
        <time>2014-10-25T12:37:43Z</time>
      </trkpt>
      <trkpt lat="44.92407" lon="5.41251">
        <ele>1095.08</ele>
        <time>2014-10-25T12:37:54Z</time>
      </trkpt>
      <trkpt lat="44.92398" lon="5.41246">
        <ele>1094.12</ele>
        <time>2014-10-25T12:37:56Z</time>
      </trkpt>
      <trkpt lat="44.92394" lon="5.41243">
        <ele>1094.12</ele>
        <time>2014-10-25T12:37:57Z</time>
      </trkpt>
      <trkpt lat="44.92385" lon="5.41236">
        <ele>1093.64</ele>
        <time>2014-10-25T12:37:59Z</time>
      </trkpt>
      <trkpt lat="44.92381" lon="5.41232">
        <ele>1093.64</ele>
        <time>2014-10-25T12:38:00Z</time>
      </trkpt>
      <trkpt lat="44.92361" lon="5.41216">
        <ele>1092.2</ele>
        <time>2014-10-25T12:38:04Z</time>
      </trkpt>
      <trkpt lat="44.92344" lon="5.41195">
        <ele>1091.71</ele>
        <time>2014-10-25T12:38:08Z</time>
      </trkpt>
      <trkpt lat="44.92332" lon="5.41175">
        <ele>1091.71</ele>
        <time>2014-10-25T12:38:12Z</time>
      </trkpt>
      <trkpt lat="44.92329" lon="5.41149">
        <ele>1092.68</ele>
        <time>2014-10-25T12:38:17Z</time>
      </trkpt>
      <trkpt lat="44.92321" lon="5.41092">
        <ele>1095.08</ele>
        <time>2014-10-25T12:38:30Z</time>
      </trkpt>
      <trkpt lat="44.92307" lon="5.41038">
        <ele>1097</ele>
        <time>2014-10-25T12:38:43Z</time>
      </trkpt>
      <trkpt lat="44.92296" lon="5.4099">
        <ele>1098.92</ele>
        <time>2014-10-25T12:38:55Z</time>
      </trkpt>
      <trkpt lat="44.92276" lon="5.40952">
        <ele>1099.89</ele>
        <time>2014-10-25T12:39:05Z</time>
      </trkpt>
      <trkpt lat="44.92252" lon="5.40914">
        <ele>1103.25</ele>
        <time>2014-10-25T12:39:19Z</time>
      </trkpt>
      <trkpt lat="44.92238" lon="5.40883">
        <ele>1106.13</ele>
        <time>2014-10-25T12:39:33Z</time>
      </trkpt>
      <trkpt lat="44.92228" lon="5.4087">
        <ele>1106.61</ele>
        <time>2014-10-25T12:39:41Z</time>
      </trkpt>
      <trkpt lat="44.92204" lon="5.4085">
        <ele>1109.5</ele>
        <time>2014-10-25T12:39:59Z</time>
      </trkpt>
      <trkpt lat="44.92198" lon="5.40849">
        <ele>1109.98</ele>
        <time>2014-10-25T12:40:03Z</time>
      </trkpt>
      <trkpt lat="44.92197" lon="5.40849">
        <ele>1110.46</ele>
        <time>2014-10-25T12:40:17Z</time>
      </trkpt>
      <trkpt lat="44.92197" lon="5.40848">
        <ele>1110.46</ele>
        <time>2014-10-25T12:40:18Z</time>
      </trkpt>
      <trkpt lat="44.92198" lon="5.40847">
        <ele>1110.46</ele>
        <time>2014-10-25T12:40:19Z</time>
      </trkpt>
      <trkpt lat="44.922" lon="5.40846">
        <ele>1110.46</ele>
        <time>2014-10-25T12:40:20Z</time>
      </trkpt>
      <trkpt lat="44.92201" lon="5.40845">
        <ele>1110.46</ele>
        <time>2014-10-25T12:40:21Z</time>
      </trkpt>
      <trkpt lat="44.92202" lon="5.40846">
        <ele>1110.46</ele>
        <time>2014-10-25T12:40:22Z</time>
      </trkpt>
      <trkpt lat="44.92204" lon="5.40847">
        <ele>1110.46</ele>
        <time>2014-10-25T12:40:23Z</time>
      </trkpt>
      <trkpt lat="44.92205" lon="5.40848">
        <ele>1110.46</ele>
        <time>2014-10-25T12:40:24Z</time>
      </trkpt>
      <trkpt lat="44.92206" lon="5.40846">
        <ele>1110.46</ele>
        <time>2014-10-25T12:40:33Z</time>
      </trkpt>
      <trkpt lat="44.92205" lon="5.40842">
        <ele>1110.46</ele>
        <time>2014-10-25T12:40:49Z</time>
      </trkpt>
      <trkpt lat="44.92204" lon="5.40841">
        <ele>1110.46</ele>
        <time>2014-10-25T12:40:50Z</time>
      </trkpt>
      <trkpt lat="44.92203" lon="5.40839">
        <ele>1110.46</ele>
        <time>2014-10-25T12:40:51Z</time>
      </trkpt>
      <trkpt lat="44.92203" lon="5.40836">
        <ele>1110.46</ele>
        <time>2014-10-25T12:40:52Z</time>
      </trkpt>
      <trkpt lat="44.92202" lon="5.40833">
        <ele>1110.46</ele>
        <time>2014-10-25T12:40:53Z</time>
      </trkpt>
      <trkpt lat="44.92201" lon="5.40829">
        <ele>1110.46</ele>
        <time>2014-10-25T12:40:54Z</time>
      </trkpt>
      <trkpt lat="44.922" lon="5.40824">
        <ele>1109.02</ele>
        <time>2014-10-25T12:40:55Z</time>
      </trkpt>
      <trkpt lat="44.92197" lon="5.40819">
        <ele>1108.54</ele>
        <time>2014-10-25T12:40:56Z</time>
      </trkpt>
      <trkpt lat="44.92175" lon="5.40786">
        <ele>1105.65</ele>
        <time>2014-10-25T12:41:02Z</time>
      </trkpt>
      <trkpt lat="44.92171" lon="5.4078">
        <ele>1105.65</ele>
        <time>2014-10-25T12:41:03Z</time>
      </trkpt>
      <trkpt lat="44.92167" lon="5.40773">
        <ele>1105.17</ele>
        <time>2014-10-25T12:41:04Z</time>
      </trkpt>
      <trkpt lat="44.92163" lon="5.40766">
        <ele>1105.17</ele>
        <time>2014-10-25T12:41:05Z</time>
      </trkpt>
      <trkpt lat="44.9216" lon="5.40759">
        <ele>1104.21</ele>
        <time>2014-10-25T12:41:06Z</time>
      </trkpt>
      <trkpt lat="44.92157" lon="5.40752">
        <ele>1104.21</ele>
        <time>2014-10-25T12:41:07Z</time>
      </trkpt>
      <trkpt lat="44.92154" lon="5.40745">
        <ele>1103.73</ele>
        <time>2014-10-25T12:41:08Z</time>
      </trkpt>
      <trkpt lat="44.92152" lon="5.40737">
        <ele>1103.73</ele>
        <time>2014-10-25T12:41:09Z</time>
      </trkpt>
      <trkpt lat="44.9215" lon="5.40729">
        <ele>1103.25</ele>
        <time>2014-10-25T12:41:10Z</time>
      </trkpt>
      <trkpt lat="44.92147" lon="5.40722">
        <ele>1102.29</ele>
        <time>2014-10-25T12:41:11Z</time>
      </trkpt>
      <trkpt lat="44.92142" lon="5.40716">
        <ele>1101.81</ele>
        <time>2014-10-25T12:41:12Z</time>
      </trkpt>
      <trkpt lat="44.92137" lon="5.4071">
        <ele>1101.33</ele>
        <time>2014-10-25T12:41:13Z</time>
      </trkpt>
      <trkpt lat="44.92132" lon="5.40705">
        <ele>1100.37</ele>
        <time>2014-10-25T12:41:14Z</time>
      </trkpt>
      <trkpt lat="44.9212" lon="5.40693">
        <ele>1098.92</ele>
        <time>2014-10-25T12:41:16Z</time>
      </trkpt>
      <trkpt lat="44.92114" lon="5.40686">
        <ele>1097.96</ele>
        <time>2014-10-25T12:41:17Z</time>
      </trkpt>
      <trkpt lat="44.92107" lon="5.4068">
        <ele>1097</ele>
        <time>2014-10-25T12:41:18Z</time>
      </trkpt>
      <trkpt lat="44.921" lon="5.40676">
        <ele>1095.56</ele>
        <time>2014-10-25T12:41:19Z</time>
      </trkpt>
      <trkpt lat="44.92093" lon="5.40673">
        <ele>1094.6</ele>
        <time>2014-10-25T12:41:20Z</time>
      </trkpt>
      <trkpt lat="44.92087" lon="5.40672">
        <ele>1094.6</ele>
        <time>2014-10-25T12:41:21Z</time>
      </trkpt>
      <trkpt lat="44.92082" lon="5.40672">
        <ele>1094.12</ele>
        <time>2014-10-25T12:41:22Z</time>
      </trkpt>
      <trkpt lat="44.92077" lon="5.40674">
        <ele>1094.12</ele>
        <time>2014-10-25T12:41:23Z</time>
      </trkpt>
      <trkpt lat="44.92062" lon="5.40679">
        <ele>1094.12</ele>
        <time>2014-10-25T12:41:26Z</time>
      </trkpt>
      <trkpt lat="44.92058" lon="5.40679">
        <ele>1094.12</ele>
        <time>2014-10-25T12:41:27Z</time>
      </trkpt>
      <trkpt lat="44.92053" lon="5.40678">
        <ele>1093.16</ele>
        <time>2014-10-25T12:41:28Z</time>
      </trkpt>
      <trkpt lat="44.92044" lon="5.40673">
        <ele>1091.71</ele>
        <time>2014-10-25T12:41:30Z</time>
      </trkpt>
      <trkpt lat="44.92034" lon="5.40666">
        <ele>1091.23</ele>
        <time>2014-10-25T12:41:32Z</time>
      </trkpt>
      <trkpt lat="44.9203" lon="5.40662">
        <ele>1091.23</ele>
        <time>2014-10-25T12:41:33Z</time>
      </trkpt>
      <trkpt lat="44.92022" lon="5.40654">
        <ele>1091.23</ele>
        <time>2014-10-25T12:41:35Z</time>
      </trkpt>
      <trkpt lat="44.92019" lon="5.40649">
        <ele>1091.23</ele>
        <time>2014-10-25T12:41:36Z</time>
      </trkpt>
      <trkpt lat="44.92" lon="5.40619">
        <ele>1093.16</ele>
        <time>2014-10-25T12:41:47Z</time>
      </trkpt>
      <trkpt lat="44.91988" lon="5.40598">
        <ele>1092.68</ele>
        <time>2014-10-25T12:41:54Z</time>
      </trkpt>
      <trkpt lat="44.91988" lon="5.40593">
        <ele>1092.68</ele>
        <time>2014-10-25T12:41:55Z</time>
      </trkpt>
      <trkpt lat="44.91988" lon="5.40586">
        <ele>1091.71</ele>
        <time>2014-10-25T12:41:56Z</time>
      </trkpt>
      <trkpt lat="44.91989" lon="5.40573">
        <ele>1090.75</ele>
        <time>2014-10-25T12:41:58Z</time>
      </trkpt>
      <trkpt lat="44.91989" lon="5.40538">
        <ele>1087.87</ele>
        <time>2014-10-25T12:42:02Z</time>
      </trkpt>
      <trkpt lat="44.9199" lon="5.40528">
        <ele>1086.91</ele>
        <time>2014-10-25T12:42:03Z</time>
      </trkpt>
      <trkpt lat="44.91993" lon="5.40492">
        <ele>1084.5</ele>
        <time>2014-10-25T12:42:07Z</time>
      </trkpt>
      <trkpt lat="44.91991" lon="5.40486">
        <ele>1084.5</ele>
        <time>2014-10-25T12:42:08Z</time>
      </trkpt>
      <trkpt lat="44.91987" lon="5.40483">
        <ele>1083.54</ele>
        <time>2014-10-25T12:42:09Z</time>
      </trkpt>
      <trkpt lat="44.91981" lon="5.40481">
        <ele>1083.06</ele>
        <time>2014-10-25T12:42:10Z</time>
      </trkpt>
      <trkpt lat="44.91975" lon="5.4048">
        <ele>1082.1</ele>
        <time>2014-10-25T12:42:11Z</time>
      </trkpt>
      <trkpt lat="44.91955" lon="5.40479">
        <ele>1080.18</ele>
        <time>2014-10-25T12:42:14Z</time>
      </trkpt>
      <trkpt lat="44.91948" lon="5.4048">
        <ele>1079.7</ele>
        <time>2014-10-25T12:42:15Z</time>
      </trkpt>
      <trkpt lat="44.91942" lon="5.40483">
        <ele>1078.26</ele>
        <time>2014-10-25T12:42:16Z</time>
      </trkpt>
      <trkpt lat="44.91934" lon="5.40485">
        <ele>1076.81</ele>
        <time>2014-10-25T12:42:17Z</time>
      </trkpt>
      <trkpt lat="44.91927" lon="5.40487">
        <ele>1076.33</ele>
        <time>2014-10-25T12:42:18Z</time>
      </trkpt>
      <trkpt lat="44.91919" lon="5.40486">
        <ele>1075.85</ele>
        <time>2014-10-25T12:42:19Z</time>
      </trkpt>
      <trkpt lat="44.91911" lon="5.40485">
        <ele>1074.89</ele>
        <time>2014-10-25T12:42:20Z</time>
      </trkpt>
      <trkpt lat="44.91896" lon="5.40483">
        <ele>1073.45</ele>
        <time>2014-10-25T12:42:22Z</time>
      </trkpt>
      <trkpt lat="44.91889" lon="5.40484">
        <ele>1072.49</ele>
        <time>2014-10-25T12:42:23Z</time>
      </trkpt>
      <trkpt lat="44.91882" lon="5.40487">
        <ele>1072.01</ele>
        <time>2014-10-25T12:42:24Z</time>
      </trkpt>
      <trkpt lat="44.91875" lon="5.4049">
        <ele>1071.05</ele>
        <time>2014-10-25T12:42:25Z</time>
      </trkpt>
      <trkpt lat="44.9187" lon="5.40491">
        <ele>1070.57</ele>
        <time>2014-10-25T12:42:26Z</time>
      </trkpt>
      <trkpt lat="44.91864" lon="5.40489">
        <ele>1069.6</ele>
        <time>2014-10-25T12:42:27Z</time>
      </trkpt>
      <trkpt lat="44.91858" lon="5.40486">
        <ele>1069.12</ele>
        <time>2014-10-25T12:42:28Z</time>
      </trkpt>
      <trkpt lat="44.91853" lon="5.40483">
        <ele>1068.64</ele>
        <time>2014-10-25T12:42:29Z</time>
      </trkpt>
      <trkpt lat="44.91847" lon="5.40479">
        <ele>1068.16</ele>
        <time>2014-10-25T12:42:30Z</time>
      </trkpt>
      <trkpt lat="44.91841" lon="5.40475">
        <ele>1067.2</ele>
        <time>2014-10-25T12:42:31Z</time>
      </trkpt>
      <trkpt lat="44.91835" lon="5.40469">
        <ele>1066.24</ele>
        <time>2014-10-25T12:42:32Z</time>
      </trkpt>
      <trkpt lat="44.91829" lon="5.40463">
        <ele>1065.28</ele>
        <time>2014-10-25T12:42:33Z</time>
      </trkpt>
      <trkpt lat="44.91823" lon="5.40456">
        <ele>1064.32</ele>
        <time>2014-10-25T12:42:34Z</time>
      </trkpt>
      <trkpt lat="44.91818" lon="5.4045">
        <ele>1062.87</ele>
        <time>2014-10-25T12:42:35Z</time>
      </trkpt>
      <trkpt lat="44.91812" lon="5.40445">
        <ele>1062.87</ele>
        <time>2014-10-25T12:42:36Z</time>
      </trkpt>
      <trkpt lat="44.91806" lon="5.40442">
        <ele>1061.43</ele>
        <time>2014-10-25T12:42:37Z</time>
      </trkpt>
      <trkpt lat="44.91799" lon="5.4044">
        <ele>1060.95</ele>
        <time>2014-10-25T12:42:38Z</time>
      </trkpt>
      <trkpt lat="44.91793" lon="5.40436">
        <ele>1059.99</ele>
        <time>2014-10-25T12:42:39Z</time>
      </trkpt>
      <trkpt lat="44.91774" lon="5.40421">
        <ele>1057.11</ele>
        <time>2014-10-25T12:42:42Z</time>
      </trkpt>
      <trkpt lat="44.91768" lon="5.40414">
        <ele>1056.63</ele>
        <time>2014-10-25T12:42:43Z</time>
      </trkpt>
      <trkpt lat="44.91751" lon="5.40396">
        <ele>1055.67</ele>
        <time>2014-10-25T12:42:46Z</time>
      </trkpt>
      <trkpt lat="44.91746" lon="5.40389">
        <ele>1055.67</ele>
        <time>2014-10-25T12:42:47Z</time>
      </trkpt>
      <trkpt lat="44.91715" lon="5.40335">
        <ele>1055.18</ele>
        <time>2014-10-25T12:42:57Z</time>
      </trkpt>
      <trkpt lat="44.91708" lon="5.40326">
        <ele>1057.11</ele>
        <time>2014-10-25T12:43:00Z</time>
      </trkpt>
      <trkpt lat="44.91681" lon="5.40309">
        <ele>1055.67</ele>
        <time>2014-10-25T12:43:11Z</time>
      </trkpt>
      <trkpt lat="44.91677" lon="5.40307">
        <ele>1054.7</ele>
        <time>2014-10-25T12:43:12Z</time>
      </trkpt>
      <trkpt lat="44.91667" lon="5.40304">
        <ele>1053.74</ele>
        <time>2014-10-25T12:43:14Z</time>
      </trkpt>
      <trkpt lat="44.91662" lon="5.40301">
        <ele>1053.74</ele>
        <time>2014-10-25T12:43:15Z</time>
      </trkpt>
      <trkpt lat="44.91657" lon="5.40298">
        <ele>1053.26</ele>
        <time>2014-10-25T12:43:16Z</time>
      </trkpt>
      <trkpt lat="44.91633" lon="5.40266">
        <ele>1053.26</ele>
        <time>2014-10-25T12:43:25Z</time>
      </trkpt>
      <trkpt lat="44.91611" lon="5.40233">
        <ele>1056.63</ele>
        <time>2014-10-25T12:43:36Z</time>
      </trkpt>
      <trkpt lat="44.91592" lon="5.40216">
        <ele>1059.99</ele>
        <time>2014-10-25T12:43:42Z</time>
      </trkpt>
      <trkpt lat="44.9157" lon="5.40212">
        <ele>1061.91</ele>
        <time>2014-10-25T12:43:52Z</time>
      </trkpt>
      <trkpt lat="44.91534" lon="5.40209">
        <ele>1063.36</ele>
        <time>2014-10-25T12:44:09Z</time>
      </trkpt>
      <trkpt lat="44.91506" lon="5.40216">
        <ele>1063.84</ele>
        <time>2014-10-25T12:44:22Z</time>
      </trkpt>
      <trkpt lat="44.91473" lon="5.40238">
        <ele>1064.32</ele>
        <time>2014-10-25T12:44:36Z</time>
      </trkpt>
      <trkpt lat="44.9142" lon="5.40254">
        <ele>1064.32</ele>
        <time>2014-10-25T12:44:52Z</time>
      </trkpt>
      <trkpt lat="44.91412" lon="5.40255">
        <ele>1064.32</ele>
        <time>2014-10-25T12:44:54Z</time>
      </trkpt>
      <trkpt lat="44.91408" lon="5.40255">
        <ele>1064.32</ele>
        <time>2014-10-25T12:44:55Z</time>
      </trkpt>
      <trkpt lat="44.91404" lon="5.40256">
        <ele>1064.32</ele>
        <time>2014-10-25T12:44:56Z</time>
      </trkpt>
      <trkpt lat="44.914" lon="5.40255">
        <ele>1064.32</ele>
        <time>2014-10-25T12:44:57Z</time>
      </trkpt>
      <trkpt lat="44.91396" lon="5.40256">
        <ele>1064.32</ele>
        <time>2014-10-25T12:44:58Z</time>
      </trkpt>
      <trkpt lat="44.91387" lon="5.40256">
        <ele>1064.32</ele>
        <time>2014-10-25T12:45:00Z</time>
      </trkpt>
      <trkpt lat="44.91383" lon="5.40257">
        <ele>1064.32</ele>
        <time>2014-10-25T12:45:01Z</time>
      </trkpt>
      <trkpt lat="44.91379" lon="5.40257">
        <ele>1064.32</ele>
        <time>2014-10-25T12:45:02Z</time>
      </trkpt>
      <trkpt lat="44.91375" lon="5.40256">
        <ele>1064.32</ele>
        <time>2014-10-25T12:45:03Z</time>
      </trkpt>
      <trkpt lat="44.91371" lon="5.40257">
        <ele>1064.32</ele>
        <time>2014-10-25T12:45:04Z</time>
      </trkpt>
      <trkpt lat="44.91337" lon="5.40256">
        <ele>1062.87</ele>
        <time>2014-10-25T12:45:13Z</time>
      </trkpt>
      <trkpt lat="44.91333" lon="5.40255">
        <ele>1062.87</ele>
        <time>2014-10-25T12:45:14Z</time>
      </trkpt>
      <trkpt lat="44.91329" lon="5.40253">
        <ele>1062.87</ele>
        <time>2014-10-25T12:45:15Z</time>
      </trkpt>
      <trkpt lat="44.91325" lon="5.4025">
        <ele>1062.87</ele>
        <time>2014-10-25T12:45:16Z</time>
      </trkpt>
      <trkpt lat="44.91321" lon="5.40247">
        <ele>1062.39</ele>
        <time>2014-10-25T12:45:17Z</time>
      </trkpt>
      <trkpt lat="44.91317" lon="5.40242">
        <ele>1062.39</ele>
        <time>2014-10-25T12:45:18Z</time>
      </trkpt>
      <trkpt lat="44.91314" lon="5.40238">
        <ele>1061.91</ele>
        <time>2014-10-25T12:45:19Z</time>
      </trkpt>
      <trkpt lat="44.91311" lon="5.40233">
        <ele>1061.91</ele>
        <time>2014-10-25T12:45:20Z</time>
      </trkpt>
      <trkpt lat="44.91308" lon="5.40227">
        <ele>1061.91</ele>
        <time>2014-10-25T12:45:21Z</time>
      </trkpt>
      <trkpt lat="44.91305" lon="5.40222">
        <ele>1061.91</ele>
        <time>2014-10-25T12:45:22Z</time>
      </trkpt>
      <trkpt lat="44.91293" lon="5.40198">
        <ele>1061.91</ele>
        <time>2014-10-25T12:45:27Z</time>
      </trkpt>
      <trkpt lat="44.9129" lon="5.40193">
        <ele>1061.91</ele>
        <time>2014-10-25T12:45:28Z</time>
      </trkpt>
      <trkpt lat="44.91282" lon="5.40179">
        <ele>1061.91</ele>
        <time>2014-10-25T12:45:31Z</time>
      </trkpt>
      <trkpt lat="44.91267" lon="5.40156">
        <ele>1061.91</ele>
        <time>2014-10-25T12:45:36Z</time>
      </trkpt>
      <trkpt lat="44.91265" lon="5.40151">
        <ele>1061.91</ele>
        <time>2014-10-25T12:45:37Z</time>
      </trkpt>
      <trkpt lat="44.91263" lon="5.40145">
        <ele>1061.91</ele>
        <time>2014-10-25T12:45:38Z</time>
      </trkpt>
      <trkpt lat="44.91262" lon="5.4014">
        <ele>1061.91</ele>
        <time>2014-10-25T12:45:39Z</time>
      </trkpt>
      <trkpt lat="44.91261" lon="5.40134">
        <ele>1061.91</ele>
        <time>2014-10-25T12:45:40Z</time>
      </trkpt>
      <trkpt lat="44.9126" lon="5.40129">
        <ele>1061.91</ele>
        <time>2014-10-25T12:45:41Z</time>
      </trkpt>
      <trkpt lat="44.91251" lon="5.40103">
        <ele>1061.43</ele>
        <time>2014-10-25T12:45:45Z</time>
      </trkpt>
      <trkpt lat="44.91229" lon="5.40067">
        <ele>1062.87</ele>
        <time>2014-10-25T12:45:51Z</time>
      </trkpt>
      <trkpt lat="44.91222" lon="5.40054">
        <ele>1062.87</ele>
        <time>2014-10-25T12:45:54Z</time>
      </trkpt>
      <trkpt lat="44.91215" lon="5.40045">
        <ele>1062.87</ele>
        <time>2014-10-25T12:45:56Z</time>
      </trkpt>
      <trkpt lat="44.91191" lon="5.40026">
        <ele>1059.51</ele>
        <time>2014-10-25T12:46:01Z</time>
      </trkpt>
      <trkpt lat="44.91185" lon="5.40022">
        <ele>1059.03</ele>
        <time>2014-10-25T12:46:02Z</time>
      </trkpt>
      <trkpt lat="44.91179" lon="5.40018">
        <ele>1058.07</ele>
        <time>2014-10-25T12:46:03Z</time>
      </trkpt>
      <trkpt lat="44.91172" lon="5.40014">
        <ele>1057.11</ele>
        <time>2014-10-25T12:46:04Z</time>
      </trkpt>
      <trkpt lat="44.91165" lon="5.40011">
        <ele>1056.63</ele>
        <time>2014-10-25T12:46:05Z</time>
      </trkpt>
      <trkpt lat="44.91157" lon="5.40011">
        <ele>1056.63</ele>
        <time>2014-10-25T12:46:06Z</time>
      </trkpt>
      <trkpt lat="44.9115" lon="5.40012">
        <ele>1056.63</ele>
        <time>2014-10-25T12:46:07Z</time>
      </trkpt>
      <trkpt lat="44.91124" lon="5.40014">
        <ele>1056.15</ele>
        <time>2014-10-25T12:46:11Z</time>
      </trkpt>
      <trkpt lat="44.91096" lon="5.4002">
        <ele>1056.15</ele>
        <time>2014-10-25T12:46:15Z</time>
      </trkpt>
      <trkpt lat="44.9109" lon="5.40023">
        <ele>1056.15</ele>
        <time>2014-10-25T12:46:16Z</time>
      </trkpt>
      <trkpt lat="44.91042" lon="5.4006">
        <ele>1055.18</ele>
        <time>2014-10-25T12:46:25Z</time>
      </trkpt>
      <trkpt lat="44.91035" lon="5.40068">
        <ele>1055.18</ele>
        <time>2014-10-25T12:46:27Z</time>
      </trkpt>
      <trkpt lat="44.91021" lon="5.4008">
        <ele>1055.18</ele>
        <time>2014-10-25T12:46:31Z</time>
      </trkpt>
      <trkpt lat="44.91017" lon="5.40082">
        <ele>1055.18</ele>
        <time>2014-10-25T12:46:32Z</time>
      </trkpt>
      <trkpt lat="44.91009" lon="5.40088">
        <ele>1055.18</ele>
        <time>2014-10-25T12:46:34Z</time>
      </trkpt>
      <trkpt lat="44.90996" lon="5.40094">
        <ele>1055.18</ele>
        <time>2014-10-25T12:46:37Z</time>
      </trkpt>
      <trkpt lat="44.90992" lon="5.40096">
        <ele>1055.18</ele>
        <time>2014-10-25T12:46:38Z</time>
      </trkpt>
      <trkpt lat="44.90987" lon="5.40097">
        <ele>1055.18</ele>
        <time>2014-10-25T12:46:39Z</time>
      </trkpt>
      <trkpt lat="44.90983" lon="5.40099">
        <ele>1055.18</ele>
        <time>2014-10-25T12:46:40Z</time>
      </trkpt>
      <trkpt lat="44.90978" lon="5.40101">
        <ele>1055.18</ele>
        <time>2014-10-25T12:46:41Z</time>
      </trkpt>
      <trkpt lat="44.90969" lon="5.40103">
        <ele>1055.18</ele>
        <time>2014-10-25T12:46:43Z</time>
      </trkpt>
      <trkpt lat="44.90964" lon="5.40104">
        <ele>1055.18</ele>
        <time>2014-10-25T12:46:44Z</time>
      </trkpt>
      <trkpt lat="44.90954" lon="5.40107">
        <ele>1055.18</ele>
        <time>2014-10-25T12:46:46Z</time>
      </trkpt>
      <trkpt lat="44.90949" lon="5.40107">
        <ele>1055.18</ele>
        <time>2014-10-25T12:46:47Z</time>
      </trkpt>
      <trkpt lat="44.90935" lon="5.40107">
        <ele>1055.18</ele>
        <time>2014-10-25T12:46:50Z</time>
      </trkpt>
      <trkpt lat="44.9089" lon="5.40083">
        <ele>1057.11</ele>
        <time>2014-10-25T12:47:00Z</time>
      </trkpt>
      <trkpt lat="44.90887" lon="5.40079">
        <ele>1057.11</ele>
        <time>2014-10-25T12:47:01Z</time>
      </trkpt>
      <trkpt lat="44.90872" lon="5.40053">
        <ele>1059.99</ele>
        <time>2014-10-25T12:47:07Z</time>
      </trkpt>
      <trkpt lat="44.90843" lon="5.40009">
        <ele>1060.47</ele>
        <time>2014-10-25T12:47:22Z</time>
      </trkpt>
      <trkpt lat="44.90814" lon="5.3996">
        <ele>1060.47</ele>
        <time>2014-10-25T12:47:34Z</time>
      </trkpt>
      <trkpt lat="44.9077" lon="5.39932">
        <ele>1059.03</ele>
        <time>2014-10-25T12:47:46Z</time>
      </trkpt>
      <trkpt lat="44.90743" lon="5.39911">
        <ele>1060.47</ele>
        <time>2014-10-25T12:47:58Z</time>
      </trkpt>
      <trkpt lat="44.9074" lon="5.3991">
        <ele>1060.47</ele>
        <time>2014-10-25T12:48:02Z</time>
      </trkpt>
      <trkpt lat="44.90739" lon="5.39911">
        <ele>1060.47</ele>
        <time>2014-10-25T12:48:03Z</time>
      </trkpt>
      <trkpt lat="44.90709" lon="5.39928">
        <ele>1061.43</ele>
        <time>2014-10-25T12:48:16Z</time>
      </trkpt>
      <trkpt lat="44.90705" lon="5.39927">
        <ele>1061.43</ele>
        <time>2014-10-25T12:48:17Z</time>
      </trkpt>
      <trkpt lat="44.90701" lon="5.39924">
        <ele>1061.43</ele>
        <time>2014-10-25T12:48:18Z</time>
      </trkpt>
      <trkpt lat="44.90699" lon="5.39921">
        <ele>1061.43</ele>
        <time>2014-10-25T12:48:19Z</time>
      </trkpt>
      <trkpt lat="44.90696" lon="5.39919">
        <ele>1061.43</ele>
        <time>2014-10-25T12:48:20Z</time>
      </trkpt>
      <trkpt lat="44.90693" lon="5.39917">
        <ele>1061.43</ele>
        <time>2014-10-25T12:48:21Z</time>
      </trkpt>
      <trkpt lat="44.9069" lon="5.39916">
        <ele>1061.43</ele>
        <time>2014-10-25T12:48:22Z</time>
      </trkpt>
      <trkpt lat="44.90649" lon="5.39898">
        <ele>1060.95</ele>
        <time>2014-10-25T12:48:36Z</time>
      </trkpt>
      <trkpt lat="44.90622" lon="5.3987">
        <ele>1060.95</ele>
        <time>2014-10-25T12:48:45Z</time>
      </trkpt>
      <trkpt lat="44.90618" lon="5.39866">
        <ele>1060.95</ele>
        <time>2014-10-25T12:48:46Z</time>
      </trkpt>
      <trkpt lat="44.9059" lon="5.39834">
        <ele>1063.36</ele>
        <time>2014-10-25T12:48:55Z</time>
      </trkpt>
      <trkpt lat="44.90568" lon="5.39809">
        <ele>1063.84</ele>
        <time>2014-10-25T12:49:07Z</time>
      </trkpt>
      <trkpt lat="44.90552" lon="5.39789">
        <ele>1063.36</ele>
        <time>2014-10-25T12:49:21Z</time>
      </trkpt>
      <trkpt lat="44.90547" lon="5.39787">
        <ele>1062.39</ele>
        <time>2014-10-25T12:49:23Z</time>
      </trkpt>
      <trkpt lat="44.90538" lon="5.39784">
        <ele>1060.95</ele>
        <time>2014-10-25T12:49:25Z</time>
      </trkpt>
      <trkpt lat="44.90533" lon="5.39783">
        <ele>1060.95</ele>
        <time>2014-10-25T12:49:26Z</time>
      </trkpt>
      <trkpt lat="44.90474" lon="5.39779">
        <ele>1058.55</ele>
        <time>2014-10-25T12:49:37Z</time>
      </trkpt>
      <trkpt lat="44.90456" lon="5.39773">
        <ele>1059.99</ele>
        <time>2014-10-25T12:49:41Z</time>
      </trkpt>
      <trkpt lat="44.90428" lon="5.39754">
        <ele>1063.36</ele>
        <time>2014-10-25T12:49:50Z</time>
      </trkpt>
      <trkpt lat="44.90403" lon="5.39713">
        <ele>1064.8</ele>
        <time>2014-10-25T12:50:05Z</time>
      </trkpt>
      <trkpt lat="44.90381" lon="5.39668">
        <ele>1064.8</ele>
        <time>2014-10-25T12:50:19Z</time>
      </trkpt>
      <trkpt lat="44.90351" lon="5.39623">
        <ele>1064.8</ele>
        <time>2014-10-25T12:50:34Z</time>
      </trkpt>
      <trkpt lat="44.90306" lon="5.39582">
        <ele>1064.32</ele>
        <time>2014-10-25T12:50:51Z</time>
      </trkpt>
      <trkpt lat="44.90265" lon="5.39561">
        <ele>1065.76</ele>
        <time>2014-10-25T12:51:05Z</time>
      </trkpt>
      <trkpt lat="44.90257" lon="5.39556">
        <ele>1065.76</ele>
        <time>2014-10-25T12:51:08Z</time>
      </trkpt>
      <trkpt lat="44.90255" lon="5.39555">
        <ele>1065.76</ele>
        <time>2014-10-25T12:51:09Z</time>
      </trkpt>
      <trkpt lat="44.90252" lon="5.39553">
        <ele>1065.76</ele>
        <time>2014-10-25T12:51:10Z</time>
      </trkpt>
      <trkpt lat="44.90244" lon="5.39546">
        <ele>1065.76</ele>
        <time>2014-10-25T12:51:13Z</time>
      </trkpt>
      <trkpt lat="44.90241" lon="5.39545">
        <ele>1065.76</ele>
        <time>2014-10-25T12:51:14Z</time>
      </trkpt>
      <trkpt lat="44.90214" lon="5.39531">
        <ele>1064.8</ele>
        <time>2014-10-25T12:51:22Z</time>
      </trkpt>
      <trkpt lat="44.90206" lon="5.39529">
        <ele>1064.32</ele>
        <time>2014-10-25T12:51:24Z</time>
      </trkpt>
      <trkpt lat="44.90202" lon="5.39526">
        <ele>1063.84</ele>
        <time>2014-10-25T12:51:25Z</time>
      </trkpt>
      <trkpt lat="44.90198" lon="5.39524">
        <ele>1063.84</ele>
        <time>2014-10-25T12:51:26Z</time>
      </trkpt>
      <trkpt lat="44.90194" lon="5.3952">
        <ele>1063.84</ele>
        <time>2014-10-25T12:51:27Z</time>
      </trkpt>
      <trkpt lat="44.90191" lon="5.39516">
        <ele>1063.84</ele>
        <time>2014-10-25T12:51:28Z</time>
      </trkpt>
      <trkpt lat="44.90151" lon="5.39476">
        <ele>1064.32</ele>
        <time>2014-10-25T12:51:41Z</time>
      </trkpt>
      <trkpt lat="44.90115" lon="5.39434">
        <ele>1065.28</ele>
        <time>2014-10-25T12:51:55Z</time>
      </trkpt>
      <trkpt lat="44.90117" lon="5.39379">
        <ele>1065.28</ele>
        <time>2014-10-25T12:52:09Z</time>
      </trkpt>
      <trkpt lat="44.90132" lon="5.39302">
        <ele>1065.28</ele>
        <time>2014-10-25T12:52:24Z</time>
      </trkpt>
      <trkpt lat="44.90134" lon="5.3929">
        <ele>1063.84</ele>
        <time>2014-10-25T12:52:26Z</time>
      </trkpt>
      <trkpt lat="44.90157" lon="5.39198">
        <ele>1064.32</ele>
        <time>2014-10-25T12:52:41Z</time>
      </trkpt>
      <trkpt lat="44.90159" lon="5.39193">
        <ele>1064.32</ele>
        <time>2014-10-25T12:52:42Z</time>
      </trkpt>
      <trkpt lat="44.90175" lon="5.39147">
        <ele>1066.24</ele>
        <time>2014-10-25T12:52:53Z</time>
      </trkpt>
      <trkpt lat="44.90175" lon="5.39119">
        <ele>1064.8</ele>
        <time>2014-10-25T12:52:58Z</time>
      </trkpt>
      <trkpt lat="44.90174" lon="5.39097">
        <ele>1063.84</ele>
        <time>2014-10-25T12:53:01Z</time>
      </trkpt>
      <trkpt lat="44.90179" lon="5.3904">
        <ele>1061.91</ele>
        <time>2014-10-25T12:53:09Z</time>
      </trkpt>
      <trkpt lat="44.90179" lon="5.39033">
        <ele>1061.91</ele>
        <time>2014-10-25T12:53:10Z</time>
      </trkpt>
      <trkpt lat="44.90178" lon="5.39027">
        <ele>1061.91</ele>
        <time>2014-10-25T12:53:11Z</time>
      </trkpt>
      <trkpt lat="44.90172" lon="5.39014">
        <ele>1061.43</ele>
        <time>2014-10-25T12:53:14Z</time>
      </trkpt>
      <trkpt lat="44.9017" lon="5.39015">
        <ele>1061.43</ele>
        <time>2014-10-25T12:53:15Z</time>
      </trkpt>
      <trkpt lat="44.90167" lon="5.39017">
        <ele>1061.43</ele>
        <time>2014-10-25T12:53:16Z</time>
      </trkpt>
      <trkpt lat="44.90165" lon="5.3902">
        <ele>1061.43</ele>
        <time>2014-10-25T12:53:17Z</time>
      </trkpt>
      <trkpt lat="44.90163" lon="5.39022">
        <ele>1061.43</ele>
        <time>2014-10-25T12:53:18Z</time>
      </trkpt>
      <trkpt lat="44.90161" lon="5.39024">
        <ele>1061.43</ele>
        <time>2014-10-25T12:53:19Z</time>
      </trkpt>
      <trkpt lat="44.90137" lon="5.39037">
        <ele>1061.43</ele>
        <time>2014-10-25T12:53:26Z</time>
      </trkpt>
      <trkpt lat="44.90133" lon="5.3904">
        <ele>1061.43</ele>
        <time>2014-10-25T12:53:27Z</time>
      </trkpt>
      <trkpt lat="44.90129" lon="5.39042">
        <ele>1061.43</ele>
        <time>2014-10-25T12:53:28Z</time>
      </trkpt>
      <trkpt lat="44.90085" lon="5.39044">
        <ele>1063.36</ele>
        <time>2014-10-25T12:53:41Z</time>
      </trkpt>
      <trkpt lat="44.90043" lon="5.39061">
        <ele>1064.8</ele>
        <time>2014-10-25T12:53:54Z</time>
      </trkpt>
      <trkpt lat="44.9" lon="5.39114">
        <ele>1067.2</ele>
        <time>2014-10-25T12:54:11Z</time>
      </trkpt>
      <trkpt lat="44.89963" lon="5.3918">
        <ele>1067.2</ele>
        <time>2014-10-25T12:54:26Z</time>
      </trkpt>
      <trkpt lat="44.89951" lon="5.39195">
        <ele>1065.76</ele>
        <time>2014-10-25T12:54:30Z</time>
      </trkpt>
      <trkpt lat="44.89921" lon="5.39217">
        <ele>1063.84</ele>
        <time>2014-10-25T12:54:38Z</time>
      </trkpt>
      <trkpt lat="44.89918" lon="5.3922">
        <ele>1063.84</ele>
        <time>2014-10-25T12:54:39Z</time>
      </trkpt>
      <trkpt lat="44.89915" lon="5.39223">
        <ele>1063.36</ele>
        <time>2014-10-25T12:54:40Z</time>
      </trkpt>
      <trkpt lat="44.89911" lon="5.39226">
        <ele>1063.36</ele>
        <time>2014-10-25T12:54:42Z</time>
      </trkpt>
      <trkpt lat="44.89909" lon="5.39225">
        <ele>1063.36</ele>
        <time>2014-10-25T12:54:43Z</time>
      </trkpt>
      <trkpt lat="44.89907" lon="5.39224">
        <ele>1062.87</ele>
        <time>2014-10-25T12:54:44Z</time>
      </trkpt>
      <trkpt lat="44.89905" lon="5.39221">
        <ele>1062.87</ele>
        <time>2014-10-25T12:54:45Z</time>
      </trkpt>
      <trkpt lat="44.89904" lon="5.39218">
        <ele>1062.39</ele>
        <time>2014-10-25T12:54:46Z</time>
      </trkpt>
      <trkpt lat="44.89903" lon="5.39214">
        <ele>1062.39</ele>
        <time>2014-10-25T12:54:47Z</time>
      </trkpt>
      <trkpt lat="44.89902" lon="5.39211">
        <ele>1061.91</ele>
        <time>2014-10-25T12:54:48Z</time>
      </trkpt>
      <trkpt lat="44.89902" lon="5.39208">
        <ele>1061.91</ele>
        <time>2014-10-25T12:54:49Z</time>
      </trkpt>
      <trkpt lat="44.89898" lon="5.39195">
        <ele>1060.95</ele>
        <time>2014-10-25T12:54:52Z</time>
      </trkpt>
      <trkpt lat="44.89895" lon="5.3919">
        <ele>1060.95</ele>
        <time>2014-10-25T12:54:53Z</time>
      </trkpt>
      <trkpt lat="44.89889" lon="5.39181">
        <ele>1060.47</ele>
        <time>2014-10-25T12:54:55Z</time>
      </trkpt>
      <trkpt lat="44.89886" lon="5.39176">
        <ele>1059.99</ele>
        <time>2014-10-25T12:54:56Z</time>
      </trkpt>
      <trkpt lat="44.89884" lon="5.39175">
        <ele>1059.99</ele>
        <time>2014-10-25T12:54:57Z</time>
      </trkpt>
      <trkpt lat="44.8988" lon="5.39177">
        <ele>1059.99</ele>
        <time>2014-10-25T12:54:58Z</time>
      </trkpt>
      <trkpt lat="44.89876" lon="5.3918">
        <ele>1059.51</ele>
        <time>2014-10-25T12:54:59Z</time>
      </trkpt>
      <trkpt lat="44.89871" lon="5.39182">
        <ele>1059.03</ele>
        <time>2014-10-25T12:55:00Z</time>
      </trkpt>
      <trkpt lat="44.89866" lon="5.39182">
        <ele>1058.55</ele>
        <time>2014-10-25T12:55:01Z</time>
      </trkpt>
      <trkpt lat="44.89861" lon="5.39181">
        <ele>1058.07</ele>
        <time>2014-10-25T12:55:02Z</time>
      </trkpt>
      <trkpt lat="44.89856" lon="5.3918">
        <ele>1058.07</ele>
        <time>2014-10-25T12:55:03Z</time>
      </trkpt>
      <trkpt lat="44.89816" lon="5.39175">
        <ele>1056.63</ele>
        <time>2014-10-25T12:55:10Z</time>
      </trkpt>
      <trkpt lat="44.8981" lon="5.39172">
        <ele>1056.63</ele>
        <time>2014-10-25T12:55:11Z</time>
      </trkpt>
      <trkpt lat="44.89805" lon="5.39169">
        <ele>1056.63</ele>
        <time>2014-10-25T12:55:12Z</time>
      </trkpt>
      <trkpt lat="44.898" lon="5.39165">
        <ele>1056.63</ele>
        <time>2014-10-25T12:55:13Z</time>
      </trkpt>
      <trkpt lat="44.89795" lon="5.39161">
        <ele>1056.63</ele>
        <time>2014-10-25T12:55:14Z</time>
      </trkpt>
      <trkpt lat="44.89748" lon="5.391">
        <ele>1056.15</ele>
        <time>2014-10-25T12:55:25Z</time>
      </trkpt>
      <trkpt lat="44.89669" lon="5.39011">
        <ele>1057.59</ele>
        <time>2014-10-25T12:55:38Z</time>
      </trkpt>
      <trkpt lat="44.89574" lon="5.38912">
        <ele>1058.55</ele>
        <time>2014-10-25T12:55:52Z</time>
      </trkpt>
      <trkpt lat="44.89497" lon="5.38833">
        <ele>1059.51</ele>
        <time>2014-10-25T12:56:05Z</time>
      </trkpt>
      <trkpt lat="44.89486" lon="5.38826">
        <ele>1059.51</ele>
        <time>2014-10-25T12:56:07Z</time>
      </trkpt>
      <trkpt lat="44.8948" lon="5.38822">
        <ele>1059.51</ele>
        <time>2014-10-25T12:56:08Z</time>
      </trkpt>
      <trkpt lat="44.89383" lon="5.38773">
        <ele>1060.47</ele>
        <time>2014-10-25T12:56:23Z</time>
      </trkpt>
      <trkpt lat="44.89289" lon="5.38735">
        <ele>1061.91</ele>
        <time>2014-10-25T12:56:38Z</time>
      </trkpt>
      <trkpt lat="44.89231" lon="5.38714">
        <ele>1062.87</ele>
        <time>2014-10-25T12:56:51Z</time>
      </trkpt>
      <trkpt lat="44.89187" lon="5.387">
        <ele>1063.84</ele>
        <time>2014-10-25T12:57:02Z</time>
      </trkpt>
      <trkpt lat="44.89123" lon="5.3868">
        <ele>1064.32</ele>
        <time>2014-10-25T12:57:16Z</time>
      </trkpt>
      <trkpt lat="44.89083" lon="5.3866">
        <ele>1066.24</ele>
        <time>2014-10-25T12:57:29Z</time>
      </trkpt>
      <trkpt lat="44.89064" lon="5.38648">
        <ele>1066.24</ele>
        <time>2014-10-25T12:57:41Z</time>
      </trkpt>
      <trkpt lat="44.89063" lon="5.38646">
        <ele>1066.24</ele>
        <time>2014-10-25T12:57:42Z</time>
      </trkpt>
      <trkpt lat="44.89062" lon="5.38645">
        <ele>1066.24</ele>
        <time>2014-10-25T12:57:43Z</time>
      </trkpt>
      <trkpt lat="44.89061" lon="5.38644">
        <ele>1066.24</ele>
        <time>2014-10-25T12:57:44Z</time>
      </trkpt>
      <trkpt lat="44.89059" lon="5.38643">
        <ele>1066.24</ele>
        <time>2014-10-25T12:57:45Z</time>
      </trkpt>
      <trkpt lat="44.89057" lon="5.38642">
        <ele>1066.24</ele>
        <time>2014-10-25T12:57:46Z</time>
      </trkpt>
      <trkpt lat="44.89055" lon="5.38641">
        <ele>1066.24</ele>
        <time>2014-10-25T12:57:47Z</time>
      </trkpt>
      <trkpt lat="44.89053" lon="5.38639">
        <ele>1066.72</ele>
        <time>2014-10-25T12:57:48Z</time>
      </trkpt>
      <trkpt lat="44.89022" lon="5.38623">
        <ele>1067.2</ele>
        <time>2014-10-25T12:58:02Z</time>
      </trkpt>
      <trkpt lat="44.88969" lon="5.38606">
        <ele>1068.16</ele>
        <time>2014-10-25T12:58:18Z</time>
      </trkpt>
      <trkpt lat="44.88908" lon="5.38585">
        <ele>1070.08</ele>
        <time>2014-10-25T12:58:35Z</time>
      </trkpt>
      <trkpt lat="44.88838" lon="5.38579">
        <ele>1071.05</ele>
        <time>2014-10-25T12:58:52Z</time>
      </trkpt>
      <trkpt lat="44.88762" lon="5.38587">
        <ele>1072.49</ele>
        <time>2014-10-25T12:59:11Z</time>
      </trkpt>
      <trkpt lat="44.88733" lon="5.38586">
        <ele>1073.93</ele>
        <time>2014-10-25T12:59:22Z</time>
      </trkpt>
      <trkpt lat="44.887" lon="5.38574">
        <ele>1074.89</ele>
        <time>2014-10-25T12:59:31Z</time>
      </trkpt>
      <trkpt lat="44.88638" lon="5.3853">
        <ele>1075.37</ele>
        <time>2014-10-25T12:59:48Z</time>
      </trkpt>
      <trkpt lat="44.88557" lon="5.3848">
        <ele>1076.33</ele>
        <time>2014-10-25T13:00:08Z</time>
      </trkpt>
      <trkpt lat="44.88477" lon="5.38455">
        <ele>1077.78</ele>
        <time>2014-10-25T13:00:26Z</time>
      </trkpt>
      <trkpt lat="44.88411" lon="5.38429">
        <ele>1079.22</ele>
        <time>2014-10-25T13:00:42Z</time>
      </trkpt>
      <trkpt lat="44.88402" lon="5.38428">
        <ele>1079.22</ele>
        <time>2014-10-25T13:00:44Z</time>
      </trkpt>
      <trkpt lat="44.88393" lon="5.38428">
        <ele>1079.7</ele>
        <time>2014-10-25T13:00:46Z</time>
      </trkpt>
      <trkpt lat="44.8838" lon="5.38428">
        <ele>1079.7</ele>
        <time>2014-10-25T13:00:49Z</time>
      </trkpt>
      <trkpt lat="44.88304" lon="5.38414">
        <ele>1080.66</ele>
        <time>2014-10-25T13:01:07Z</time>
      </trkpt>
      <trkpt lat="44.88232" lon="5.384">
        <ele>1082.58</ele>
        <time>2014-10-25T13:01:25Z</time>
      </trkpt>
      <trkpt lat="44.88177" lon="5.38389">
        <ele>1084.02</ele>
        <time>2014-10-25T13:01:39Z</time>
      </trkpt>
      <trkpt lat="44.88126" lon="5.38377">
        <ele>1085.95</ele>
        <time>2014-10-25T13:01:54Z</time>
      </trkpt>
      <trkpt lat="44.8807" lon="5.38363">
        <ele>1086.91</ele>
        <time>2014-10-25T13:02:10Z</time>
      </trkpt>
      <trkpt lat="44.88018" lon="5.3835">
        <ele>1088.83</ele>
        <time>2014-10-25T13:02:26Z</time>
      </trkpt>
      <trkpt lat="44.87965" lon="5.38337">
        <ele>1090.27</ele>
        <time>2014-10-25T13:02:43Z</time>
      </trkpt>
      <trkpt lat="44.87908" lon="5.38327">
        <ele>1091.23</ele>
        <time>2014-10-25T13:03:00Z</time>
      </trkpt>
      <trkpt lat="44.87874" lon="5.3832">
        <ele>1092.2</ele>
        <time>2014-10-25T13:03:10Z</time>
      </trkpt>
      <trkpt lat="44.87818" lon="5.38309">
        <ele>1093.64</ele>
        <time>2014-10-25T13:03:26Z</time>
      </trkpt>
      <trkpt lat="44.87781" lon="5.3828">
        <ele>1094.12</ele>
        <time>2014-10-25T13:03:38Z</time>
      </trkpt>
      <trkpt lat="44.87737" lon="5.38242">
        <ele>1095.56</ele>
        <time>2014-10-25T13:03:53Z</time>
      </trkpt>
      <trkpt lat="44.8768" lon="5.38202">
        <ele>1097.96</ele>
        <time>2014-10-25T13:04:11Z</time>
      </trkpt>
      <trkpt lat="44.87625" lon="5.38176">
        <ele>1099.4</ele>
        <time>2014-10-25T13:04:27Z</time>
      </trkpt>
      <trkpt lat="44.8757" lon="5.38146">
        <ele>1100.85</ele>
        <time>2014-10-25T13:04:44Z</time>
      </trkpt>
      <trkpt lat="44.87559" lon="5.38139">
        <ele>1100.85</ele>
        <time>2014-10-25T13:04:54Z</time>
      </trkpt>
      <trkpt lat="44.87559" lon="5.3814">
        <ele>1100.85</ele>
        <time>2014-10-25T13:05:24Z</time>
      </trkpt>
      <trkpt lat="44.8756" lon="5.38142">
        <ele>1100.85</ele>
        <time>2014-10-25T13:05:53Z</time>
      </trkpt>
      <trkpt lat="44.87558" lon="5.38141">
        <ele>1100.85</ele>
        <time>2014-10-25T13:06:19Z</time>
      </trkpt>
      <trkpt lat="44.87557" lon="5.3814">
        <ele>1100.85</ele>
        <time>2014-10-25T13:06:47Z</time>
      </trkpt>
      <trkpt lat="44.87556" lon="5.3814">
        <ele>1100.85</ele>
        <time>2014-10-25T13:07:18Z</time>
      </trkpt>
      <trkpt lat="44.87556" lon="5.38138">
        <ele>1100.85</ele>
        <time>2014-10-25T13:07:43Z</time>
      </trkpt>
      <trkpt lat="44.87557" lon="5.38136">
        <ele>1100.37</ele>
        <time>2014-10-25T13:08:07Z</time>
      </trkpt>
      <trkpt lat="44.87556" lon="5.38136">
        <ele>1100.37</ele>
        <time>2014-10-25T13:08:29Z</time>
      </trkpt>
      <trkpt lat="44.87555" lon="5.38135">
        <ele>1100.37</ele>
        <time>2014-10-25T13:08:52Z</time>
      </trkpt>
      <trkpt lat="44.87556" lon="5.38138">
        <ele>1100.37</ele>
        <time>2014-10-25T13:09:18Z</time>
      </trkpt>
      <trkpt lat="44.87556" lon="5.38139">
        <ele>1100.37</ele>
        <time>2014-10-25T13:09:46Z</time>
      </trkpt>
      <trkpt lat="44.87557" lon="5.3814">
        <ele>1100.37</ele>
        <time>2014-10-25T13:10:00Z</time>
      </trkpt>
      <trkpt lat="44.87556" lon="5.38139">
        <ele>1099.89</ele>
        <time>2014-10-25T13:10:39Z</time>
      </trkpt>
      <trkpt lat="44.87556" lon="5.38139">
        <ele>1099.89</ele>
        <time>2014-10-25T13:11:22Z</time>
      </trkpt>
      <trkpt lat="44.87557" lon="5.38139">
        <ele>1098.44</ele>
        <time>2014-10-25T13:12:13Z</time>
      </trkpt>
      <trkpt lat="44.87556" lon="5.38138">
        <ele>1098.44</ele>
        <time>2014-10-25T13:12:52Z</time>
      </trkpt>
      <trkpt lat="44.87556" lon="5.38138">
        <ele>1098.44</ele>
        <time>2014-10-25T13:13:39Z</time>
      </trkpt>
      <trkpt lat="44.87557" lon="5.38138">
        <ele>1098.44</ele>
        <time>2014-10-25T13:14:01Z</time>
      </trkpt>
      <trkpt lat="44.87558" lon="5.3814">
        <ele>1098.44</ele>
        <time>2014-10-25T13:14:29Z</time>
      </trkpt>
      <trkpt lat="44.87559" lon="5.38141">
        <ele>1098.44</ele>
        <time>2014-10-25T13:15:01Z</time>
      </trkpt>
      <trkpt lat="44.87546" lon="5.38132">
        <ele>1097.96</ele>
        <time>2014-10-25T13:15:16Z</time>
      </trkpt>
      <trkpt lat="44.87532" lon="5.38122">
        <ele>1099.4</ele>
        <time>2014-10-25T13:15:20Z</time>
      </trkpt>
      <trkpt lat="44.87483" lon="5.38093">
        <ele>1101.33</ele>
        <time>2014-10-25T13:15:35Z</time>
      </trkpt>
      <trkpt lat="44.87477" lon="5.38087">
        <ele>1101.81</ele>
        <time>2014-10-25T13:15:38Z</time>
      </trkpt>
      <trkpt lat="44.87476" lon="5.38085">
        <ele>1101.81</ele>
        <time>2014-10-25T13:15:39Z</time>
      </trkpt>
      <trkpt lat="44.87473" lon="5.38085">
        <ele>1101.81</ele>
        <time>2014-10-25T13:15:40Z</time>
      </trkpt>
      <trkpt lat="44.87471" lon="5.38084">
        <ele>1101.81</ele>
        <time>2014-10-25T13:15:41Z</time>
      </trkpt>
      <trkpt lat="44.87469" lon="5.38082">
        <ele>1101.81</ele>
        <time>2014-10-25T13:15:42Z</time>
      </trkpt>
      <trkpt lat="44.87467" lon="5.38081">
        <ele>1101.81</ele>
        <time>2014-10-25T13:15:43Z</time>
      </trkpt>
      <trkpt lat="44.87465" lon="5.38079">
        <ele>1101.81</ele>
        <time>2014-10-25T13:15:44Z</time>
      </trkpt>
      <trkpt lat="44.87447" lon="5.38064">
        <ele>1107.58</ele>
        <time>2014-10-25T13:15:53Z</time>
      </trkpt>
      <trkpt lat="44.87445" lon="5.38063">
        <ele>1103.25</ele>
        <time>2014-10-25T13:15:54Z</time>
      </trkpt>
      <trkpt lat="44.87438" lon="5.38057">
        <ele>1102.77</ele>
        <time>2014-10-25T13:16:02Z</time>
      </trkpt>
      <trkpt lat="44.87398" lon="5.38032">
        <ele>1102.77</ele>
        <time>2014-10-25T13:16:15Z</time>
      </trkpt>
      <trkpt lat="44.87345" lon="5.38007">
        <ele>1104.69</ele>
        <time>2014-10-25T13:16:32Z</time>
      </trkpt>
      <trkpt lat="44.87328" lon="5.37974">
        <ele>1106.13</ele>
        <time>2014-10-25T13:16:42Z</time>
      </trkpt>
      <trkpt lat="44.87306" lon="5.37944">
        <ele>1106.13</ele>
        <time>2014-10-25T13:16:54Z</time>
      </trkpt>
      <trkpt lat="44.87264" lon="5.37928">
        <ele>1107.58</ele>
        <time>2014-10-25T13:17:09Z</time>
      </trkpt>
      <trkpt lat="44.87253" lon="5.37927">
        <ele>1108.06</ele>
        <time>2014-10-25T13:17:14Z</time>
      </trkpt>
      <trkpt lat="44.87253" lon="5.37929">
        <ele>1108.06</ele>
        <time>2014-10-25T13:17:15Z</time>
      </trkpt>
      <trkpt lat="44.87254" lon="5.37933">
        <ele>1108.06</ele>
        <time>2014-10-25T13:17:16Z</time>
      </trkpt>
      <trkpt lat="44.87254" lon="5.37937">
        <ele>1108.06</ele>
        <time>2014-10-25T13:17:17Z</time>
      </trkpt>
      <trkpt lat="44.87252" lon="5.3794">
        <ele>1108.06</ele>
        <time>2014-10-25T13:17:18Z</time>
      </trkpt>
      <trkpt lat="44.8725" lon="5.37942">
        <ele>1108.06</ele>
        <time>2014-10-25T13:17:19Z</time>
      </trkpt>
      <trkpt lat="44.87246" lon="5.37943">
        <ele>1108.06</ele>
        <time>2014-10-25T13:17:20Z</time>
      </trkpt>
      <trkpt lat="44.87205" lon="5.37955">
        <ele>1110.94</ele>
        <time>2014-10-25T13:17:35Z</time>
      </trkpt>
      <trkpt lat="44.87169" lon="5.37972">
        <ele>1113.34</ele>
        <time>2014-10-25T13:17:49Z</time>
      </trkpt>
      <trkpt lat="44.87138" lon="5.3798">
        <ele>1114.79</ele>
        <time>2014-10-25T13:18:01Z</time>
      </trkpt>
      <trkpt lat="44.87101" lon="5.37998">
        <ele>1116.71</ele>
        <time>2014-10-25T13:18:17Z</time>
      </trkpt>
      <trkpt lat="44.87064" lon="5.38007">
        <ele>1118.15</ele>
        <time>2014-10-25T13:18:32Z</time>
      </trkpt>
      <trkpt lat="44.87021" lon="5.37998">
        <ele>1119.11</ele>
        <time>2014-10-25T13:18:49Z</time>
      </trkpt>
      <trkpt lat="44.86982" lon="5.37992">
        <ele>1120.55</ele>
        <time>2014-10-25T13:19:04Z</time>
      </trkpt>
      <trkpt lat="44.8694" lon="5.37979">
        <ele>1121.03</ele>
        <time>2014-10-25T13:19:20Z</time>
      </trkpt>
      <trkpt lat="44.86897" lon="5.37967">
        <ele>1122</ele>
        <time>2014-10-25T13:19:36Z</time>
      </trkpt>
      <trkpt lat="44.86856" lon="5.37963">
        <ele>1122</ele>
        <time>2014-10-25T13:19:50Z</time>
      </trkpt>
      <trkpt lat="44.86818" lon="5.37961">
        <ele>1121.03</ele>
        <time>2014-10-25T13:20:02Z</time>
      </trkpt>
      <trkpt lat="44.86769" lon="5.37962">
        <ele>1121.03</ele>
        <time>2014-10-25T13:20:16Z</time>
      </trkpt>
      <trkpt lat="44.86728" lon="5.37963">
        <ele>1122.48</ele>
        <time>2014-10-25T13:20:29Z</time>
      </trkpt>
      <trkpt lat="44.86682" lon="5.37963">
        <ele>1124.4</ele>
        <time>2014-10-25T13:20:46Z</time>
      </trkpt>
      <trkpt lat="44.86652" lon="5.37974">
        <ele>1127.28</ele>
        <time>2014-10-25T13:21:01Z</time>
      </trkpt>
      <trkpt lat="44.86628" lon="5.37976">
        <ele>1129.69</ele>
        <time>2014-10-25T13:21:14Z</time>
      </trkpt>
      <trkpt lat="44.86596" lon="5.37977">
        <ele>1132.09</ele>
        <time>2014-10-25T13:21:31Z</time>
      </trkpt>
      <trkpt lat="44.86567" lon="5.3798">
        <ele>1133.53</ele>
        <time>2014-10-25T13:21:46Z</time>
      </trkpt>
      <trkpt lat="44.86539" lon="5.37986">
        <ele>1134.49</ele>
        <time>2014-10-25T13:22:01Z</time>
      </trkpt>
      <trkpt lat="44.86506" lon="5.37992">
        <ele>1134.49</ele>
        <time>2014-10-25T13:22:15Z</time>
      </trkpt>
      <trkpt lat="44.86461" lon="5.37995">
        <ele>1134.97</ele>
        <time>2014-10-25T13:22:32Z</time>
      </trkpt>
      <trkpt lat="44.86442" lon="5.37994">
        <ele>1134.97</ele>
        <time>2014-10-25T13:22:42Z</time>
      </trkpt>
      <trkpt lat="44.8644" lon="5.37993">
        <ele>1134.97</ele>
        <time>2014-10-25T13:22:43Z</time>
      </trkpt>
      <trkpt lat="44.86439" lon="5.37991">
        <ele>1134.97</ele>
        <time>2014-10-25T13:22:44Z</time>
      </trkpt>
      <trkpt lat="44.86439" lon="5.37989">
        <ele>1134.97</ele>
        <time>2014-10-25T13:22:45Z</time>
      </trkpt>
      <trkpt lat="44.86439" lon="5.37987">
        <ele>1134.97</ele>
        <time>2014-10-25T13:22:46Z</time>
      </trkpt>
      <trkpt lat="44.86439" lon="5.37984">
        <ele>1134.97</ele>
        <time>2014-10-25T13:22:47Z</time>
      </trkpt>
      <trkpt lat="44.86439" lon="5.37982">
        <ele>1135.45</ele>
        <time>2014-10-25T13:22:48Z</time>
      </trkpt>
      <trkpt lat="44.86439" lon="5.37979">
        <ele>1135.45</ele>
        <time>2014-10-25T13:22:49Z</time>
      </trkpt>
      <trkpt lat="44.86426" lon="5.37955">
        <ele>1135.94</ele>
        <time>2014-10-25T13:22:59Z</time>
      </trkpt>
      <trkpt lat="44.86424" lon="5.37954">
        <ele>1135.94</ele>
        <time>2014-10-25T13:23:00Z</time>
      </trkpt>
      <trkpt lat="44.86393" lon="5.37931">
        <ele>1135.94</ele>
        <time>2014-10-25T13:23:15Z</time>
      </trkpt>
      <trkpt lat="44.86357" lon="5.37905">
        <ele>1136.42</ele>
        <time>2014-10-25T13:23:30Z</time>
      </trkpt>
      <trkpt lat="44.86343" lon="5.37883">
        <ele>1134.97</ele>
        <time>2014-10-25T13:23:36Z</time>
      </trkpt>
      <trkpt lat="44.86341" lon="5.37876">
        <ele>1134.97</ele>
        <time>2014-10-25T13:23:37Z</time>
      </trkpt>
      <trkpt lat="44.8634" lon="5.3787">
        <ele>1134.97</ele>
        <time>2014-10-25T13:23:38Z</time>
      </trkpt>
      <trkpt lat="44.8634" lon="5.37864">
        <ele>1134.49</ele>
        <time>2014-10-25T13:23:39Z</time>
      </trkpt>
      <trkpt lat="44.86342" lon="5.37858">
        <ele>1134.01</ele>
        <time>2014-10-25T13:23:40Z</time>
      </trkpt>
      <trkpt lat="44.86345" lon="5.37852">
        <ele>1134.01</ele>
        <time>2014-10-25T13:23:41Z</time>
      </trkpt>
      <trkpt lat="44.86348" lon="5.37847">
        <ele>1133.53</ele>
        <time>2014-10-25T13:23:42Z</time>
      </trkpt>
      <trkpt lat="44.86352" lon="5.37842">
        <ele>1133.05</ele>
        <time>2014-10-25T13:23:43Z</time>
      </trkpt>
      <trkpt lat="44.86386" lon="5.37803">
        <ele>1131.61</ele>
        <time>2014-10-25T13:23:50Z</time>
      </trkpt>
      <trkpt lat="44.8639" lon="5.37796">
        <ele>1131.61</ele>
        <time>2014-10-25T13:23:51Z</time>
      </trkpt>
      <trkpt lat="44.86393" lon="5.37788">
        <ele>1131.61</ele>
        <time>2014-10-25T13:23:52Z</time>
      </trkpt>
      <trkpt lat="44.86396" lon="5.37781">
        <ele>1133.05</ele>
        <time>2014-10-25T13:23:53Z</time>
      </trkpt>
      <trkpt lat="44.86397" lon="5.37775">
        <ele>1133.53</ele>
        <time>2014-10-25T13:23:54Z</time>
      </trkpt>
      <trkpt lat="44.86409" lon="5.37727">
        <ele>1136.42</ele>
        <time>2014-10-25T13:24:06Z</time>
      </trkpt>
      <trkpt lat="44.86417" lon="5.37666">
        <ele>1137.38</ele>
        <time>2014-10-25T13:24:23Z</time>
      </trkpt>
      <trkpt lat="44.86425" lon="5.37602">
        <ele>1138.34</ele>
        <time>2014-10-25T13:24:39Z</time>
      </trkpt>
      <trkpt lat="44.8644" lon="5.37536">
        <ele>1139.3</ele>
        <time>2014-10-25T13:24:55Z</time>
      </trkpt>
      <trkpt lat="44.86445" lon="5.37481">
        <ele>1141.22</ele>
        <time>2014-10-25T13:25:07Z</time>
      </trkpt>
      <trkpt lat="44.8645" lon="5.37414">
        <ele>1143.14</ele>
        <time>2014-10-25T13:25:22Z</time>
      </trkpt>
      <trkpt lat="44.86423" lon="5.37375">
        <ele>1145.55</ele>
        <time>2014-10-25T13:25:36Z</time>
      </trkpt>
      <trkpt lat="44.86396" lon="5.37338">
        <ele>1147.47</ele>
        <time>2014-10-25T13:25:50Z</time>
      </trkpt>
      <trkpt lat="44.86356" lon="5.37292">
        <ele>1148.43</ele>
        <time>2014-10-25T13:26:07Z</time>
      </trkpt>
      <trkpt lat="44.86317" lon="5.37236">
        <ele>1150.35</ele>
        <time>2014-10-25T13:26:26Z</time>
      </trkpt>
      <trkpt lat="44.86301" lon="5.37213">
        <ele>1151.32</ele>
        <time>2014-10-25T13:26:40Z</time>
      </trkpt>
      <trkpt lat="44.86303" lon="5.37213">
        <ele>1151.8</ele>
        <time>2014-10-25T13:27:12Z</time>
      </trkpt>
      <trkpt lat="44.86304" lon="5.37214">
        <ele>1151.8</ele>
        <time>2014-10-25T13:27:46Z</time>
      </trkpt>
      <trkpt lat="44.86289" lon="5.3721">
        <ele>1151.8</ele>
        <time>2014-10-25T13:28:01Z</time>
      </trkpt>
      <trkpt lat="44.86288" lon="5.37208">
        <ele>1151.8</ele>
        <time>2014-10-25T13:28:02Z</time>
      </trkpt>
      <trkpt lat="44.86285" lon="5.37206">
        <ele>1152.28</ele>
        <time>2014-10-25T13:28:06Z</time>
      </trkpt>
      <trkpt lat="44.86281" lon="5.37203">
        <ele>1152.76</ele>
        <time>2014-10-25T13:28:11Z</time>
      </trkpt>
      <trkpt lat="44.86274" lon="5.37196">
        <ele>1153.24</ele>
        <time>2014-10-25T13:28:18Z</time>
      </trkpt>
      <trkpt lat="44.86273" lon="5.37195">
        <ele>1153.24</ele>
        <time>2014-10-25T13:28:19Z</time>
      </trkpt>
      <trkpt lat="44.86273" lon="5.37194">
        <ele>1153.24</ele>
        <time>2014-10-25T13:28:20Z</time>
      </trkpt>
      <trkpt lat="44.86268" lon="5.37187">
        <ele>1153.72</ele>
        <time>2014-10-25T13:28:30Z</time>
      </trkpt>
      <trkpt lat="44.86268" lon="5.37186">
        <ele>1153.72</ele>
        <time>2014-10-25T13:28:31Z</time>
      </trkpt>
      <trkpt lat="44.86267" lon="5.37184">
        <ele>1153.72</ele>
        <time>2014-10-25T13:28:32Z</time>
      </trkpt>
      <trkpt lat="44.86266" lon="5.37182">
        <ele>1154.2</ele>
        <time>2014-10-25T13:28:33Z</time>
      </trkpt>
      <trkpt lat="44.86265" lon="5.37181">
        <ele>1154.2</ele>
        <time>2014-10-25T13:28:34Z</time>
      </trkpt>
      <trkpt lat="44.86261" lon="5.37181">
        <ele>1154.68</ele>
        <time>2014-10-25T13:28:46Z</time>
      </trkpt>
      <trkpt lat="44.86259" lon="5.37181">
        <ele>1154.68</ele>
        <time>2014-10-25T13:28:55Z</time>
      </trkpt>
      <trkpt lat="44.86258" lon="5.37181">
        <ele>1154.68</ele>
        <time>2014-10-25T13:28:57Z</time>
      </trkpt>
      <trkpt lat="44.86244" lon="5.37167">
        <ele>1155.64</ele>
        <time>2014-10-25T13:29:10Z</time>
      </trkpt>
      <trkpt lat="44.86224" lon="5.37137">
        <ele>1157.56</ele>
        <time>2014-10-25T13:29:25Z</time>
      </trkpt>
      <trkpt lat="44.86199" lon="5.37127">
        <ele>1158.53</ele>
        <time>2014-10-25T13:29:38Z</time>
      </trkpt>
      <trkpt lat="44.86173" lon="5.37111">
        <ele>1160.45</ele>
        <time>2014-10-25T13:29:52Z</time>
      </trkpt>
      <trkpt lat="44.86145" lon="5.37089">
        <ele>1162.85</ele>
        <time>2014-10-25T13:30:06Z</time>
      </trkpt>
      <trkpt lat="44.8614" lon="5.37083">
        <ele>1163.33</ele>
        <time>2014-10-25T13:30:12Z</time>
      </trkpt>
      <trkpt lat="44.86139" lon="5.37082">
        <ele>1163.33</ele>
        <time>2014-10-25T13:30:13Z</time>
      </trkpt>
      <trkpt lat="44.86119" lon="5.37063">
        <ele>1164.77</ele>
        <time>2014-10-25T13:30:27Z</time>
      </trkpt>
      <trkpt lat="44.86093" lon="5.3704">
        <ele>1167.18</ele>
        <time>2014-10-25T13:30:44Z</time>
      </trkpt>
      <trkpt lat="44.86071" lon="5.37019">
        <ele>1169.1</ele>
        <time>2014-10-25T13:30:59Z</time>
      </trkpt>
      <trkpt lat="44.86047" lon="5.36998">
        <ele>1171.98</ele>
        <time>2014-10-25T13:31:14Z</time>
      </trkpt>
      <trkpt lat="44.86028" lon="5.36968">
        <ele>1174.87</ele>
        <time>2014-10-25T13:31:30Z</time>
      </trkpt>
      <trkpt lat="44.8601" lon="5.36937">
        <ele>1178.23</ele>
        <time>2014-10-25T13:31:47Z</time>
      </trkpt>
      <trkpt lat="44.85994" lon="5.36914">
        <ele>1180.64</ele>
        <time>2014-10-25T13:32:02Z</time>
      </trkpt>
      <trkpt lat="44.85979" lon="5.36893">
        <ele>1183.04</ele>
        <time>2014-10-25T13:32:16Z</time>
      </trkpt>
      <trkpt lat="44.85963" lon="5.36869">
        <ele>1185.92</ele>
        <time>2014-10-25T13:32:32Z</time>
      </trkpt>
      <trkpt lat="44.85959" lon="5.36862">
        <ele>1186.88</ele>
        <time>2014-10-25T13:32:37Z</time>
      </trkpt>
      <trkpt lat="44.85958" lon="5.3686">
        <ele>1186.88</ele>
        <time>2014-10-25T13:32:38Z</time>
      </trkpt>
      <trkpt lat="44.85957" lon="5.36859">
        <ele>1187.37</ele>
        <time>2014-10-25T13:32:39Z</time>
      </trkpt>
      <trkpt lat="44.85956" lon="5.36858">
        <ele>1187.37</ele>
        <time>2014-10-25T13:32:40Z</time>
      </trkpt>
      <trkpt lat="44.85955" lon="5.36857">
        <ele>1187.37</ele>
        <time>2014-10-25T13:32:41Z</time>
      </trkpt>
      <trkpt lat="44.85935" lon="5.36838">
        <ele>1189.77</ele>
        <time>2014-10-25T13:32:59Z</time>
      </trkpt>
      <trkpt lat="44.85915" lon="5.36818">
        <ele>1193.13</ele>
        <time>2014-10-25T13:33:16Z</time>
      </trkpt>
      <trkpt lat="44.85898" lon="5.36793">
        <ele>1196.02</ele>
        <time>2014-10-25T13:33:33Z</time>
      </trkpt>
      <trkpt lat="44.85885" lon="5.36766">
        <ele>1197.94</ele>
        <time>2014-10-25T13:33:48Z</time>
      </trkpt>
      <trkpt lat="44.85871" lon="5.36732">
        <ele>1200.82</ele>
        <time>2014-10-25T13:34:05Z</time>
      </trkpt>
      <trkpt lat="44.85863" lon="5.36697">
        <ele>1203.23</ele>
        <time>2014-10-25T13:34:21Z</time>
      </trkpt>
      <trkpt lat="44.85857" lon="5.36665">
        <ele>1205.15</ele>
        <time>2014-10-25T13:34:35Z</time>
      </trkpt>
      <trkpt lat="44.8585" lon="5.36631">
        <ele>1206.59</ele>
        <time>2014-10-25T13:34:49Z</time>
      </trkpt>
      <trkpt lat="44.85844" lon="5.366">
        <ele>1208.03</ele>
        <time>2014-10-25T13:35:03Z</time>
      </trkpt>
      <trkpt lat="44.85827" lon="5.36571">
        <ele>1209.48</ele>
        <time>2014-10-25T13:35:17Z</time>
      </trkpt>
      <trkpt lat="44.85814" lon="5.3654">
        <ele>1210.92</ele>
        <time>2014-10-25T13:35:30Z</time>
      </trkpt>
      <trkpt lat="44.858" lon="5.36506">
        <ele>1212.36</ele>
        <time>2014-10-25T13:35:45Z</time>
      </trkpt>
      <trkpt lat="44.85783" lon="5.36473">
        <ele>1213.32</ele>
        <time>2014-10-25T13:35:59Z</time>
      </trkpt>
      <trkpt lat="44.85764" lon="5.36434">
        <ele>1214.76</ele>
        <time>2014-10-25T13:36:16Z</time>
      </trkpt>
      <trkpt lat="44.85743" lon="5.3639">
        <ele>1216.69</ele>
        <time>2014-10-25T13:36:35Z</time>
      </trkpt>
      <trkpt lat="44.85731" lon="5.36349">
        <ele>1218.13</ele>
        <time>2014-10-25T13:36:51Z</time>
      </trkpt>
      <trkpt lat="44.85721" lon="5.36301">
        <ele>1219.09</ele>
        <time>2014-10-25T13:37:10Z</time>
      </trkpt>
      <trkpt lat="44.85723" lon="5.36262">
        <ele>1220.53</ele>
        <time>2014-10-25T13:37:24Z</time>
      </trkpt>
      <trkpt lat="44.85723" lon="5.3623">
        <ele>1221.01</ele>
        <time>2014-10-25T13:37:35Z</time>
      </trkpt>
      <trkpt lat="44.85723" lon="5.36227">
        <ele>1221.01</ele>
        <time>2014-10-25T13:37:36Z</time>
      </trkpt>
      <trkpt lat="44.85723" lon="5.36225">
        <ele>1221.01</ele>
        <time>2014-10-25T13:37:37Z</time>
      </trkpt>
      <trkpt lat="44.85723" lon="5.36223">
        <ele>1221.01</ele>
        <time>2014-10-25T13:37:38Z</time>
      </trkpt>
      <trkpt lat="44.85723" lon="5.3622">
        <ele>1221.49</ele>
        <time>2014-10-25T13:37:39Z</time>
      </trkpt>
      <trkpt lat="44.85723" lon="5.36218">
        <ele>1221.49</ele>
        <time>2014-10-25T13:37:40Z</time>
      </trkpt>
      <trkpt lat="44.85722" lon="5.3621">
        <ele>1221.49</ele>
        <time>2014-10-25T13:37:43Z</time>
      </trkpt>
      <trkpt lat="44.85721" lon="5.36207">
        <ele>1221.97</ele>
        <time>2014-10-25T13:37:44Z</time>
      </trkpt>
      <trkpt lat="44.8572" lon="5.36204">
        <ele>1221.97</ele>
        <time>2014-10-25T13:37:45Z</time>
      </trkpt>
      <trkpt lat="44.8572" lon="5.36201">
        <ele>1221.97</ele>
        <time>2014-10-25T13:37:46Z</time>
      </trkpt>
      <trkpt lat="44.85719" lon="5.36198">
        <ele>1218.13</ele>
        <time>2014-10-25T13:37:47Z</time>
      </trkpt>
      <trkpt lat="44.85719" lon="5.36195">
        <ele>1222.93</ele>
        <time>2014-10-25T13:37:48Z</time>
      </trkpt>
      <trkpt lat="44.85718" lon="5.36192">
        <ele>1228.22</ele>
        <time>2014-10-25T13:37:49Z</time>
      </trkpt>
      <trkpt lat="44.85718" lon="5.36189">
        <ele>1222.93</ele>
        <time>2014-10-25T13:37:50Z</time>
      </trkpt>
      <trkpt lat="44.85715" lon="5.36175">
        <ele>1223.9</ele>
        <time>2014-10-25T13:37:55Z</time>
      </trkpt>
      <trkpt lat="44.85712" lon="5.36129">
        <ele>1225.34</ele>
        <time>2014-10-25T13:38:08Z</time>
      </trkpt>
      <trkpt lat="44.85707" lon="5.36083">
        <ele>1227.26</ele>
        <time>2014-10-25T13:38:21Z</time>
      </trkpt>
      <trkpt lat="44.85707" lon="5.36076">
        <ele>1227.74</ele>
        <time>2014-10-25T13:38:24Z</time>
      </trkpt>
      <trkpt lat="44.85706" lon="5.36073">
        <ele>1227.74</ele>
        <time>2014-10-25T13:38:25Z</time>
      </trkpt>
      <trkpt lat="44.85701" lon="5.36056">
        <ele>1230.14</ele>
        <time>2014-10-25T13:38:32Z</time>
      </trkpt>
      <trkpt lat="44.85699" lon="5.36055">
        <ele>1230.14</ele>
        <time>2014-10-25T13:38:33Z</time>
      </trkpt>
      <trkpt lat="44.85698" lon="5.36054">
        <ele>1230.14</ele>
        <time>2014-10-25T13:38:34Z</time>
      </trkpt>
      <trkpt lat="44.85696" lon="5.36052">
        <ele>1230.62</ele>
        <time>2014-10-25T13:38:35Z</time>
      </trkpt>
      <trkpt lat="44.85694" lon="5.3605">
        <ele>1230.62</ele>
        <time>2014-10-25T13:38:36Z</time>
      </trkpt>
      <trkpt lat="44.85692" lon="5.36048">
        <ele>1230.62</ele>
        <time>2014-10-25T13:38:37Z</time>
      </trkpt>
      <trkpt lat="44.8569" lon="5.36045">
        <ele>1230.62</ele>
        <time>2014-10-25T13:38:38Z</time>
      </trkpt>
      <trkpt lat="44.85688" lon="5.36043">
        <ele>1230.62</ele>
        <time>2014-10-25T13:38:39Z</time>
      </trkpt>
      <trkpt lat="44.85666" lon="5.36023">
        <ele>1233.03</ele>
        <time>2014-10-25T13:38:52Z</time>
      </trkpt>
      <trkpt lat="44.85649" lon="5.36005">
        <ele>1236.39</ele>
        <time>2014-10-25T13:39:07Z</time>
      </trkpt>
      <trkpt lat="44.85636" lon="5.35981">
        <ele>1237.35</ele>
        <time>2014-10-25T13:39:19Z</time>
      </trkpt>
      <trkpt lat="44.85624" lon="5.35952">
        <ele>1239.28</ele>
        <time>2014-10-25T13:39:32Z</time>
      </trkpt>
      <trkpt lat="44.85626" lon="5.35943">
        <ele>1239.76</ele>
        <time>2014-10-25T13:39:36Z</time>
      </trkpt>
      <trkpt lat="44.85634" lon="5.35918">
        <ele>1241.2</ele>
        <time>2014-10-25T13:39:49Z</time>
      </trkpt>
      <trkpt lat="44.85638" lon="5.35912">
        <ele>1241.68</ele>
        <time>2014-10-25T13:39:52Z</time>
      </trkpt>
      <trkpt lat="44.85639" lon="5.3591">
        <ele>1242.64</ele>
        <time>2014-10-25T13:39:53Z</time>
      </trkpt>
      <trkpt lat="44.8564" lon="5.35909">
        <ele>1242.64</ele>
        <time>2014-10-25T13:39:54Z</time>
      </trkpt>
      <trkpt lat="44.85654" lon="5.35889">
        <ele>1243.6</ele>
        <time>2014-10-25T13:40:07Z</time>
      </trkpt>
      <trkpt lat="44.85671" lon="5.35858">
        <ele>1246.01</ele>
        <time>2014-10-25T13:40:20Z</time>
      </trkpt>
      <trkpt lat="44.85686" lon="5.35834">
        <ele>1247.93</ele>
        <time>2014-10-25T13:40:34Z</time>
      </trkpt>
      <trkpt lat="44.85695" lon="5.3582">
        <ele>1246.97</ele>
        <time>2014-10-25T13:40:45Z</time>
      </trkpt>
      <trkpt lat="44.85705" lon="5.35804">
        <ele>1246.97</ele>
        <time>2014-10-25T13:41:00Z</time>
      </trkpt>
      <trkpt lat="44.8572" lon="5.35787">
        <ele>1247.45</ele>
        <time>2014-10-25T13:41:11Z</time>
      </trkpt>
      <trkpt lat="44.85725" lon="5.35783">
        <ele>1247.45</ele>
        <time>2014-10-25T13:41:15Z</time>
      </trkpt>
      <trkpt lat="44.85728" lon="5.35776">
        <ele>1247.45</ele>
        <time>2014-10-25T13:41:23Z</time>
      </trkpt>
      <trkpt lat="44.85729" lon="5.35774">
        <ele>1247.45</ele>
        <time>2014-10-25T13:41:24Z</time>
      </trkpt>
      <trkpt lat="44.8573" lon="5.35772">
        <ele>1247.45</ele>
        <time>2014-10-25T13:41:25Z</time>
      </trkpt>
      <trkpt lat="44.85731" lon="5.3577">
        <ele>1247.45</ele>
        <time>2014-10-25T13:41:26Z</time>
      </trkpt>
      <trkpt lat="44.85731" lon="5.35768">
        <ele>1247.45</ele>
        <time>2014-10-25T13:41:27Z</time>
      </trkpt>
      <trkpt lat="44.85732" lon="5.35765">
        <ele>1247.45</ele>
        <time>2014-10-25T13:41:28Z</time>
      </trkpt>
      <trkpt lat="44.85734" lon="5.35759">
        <ele>1247.45</ele>
        <time>2014-10-25T13:41:30Z</time>
      </trkpt>
      <trkpt lat="44.85735" lon="5.35756">
        <ele>1247.45</ele>
        <time>2014-10-25T13:41:31Z</time>
      </trkpt>
      <trkpt lat="44.8575" lon="5.35725">
        <ele>1247.45</ele>
        <time>2014-10-25T13:41:44Z</time>
      </trkpt>
      <trkpt lat="44.85757" lon="5.3571">
        <ele>1247.45</ele>
        <time>2014-10-25T13:41:50Z</time>
      </trkpt>
      <trkpt lat="44.85758" lon="5.35709">
        <ele>1247.45</ele>
        <time>2014-10-25T13:41:51Z</time>
      </trkpt>
      <trkpt lat="44.85759" lon="5.35708">
        <ele>1247.45</ele>
        <time>2014-10-25T13:41:52Z</time>
      </trkpt>
      <trkpt lat="44.85778" lon="5.35688">
        <ele>1247.45</ele>
        <time>2014-10-25T13:42:07Z</time>
      </trkpt>
      <trkpt lat="44.85786" lon="5.35673">
        <ele>1247.93</ele>
        <time>2014-10-25T13:42:23Z</time>
      </trkpt>
      <trkpt lat="44.85802" lon="5.35639">
        <ele>1247.93</ele>
        <time>2014-10-25T13:42:35Z</time>
      </trkpt>
      <trkpt lat="44.85807" lon="5.35633">
        <ele>1247.93</ele>
        <time>2014-10-25T13:42:39Z</time>
      </trkpt>
      <trkpt lat="44.85809" lon="5.35629">
        <ele>1247.93</ele>
        <time>2014-10-25T13:42:56Z</time>
      </trkpt>
      <trkpt lat="44.85809" lon="5.35625">
        <ele>1247.93</ele>
        <time>2014-10-25T13:43:25Z</time>
      </trkpt>
      <trkpt lat="44.8581" lon="5.35632">
        <ele>1247.93</ele>
        <time>2014-10-25T13:43:50Z</time>
      </trkpt>
      <trkpt lat="44.85819" lon="5.3565">
        <ele>1247.93</ele>
        <time>2014-10-25T13:43:58Z</time>
      </trkpt>
      <trkpt lat="44.85823" lon="5.35656">
        <ele>1247.93</ele>
        <time>2014-10-25T13:44:14Z</time>
      </trkpt>
      <trkpt lat="44.85823" lon="5.35656">
        <ele>1247.93</ele>
        <time>2014-10-25T13:44:15Z</time>
      </trkpt>
      <trkpt lat="44.85812" lon="5.35641">
        <ele>1247.93</ele>
        <time>2014-10-25T13:44:25Z</time>
      </trkpt>
      <trkpt lat="44.85807" lon="5.35638">
        <ele>1247.93</ele>
        <time>2014-10-25T13:44:27Z</time>
      </trkpt>
      <trkpt lat="44.85803" lon="5.35639">
        <ele>1247.93</ele>
        <time>2014-10-25T13:44:28Z</time>
      </trkpt>
      <trkpt lat="44.85801" lon="5.3564">
        <ele>1247.93</ele>
        <time>2014-10-25T13:44:29Z</time>
      </trkpt>
      <trkpt lat="44.85798" lon="5.35643">
        <ele>1247.93</ele>
        <time>2014-10-25T13:44:30Z</time>
      </trkpt>
      <trkpt lat="44.85796" lon="5.35646">
        <ele>1247.93</ele>
        <time>2014-10-25T13:44:31Z</time>
      </trkpt>
      <trkpt lat="44.85795" lon="5.35649">
        <ele>1247.93</ele>
        <time>2014-10-25T13:44:32Z</time>
      </trkpt>
      <trkpt lat="44.85794" lon="5.35652">
        <ele>1247.93</ele>
        <time>2014-10-25T13:44:33Z</time>
      </trkpt>
      <trkpt lat="44.85793" lon="5.35655">
        <ele>1247.93</ele>
        <time>2014-10-25T13:44:34Z</time>
      </trkpt>
      <trkpt lat="44.85791" lon="5.35659">
        <ele>1247.93</ele>
        <time>2014-10-25T13:44:35Z</time>
      </trkpt>
      <trkpt lat="44.8579" lon="5.35662">
        <ele>1247.93</ele>
        <time>2014-10-25T13:44:36Z</time>
      </trkpt>
      <trkpt lat="44.85788" lon="5.35664">
        <ele>1247.93</ele>
        <time>2014-10-25T13:44:37Z</time>
      </trkpt>
      <trkpt lat="44.85787" lon="5.35667">
        <ele>1247.93</ele>
        <time>2014-10-25T13:44:38Z</time>
      </trkpt>
      <trkpt lat="44.85786" lon="5.35669">
        <ele>1247.93</ele>
        <time>2014-10-25T13:44:39Z</time>
      </trkpt>
      <trkpt lat="44.85784" lon="5.35672">
        <ele>1247.93</ele>
        <time>2014-10-25T13:44:40Z</time>
      </trkpt>
      <trkpt lat="44.85783" lon="5.35675">
        <ele>1247.93</ele>
        <time>2014-10-25T13:44:41Z</time>
      </trkpt>
      <trkpt lat="44.85781" lon="5.35678">
        <ele>1247.93</ele>
        <time>2014-10-25T13:44:42Z</time>
      </trkpt>
      <trkpt lat="44.85779" lon="5.35681">
        <ele>1247.93</ele>
        <time>2014-10-25T13:44:43Z</time>
      </trkpt>
      <trkpt lat="44.85777" lon="5.35683">
        <ele>1247.93</ele>
        <time>2014-10-25T13:44:44Z</time>
      </trkpt>
      <trkpt lat="44.85775" lon="5.35686">
        <ele>1247.93</ele>
        <time>2014-10-25T13:44:45Z</time>
      </trkpt>
      <trkpt lat="44.85773" lon="5.35688">
        <ele>1247.93</ele>
        <time>2014-10-25T13:44:46Z</time>
      </trkpt>
      <trkpt lat="44.8576" lon="5.35702">
        <ele>1247.93</ele>
        <time>2014-10-25T13:44:51Z</time>
      </trkpt>
      <trkpt lat="44.85758" lon="5.35706">
        <ele>1247.93</ele>
        <time>2014-10-25T13:44:52Z</time>
      </trkpt>
      <trkpt lat="44.85756" lon="5.35711">
        <ele>1247.93</ele>
        <time>2014-10-25T13:44:53Z</time>
      </trkpt>
      <trkpt lat="44.85754" lon="5.35715">
        <ele>1247.93</ele>
        <time>2014-10-25T13:44:54Z</time>
      </trkpt>
      <trkpt lat="44.85752" lon="5.35719">
        <ele>1247.93</ele>
        <time>2014-10-25T13:44:55Z</time>
      </trkpt>
      <trkpt lat="44.85749" lon="5.35724">
        <ele>1247.93</ele>
        <time>2014-10-25T13:44:56Z</time>
      </trkpt>
      <trkpt lat="44.85732" lon="5.3577">
        <ele>1247.93</ele>
        <time>2014-10-25T13:45:06Z</time>
      </trkpt>
      <trkpt lat="44.85704" lon="5.35804">
        <ele>1247.93</ele>
        <time>2014-10-25T13:45:17Z</time>
      </trkpt>
      <trkpt lat="44.85678" lon="5.35843">
        <ele>1247.45</ele>
        <time>2014-10-25T13:45:28Z</time>
      </trkpt>
      <trkpt lat="44.85667" lon="5.35857">
        <ele>1246.49</ele>
        <time>2014-10-25T13:45:38Z</time>
      </trkpt>
      <trkpt lat="44.8567" lon="5.35855">
        <ele>1246.49</ele>
        <time>2014-10-25T13:45:54Z</time>
      </trkpt>
      <trkpt lat="44.85671" lon="5.35854">
        <ele>1246.49</ele>
        <time>2014-10-25T13:45:55Z</time>
      </trkpt>
      <trkpt lat="44.85672" lon="5.35853">
        <ele>1246.49</ele>
        <time>2014-10-25T13:45:56Z</time>
      </trkpt>
      <trkpt lat="44.85673" lon="5.35851">
        <ele>1246.49</ele>
        <time>2014-10-25T13:45:57Z</time>
      </trkpt>
      <trkpt lat="44.85674" lon="5.35849">
        <ele>1246.49</ele>
        <time>2014-10-25T13:45:58Z</time>
      </trkpt>
      <trkpt lat="44.85675" lon="5.35847">
        <ele>1246.97</ele>
        <time>2014-10-25T13:45:59Z</time>
      </trkpt>
      <trkpt lat="44.85678" lon="5.35842">
        <ele>1247.93</ele>
        <time>2014-10-25T13:46:03Z</time>
      </trkpt>
      <trkpt lat="44.85699" lon="5.35818">
        <ele>1248.41</ele>
        <time>2014-10-25T13:46:14Z</time>
      </trkpt>
      <trkpt lat="44.85715" lon="5.35792">
        <ele>1248.89</ele>
        <time>2014-10-25T13:46:26Z</time>
      </trkpt>
      <trkpt lat="44.85717" lon="5.35791">
        <ele>1248.89</ele>
        <time>2014-10-25T13:46:27Z</time>
      </trkpt>
      <trkpt lat="44.85733" lon="5.35766">
        <ele>1249.37</ele>
        <time>2014-10-25T13:46:39Z</time>
      </trkpt>
      <trkpt lat="44.85749" lon="5.35731">
        <ele>1249.37</ele>
        <time>2014-10-25T13:46:51Z</time>
      </trkpt>
      <trkpt lat="44.85765" lon="5.35706">
        <ele>1249.37</ele>
        <time>2014-10-25T13:47:00Z</time>
      </trkpt>
      <trkpt lat="44.85786" lon="5.35678">
        <ele>1249.37</ele>
        <time>2014-10-25T13:47:12Z</time>
      </trkpt>
      <trkpt lat="44.85796" lon="5.35649">
        <ele>1249.37</ele>
        <time>2014-10-25T13:47:23Z</time>
      </trkpt>
      <trkpt lat="44.858" lon="5.35636">
        <ele>1249.37</ele>
        <time>2014-10-25T13:47:27Z</time>
      </trkpt>
      <trkpt lat="44.85801" lon="5.35635">
        <ele>1249.37</ele>
        <time>2014-10-25T13:47:28Z</time>
      </trkpt>
      <trkpt lat="44.85802" lon="5.35633">
        <ele>1249.37</ele>
        <time>2014-10-25T13:47:29Z</time>
      </trkpt>
      <trkpt lat="44.85804" lon="5.35632">
        <ele>1249.37</ele>
        <time>2014-10-25T13:47:30Z</time>
      </trkpt>
      <trkpt lat="44.85808" lon="5.35635">
        <ele>1249.37</ele>
        <time>2014-10-25T13:47:33Z</time>
      </trkpt>
      <trkpt lat="44.85826" lon="5.35663">
        <ele>1248.41</ele>
        <time>2014-10-25T13:47:43Z</time>
      </trkpt>
      <trkpt lat="44.85828" lon="5.35666">
        <ele>1248.41</ele>
        <time>2014-10-25T13:47:56Z</time>
      </trkpt>
      <trkpt lat="44.85831" lon="5.3567">
        <ele>1248.41</ele>
        <time>2014-10-25T13:48:14Z</time>
      </trkpt>
      <trkpt lat="44.85847" lon="5.35696">
        <ele>1244.56</ele>
        <time>2014-10-25T13:48:21Z</time>
      </trkpt>
      <trkpt lat="44.8585" lon="5.35709">
        <ele>1243.12</ele>
        <time>2014-10-25T13:48:23Z</time>
      </trkpt>
      <trkpt lat="44.85871" lon="5.35756">
        <ele>1238.32</ele>
        <time>2014-10-25T13:48:29Z</time>
      </trkpt>
      <trkpt lat="44.85875" lon="5.35763">
        <ele>1237.35</ele>
        <time>2014-10-25T13:48:30Z</time>
      </trkpt>
      <trkpt lat="44.85885" lon="5.35776">
        <ele>1235.91</ele>
        <time>2014-10-25T13:48:32Z</time>
      </trkpt>
      <trkpt lat="44.85893" lon="5.35789">
        <ele>1233.99</ele>
        <time>2014-10-25T13:48:34Z</time>
      </trkpt>
      <trkpt lat="44.8591" lon="5.35816">
        <ele>1230.14</ele>
        <time>2014-10-25T13:48:38Z</time>
      </trkpt>
      <trkpt lat="44.85919" lon="5.35832">
        <ele>1227.74</ele>
        <time>2014-10-25T13:48:40Z</time>
      </trkpt>
      <trkpt lat="44.85942" lon="5.35867">
        <ele>1223.42</ele>
        <time>2014-10-25T13:48:45Z</time>
      </trkpt>
      <trkpt lat="44.85967" lon="5.35889">
        <ele>1218.61</ele>
        <time>2014-10-25T13:48:51Z</time>
      </trkpt>
      <trkpt lat="44.85976" lon="5.35899">
        <ele>1217.17</ele>
        <time>2014-10-25T13:48:55Z</time>
      </trkpt>
      <trkpt lat="44.85981" lon="5.3591">
        <ele>1217.17</ele>
        <time>2014-10-25T13:49:06Z</time>
      </trkpt>
      <trkpt lat="44.85983" lon="5.35916">
        <ele>1216.69</ele>
        <time>2014-10-25T13:49:11Z</time>
      </trkpt>
      <trkpt lat="44.85991" lon="5.35936">
        <ele>1215.72</ele>
        <time>2014-10-25T13:49:21Z</time>
      </trkpt>
      <trkpt lat="44.85993" lon="5.35938">
        <ele>1215.24</ele>
        <time>2014-10-25T13:49:25Z</time>
      </trkpt>
      <trkpt lat="44.86004" lon="5.35932">
        <ele>1213.8</ele>
        <time>2014-10-25T13:49:34Z</time>
      </trkpt>
      <trkpt lat="44.8601" lon="5.35931">
        <ele>1212.36</ele>
        <time>2014-10-25T13:49:39Z</time>
      </trkpt>
      <trkpt lat="44.86019" lon="5.35929">
        <ele>1209.48</ele>
        <time>2014-10-25T13:49:46Z</time>
      </trkpt>
      <trkpt lat="44.86022" lon="5.35928">
        <ele>1209.48</ele>
        <time>2014-10-25T13:49:48Z</time>
      </trkpt>
      <trkpt lat="44.86031" lon="5.35928">
        <ele>1208.51</ele>
        <time>2014-10-25T13:49:59Z</time>
      </trkpt>
      <trkpt lat="44.86036" lon="5.35932">
        <ele>1208.51</ele>
        <time>2014-10-25T13:50:05Z</time>
      </trkpt>
      <trkpt lat="44.86049" lon="5.3594">
        <ele>1206.59</ele>
        <time>2014-10-25T13:50:11Z</time>
      </trkpt>
      <trkpt lat="44.86069" lon="5.35948">
        <ele>1202.75</ele>
        <time>2014-10-25T13:50:16Z</time>
      </trkpt>
      <trkpt lat="44.86079" lon="5.35955">
        <ele>1201.3</ele>
        <time>2014-10-25T13:50:18Z</time>
      </trkpt>
      <trkpt lat="44.86096" lon="5.35964">
        <ele>1197.94</ele>
        <time>2014-10-25T13:50:21Z</time>
      </trkpt>
      <trkpt lat="44.86121" lon="5.35978">
        <ele>1195.06</ele>
        <time>2014-10-25T13:50:26Z</time>
      </trkpt>
      <trkpt lat="44.86137" lon="5.35984">
        <ele>1191.69</ele>
        <time>2014-10-25T13:50:29Z</time>
      </trkpt>
      <trkpt lat="44.86148" lon="5.3599">
        <ele>1189.77</ele>
        <time>2014-10-25T13:50:31Z</time>
      </trkpt>
      <trkpt lat="44.86179" lon="5.36006">
        <ele>1185.92</ele>
        <time>2014-10-25T13:50:36Z</time>
      </trkpt>
      <trkpt lat="44.86213" lon="5.36025">
        <ele>1181.12</ele>
        <time>2014-10-25T13:50:41Z</time>
      </trkpt>
      <trkpt lat="44.86248" lon="5.36036">
        <ele>1176.31</ele>
        <time>2014-10-25T13:50:46Z</time>
      </trkpt>
      <trkpt lat="44.86265" lon="5.36041">
        <ele>1174.39</ele>
        <time>2014-10-25T13:50:49Z</time>
      </trkpt>
      <trkpt lat="44.86302" lon="5.3605">
        <ele>1169.1</ele>
        <time>2014-10-25T13:50:55Z</time>
      </trkpt>
      <trkpt lat="44.86331" lon="5.36048">
        <ele>1166.22</ele>
        <time>2014-10-25T13:50:59Z</time>
      </trkpt>
      <trkpt lat="44.8638" lon="5.36056">
        <ele>1161.89</ele>
        <time>2014-10-25T13:51:05Z</time>
      </trkpt>
      <trkpt lat="44.86412" lon="5.36061">
        <ele>1159.97</ele>
        <time>2014-10-25T13:51:09Z</time>
      </trkpt>
      <trkpt lat="44.86418" lon="5.36061">
        <ele>1159.49</ele>
        <time>2014-10-25T13:51:10Z</time>
      </trkpt>
      <trkpt lat="44.86453" lon="5.36061">
        <ele>1157.08</ele>
        <time>2014-10-25T13:51:16Z</time>
      </trkpt>
      <trkpt lat="44.86459" lon="5.3606">
        <ele>1156.12</ele>
        <time>2014-10-25T13:51:17Z</time>
      </trkpt>
      <trkpt lat="44.86465" lon="5.36059">
        <ele>1155.64</ele>
        <time>2014-10-25T13:51:18Z</time>
      </trkpt>
      <trkpt lat="44.86477" lon="5.36058">
        <ele>1155.16</ele>
        <time>2014-10-25T13:51:20Z</time>
      </trkpt>
      <trkpt lat="44.86483" lon="5.36058">
        <ele>1155.16</ele>
        <time>2014-10-25T13:51:21Z</time>
      </trkpt>
      <trkpt lat="44.86488" lon="5.36058">
        <ele>1154.68</ele>
        <time>2014-10-25T13:51:22Z</time>
      </trkpt>
      <trkpt lat="44.86492" lon="5.36059">
        <ele>1154.68</ele>
        <time>2014-10-25T13:51:23Z</time>
      </trkpt>
      <trkpt lat="44.86497" lon="5.36059">
        <ele>1154.2</ele>
        <time>2014-10-25T13:51:24Z</time>
      </trkpt>
      <trkpt lat="44.86503" lon="5.36059">
        <ele>1154.2</ele>
        <time>2014-10-25T13:51:25Z</time>
      </trkpt>
      <trkpt lat="44.86548" lon="5.36056">
        <ele>1151.32</ele>
        <time>2014-10-25T13:51:33Z</time>
      </trkpt>
      <trkpt lat="44.86553" lon="5.36058">
        <ele>1151.32</ele>
        <time>2014-10-25T13:51:34Z</time>
      </trkpt>
      <trkpt lat="44.86588" lon="5.36075">
        <ele>1149.39</ele>
        <time>2014-10-25T13:51:41Z</time>
      </trkpt>
      <trkpt lat="44.86593" lon="5.36076">
        <ele>1148.43</ele>
        <time>2014-10-25T13:51:42Z</time>
      </trkpt>
      <trkpt lat="44.86599" lon="5.36077">
        <ele>1148.43</ele>
        <time>2014-10-25T13:51:43Z</time>
      </trkpt>
      <trkpt lat="44.86609" lon="5.36079">
        <ele>1147.47</ele>
        <time>2014-10-25T13:51:45Z</time>
      </trkpt>
      <trkpt lat="44.86619" lon="5.3608">
        <ele>1147.47</ele>
        <time>2014-10-25T13:51:47Z</time>
      </trkpt>
      <trkpt lat="44.86625" lon="5.3608">
        <ele>1146.51</ele>
        <time>2014-10-25T13:51:48Z</time>
      </trkpt>
      <trkpt lat="44.86631" lon="5.36079">
        <ele>1146.51</ele>
        <time>2014-10-25T13:51:49Z</time>
      </trkpt>
      <trkpt lat="44.86638" lon="5.36078">
        <ele>1146.03</ele>
        <time>2014-10-25T13:51:50Z</time>
      </trkpt>
      <trkpt lat="44.86645" lon="5.36077">
        <ele>1146.03</ele>
        <time>2014-10-25T13:51:51Z</time>
      </trkpt>
      <trkpt lat="44.86651" lon="5.36075">
        <ele>1146.03</ele>
        <time>2014-10-25T13:51:52Z</time>
      </trkpt>
      <trkpt lat="44.86656" lon="5.36074">
        <ele>1146.03</ele>
        <time>2014-10-25T13:51:53Z</time>
      </trkpt>
      <trkpt lat="44.86695" lon="5.36076">
        <ele>1143.63</ele>
        <time>2014-10-25T13:52:00Z</time>
      </trkpt>
      <trkpt lat="44.86711" lon="5.36079">
        <ele>1142.66</ele>
        <time>2014-10-25T13:52:03Z</time>
      </trkpt>
      <trkpt lat="44.86716" lon="5.3608">
        <ele>1141.7</ele>
        <time>2014-10-25T13:52:04Z</time>
      </trkpt>
      <trkpt lat="44.86721" lon="5.36083">
        <ele>1141.7</ele>
        <time>2014-10-25T13:52:05Z</time>
      </trkpt>
      <trkpt lat="44.86725" lon="5.36086">
        <ele>1141.22</ele>
        <time>2014-10-25T13:52:06Z</time>
      </trkpt>
      <trkpt lat="44.8673" lon="5.3609">
        <ele>1141.22</ele>
        <time>2014-10-25T13:52:07Z</time>
      </trkpt>
      <trkpt lat="44.86734" lon="5.36094">
        <ele>1140.74</ele>
        <time>2014-10-25T13:52:08Z</time>
      </trkpt>
      <trkpt lat="44.86739" lon="5.36097">
        <ele>1140.26</ele>
        <time>2014-10-25T13:52:09Z</time>
      </trkpt>
      <trkpt lat="44.86745" lon="5.36099">
        <ele>1140.26</ele>
        <time>2014-10-25T13:52:10Z</time>
      </trkpt>
      <trkpt lat="44.8675" lon="5.36099">
        <ele>1140.26</ele>
        <time>2014-10-25T13:52:11Z</time>
      </trkpt>
      <trkpt lat="44.86756" lon="5.36099">
        <ele>1139.78</ele>
        <time>2014-10-25T13:52:12Z</time>
      </trkpt>
      <trkpt lat="44.86761" lon="5.36099">
        <ele>1139.78</ele>
        <time>2014-10-25T13:52:13Z</time>
      </trkpt>
      <trkpt lat="44.86767" lon="5.36099">
        <ele>1139.3</ele>
        <time>2014-10-25T13:52:14Z</time>
      </trkpt>
      <trkpt lat="44.86773" lon="5.361">
        <ele>1138.82</ele>
        <time>2014-10-25T13:52:15Z</time>
      </trkpt>
      <trkpt lat="44.86779" lon="5.36101">
        <ele>1138.82</ele>
        <time>2014-10-25T13:52:16Z</time>
      </trkpt>
      <trkpt lat="44.86784" lon="5.36102">
        <ele>1138.82</ele>
        <time>2014-10-25T13:52:17Z</time>
      </trkpt>
      <trkpt lat="44.86802" lon="5.36103">
        <ele>1137.86</ele>
        <time>2014-10-25T13:52:20Z</time>
      </trkpt>
      <trkpt lat="44.86828" lon="5.361">
        <ele>1137.38</ele>
        <time>2014-10-25T13:52:25Z</time>
      </trkpt>
      <trkpt lat="44.86882" lon="5.36107">
        <ele>1137.38</ele>
        <time>2014-10-25T13:52:39Z</time>
      </trkpt>
      <trkpt lat="44.86929" lon="5.36111">
        <ele>1137.38</ele>
        <time>2014-10-25T13:52:53Z</time>
      </trkpt>
      <trkpt lat="44.86967" lon="5.36101">
        <ele>1140.26</ele>
        <time>2014-10-25T13:53:07Z</time>
      </trkpt>
      <trkpt lat="44.86974" lon="5.36098">
        <ele>1140.74</ele>
        <time>2014-10-25T13:53:21Z</time>
      </trkpt>
      <trkpt lat="44.86974" lon="5.36097">
        <ele>1141.22</ele>
        <time>2014-10-25T13:53:51Z</time>
      </trkpt>
      <trkpt lat="44.86972" lon="5.36097">
        <ele>1141.22</ele>
        <time>2014-10-25T13:54:11Z</time>
      </trkpt>
      <trkpt lat="44.86972" lon="5.36098">
        <ele>1141.22</ele>
        <time>2014-10-25T13:54:32Z</time>
      </trkpt>
      <trkpt lat="44.8697" lon="5.36097">
        <ele>1140.74</ele>
        <time>2014-10-25T13:54:42Z</time>
      </trkpt>
      <trkpt lat="44.86969" lon="5.36097">
        <ele>1140.74</ele>
        <time>2014-10-25T13:54:43Z</time>
      </trkpt>
      <trkpt lat="44.86967" lon="5.36097">
        <ele>1140.74</ele>
        <time>2014-10-25T13:54:44Z</time>
      </trkpt>
      <trkpt lat="44.86955" lon="5.36101">
        <ele>1140.74</ele>
        <time>2014-10-25T13:54:51Z</time>
      </trkpt>
      <trkpt lat="44.8695" lon="5.36103">
        <ele>1140.74</ele>
        <time>2014-10-25T13:54:52Z</time>
      </trkpt>
      <trkpt lat="44.86945" lon="5.36105">
        <ele>1139.3</ele>
        <time>2014-10-25T13:54:53Z</time>
      </trkpt>
      <trkpt lat="44.8694" lon="5.36107">
        <ele>1138.82</ele>
        <time>2014-10-25T13:54:54Z</time>
      </trkpt>
      <trkpt lat="44.86934" lon="5.36108">
        <ele>1138.82</ele>
        <time>2014-10-25T13:54:55Z</time>
      </trkpt>
      <trkpt lat="44.86928" lon="5.3611">
        <ele>1138.82</ele>
        <time>2014-10-25T13:54:56Z</time>
      </trkpt>
      <trkpt lat="44.86915" lon="5.36111">
        <ele>1138.34</ele>
        <time>2014-10-25T13:54:58Z</time>
      </trkpt>
      <trkpt lat="44.86844" lon="5.361">
        <ele>1137.38</ele>
        <time>2014-10-25T13:55:10Z</time>
      </trkpt>
      <trkpt lat="44.86829" lon="5.36098">
        <ele>1137.38</ele>
        <time>2014-10-25T13:55:13Z</time>
      </trkpt>
      <trkpt lat="44.86824" lon="5.36098">
        <ele>1137.38</ele>
        <time>2014-10-25T13:55:14Z</time>
      </trkpt>
      <trkpt lat="44.86819" lon="5.361">
        <ele>1137.38</ele>
        <time>2014-10-25T13:55:15Z</time>
      </trkpt>
      <trkpt lat="44.8677" lon="5.36101">
        <ele>1138.82</ele>
        <time>2014-10-25T13:55:27Z</time>
      </trkpt>
      <trkpt lat="44.86729" lon="5.36089">
        <ele>1141.22</ele>
        <time>2014-10-25T13:55:40Z</time>
      </trkpt>
      <trkpt lat="44.86708" lon="5.36078">
        <ele>1142.66</ele>
        <time>2014-10-25T13:55:52Z</time>
      </trkpt>
      <trkpt lat="44.86705" lon="5.36075">
        <ele>1143.14</ele>
        <time>2014-10-25T13:56:06Z</time>
      </trkpt>
      <trkpt lat="44.86705" lon="5.36076">
        <ele>1143.14</ele>
        <time>2014-10-25T13:56:09Z</time>
      </trkpt>
      <trkpt lat="44.86697" lon="5.36072">
        <ele>1143.63</ele>
        <time>2014-10-25T13:56:22Z</time>
      </trkpt>
      <trkpt lat="44.86697" lon="5.36071">
        <ele>1143.14</ele>
        <time>2014-10-25T13:56:50Z</time>
      </trkpt>
      <trkpt lat="44.86688" lon="5.3607">
        <ele>1143.14</ele>
        <time>2014-10-25T13:56:55Z</time>
      </trkpt>
      <trkpt lat="44.86686" lon="5.3607">
        <ele>1143.14</ele>
        <time>2014-10-25T13:56:56Z</time>
      </trkpt>
      <trkpt lat="44.86683" lon="5.36071">
        <ele>1143.14</ele>
        <time>2014-10-25T13:56:57Z</time>
      </trkpt>
      <trkpt lat="44.86681" lon="5.36071">
        <ele>1143.63</ele>
        <time>2014-10-25T13:56:58Z</time>
      </trkpt>
      <trkpt lat="44.86643" lon="5.36077">
        <ele>1145.55</ele>
        <time>2014-10-25T13:57:10Z</time>
      </trkpt>
      <trkpt lat="44.86616" lon="5.36082">
        <ele>1146.99</ele>
        <time>2014-10-25T13:57:20Z</time>
      </trkpt>
      <trkpt lat="44.86584" lon="5.36073">
        <ele>1148.91</ele>
        <time>2014-10-25T13:57:32Z</time>
      </trkpt>
      <trkpt lat="44.86559" lon="5.36059">
        <ele>1150.35</ele>
        <time>2014-10-25T13:57:42Z</time>
      </trkpt>
      <trkpt lat="44.86557" lon="5.36059">
        <ele>1150.35</ele>
        <time>2014-10-25T13:57:58Z</time>
      </trkpt>
      <trkpt lat="44.86556" lon="5.36057">
        <ele>1150.35</ele>
        <time>2014-10-25T13:58:37Z</time>
      </trkpt>
      <trkpt lat="44.86552" lon="5.36062">
        <ele>1150.35</ele>
        <time>2014-10-25T13:59:13Z</time>
      </trkpt>
      <trkpt lat="44.86554" lon="5.36061">
        <ele>1150.35</ele>
        <time>2014-10-25T13:59:44Z</time>
      </trkpt>
      <trkpt lat="44.86552" lon="5.36058">
        <ele>1150.35</ele>
        <time>2014-10-25T14:00:08Z</time>
      </trkpt>
      <trkpt lat="44.86555" lon="5.36056">
        <ele>1150.35</ele>
        <time>2014-10-25T14:00:44Z</time>
      </trkpt>
      <trkpt lat="44.86553" lon="5.36058">
        <ele>1150.35</ele>
        <time>2014-10-25T14:01:13Z</time>
      </trkpt>
      <trkpt lat="44.86555" lon="5.36053">
        <ele>1150.35</ele>
        <time>2014-10-25T14:01:44Z</time>
      </trkpt>
      <trkpt lat="44.86556" lon="5.36053">
        <ele>1149.87</ele>
        <time>2014-10-25T14:02:18Z</time>
      </trkpt>
      <trkpt lat="44.86554" lon="5.36056">
        <ele>1149.87</ele>
        <time>2014-10-25T14:02:49Z</time>
      </trkpt>
      <trkpt lat="44.86552" lon="5.36056">
        <ele>1149.87</ele>
        <time>2014-10-25T14:03:18Z</time>
      </trkpt>
      <trkpt lat="44.86556" lon="5.36059">
        <ele>1149.87</ele>
        <time>2014-10-25T14:03:47Z</time>
      </trkpt>
      <trkpt lat="44.86559" lon="5.36053">
        <ele>1149.87</ele>
        <time>2014-10-25T14:04:21Z</time>
      </trkpt>
      <trkpt lat="44.86557" lon="5.36052">
        <ele>1148.43</ele>
        <time>2014-10-25T14:04:56Z</time>
      </trkpt>
      <trkpt lat="44.86557" lon="5.36059">
        <ele>1148.43</ele>
        <time>2014-10-25T14:05:26Z</time>
      </trkpt>
      <trkpt lat="44.86552" lon="5.36056">
        <ele>1148.43</ele>
        <time>2014-10-25T14:05:59Z</time>
      </trkpt>
      <trkpt lat="44.86552" lon="5.36052">
        <ele>1148.43</ele>
        <time>2014-10-25T14:06:33Z</time>
      </trkpt>
      <trkpt lat="44.86551" lon="5.36054">
        <ele>1148.43</ele>
        <time>2014-10-25T14:07:01Z</time>
      </trkpt>
      <trkpt lat="44.86552" lon="5.36053">
        <ele>1148.43</ele>
        <time>2014-10-25T14:07:19Z</time>
      </trkpt>
      <trkpt lat="44.86554" lon="5.36055">
        <ele>1148.43</ele>
        <time>2014-10-25T14:07:41Z</time>
      </trkpt>
      <trkpt lat="44.86556" lon="5.36054">
        <ele>1148.43</ele>
        <time>2014-10-25T14:07:58Z</time>
      </trkpt>
      <trkpt lat="44.86557" lon="5.36055">
        <ele>1148.43</ele>
        <time>2014-10-25T14:07:59Z</time>
      </trkpt>
      <trkpt lat="44.86559" lon="5.36056">
        <ele>1148.43</ele>
        <time>2014-10-25T14:08:00Z</time>
      </trkpt>
      <trkpt lat="44.86561" lon="5.36058">
        <ele>1148.43</ele>
        <time>2014-10-25T14:08:01Z</time>
      </trkpt>
      <trkpt lat="44.86563" lon="5.36059">
        <ele>1148.43</ele>
        <time>2014-10-25T14:08:02Z</time>
      </trkpt>
      <trkpt lat="44.86606" lon="5.36074">
        <ele>1145.55</ele>
        <time>2014-10-25T14:08:14Z</time>
      </trkpt>
      <trkpt lat="44.86614" lon="5.36075">
        <ele>1145.07</ele>
        <time>2014-10-25T14:08:16Z</time>
      </trkpt>
      <trkpt lat="44.86624" lon="5.36075">
        <ele>1144.59</ele>
        <time>2014-10-25T14:08:18Z</time>
      </trkpt>
      <trkpt lat="44.86628" lon="5.36074">
        <ele>1144.59</ele>
        <time>2014-10-25T14:08:19Z</time>
      </trkpt>
      <trkpt lat="44.86632" lon="5.36074">
        <ele>1144.11</ele>
        <time>2014-10-25T14:08:20Z</time>
      </trkpt>
      <trkpt lat="44.86647" lon="5.3607">
        <ele>1144.11</ele>
        <time>2014-10-25T14:08:23Z</time>
      </trkpt>
      <trkpt lat="44.86652" lon="5.36069">
        <ele>1143.63</ele>
        <time>2014-10-25T14:08:24Z</time>
      </trkpt>
      <trkpt lat="44.86661" lon="5.36068">
        <ele>1143.14</ele>
        <time>2014-10-25T14:08:26Z</time>
      </trkpt>
      <trkpt lat="44.86666" lon="5.36069">
        <ele>1143.14</ele>
        <time>2014-10-25T14:08:27Z</time>
      </trkpt>
      <trkpt lat="44.86671" lon="5.36069">
        <ele>1142.18</ele>
        <time>2014-10-25T14:08:28Z</time>
      </trkpt>
      <trkpt lat="44.86676" lon="5.36069">
        <ele>1142.18</ele>
        <time>2014-10-25T14:08:29Z</time>
      </trkpt>
      <trkpt lat="44.86681" lon="5.36069">
        <ele>1141.7</ele>
        <time>2014-10-25T14:08:30Z</time>
      </trkpt>
      <trkpt lat="44.86686" lon="5.3607">
        <ele>1141.7</ele>
        <time>2014-10-25T14:08:31Z</time>
      </trkpt>
      <trkpt lat="44.8669" lon="5.3607">
        <ele>1141.22</ele>
        <time>2014-10-25T14:08:32Z</time>
      </trkpt>
      <trkpt lat="44.86695" lon="5.36072">
        <ele>1141.22</ele>
        <time>2014-10-25T14:08:33Z</time>
      </trkpt>
      <trkpt lat="44.867" lon="5.36073">
        <ele>1140.74</ele>
        <time>2014-10-25T14:08:34Z</time>
      </trkpt>
      <trkpt lat="44.86704" lon="5.36073">
        <ele>1140.74</ele>
        <time>2014-10-25T14:08:35Z</time>
      </trkpt>
      <trkpt lat="44.86709" lon="5.36074">
        <ele>1140.74</ele>
        <time>2014-10-25T14:08:36Z</time>
      </trkpt>
      <trkpt lat="44.86718" lon="5.36076">
        <ele>1140.26</ele>
        <time>2014-10-25T14:08:38Z</time>
      </trkpt>
      <trkpt lat="44.86723" lon="5.36078">
        <ele>1139.3</ele>
        <time>2014-10-25T14:08:39Z</time>
      </trkpt>
      <trkpt lat="44.86727" lon="5.36081">
        <ele>1138.82</ele>
        <time>2014-10-25T14:08:40Z</time>
      </trkpt>
      <trkpt lat="44.86741" lon="5.36093">
        <ele>1138.82</ele>
        <time>2014-10-25T14:08:43Z</time>
      </trkpt>
      <trkpt lat="44.86746" lon="5.36095">
        <ele>1137.86</ele>
        <time>2014-10-25T14:08:44Z</time>
      </trkpt>
      <trkpt lat="44.86752" lon="5.36095">
        <ele>1137.86</ele>
        <time>2014-10-25T14:08:45Z</time>
      </trkpt>
      <trkpt lat="44.86758" lon="5.36096">
        <ele>1137.38</ele>
        <time>2014-10-25T14:08:46Z</time>
      </trkpt>
      <trkpt lat="44.86764" lon="5.36095">
        <ele>1137.38</ele>
        <time>2014-10-25T14:08:47Z</time>
      </trkpt>
      <trkpt lat="44.86788" lon="5.36098">
        <ele>1135.94</ele>
        <time>2014-10-25T14:08:51Z</time>
      </trkpt>
      <trkpt lat="44.86843" lon="5.36097">
        <ele>1135.45</ele>
        <time>2014-10-25T14:09:01Z</time>
      </trkpt>
      <trkpt lat="44.86848" lon="5.36097">
        <ele>1135.45</ele>
        <time>2014-10-25T14:09:02Z</time>
      </trkpt>
      <trkpt lat="44.86852" lon="5.36098">
        <ele>1135.45</ele>
        <time>2014-10-25T14:09:03Z</time>
      </trkpt>
      <trkpt lat="44.86857" lon="5.36098">
        <ele>1135.45</ele>
        <time>2014-10-25T14:09:04Z</time>
      </trkpt>
      <trkpt lat="44.86861" lon="5.36099">
        <ele>1135.45</ele>
        <time>2014-10-25T14:09:05Z</time>
      </trkpt>
      <trkpt lat="44.8693" lon="5.36105">
        <ele>1135.45</ele>
        <time>2014-10-25T14:09:22Z</time>
      </trkpt>
      <trkpt lat="44.86969" lon="5.36092">
        <ele>1138.34</ele>
        <time>2014-10-25T14:09:37Z</time>
      </trkpt>
      <trkpt lat="44.86973" lon="5.36092">
        <ele>1138.34</ele>
        <time>2014-10-25T14:09:53Z</time>
      </trkpt>
      <trkpt lat="44.86972" lon="5.36094">
        <ele>1138.34</ele>
        <time>2014-10-25T14:10:20Z</time>
      </trkpt>
      <trkpt lat="44.86971" lon="5.36093">
        <ele>1138.34</ele>
        <time>2014-10-25T14:10:45Z</time>
      </trkpt>
      <trkpt lat="44.86971" lon="5.36093">
        <ele>1138.34</ele>
        <time>2014-10-25T14:11:10Z</time>
      </trkpt>
      <trkpt lat="44.86972" lon="5.36092">
        <ele>1138.34</ele>
        <time>2014-10-25T14:11:36Z</time>
      </trkpt>
      <trkpt lat="44.86977" lon="5.3609">
        <ele>1138.34</ele>
        <time>2014-10-25T14:11:58Z</time>
      </trkpt>
      <trkpt lat="44.8698" lon="5.3609">
        <ele>1138.34</ele>
        <time>2014-10-25T14:12:02Z</time>
      </trkpt>
      <trkpt lat="44.87004" lon="5.36096">
        <ele>1138.34</ele>
        <time>2014-10-25T14:12:12Z</time>
      </trkpt>
      <trkpt lat="44.87036" lon="5.36097">
        <ele>1138.34</ele>
        <time>2014-10-25T14:12:24Z</time>
      </trkpt>
      <trkpt lat="44.87064" lon="5.36086">
        <ele>1138.34</ele>
        <time>2014-10-25T14:12:36Z</time>
      </trkpt>
      <trkpt lat="44.87065" lon="5.36083">
        <ele>1138.34</ele>
        <time>2014-10-25T14:12:37Z</time>
      </trkpt>
      <trkpt lat="44.87066" lon="5.3608">
        <ele>1138.34</ele>
        <time>2014-10-25T14:12:39Z</time>
      </trkpt>
      <trkpt lat="44.87065" lon="5.36079">
        <ele>1138.34</ele>
        <time>2014-10-25T14:12:40Z</time>
      </trkpt>
      <trkpt lat="44.87064" lon="5.36079">
        <ele>1138.34</ele>
        <time>2014-10-25T14:12:42Z</time>
      </trkpt>
      <trkpt lat="44.87064" lon="5.3608">
        <ele>1138.34</ele>
        <time>2014-10-25T14:12:43Z</time>
      </trkpt>
      <trkpt lat="44.87064" lon="5.36082">
        <ele>1138.34</ele>
        <time>2014-10-25T14:12:44Z</time>
      </trkpt>
      <trkpt lat="44.87065" lon="5.36084">
        <ele>1138.34</ele>
        <time>2014-10-25T14:12:45Z</time>
      </trkpt>
      <trkpt lat="44.87065" lon="5.36086">
        <ele>1138.34</ele>
        <time>2014-10-25T14:13:00Z</time>
      </trkpt>
      <trkpt lat="44.8708" lon="5.36101">
        <ele>1136.9</ele>
        <time>2014-10-25T14:13:08Z</time>
      </trkpt>
      <trkpt lat="44.87084" lon="5.36103">
        <ele>1136.9</ele>
        <time>2014-10-25T14:13:09Z</time>
      </trkpt>
      <trkpt lat="44.87153" lon="5.36113">
        <ele>1133.53</ele>
        <time>2014-10-25T14:13:22Z</time>
      </trkpt>
      <trkpt lat="44.87185" lon="5.36116">
        <ele>1132.57</ele>
        <time>2014-10-25T14:13:27Z</time>
      </trkpt>
      <trkpt lat="44.87191" lon="5.36118">
        <ele>1132.09</ele>
        <time>2014-10-25T14:13:28Z</time>
      </trkpt>
      <trkpt lat="44.87265" lon="5.36138">
        <ele>1130.17</ele>
        <time>2014-10-25T14:13:40Z</time>
      </trkpt>
      <trkpt lat="44.87312" lon="5.36148">
        <ele>1127.28</ele>
        <time>2014-10-25T14:13:45Z</time>
      </trkpt>
      <trkpt lat="44.87381" lon="5.36167">
        <ele>1124.4</ele>
        <time>2014-10-25T14:13:52Z</time>
      </trkpt>
      <trkpt lat="44.87391" lon="5.36167">
        <ele>1124.4</ele>
        <time>2014-10-25T14:13:53Z</time>
      </trkpt>
      <trkpt lat="44.874" lon="5.36166">
        <ele>1124.4</ele>
        <time>2014-10-25T14:13:54Z</time>
      </trkpt>
      <trkpt lat="44.87436" lon="5.36165">
        <ele>1122.96</ele>
        <time>2014-10-25T14:13:58Z</time>
      </trkpt>
      <trkpt lat="44.87444" lon="5.36166">
        <ele>1122.96</ele>
        <time>2014-10-25T14:13:59Z</time>
      </trkpt>
      <trkpt lat="44.87542" lon="5.36193">
        <ele>1120.07</ele>
        <time>2014-10-25T14:14:13Z</time>
      </trkpt>
      <trkpt lat="44.8761" lon="5.36228">
        <ele>1117.67</ele>
        <time>2014-10-25T14:14:24Z</time>
      </trkpt>
      <trkpt lat="44.87677" lon="5.36283">
        <ele>1114.31</ele>
        <time>2014-10-25T14:14:34Z</time>
      </trkpt>
      <trkpt lat="44.87743" lon="5.36327">
        <ele>1110.94</ele>
        <time>2014-10-25T14:14:43Z</time>
      </trkpt>
      <trkpt lat="44.87781" lon="5.3635">
        <ele>1107.58</ele>
        <time>2014-10-25T14:14:48Z</time>
      </trkpt>
      <trkpt lat="44.87789" lon="5.36352">
        <ele>1107.1</ele>
        <time>2014-10-25T14:14:49Z</time>
      </trkpt>
      <trkpt lat="44.87797" lon="5.36352">
        <ele>1107.1</ele>
        <time>2014-10-25T14:14:50Z</time>
      </trkpt>
      <trkpt lat="44.87805" lon="5.3635">
        <ele>1107.1</ele>
        <time>2014-10-25T14:14:51Z</time>
      </trkpt>
      <trkpt lat="44.87813" lon="5.36348">
        <ele>1106.13</ele>
        <time>2014-10-25T14:14:52Z</time>
      </trkpt>
      <trkpt lat="44.87855" lon="5.36346">
        <ele>1102.29</ele>
        <time>2014-10-25T14:14:57Z</time>
      </trkpt>
      <trkpt lat="44.87889" lon="5.36351">
        <ele>1098.92</ele>
        <time>2014-10-25T14:15:01Z</time>
      </trkpt>
      <trkpt lat="44.87933" lon="5.36356">
        <ele>1095.08</ele>
        <time>2014-10-25T14:15:06Z</time>
      </trkpt>
      <trkpt lat="44.87958" lon="5.36355">
        <ele>1093.16</ele>
        <time>2014-10-25T14:15:09Z</time>
      </trkpt>
      <trkpt lat="44.87974" lon="5.36352">
        <ele>1092.2</ele>
        <time>2014-10-25T14:15:11Z</time>
      </trkpt>
      <trkpt lat="44.87989" lon="5.3635">
        <ele>1090.75</ele>
        <time>2014-10-25T14:15:13Z</time>
      </trkpt>
      <trkpt lat="44.88005" lon="5.36348">
        <ele>1089.31</ele>
        <time>2014-10-25T14:15:15Z</time>
      </trkpt>
      <trkpt lat="44.88014" lon="5.36349">
        <ele>1088.83</ele>
        <time>2014-10-25T14:15:16Z</time>
      </trkpt>
      <trkpt lat="44.88022" lon="5.36352">
        <ele>1087.39</ele>
        <time>2014-10-25T14:15:17Z</time>
      </trkpt>
      <trkpt lat="44.8803" lon="5.36358">
        <ele>1086.91</ele>
        <time>2014-10-25T14:15:18Z</time>
      </trkpt>
      <trkpt lat="44.88037" lon="5.36364">
        <ele>1086.43</ele>
        <time>2014-10-25T14:15:19Z</time>
      </trkpt>
      <trkpt lat="44.88044" lon="5.36372">
        <ele>1085.47</ele>
        <time>2014-10-25T14:15:20Z</time>
      </trkpt>
      <trkpt lat="44.88051" lon="5.36381">
        <ele>1085.95</ele>
        <time>2014-10-25T14:15:21Z</time>
      </trkpt>
      <trkpt lat="44.88057" lon="5.3639">
        <ele>1084.99</ele>
        <time>2014-10-25T14:15:22Z</time>
      </trkpt>
      <trkpt lat="44.88063" lon="5.364">
        <ele>1084.02</ele>
        <time>2014-10-25T14:15:23Z</time>
      </trkpt>
      <trkpt lat="44.88089" lon="5.36438">
        <ele>1080.66</ele>
        <time>2014-10-25T14:15:27Z</time>
      </trkpt>
      <trkpt lat="44.88096" lon="5.36447">
        <ele>1080.66</ele>
        <time>2014-10-25T14:15:28Z</time>
      </trkpt>
      <trkpt lat="44.88119" lon="5.3647">
        <ele>1078.74</ele>
        <time>2014-10-25T14:15:31Z</time>
      </trkpt>
      <trkpt lat="44.88161" lon="5.365">
        <ele>1075.37</ele>
        <time>2014-10-25T14:15:36Z</time>
      </trkpt>
      <trkpt lat="44.88247" lon="5.3655">
        <ele>1072.97</ele>
        <time>2014-10-25T14:15:49Z</time>
      </trkpt>
      <trkpt lat="44.88295" lon="5.36603">
        <ele>1069.6</ele>
        <time>2014-10-25T14:15:58Z</time>
      </trkpt>
      <trkpt lat="44.88334" lon="5.36634">
        <ele>1066.24</ele>
        <time>2014-10-25T14:16:03Z</time>
      </trkpt>
      <trkpt lat="44.88353" lon="5.36645">
        <ele>1065.28</ele>
        <time>2014-10-25T14:16:05Z</time>
      </trkpt>
      <trkpt lat="44.88417" lon="5.36676">
        <ele>1061.91</ele>
        <time>2014-10-25T14:16:11Z</time>
      </trkpt>
      <trkpt lat="44.88504" lon="5.36733">
        <ele>1060.95</ele>
        <time>2014-10-25T14:16:21Z</time>
      </trkpt>
      <trkpt lat="44.88582" lon="5.36774">
        <ele>1062.39</ele>
        <time>2014-10-25T14:16:33Z</time>
      </trkpt>
      <trkpt lat="44.88603" lon="5.36789">
        <ele>1062.87</ele>
        <time>2014-10-25T14:16:37Z</time>
      </trkpt>
      <trkpt lat="44.88612" lon="5.36797">
        <ele>1063.36</ele>
        <time>2014-10-25T14:16:39Z</time>
      </trkpt>
      <trkpt lat="44.88668" lon="5.36838">
        <ele>1063.84</ele>
        <time>2014-10-25T14:16:54Z</time>
      </trkpt>
      <trkpt lat="44.88728" lon="5.36891">
        <ele>1064.32</ele>
        <time>2014-10-25T14:17:12Z</time>
      </trkpt>
      <trkpt lat="44.88793" lon="5.36947">
        <ele>1064.32</ele>
        <time>2014-10-25T14:17:31Z</time>
      </trkpt>
      <trkpt lat="44.88859" lon="5.36991">
        <ele>1063.36</ele>
        <time>2014-10-25T14:17:48Z</time>
      </trkpt>
      <trkpt lat="44.88907" lon="5.37007">
        <ele>1062.39</ele>
        <time>2014-10-25T14:18:00Z</time>
      </trkpt>
      <trkpt lat="44.8898" lon="5.37017">
        <ele>1060.95</ele>
        <time>2014-10-25T14:18:16Z</time>
      </trkpt>
      <trkpt lat="44.89047" lon="5.37023">
        <ele>1059.99</ele>
        <time>2014-10-25T14:18:30Z</time>
      </trkpt>
      <trkpt lat="44.89072" lon="5.37024">
        <ele>1059.99</ele>
        <time>2014-10-25T14:18:36Z</time>
      </trkpt>
      <trkpt lat="44.89077" lon="5.37024">
        <ele>1059.99</ele>
        <time>2014-10-25T14:18:37Z</time>
      </trkpt>
      <trkpt lat="44.89155" lon="5.37025">
        <ele>1058.07</ele>
        <time>2014-10-25T14:18:53Z</time>
      </trkpt>
      <trkpt lat="44.89229" lon="5.37038">
        <ele>1056.63</ele>
        <time>2014-10-25T14:19:07Z</time>
      </trkpt>
      <trkpt lat="44.89239" lon="5.37039">
        <ele>1056.63</ele>
        <time>2014-10-25T14:19:09Z</time>
      </trkpt>
      <trkpt lat="44.89243" lon="5.37039">
        <ele>1056.63</ele>
        <time>2014-10-25T14:19:10Z</time>
      </trkpt>
      <trkpt lat="44.89258" lon="5.37042">
        <ele>1056.63</ele>
        <time>2014-10-25T14:19:13Z</time>
      </trkpt>
      <trkpt lat="44.89339" lon="5.37058">
        <ele>1055.67</ele>
        <time>2014-10-25T14:19:30Z</time>
      </trkpt>
      <trkpt lat="44.89353" lon="5.37062">
        <ele>1055.18</ele>
        <time>2014-10-25T14:19:33Z</time>
      </trkpt>
      <trkpt lat="44.89366" lon="5.37064">
        <ele>1054.7</ele>
        <time>2014-10-25T14:19:36Z</time>
      </trkpt>
      <trkpt lat="44.89371" lon="5.37065">
        <ele>1054.7</ele>
        <time>2014-10-25T14:19:37Z</time>
      </trkpt>
      <trkpt lat="44.89375" lon="5.37067">
        <ele>1054.7</ele>
        <time>2014-10-25T14:19:38Z</time>
      </trkpt>
      <trkpt lat="44.8938" lon="5.37068">
        <ele>1054.7</ele>
        <time>2014-10-25T14:19:39Z</time>
      </trkpt>
      <trkpt lat="44.89385" lon="5.37069">
        <ele>1054.7</ele>
        <time>2014-10-25T14:19:40Z</time>
      </trkpt>
      <trkpt lat="44.89389" lon="5.37069">
        <ele>1054.7</ele>
        <time>2014-10-25T14:19:41Z</time>
      </trkpt>
      <trkpt lat="44.8943" lon="5.37079">
        <ele>1054.22</ele>
        <time>2014-10-25T14:19:54Z</time>
      </trkpt>
      <trkpt lat="44.8943" lon="5.3708">
        <ele>1054.22</ele>
        <time>2014-10-25T14:19:56Z</time>
      </trkpt>
      <trkpt lat="44.89434" lon="5.3708">
        <ele>1054.22</ele>
        <time>2014-10-25T14:20:10Z</time>
      </trkpt>
      <trkpt lat="44.89435" lon="5.37078">
        <ele>1054.22</ele>
        <time>2014-10-25T14:20:27Z</time>
      </trkpt>
      <trkpt lat="44.89436" lon="5.37078">
        <ele>1054.22</ele>
        <time>2014-10-25T14:20:43Z</time>
      </trkpt>
      <trkpt lat="44.89435" lon="5.37078">
        <ele>1054.22</ele>
        <time>2014-10-25T14:21:07Z</time>
      </trkpt>
      <trkpt lat="44.89437" lon="5.37079">
        <ele>1054.22</ele>
        <time>2014-10-25T14:21:27Z</time>
      </trkpt>
      <trkpt lat="44.8944" lon="5.37078">
        <ele>1054.22</ele>
        <time>2014-10-25T14:21:31Z</time>
      </trkpt>
      <trkpt lat="44.89442" lon="5.37078">
        <ele>1054.22</ele>
        <time>2014-10-25T14:21:32Z</time>
      </trkpt>
      <trkpt lat="44.89443" lon="5.37078">
        <ele>1054.22</ele>
        <time>2014-10-25T14:21:33Z</time>
      </trkpt>
      <trkpt lat="44.89446" lon="5.37074">
        <ele>1053.74</ele>
        <time>2014-10-25T14:21:47Z</time>
      </trkpt>
      <trkpt lat="44.89445" lon="5.37075">
        <ele>1053.74</ele>
        <time>2014-10-25T14:22:12Z</time>
      </trkpt>
      <trkpt lat="44.89444" lon="5.37077">
        <ele>1055.67</ele>
        <time>2014-10-25T14:22:38Z</time>
      </trkpt>
      <trkpt lat="44.89444" lon="5.37077">
        <ele>1055.67</ele>
        <time>2014-10-25T14:22:39Z</time>
      </trkpt>
      <trkpt lat="44.89443" lon="5.37076">
        <ele>1054.7</ele>
        <time>2014-10-25T14:23:07Z</time>
      </trkpt>
      <trkpt lat="44.89446" lon="5.3708">
        <ele>1054.7</ele>
        <time>2014-10-25T14:23:28Z</time>
      </trkpt>
      <trkpt lat="44.89459" lon="5.37079">
        <ele>1054.7</ele>
        <time>2014-10-25T14:23:40Z</time>
      </trkpt>
      <trkpt lat="44.89472" lon="5.37077">
        <ele>1054.7</ele>
        <time>2014-10-25T14:23:50Z</time>
      </trkpt>
      <trkpt lat="44.89471" lon="5.37074">
        <ele>1054.7</ele>
        <time>2014-10-25T14:23:52Z</time>
      </trkpt>
      <trkpt lat="44.89468" lon="5.37073">
        <ele>1054.7</ele>
        <time>2014-10-25T14:23:53Z</time>
      </trkpt>
      <trkpt lat="44.89465" lon="5.37074">
        <ele>1054.7</ele>
        <time>2014-10-25T14:23:54Z</time>
      </trkpt>
      <trkpt lat="44.89462" lon="5.37074">
        <ele>1054.7</ele>
        <time>2014-10-25T14:23:55Z</time>
      </trkpt>
      <trkpt lat="44.89458" lon="5.37075">
        <ele>1054.7</ele>
        <time>2014-10-25T14:23:56Z</time>
      </trkpt>
      <trkpt lat="44.89444" lon="5.37078">
        <ele>1054.7</ele>
        <time>2014-10-25T14:24:01Z</time>
      </trkpt>
      <trkpt lat="44.89443" lon="5.37076">
        <ele>1054.7</ele>
        <time>2014-10-25T14:24:02Z</time>
      </trkpt>
      <trkpt lat="44.89444" lon="5.37065">
        <ele>1054.7</ele>
        <time>2014-10-25T14:24:13Z</time>
      </trkpt>
      <trkpt lat="44.89444" lon="5.37065">
        <ele>1054.7</ele>
        <time>2014-10-25T14:24:29Z</time>
      </trkpt>
      <trkpt lat="44.89445" lon="5.37068">
        <ele>1054.7</ele>
        <time>2014-10-25T14:24:56Z</time>
      </trkpt>
      <trkpt lat="44.89444" lon="5.37066">
        <ele>1054.7</ele>
        <time>2014-10-25T14:25:27Z</time>
      </trkpt>
      <trkpt lat="44.89446" lon="5.37067">
        <ele>1054.7</ele>
        <time>2014-10-25T14:25:55Z</time>
      </trkpt>
      <trkpt lat="44.89444" lon="5.37072">
        <ele>1054.7</ele>
        <time>2014-10-25T14:26:15Z</time>
      </trkpt>
      <trkpt lat="44.89445" lon="5.37077">
        <ele>1054.7</ele>
        <time>2014-10-25T14:26:20Z</time>
      </trkpt>
      <trkpt lat="44.89446" lon="5.37079">
        <ele>1054.7</ele>
        <time>2014-10-25T14:26:21Z</time>
      </trkpt>
      <trkpt lat="44.89447" lon="5.3708">
        <ele>1054.7</ele>
        <time>2014-10-25T14:26:22Z</time>
      </trkpt>
      <trkpt lat="44.89449" lon="5.3708">
        <ele>1054.7</ele>
        <time>2014-10-25T14:26:23Z</time>
      </trkpt>
      <trkpt lat="44.89452" lon="5.3708">
        <ele>1054.7</ele>
        <time>2014-10-25T14:26:24Z</time>
      </trkpt>
      <trkpt lat="44.89502" lon="5.37076">
        <ele>1054.7</ele>
        <time>2014-10-25T14:26:39Z</time>
      </trkpt>
      <trkpt lat="44.89536" lon="5.37081">
        <ele>1054.7</ele>
        <time>2014-10-25T14:26:51Z</time>
      </trkpt>
      <trkpt lat="44.89573" lon="5.37079">
        <ele>1055.67</ele>
        <time>2014-10-25T14:27:06Z</time>
      </trkpt>
      <trkpt lat="44.8959" lon="5.37077">
        <ele>1054.22</ele>
        <time>2014-10-25T14:27:14Z</time>
      </trkpt>
      <trkpt lat="44.89606" lon="5.37066">
        <ele>1054.22</ele>
        <time>2014-10-25T14:27:20Z</time>
      </trkpt>
      <trkpt lat="44.89608" lon="5.37062">
        <ele>1054.22</ele>
        <time>2014-10-25T14:27:21Z</time>
      </trkpt>
      <trkpt lat="44.89609" lon="5.37057">
        <ele>1053.74</ele>
        <time>2014-10-25T14:27:22Z</time>
      </trkpt>
      <trkpt lat="44.8961" lon="5.37052">
        <ele>1053.26</ele>
        <time>2014-10-25T14:27:23Z</time>
      </trkpt>
      <trkpt lat="44.89612" lon="5.37046">
        <ele>1052.78</ele>
        <time>2014-10-25T14:27:24Z</time>
      </trkpt>
      <trkpt lat="44.89614" lon="5.37039">
        <ele>1052.3</ele>
        <time>2014-10-25T14:27:25Z</time>
      </trkpt>
      <trkpt lat="44.89616" lon="5.37032">
        <ele>1052.3</ele>
        <time>2014-10-25T14:27:26Z</time>
      </trkpt>
      <trkpt lat="44.89626" lon="5.36995">
        <ele>1048.45</ele>
        <time>2014-10-25T14:27:30Z</time>
      </trkpt>
      <trkpt lat="44.89629" lon="5.36985">
        <ele>1047.49</ele>
        <time>2014-10-25T14:27:31Z</time>
      </trkpt>
      <trkpt lat="44.89634" lon="5.36975">
        <ele>1047.01</ele>
        <time>2014-10-25T14:27:32Z</time>
      </trkpt>
      <trkpt lat="44.89639" lon="5.36965">
        <ele>1046.53</ele>
        <time>2014-10-25T14:27:33Z</time>
      </trkpt>
      <trkpt lat="44.89645" lon="5.36957">
        <ele>1046.05</ele>
        <time>2014-10-25T14:27:34Z</time>
      </trkpt>
      <trkpt lat="44.89652" lon="5.36949">
        <ele>1045.57</ele>
        <time>2014-10-25T14:27:35Z</time>
      </trkpt>
      <trkpt lat="44.89659" lon="5.36943">
        <ele>1044.61</ele>
        <time>2014-10-25T14:27:36Z</time>
      </trkpt>
      <trkpt lat="44.89666" lon="5.36937">
        <ele>1044.61</ele>
        <time>2014-10-25T14:27:37Z</time>
      </trkpt>
      <trkpt lat="44.89674" lon="5.36933">
        <ele>1044.13</ele>
        <time>2014-10-25T14:27:38Z</time>
      </trkpt>
      <trkpt lat="44.89681" lon="5.3693">
        <ele>1044.13</ele>
        <time>2014-10-25T14:27:39Z</time>
      </trkpt>
      <trkpt lat="44.8973" lon="5.36914">
        <ele>1042.69</ele>
        <time>2014-10-25T14:27:47Z</time>
      </trkpt>
      <trkpt lat="44.89734" lon="5.36914">
        <ele>1043.17</ele>
        <time>2014-10-25T14:27:48Z</time>
      </trkpt>
      <trkpt lat="44.89736" lon="5.36913">
        <ele>1043.17</ele>
        <time>2014-10-25T14:27:49Z</time>
      </trkpt>
      <trkpt lat="44.89737" lon="5.36913">
        <ele>1043.17</ele>
        <time>2014-10-25T14:28:01Z</time>
      </trkpt>
      <trkpt lat="44.89738" lon="5.36918">
        <ele>1043.17</ele>
        <time>2014-10-25T14:28:05Z</time>
      </trkpt>
      <trkpt lat="44.89734" lon="5.36938">
        <ele>1043.17</ele>
        <time>2014-10-25T14:28:11Z</time>
      </trkpt>
      <trkpt lat="44.89739" lon="5.36981">
        <ele>1043.17</ele>
        <time>2014-10-25T14:28:23Z</time>
      </trkpt>
      <trkpt lat="44.89742" lon="5.37007">
        <ele>1042.69</ele>
        <time>2014-10-25T14:28:28Z</time>
      </trkpt>
      <trkpt lat="44.89744" lon="5.37014">
        <ele>1042.21</ele>
        <time>2014-10-25T14:28:29Z</time>
      </trkpt>
      <trkpt lat="44.89746" lon="5.3702">
        <ele>1042.21</ele>
        <time>2014-10-25T14:28:30Z</time>
      </trkpt>
      <trkpt lat="44.8975" lon="5.37027">
        <ele>1041.73</ele>
        <time>2014-10-25T14:28:31Z</time>
      </trkpt>
      <trkpt lat="44.89755" lon="5.37033">
        <ele>1041.73</ele>
        <time>2014-10-25T14:28:32Z</time>
      </trkpt>
      <trkpt lat="44.8976" lon="5.37039">
        <ele>1041.73</ele>
        <time>2014-10-25T14:28:33Z</time>
      </trkpt>
      <trkpt lat="44.89766" lon="5.37044">
        <ele>1041.73</ele>
        <time>2014-10-25T14:28:34Z</time>
      </trkpt>
      <trkpt lat="44.89782" lon="5.37061">
        <ele>1041.73</ele>
        <time>2014-10-25T14:28:37Z</time>
      </trkpt>
      <trkpt lat="44.89802" lon="5.3709">
        <ele>1041.73</ele>
        <time>2014-10-25T14:28:42Z</time>
      </trkpt>
      <trkpt lat="44.89809" lon="5.37105">
        <ele>1041.73</ele>
        <time>2014-10-25T14:28:44Z</time>
      </trkpt>
      <trkpt lat="44.89812" lon="5.37113">
        <ele>1041.73</ele>
        <time>2014-10-25T14:28:45Z</time>
      </trkpt>
      <trkpt lat="44.89849" lon="5.3719">
        <ele>1042.69</ele>
        <time>2014-10-25T14:28:57Z</time>
      </trkpt>
      <trkpt lat="44.89881" lon="5.37261">
        <ele>1043.65</ele>
        <time>2014-10-25T14:29:10Z</time>
      </trkpt>
      <trkpt lat="44.89887" lon="5.37284">
        <ele>1043.65</ele>
        <time>2014-10-25T14:29:14Z</time>
      </trkpt>
      <trkpt lat="44.89917" lon="5.37358">
        <ele>1044.13</ele>
        <time>2014-10-25T14:29:28Z</time>
      </trkpt>
      <trkpt lat="44.89961" lon="5.37405">
        <ele>1046.53</ele>
        <time>2014-10-25T14:29:43Z</time>
      </trkpt>
      <trkpt lat="44.90005" lon="5.37451">
        <ele>1046.53</ele>
        <time>2014-10-25T14:30:00Z</time>
      </trkpt>
      <trkpt lat="44.90044" lon="5.37484">
        <ele>1047.97</ele>
        <time>2014-10-25T14:30:15Z</time>
      </trkpt>
      <trkpt lat="44.90086" lon="5.37493">
        <ele>1049.42</ele>
        <time>2014-10-25T14:30:29Z</time>
      </trkpt>
      <trkpt lat="44.90124" lon="5.37502">
        <ele>1050.86</ele>
        <time>2014-10-25T14:30:43Z</time>
      </trkpt>
      <trkpt lat="44.90164" lon="5.37505">
        <ele>1053.26</ele>
        <time>2014-10-25T14:30:58Z</time>
      </trkpt>
      <trkpt lat="44.90191" lon="5.3753">
        <ele>1052.3</ele>
        <time>2014-10-25T14:31:08Z</time>
      </trkpt>
      <trkpt lat="44.90195" lon="5.37533">
        <ele>1052.3</ele>
        <time>2014-10-25T14:31:09Z</time>
      </trkpt>
      <trkpt lat="44.90237" lon="5.37566">
        <ele>1051.34</ele>
        <time>2014-10-25T14:31:21Z</time>
      </trkpt>
      <trkpt lat="44.90271" lon="5.37592">
        <ele>1050.86</ele>
        <time>2014-10-25T14:31:31Z</time>
      </trkpt>
      <trkpt lat="44.90275" lon="5.37595">
        <ele>1050.38</ele>
        <time>2014-10-25T14:31:32Z</time>
      </trkpt>
      <trkpt lat="44.90278" lon="5.37598">
        <ele>1050.38</ele>
        <time>2014-10-25T14:31:33Z</time>
      </trkpt>
      <trkpt lat="44.90281" lon="5.37602">
        <ele>1050.38</ele>
        <time>2014-10-25T14:31:34Z</time>
      </trkpt>
      <trkpt lat="44.90285" lon="5.37606">
        <ele>1050.38</ele>
        <time>2014-10-25T14:31:35Z</time>
      </trkpt>
      <trkpt lat="44.90288" lon="5.3761">
        <ele>1050.38</ele>
        <time>2014-10-25T14:31:36Z</time>
      </trkpt>
      <trkpt lat="44.90298" lon="5.37625">
        <ele>1049.42</ele>
        <time>2014-10-25T14:31:39Z</time>
      </trkpt>
      <trkpt lat="44.90302" lon="5.37628">
        <ele>1049.42</ele>
        <time>2014-10-25T14:31:40Z</time>
      </trkpt>
      <trkpt lat="44.90306" lon="5.37631">
        <ele>1049.42</ele>
        <time>2014-10-25T14:31:41Z</time>
      </trkpt>
      <trkpt lat="44.9031" lon="5.37634">
        <ele>1049.42</ele>
        <time>2014-10-25T14:31:42Z</time>
      </trkpt>
      <trkpt lat="44.90314" lon="5.37635">
        <ele>1049.42</ele>
        <time>2014-10-25T14:31:43Z</time>
      </trkpt>
      <trkpt lat="44.90318" lon="5.37635">
        <ele>1049.42</ele>
        <time>2014-10-25T14:31:44Z</time>
      </trkpt>
      <trkpt lat="44.90323" lon="5.37634">
        <ele>1049.42</ele>
        <time>2014-10-25T14:31:45Z</time>
      </trkpt>
      <trkpt lat="44.90327" lon="5.37633">
        <ele>1049.42</ele>
        <time>2014-10-25T14:31:46Z</time>
      </trkpt>
      <trkpt lat="44.90331" lon="5.37632">
        <ele>1049.42</ele>
        <time>2014-10-25T14:31:47Z</time>
      </trkpt>
      <trkpt lat="44.90336" lon="5.37632">
        <ele>1048.94</ele>
        <time>2014-10-25T14:31:48Z</time>
      </trkpt>
      <trkpt lat="44.9035" lon="5.37634">
        <ele>1048.94</ele>
        <time>2014-10-25T14:31:51Z</time>
      </trkpt>
      <trkpt lat="44.90382" lon="5.37643">
        <ele>1047.97</ele>
        <time>2014-10-25T14:32:01Z</time>
      </trkpt>
      <trkpt lat="44.90425" lon="5.37654">
        <ele>1046.53</ele>
        <time>2014-10-25T14:32:11Z</time>
      </trkpt>
      <trkpt lat="44.90429" lon="5.37656">
        <ele>1046.53</ele>
        <time>2014-10-25T14:32:12Z</time>
      </trkpt>
      <trkpt lat="44.90446" lon="5.37667">
        <ele>1047.49</ele>
        <time>2014-10-25T14:32:17Z</time>
      </trkpt>
      <trkpt lat="44.90486" lon="5.37701">
        <ele>1048.45</ele>
        <time>2014-10-25T14:32:30Z</time>
      </trkpt>
      <trkpt lat="44.905" lon="5.37741">
        <ele>1051.34</ele>
        <time>2014-10-25T14:32:41Z</time>
      </trkpt>
      <trkpt lat="44.90518" lon="5.37782">
        <ele>1051.34</ele>
        <time>2014-10-25T14:32:53Z</time>
      </trkpt>
      <trkpt lat="44.90545" lon="5.37823">
        <ele>1051.82</ele>
        <time>2014-10-25T14:33:07Z</time>
      </trkpt>
      <trkpt lat="44.90569" lon="5.37854">
        <ele>1051.82</ele>
        <time>2014-10-25T14:33:19Z</time>
      </trkpt>
      <trkpt lat="44.90597" lon="5.37884">
        <ele>1048.94</ele>
        <time>2014-10-25T14:33:27Z</time>
      </trkpt>
      <trkpt lat="44.90601" lon="5.37888">
        <ele>1048.94</ele>
        <time>2014-10-25T14:33:28Z</time>
      </trkpt>
      <trkpt lat="44.90609" lon="5.37894">
        <ele>1048.94</ele>
        <time>2014-10-25T14:33:30Z</time>
      </trkpt>
      <trkpt lat="44.90612" lon="5.37897">
        <ele>1048.94</ele>
        <time>2014-10-25T14:33:31Z</time>
      </trkpt>
      <trkpt lat="44.90633" lon="5.37931">
        <ele>1050.38</ele>
        <time>2014-10-25T14:33:40Z</time>
      </trkpt>
      <trkpt lat="44.90644" lon="5.37969">
        <ele>1051.34</ele>
        <time>2014-10-25T14:33:51Z</time>
      </trkpt>
      <trkpt lat="44.90642" lon="5.38026">
        <ele>1053.26</ele>
        <time>2014-10-25T14:34:06Z</time>
      </trkpt>
      <trkpt lat="44.9065" lon="5.38069">
        <ele>1053.74</ele>
        <time>2014-10-25T14:34:18Z</time>
      </trkpt>
      <trkpt lat="44.9068" lon="5.38093">
        <ele>1054.22</ele>
        <time>2014-10-25T14:34:32Z</time>
      </trkpt>
      <trkpt lat="44.90707" lon="5.38097">
        <ele>1054.22</ele>
        <time>2014-10-25T14:34:45Z</time>
      </trkpt>
      <trkpt lat="44.90744" lon="5.38102">
        <ele>1054.22</ele>
        <time>2014-10-25T14:34:58Z</time>
      </trkpt>
      <trkpt lat="44.90768" lon="5.38098">
        <ele>1054.22</ele>
        <time>2014-10-25T14:35:10Z</time>
      </trkpt>
      <trkpt lat="44.90772" lon="5.38099">
        <ele>1052.3</ele>
        <time>2014-10-25T14:35:11Z</time>
      </trkpt>
      <trkpt lat="44.90777" lon="5.38101">
        <ele>1051.34</ele>
        <time>2014-10-25T14:35:12Z</time>
      </trkpt>
      <trkpt lat="44.90782" lon="5.38106">
        <ele>1050.86</ele>
        <time>2014-10-25T14:35:13Z</time>
      </trkpt>
      <trkpt lat="44.90786" lon="5.38111">
        <ele>1049.9</ele>
        <time>2014-10-25T14:35:14Z</time>
      </trkpt>
      <trkpt lat="44.9079" lon="5.38117">
        <ele>1049.9</ele>
        <time>2014-10-25T14:35:15Z</time>
      </trkpt>
      <trkpt lat="44.90812" lon="5.38154">
        <ele>1047.49</ele>
        <time>2014-10-25T14:35:21Z</time>
      </trkpt>
      <trkpt lat="44.90821" lon="5.38167">
        <ele>1045.57</ele>
        <time>2014-10-25T14:35:23Z</time>
      </trkpt>
      <trkpt lat="44.90827" lon="5.38171">
        <ele>1045.09</ele>
        <time>2014-10-25T14:35:24Z</time>
      </trkpt>
      <trkpt lat="44.90834" lon="5.38174">
        <ele>1044.61</ele>
        <time>2014-10-25T14:35:25Z</time>
      </trkpt>
      <trkpt lat="44.9084" lon="5.38176">
        <ele>1044.61</ele>
        <time>2014-10-25T14:35:26Z</time>
      </trkpt>
      <trkpt lat="44.90846" lon="5.38178">
        <ele>1044.61</ele>
        <time>2014-10-25T14:35:27Z</time>
      </trkpt>
      <trkpt lat="44.90867" lon="5.38183">
        <ele>1046.05</ele>
        <time>2014-10-25T14:35:32Z</time>
      </trkpt>
      <trkpt lat="44.90904" lon="5.38176">
        <ele>1048.94</ele>
        <time>2014-10-25T14:35:47Z</time>
      </trkpt>
      <trkpt lat="44.90944" lon="5.38172">
        <ele>1052.3</ele>
        <time>2014-10-25T14:36:05Z</time>
      </trkpt>
      <trkpt lat="44.90978" lon="5.38173">
        <ele>1053.26</ele>
        <time>2014-10-25T14:36:21Z</time>
      </trkpt>
      <trkpt lat="44.91015" lon="5.38162">
        <ele>1053.26</ele>
        <time>2014-10-25T14:36:34Z</time>
      </trkpt>
      <trkpt lat="44.91047" lon="5.38126">
        <ele>1054.22</ele>
        <time>2014-10-25T14:36:46Z</time>
      </trkpt>
      <trkpt lat="44.91081" lon="5.38095">
        <ele>1052.78</ele>
        <time>2014-10-25T14:36:58Z</time>
      </trkpt>
      <trkpt lat="44.91112" lon="5.38058">
        <ele>1051.34</ele>
        <time>2014-10-25T14:37:10Z</time>
      </trkpt>
      <trkpt lat="44.9114" lon="5.38015">
        <ele>1051.34</ele>
        <time>2014-10-25T14:37:24Z</time>
      </trkpt>
      <trkpt lat="44.91148" lon="5.3799">
        <ele>1052.78</ele>
        <time>2014-10-25T14:37:30Z</time>
      </trkpt>
      <trkpt lat="44.91169" lon="5.37966">
        <ele>1054.7</ele>
        <time>2014-10-25T14:37:42Z</time>
      </trkpt>
      <trkpt lat="44.91194" lon="5.37959">
        <ele>1058.07</ele>
        <time>2014-10-25T14:37:55Z</time>
      </trkpt>
      <trkpt lat="44.91221" lon="5.37953">
        <ele>1059.99</ele>
        <time>2014-10-25T14:38:09Z</time>
      </trkpt>
      <trkpt lat="44.91247" lon="5.37967">
        <ele>1061.43</ele>
        <time>2014-10-25T14:38:23Z</time>
      </trkpt>
      <trkpt lat="44.91273" lon="5.37989">
        <ele>1063.36</ele>
        <time>2014-10-25T14:38:38Z</time>
      </trkpt>
      <trkpt lat="44.91301" lon="5.38006">
        <ele>1065.76</ele>
        <time>2014-10-25T14:38:56Z</time>
      </trkpt>
      <trkpt lat="44.91321" lon="5.37999">
        <ele>1069.6</ele>
        <time>2014-10-25T14:39:08Z</time>
      </trkpt>
      <trkpt lat="44.91338" lon="5.37976">
        <ele>1072.97</ele>
        <time>2014-10-25T14:39:21Z</time>
      </trkpt>
      <trkpt lat="44.9134" lon="5.37976">
        <ele>1072.97</ele>
        <time>2014-10-25T14:39:22Z</time>
      </trkpt>
      <trkpt lat="44.91356" lon="5.37978">
        <ele>1075.85</ele>
        <time>2014-10-25T14:39:34Z</time>
      </trkpt>
      <trkpt lat="44.91375" lon="5.37975">
        <ele>1079.22</ele>
        <time>2014-10-25T14:39:47Z</time>
      </trkpt>
      <trkpt lat="44.91381" lon="5.37974">
        <ele>1080.18</ele>
        <time>2014-10-25T14:39:52Z</time>
      </trkpt>
      <trkpt lat="44.91382" lon="5.37974">
        <ele>1080.18</ele>
        <time>2014-10-25T14:39:53Z</time>
      </trkpt>
      <trkpt lat="44.91406" lon="5.37975">
        <ele>1082.1</ele>
        <time>2014-10-25T14:40:09Z</time>
      </trkpt>
      <trkpt lat="44.9141" lon="5.37976">
        <ele>1082.1</ele>
        <time>2014-10-25T14:40:24Z</time>
      </trkpt>
      <trkpt lat="44.91409" lon="5.37969">
        <ele>1082.58</ele>
        <time>2014-10-25T14:40:57Z</time>
      </trkpt>
      <trkpt lat="44.91409" lon="5.37968">
        <ele>1082.58</ele>
        <time>2014-10-25T14:41:32Z</time>
      </trkpt>
      <trkpt lat="44.91408" lon="5.37971">
        <ele>1082.58</ele>
        <time>2014-10-25T14:41:57Z</time>
      </trkpt>
      <trkpt lat="44.91412" lon="5.37975">
        <ele>1082.58</ele>
        <time>2014-10-25T14:42:23Z</time>
      </trkpt>
      <trkpt lat="44.91433" lon="5.37981">
        <ele>1084.02</ele>
        <time>2014-10-25T14:42:38Z</time>
      </trkpt>
      <trkpt lat="44.91442" lon="5.37979">
        <ele>1084.99</ele>
        <time>2014-10-25T14:42:52Z</time>
      </trkpt>
      <trkpt lat="44.91447" lon="5.37979">
        <ele>1084.99</ele>
        <time>2014-10-25T14:43:13Z</time>
      </trkpt>
      <trkpt lat="44.91447" lon="5.37976">
        <ele>1084.99</ele>
        <time>2014-10-25T14:43:37Z</time>
      </trkpt>
      <trkpt lat="44.9145" lon="5.37977">
        <ele>1084.99</ele>
        <time>2014-10-25T14:43:41Z</time>
      </trkpt>
      <trkpt lat="44.91451" lon="5.37976">
        <ele>1084.99</ele>
        <time>2014-10-25T14:43:42Z</time>
      </trkpt>
      <trkpt lat="44.91452" lon="5.37975">
        <ele>1084.99</ele>
        <time>2014-10-25T14:43:43Z</time>
      </trkpt>
      <trkpt lat="44.91454" lon="5.37975">
        <ele>1084.99</ele>
        <time>2014-10-25T14:43:44Z</time>
      </trkpt>
      <trkpt lat="44.91455" lon="5.37974">
        <ele>1084.99</ele>
        <time>2014-10-25T14:43:45Z</time>
      </trkpt>
      <trkpt lat="44.91484" lon="5.37972">
        <ele>1084.99</ele>
        <time>2014-10-25T14:43:58Z</time>
      </trkpt>
      <trkpt lat="44.91524" lon="5.37971">
        <ele>1086.43</ele>
        <time>2014-10-25T14:44:14Z</time>
      </trkpt>
      <trkpt lat="44.91567" lon="5.37968">
        <ele>1086.91</ele>
        <time>2014-10-25T14:44:29Z</time>
      </trkpt>
      <trkpt lat="44.9162" lon="5.37963">
        <ele>1087.87</ele>
        <time>2014-10-25T14:44:46Z</time>
      </trkpt>
      <trkpt lat="44.91664" lon="5.37961">
        <ele>1087.39</ele>
        <time>2014-10-25T14:45:00Z</time>
      </trkpt>
      <trkpt lat="44.91702" lon="5.37972">
        <ele>1087.39</ele>
        <time>2014-10-25T14:45:11Z</time>
      </trkpt>
      <trkpt lat="44.91743" lon="5.37991">
        <ele>1086.43</ele>
        <time>2014-10-25T14:45:24Z</time>
      </trkpt>
      <trkpt lat="44.91768" lon="5.38061">
        <ele>1083.06</ele>
        <time>2014-10-25T14:45:38Z</time>
      </trkpt>
      <trkpt lat="44.91801" lon="5.38114">
        <ele>1080.66</ele>
        <time>2014-10-25T14:45:51Z</time>
      </trkpt>
      <trkpt lat="44.91839" lon="5.38138">
        <ele>1077.29</ele>
        <time>2014-10-25T14:45:59Z</time>
      </trkpt>
      <trkpt lat="44.91866" lon="5.38149">
        <ele>1076.33</ele>
        <time>2014-10-25T14:46:04Z</time>
      </trkpt>
      <trkpt lat="44.91871" lon="5.38149">
        <ele>1075.85</ele>
        <time>2014-10-25T14:46:05Z</time>
      </trkpt>
      <trkpt lat="44.91899" lon="5.38145">
        <ele>1075.85</ele>
        <time>2014-10-25T14:46:12Z</time>
      </trkpt>
      <trkpt lat="44.91958" lon="5.38137">
        <ele>1073.93</ele>
        <time>2014-10-25T14:46:27Z</time>
      </trkpt>
      <trkpt lat="44.92009" lon="5.38152">
        <ele>1072.01</ele>
        <time>2014-10-25T14:46:39Z</time>
      </trkpt>
      <trkpt lat="44.92036" lon="5.38164">
        <ele>1072.01</ele>
        <time>2014-10-25T14:46:46Z</time>
      </trkpt>
      <trkpt lat="44.9204" lon="5.38167">
        <ele>1072.01</ele>
        <time>2014-10-25T14:46:47Z</time>
      </trkpt>
      <trkpt lat="44.92043" lon="5.38171">
        <ele>1072.01</ele>
        <time>2014-10-25T14:46:48Z</time>
      </trkpt>
      <trkpt lat="44.92046" lon="5.38176">
        <ele>1072.01</ele>
        <time>2014-10-25T14:46:49Z</time>
      </trkpt>
      <trkpt lat="44.92047" lon="5.38181">
        <ele>1072.01</ele>
        <time>2014-10-25T14:46:50Z</time>
      </trkpt>
      <trkpt lat="44.92049" lon="5.38187">
        <ele>1072.97</ele>
        <time>2014-10-25T14:46:51Z</time>
      </trkpt>
      <trkpt lat="44.92068" lon="5.38232">
        <ele>1075.85</ele>
        <time>2014-10-25T14:47:03Z</time>
      </trkpt>
      <trkpt lat="44.92103" lon="5.38263">
        <ele>1075.85</ele>
        <time>2014-10-25T14:47:17Z</time>
      </trkpt>
      <trkpt lat="44.92114" lon="5.3827">
        <ele>1074.41</ele>
        <time>2014-10-25T14:47:20Z</time>
      </trkpt>
      <trkpt lat="44.92142" lon="5.38299">
        <ele>1075.85</ele>
        <time>2014-10-25T14:47:29Z</time>
      </trkpt>
      <trkpt lat="44.92178" lon="5.38325">
        <ele>1077.29</ele>
        <time>2014-10-25T14:47:43Z</time>
      </trkpt>
      <trkpt lat="44.92209" lon="5.38348">
        <ele>1078.74</ele>
        <time>2014-10-25T14:47:58Z</time>
      </trkpt>
      <trkpt lat="44.92234" lon="5.38343">
        <ele>1079.22</ele>
        <time>2014-10-25T14:48:08Z</time>
      </trkpt>
      <trkpt lat="44.92266" lon="5.3834">
        <ele>1079.22</ele>
        <time>2014-10-25T14:48:20Z</time>
      </trkpt>
      <trkpt lat="44.92283" lon="5.38347">
        <ele>1078.26</ele>
        <time>2014-10-25T14:48:26Z</time>
      </trkpt>
      <trkpt lat="44.92288" lon="5.38351">
        <ele>1078.26</ele>
        <time>2014-10-25T14:48:28Z</time>
      </trkpt>
      <trkpt lat="44.92318" lon="5.38374">
        <ele>1076.81</ele>
        <time>2014-10-25T14:48:40Z</time>
      </trkpt>
      <trkpt lat="44.92338" lon="5.38383">
        <ele>1075.85</ele>
        <time>2014-10-25T14:48:48Z</time>
      </trkpt>
      <trkpt lat="44.92338" lon="5.38384">
        <ele>1075.85</ele>
        <time>2014-10-25T14:48:49Z</time>
      </trkpt>
      <trkpt lat="44.92341" lon="5.38385">
        <ele>1075.85</ele>
        <time>2014-10-25T14:48:51Z</time>
      </trkpt>
      <trkpt lat="44.92343" lon="5.38385">
        <ele>1075.85</ele>
        <time>2014-10-25T14:48:52Z</time>
      </trkpt>
      <trkpt lat="44.92345" lon="5.38387">
        <ele>1075.85</ele>
        <time>2014-10-25T14:48:53Z</time>
      </trkpt>
      <trkpt lat="44.92347" lon="5.38388">
        <ele>1075.85</ele>
        <time>2014-10-25T14:48:54Z</time>
      </trkpt>
      <trkpt lat="44.9235" lon="5.3839">
        <ele>1075.85</ele>
        <time>2014-10-25T14:48:55Z</time>
      </trkpt>
      <trkpt lat="44.92352" lon="5.38393">
        <ele>1075.85</ele>
        <time>2014-10-25T14:48:56Z</time>
      </trkpt>
      <trkpt lat="44.92381" lon="5.38424">
        <ele>1075.85</ele>
        <time>2014-10-25T14:49:08Z</time>
      </trkpt>
      <trkpt lat="44.92405" lon="5.38453">
        <ele>1078.26</ele>
        <time>2014-10-25T14:49:20Z</time>
      </trkpt>
      <trkpt lat="44.92438" lon="5.38473">
        <ele>1079.22</ele>
        <time>2014-10-25T14:49:33Z</time>
      </trkpt>
      <trkpt lat="44.92467" lon="5.38498">
        <ele>1080.18</ele>
        <time>2014-10-25T14:49:46Z</time>
      </trkpt>
      <trkpt lat="44.92497" lon="5.38528">
        <ele>1081.14</ele>
        <time>2014-10-25T14:49:59Z</time>
      </trkpt>
      <trkpt lat="44.92527" lon="5.3855">
        <ele>1081.62</ele>
        <time>2014-10-25T14:50:11Z</time>
      </trkpt>
      <trkpt lat="44.92543" lon="5.3856">
        <ele>1081.62</ele>
        <time>2014-10-25T14:50:21Z</time>
      </trkpt>
      <trkpt lat="44.92544" lon="5.38562">
        <ele>1081.62</ele>
        <time>2014-10-25T14:50:22Z</time>
      </trkpt>
      <trkpt lat="44.92546" lon="5.38566">
        <ele>1081.62</ele>
        <time>2014-10-25T14:50:24Z</time>
      </trkpt>
      <trkpt lat="44.92552" lon="5.38571">
        <ele>1082.58</ele>
        <time>2014-10-25T14:50:28Z</time>
      </trkpt>
      <trkpt lat="44.9257" lon="5.38609">
        <ele>1081.62</ele>
        <time>2014-10-25T14:50:40Z</time>
      </trkpt>
      <trkpt lat="44.92595" lon="5.38635">
        <ele>1082.58</ele>
        <time>2014-10-25T14:50:52Z</time>
      </trkpt>
      <trkpt lat="44.92601" lon="5.38649">
        <ele>1081.14</ele>
        <time>2014-10-25T14:50:56Z</time>
      </trkpt>
      <trkpt lat="44.92603" lon="5.38652">
        <ele>1081.14</ele>
        <time>2014-10-25T14:50:57Z</time>
      </trkpt>
      <trkpt lat="44.92611" lon="5.38675">
        <ele>1082.58</ele>
        <time>2014-10-25T14:51:05Z</time>
      </trkpt>
      <trkpt lat="44.92619" lon="5.38698">
        <ele>1084.5</ele>
        <time>2014-10-25T14:51:13Z</time>
      </trkpt>
      <trkpt lat="44.92631" lon="5.3872">
        <ele>1087.87</ele>
        <time>2014-10-25T14:51:23Z</time>
      </trkpt>
      <trkpt lat="44.92647" lon="5.38736">
        <ele>1091.23</ele>
        <time>2014-10-25T14:51:34Z</time>
      </trkpt>
      <trkpt lat="44.92662" lon="5.38746">
        <ele>1093.16</ele>
        <time>2014-10-25T14:51:43Z</time>
      </trkpt>
      <trkpt lat="44.92675" lon="5.38748">
        <ele>1094.12</ele>
        <time>2014-10-25T14:51:57Z</time>
      </trkpt>
      <trkpt lat="44.92677" lon="5.3875">
        <ele>1094.12</ele>
        <time>2014-10-25T14:52:23Z</time>
      </trkpt>
      <trkpt lat="44.92676" lon="5.38752">
        <ele>1094.6</ele>
        <time>2014-10-25T14:52:51Z</time>
      </trkpt>
      <trkpt lat="44.9268" lon="5.3875">
        <ele>1094.6</ele>
        <time>2014-10-25T14:53:21Z</time>
      </trkpt>
      <trkpt lat="44.9268" lon="5.38751">
        <ele>1094.6</ele>
        <time>2014-10-25T14:53:44Z</time>
      </trkpt>
      <trkpt lat="44.92677" lon="5.38756">
        <ele>1095.08</ele>
        <time>2014-10-25T14:54:30Z</time>
      </trkpt>
      <trkpt lat="44.92683" lon="5.38756">
        <ele>1095.08</ele>
        <time>2014-10-25T14:55:12Z</time>
      </trkpt>
      <trkpt lat="44.9268" lon="5.38754">
        <ele>1095.56</ele>
        <time>2014-10-25T14:55:43Z</time>
      </trkpt>
      <trkpt lat="44.92677" lon="5.38755">
        <ele>1095.56</ele>
        <time>2014-10-25T14:56:01Z</time>
      </trkpt>
      <trkpt lat="44.92678" lon="5.38752">
        <ele>1095.56</ele>
        <time>2014-10-25T14:56:21Z</time>
      </trkpt>
      <trkpt lat="44.92678" lon="5.38754">
        <ele>1095.56</ele>
        <time>2014-10-25T14:56:46Z</time>
      </trkpt>
      <trkpt lat="44.9268" lon="5.3875">
        <ele>1095.56</ele>
        <time>2014-10-25T14:57:03Z</time>
      </trkpt>
      <trkpt lat="44.92681" lon="5.38749">
        <ele>1095.56</ele>
        <time>2014-10-25T14:57:20Z</time>
      </trkpt>
      <trkpt lat="44.92701" lon="5.38762">
        <ele>1096.52</ele>
        <time>2014-10-25T14:57:33Z</time>
      </trkpt>
      <trkpt lat="44.92729" lon="5.38782">
        <ele>1097.96</ele>
        <time>2014-10-25T14:57:44Z</time>
      </trkpt>
      <trkpt lat="44.92756" lon="5.38822">
        <ele>1098.92</ele>
        <time>2014-10-25T14:57:59Z</time>
      </trkpt>
      <trkpt lat="44.9277" lon="5.38857">
        <ele>1100.37</ele>
        <time>2014-10-25T14:58:10Z</time>
      </trkpt>
      <trkpt lat="44.9277" lon="5.38869">
        <ele>1100.85</ele>
        <time>2014-10-25T14:58:13Z</time>
      </trkpt>
      <trkpt lat="44.92768" lon="5.38883">
        <ele>1097.96</ele>
        <time>2014-10-25T14:58:15Z</time>
      </trkpt>
      <trkpt lat="44.92769" lon="5.38919">
        <ele>1097.96</ele>
        <time>2014-10-25T14:58:20Z</time>
      </trkpt>
      <trkpt lat="44.92781" lon="5.38987">
        <ele>1094.6</ele>
        <time>2014-10-25T14:58:29Z</time>
      </trkpt>
      <trkpt lat="44.92788" lon="5.38996">
        <ele>1094.12</ele>
        <time>2014-10-25T14:58:31Z</time>
      </trkpt>
      <trkpt lat="44.92832" lon="5.39038">
        <ele>1093.64</ele>
        <time>2014-10-25T14:58:45Z</time>
      </trkpt>
      <trkpt lat="44.92848" lon="5.39054">
        <ele>1095.08</ele>
        <time>2014-10-25T14:58:51Z</time>
      </trkpt>
      <trkpt lat="44.92851" lon="5.39056">
        <ele>1095.56</ele>
        <time>2014-10-25T14:59:02Z</time>
      </trkpt>
      <trkpt lat="44.92856" lon="5.39061">
        <ele>1096.52</ele>
        <time>2014-10-25T14:59:25Z</time>
      </trkpt>
      <trkpt lat="44.92866" lon="5.39068">
        <ele>1096.52</ele>
        <time>2014-10-25T14:59:29Z</time>
      </trkpt>
      <trkpt lat="44.92884" lon="5.39086">
        <ele>1092.68</ele>
        <time>2014-10-25T14:59:34Z</time>
      </trkpt>
      <trkpt lat="44.92911" lon="5.39141">
        <ele>1092.68</ele>
        <time>2014-10-25T14:59:45Z</time>
      </trkpt>
      <trkpt lat="44.92926" lon="5.39172">
        <ele>1096.04</ele>
        <time>2014-10-25T14:59:53Z</time>
      </trkpt>
      <trkpt lat="44.92937" lon="5.39188">
        <ele>1098.92</ele>
        <time>2014-10-25T15:00:00Z</time>
      </trkpt>
      <trkpt lat="44.92938" lon="5.39189">
        <ele>1098.92</ele>
        <time>2014-10-25T15:00:01Z</time>
      </trkpt>
      <trkpt lat="44.92951" lon="5.39189">
        <ele>1100.37</ele>
        <time>2014-10-25T15:00:10Z</time>
      </trkpt>
      <trkpt lat="44.92974" lon="5.39168">
        <ele>1098.44</ele>
        <time>2014-10-25T15:00:21Z</time>
      </trkpt>
      <trkpt lat="44.92978" lon="5.39163">
        <ele>1098.44</ele>
        <time>2014-10-25T15:00:22Z</time>
      </trkpt>
      <trkpt lat="44.92997" lon="5.39152">
        <ele>1097.96</ele>
        <time>2014-10-25T15:00:27Z</time>
      </trkpt>
      <trkpt lat="44.93047" lon="5.39171">
        <ele>1097</ele>
        <time>2014-10-25T15:00:43Z</time>
      </trkpt>
      <trkpt lat="44.93051" lon="5.39174">
        <ele>1097</ele>
        <time>2014-10-25T15:00:54Z</time>
      </trkpt>
      <trkpt lat="44.93053" lon="5.39175">
        <ele>1097</ele>
        <time>2014-10-25T15:01:10Z</time>
      </trkpt>
      <trkpt lat="44.93055" lon="5.39178">
        <ele>1097</ele>
        <time>2014-10-25T15:01:38Z</time>
      </trkpt>
      <trkpt lat="44.93056" lon="5.39179">
        <ele>1097</ele>
        <time>2014-10-25T15:01:40Z</time>
      </trkpt>
      <trkpt lat="44.93054" lon="5.39225">
        <ele>1095.56</ele>
        <time>2014-10-25T15:01:52Z</time>
      </trkpt>
      <trkpt lat="44.9306" lon="5.3925">
        <ele>1092.2</ele>
        <time>2014-10-25T15:01:57Z</time>
      </trkpt>
      <trkpt lat="44.93061" lon="5.39257">
        <ele>1091.23</ele>
        <time>2014-10-25T15:01:58Z</time>
      </trkpt>
      <trkpt lat="44.93069" lon="5.39289">
        <ele>1088.83</ele>
        <time>2014-10-25T15:02:02Z</time>
      </trkpt>
      <trkpt lat="44.93071" lon="5.39297">
        <ele>1088.83</ele>
        <time>2014-10-25T15:02:03Z</time>
      </trkpt>
      <trkpt lat="44.93073" lon="5.39305">
        <ele>1088.35</ele>
        <time>2014-10-25T15:02:04Z</time>
      </trkpt>
      <trkpt lat="44.93077" lon="5.39321">
        <ele>1088.35</ele>
        <time>2014-10-25T15:02:06Z</time>
      </trkpt>
      <trkpt lat="44.93084" lon="5.39341">
        <ele>1087.39</ele>
        <time>2014-10-25T15:02:09Z</time>
      </trkpt>
      <trkpt lat="44.93086" lon="5.39347">
        <ele>1087.39</ele>
        <time>2014-10-25T15:02:10Z</time>
      </trkpt>
      <trkpt lat="44.93101" lon="5.3937">
        <ele>1084.99</ele>
        <time>2014-10-25T15:02:14Z</time>
      </trkpt>
      <trkpt lat="44.93104" lon="5.39375">
        <ele>1085.47</ele>
        <time>2014-10-25T15:02:15Z</time>
      </trkpt>
      <trkpt lat="44.93104" lon="5.39385">
        <ele>1085.47</ele>
        <time>2014-10-25T15:02:17Z</time>
      </trkpt>
      <trkpt lat="44.93104" lon="5.39396">
        <ele>1084.99</ele>
        <time>2014-10-25T15:02:19Z</time>
      </trkpt>
      <trkpt lat="44.93104" lon="5.39403">
        <ele>1084.5</ele>
        <time>2014-10-25T15:02:20Z</time>
      </trkpt>
      <trkpt lat="44.93105" lon="5.39423">
        <ele>1081.14</ele>
        <time>2014-10-25T15:02:23Z</time>
      </trkpt>
      <trkpt lat="44.93107" lon="5.39447">
        <ele>1078.26</ele>
        <time>2014-10-25T15:02:26Z</time>
      </trkpt>
      <trkpt lat="44.93108" lon="5.39501">
        <ele>1077.29</ele>
        <time>2014-10-25T15:02:33Z</time>
      </trkpt>
      <trkpt lat="44.93106" lon="5.3952">
        <ele>1074.89</ele>
        <time>2014-10-25T15:02:35Z</time>
      </trkpt>
      <trkpt lat="44.9311" lon="5.39549">
        <ele>1074.89</ele>
        <time>2014-10-25T15:02:39Z</time>
      </trkpt>
      <trkpt lat="44.93112" lon="5.39572">
        <ele>1072.97</ele>
        <time>2014-10-25T15:02:42Z</time>
      </trkpt>
      <trkpt lat="44.93104" lon="5.39605">
        <ele>1068.64</ele>
        <time>2014-10-25T15:02:47Z</time>
      </trkpt>
      <trkpt lat="44.93099" lon="5.39617">
        <ele>1067.2</ele>
        <time>2014-10-25T15:02:50Z</time>
      </trkpt>
      <trkpt lat="44.93094" lon="5.3963">
        <ele>1063.84</ele>
        <time>2014-10-25T15:02:54Z</time>
      </trkpt>
      <trkpt lat="44.93092" lon="5.39633">
        <ele>1062.87</ele>
        <time>2014-10-25T15:02:55Z</time>
      </trkpt>
      <trkpt lat="44.93083" lon="5.3965">
        <ele>1058.55</ele>
        <time>2014-10-25T15:02:58Z</time>
      </trkpt>
      <trkpt lat="44.9308" lon="5.39659">
        <ele>1057.11</ele>
        <time>2014-10-25T15:02:59Z</time>
      </trkpt>
      <trkpt lat="44.93079" lon="5.39667">
        <ele>1056.63</ele>
        <time>2014-10-25T15:03:00Z</time>
      </trkpt>
      <trkpt lat="44.93077" lon="5.39675">
        <ele>1056.63</ele>
        <time>2014-10-25T15:03:01Z</time>
      </trkpt>
      <trkpt lat="44.93076" lon="5.39681">
        <ele>1055.67</ele>
        <time>2014-10-25T15:03:02Z</time>
      </trkpt>
      <trkpt lat="44.93073" lon="5.39687">
        <ele>1055.18</ele>
        <time>2014-10-25T15:03:03Z</time>
      </trkpt>
      <trkpt lat="44.93066" lon="5.39697">
        <ele>1052.3</ele>
        <time>2014-10-25T15:03:05Z</time>
      </trkpt>
      <trkpt lat="44.93064" lon="5.39704">
        <ele>1050.38</ele>
        <time>2014-10-25T15:03:06Z</time>
      </trkpt>
      <trkpt lat="44.93062" lon="5.3971">
        <ele>1048.94</ele>
        <time>2014-10-25T15:03:07Z</time>
      </trkpt>
      <trkpt lat="44.93063" lon="5.39715">
        <ele>1047.49</ele>
        <time>2014-10-25T15:03:08Z</time>
      </trkpt>
      <trkpt lat="44.93063" lon="5.39721">
        <ele>1046.05</ele>
        <time>2014-10-25T15:03:09Z</time>
      </trkpt>
      <trkpt lat="44.93064" lon="5.39726">
        <ele>1045.09</ele>
        <time>2014-10-25T15:03:10Z</time>
      </trkpt>
      <trkpt lat="44.93064" lon="5.3973">
        <ele>1044.13</ele>
        <time>2014-10-25T15:03:11Z</time>
      </trkpt>
      <trkpt lat="44.93066" lon="5.39732">
        <ele>1043.17</ele>
        <time>2014-10-25T15:03:12Z</time>
      </trkpt>
      <trkpt lat="44.93069" lon="5.39733">
        <ele>1042.69</ele>
        <time>2014-10-25T15:03:13Z</time>
      </trkpt>
      <trkpt lat="44.93072" lon="5.39735">
        <ele>1042.69</ele>
        <time>2014-10-25T15:03:14Z</time>
      </trkpt>
      <trkpt lat="44.93075" lon="5.39737">
        <ele>1042.21</ele>
        <time>2014-10-25T15:03:15Z</time>
      </trkpt>
      <trkpt lat="44.93078" lon="5.39741">
        <ele>1042.21</ele>
        <time>2014-10-25T15:03:16Z</time>
      </trkpt>
      <trkpt lat="44.93082" lon="5.39745">
        <ele>1041.25</ele>
        <time>2014-10-25T15:03:17Z</time>
      </trkpt>
      <trkpt lat="44.93086" lon="5.39751">
        <ele>1040.76</ele>
        <time>2014-10-25T15:03:18Z</time>
      </trkpt>
      <trkpt lat="44.9309" lon="5.39756">
        <ele>1040.76</ele>
        <time>2014-10-25T15:03:19Z</time>
      </trkpt>
      <trkpt lat="44.93094" lon="5.3976">
        <ele>1040.76</ele>
        <time>2014-10-25T15:03:20Z</time>
      </trkpt>
      <trkpt lat="44.93098" lon="5.39763">
        <ele>1040.76</ele>
        <time>2014-10-25T15:03:21Z</time>
      </trkpt>
      <trkpt lat="44.93102" lon="5.39766">
        <ele>1040.76</ele>
        <time>2014-10-25T15:03:22Z</time>
      </trkpt>
      <trkpt lat="44.93104" lon="5.39769">
        <ele>1040.76</ele>
        <time>2014-10-25T15:03:23Z</time>
      </trkpt>
      <trkpt lat="44.93107" lon="5.39772">
        <ele>1040.76</ele>
        <time>2014-10-25T15:03:24Z</time>
      </trkpt>
      <trkpt lat="44.93108" lon="5.39776">
        <ele>1040.76</ele>
        <time>2014-10-25T15:03:25Z</time>
      </trkpt>
      <trkpt lat="44.93126" lon="5.39794">
        <ele>1043.17</ele>
        <time>2014-10-25T15:03:35Z</time>
      </trkpt>
      <trkpt lat="44.93137" lon="5.39803">
        <ele>1046.05</ele>
        <time>2014-10-25T15:03:43Z</time>
      </trkpt>
      <trkpt lat="44.93139" lon="5.39804">
        <ele>1046.53</ele>
        <time>2014-10-25T15:03:44Z</time>
      </trkpt>
      <trkpt lat="44.9314" lon="5.39805">
        <ele>1047.01</ele>
        <time>2014-10-25T15:03:45Z</time>
      </trkpt>
      <trkpt lat="44.93146" lon="5.39811">
        <ele>1048.94</ele>
        <time>2014-10-25T15:03:49Z</time>
      </trkpt>
      <trkpt lat="44.93147" lon="5.39812">
        <ele>1048.94</ele>
        <time>2014-10-25T15:03:50Z</time>
      </trkpt>
      <trkpt lat="44.93148" lon="5.39814">
        <ele>1049.42</ele>
        <time>2014-10-25T15:03:51Z</time>
      </trkpt>
      <trkpt lat="44.9315" lon="5.39815">
        <ele>1048.94</ele>
        <time>2014-10-25T15:03:52Z</time>
      </trkpt>
      <trkpt lat="44.93151" lon="5.39816">
        <ele>1049.9</ele>
        <time>2014-10-25T15:03:53Z</time>
      </trkpt>
      <trkpt lat="44.93153" lon="5.39817">
        <ele>1049.9</ele>
        <time>2014-10-25T15:03:54Z</time>
      </trkpt>
      <trkpt lat="44.93154" lon="5.39817">
        <ele>1050.86</ele>
        <time>2014-10-25T15:03:55Z</time>
      </trkpt>
      <trkpt lat="44.93156" lon="5.39817">
        <ele>1050.86</ele>
        <time>2014-10-25T15:03:56Z</time>
      </trkpt>
      <trkpt lat="44.93157" lon="5.39818">
        <ele>1050.86</ele>
        <time>2014-10-25T15:03:57Z</time>
      </trkpt>
      <trkpt lat="44.93158" lon="5.39819">
        <ele>1050.86</ele>
        <time>2014-10-25T15:03:58Z</time>
      </trkpt>
      <trkpt lat="44.93159" lon="5.39819">
        <ele>1050.86</ele>
        <time>2014-10-25T15:03:59Z</time>
      </trkpt>
      <trkpt lat="44.93185" lon="5.39831">
        <ele>1052.3</ele>
        <time>2014-10-25T15:04:17Z</time>
      </trkpt>
      <trkpt lat="44.93207" lon="5.39837">
        <ele>1052.3</ele>
        <time>2014-10-25T15:04:31Z</time>
      </trkpt>
      <trkpt lat="44.93214" lon="5.39838">
        <ele>1050.86</ele>
        <time>2014-10-25T15:04:37Z</time>
      </trkpt>
      <trkpt lat="44.93216" lon="5.39837">
        <ele>1050.86</ele>
        <time>2014-10-25T15:04:38Z</time>
      </trkpt>
      <trkpt lat="44.93233" lon="5.39837">
        <ele>1049.42</ele>
        <time>2014-10-25T15:04:48Z</time>
      </trkpt>
      <trkpt lat="44.93242" lon="5.39839">
        <ele>1047.97</ele>
        <time>2014-10-25T15:05:00Z</time>
      </trkpt>
      <trkpt lat="44.93245" lon="5.39841">
        <ele>1047.97</ele>
        <time>2014-10-25T15:05:26Z</time>
      </trkpt>
      <trkpt lat="44.93248" lon="5.39844">
        <ele>1047.49</ele>
        <time>2014-10-25T15:05:58Z</time>
      </trkpt>
      <trkpt lat="44.93263" lon="5.39845">
        <ele>1044.61</ele>
        <time>2014-10-25T15:06:01Z</time>
      </trkpt>
      <trkpt lat="44.93281" lon="5.39843">
        <ele>1041.73</ele>
        <time>2014-10-25T15:06:04Z</time>
      </trkpt>
      <trkpt lat="44.93286" lon="5.3984">
        <ele>1041.73</ele>
        <time>2014-10-25T15:06:05Z</time>
      </trkpt>
      <trkpt lat="44.93292" lon="5.39839">
        <ele>1040.76</ele>
        <time>2014-10-25T15:06:06Z</time>
      </trkpt>
      <trkpt lat="44.93298" lon="5.39841">
        <ele>1040.76</ele>
        <time>2014-10-25T15:06:07Z</time>
      </trkpt>
      <trkpt lat="44.93303" lon="5.39843">
        <ele>1040.28</ele>
        <time>2014-10-25T15:06:08Z</time>
      </trkpt>
      <trkpt lat="44.93308" lon="5.39844">
        <ele>1039.32</ele>
        <time>2014-10-25T15:06:09Z</time>
      </trkpt>
      <trkpt lat="44.93313" lon="5.39842">
        <ele>1038.84</ele>
        <time>2014-10-25T15:06:10Z</time>
      </trkpt>
      <trkpt lat="44.93316" lon="5.39838">
        <ele>1038.84</ele>
        <time>2014-10-25T15:06:11Z</time>
      </trkpt>
      <trkpt lat="44.93319" lon="5.39832">
        <ele>1038.36</ele>
        <time>2014-10-25T15:06:12Z</time>
      </trkpt>
      <trkpt lat="44.93322" lon="5.39825">
        <ele>1038.36</ele>
        <time>2014-10-25T15:06:13Z</time>
      </trkpt>
      <trkpt lat="44.9334" lon="5.39788">
        <ele>1039.8</ele>
        <time>2014-10-25T15:06:21Z</time>
      </trkpt>
      <trkpt lat="44.93352" lon="5.39782">
        <ele>1041.73</ele>
        <time>2014-10-25T15:06:26Z</time>
      </trkpt>
      <trkpt lat="44.93376" lon="5.39784">
        <ele>1044.61</ele>
        <time>2014-10-25T15:06:37Z</time>
      </trkpt>
      <trkpt lat="44.93382" lon="5.39784">
        <ele>1044.61</ele>
        <time>2014-10-25T15:06:41Z</time>
      </trkpt>
      <trkpt lat="44.93384" lon="5.39785">
        <ele>1045.57</ele>
        <time>2014-10-25T15:06:42Z</time>
      </trkpt>
      <trkpt lat="44.93401" lon="5.39793">
        <ele>1047.97</ele>
        <time>2014-10-25T15:06:55Z</time>
      </trkpt>
      <trkpt lat="44.93418" lon="5.39808">
        <ele>1050.86</ele>
        <time>2014-10-25T15:07:10Z</time>
      </trkpt>
      <trkpt lat="44.93423" lon="5.39815">
        <ele>1051.82</ele>
        <time>2014-10-25T15:07:17Z</time>
      </trkpt>
      <trkpt lat="44.93424" lon="5.39816">
        <ele>1052.3</ele>
        <time>2014-10-25T15:07:18Z</time>
      </trkpt>
      <trkpt lat="44.93425" lon="5.39818">
        <ele>1052.3</ele>
        <time>2014-10-25T15:07:19Z</time>
      </trkpt>
      <trkpt lat="44.93426" lon="5.39819">
        <ele>1052.3</ele>
        <time>2014-10-25T15:07:20Z</time>
      </trkpt>
      <trkpt lat="44.93427" lon="5.39821">
        <ele>1052.78</ele>
        <time>2014-10-25T15:07:21Z</time>
      </trkpt>
      <trkpt lat="44.93428" lon="5.39822">
        <ele>1052.78</ele>
        <time>2014-10-25T15:07:22Z</time>
      </trkpt>
      <trkpt lat="44.9343" lon="5.39822">
        <ele>1052.78</ele>
        <time>2014-10-25T15:07:23Z</time>
      </trkpt>
      <trkpt lat="44.93431" lon="5.39823">
        <ele>1052.78</ele>
        <time>2014-10-25T15:07:24Z</time>
      </trkpt>
      <trkpt lat="44.93433" lon="5.39824">
        <ele>1053.26</ele>
        <time>2014-10-25T15:07:25Z</time>
      </trkpt>
      <trkpt lat="44.93434" lon="5.39825">
        <ele>1053.26</ele>
        <time>2014-10-25T15:07:26Z</time>
      </trkpt>
      <trkpt lat="44.93446" lon="5.39827">
        <ele>1053.74</ele>
        <time>2014-10-25T15:07:35Z</time>
      </trkpt>
      <trkpt lat="44.93448" lon="5.39827">
        <ele>1054.22</ele>
        <time>2014-10-25T15:07:36Z</time>
      </trkpt>
      <trkpt lat="44.93454" lon="5.39827">
        <ele>1054.7</ele>
        <time>2014-10-25T15:07:42Z</time>
      </trkpt>
      <trkpt lat="44.93456" lon="5.39826">
        <ele>1054.7</ele>
        <time>2014-10-25T15:07:43Z</time>
      </trkpt>
      <trkpt lat="44.93464" lon="5.39825">
        <ele>1055.18</ele>
        <time>2014-10-25T15:07:58Z</time>
      </trkpt>
      <trkpt lat="44.93473" lon="5.39827">
        <ele>1055.18</ele>
        <time>2014-10-25T15:08:14Z</time>
      </trkpt>
      <trkpt lat="44.93493" lon="5.39828">
        <ele>1055.18</ele>
        <time>2014-10-25T15:08:27Z</time>
      </trkpt>
      <trkpt lat="44.93515" lon="5.39825">
        <ele>1054.22</ele>
        <time>2014-10-25T15:08:36Z</time>
      </trkpt>
      <trkpt lat="44.93518" lon="5.39825">
        <ele>1053.74</ele>
        <time>2014-10-25T15:08:37Z</time>
      </trkpt>
      <trkpt lat="44.93534" lon="5.39822">
        <ele>1052.78</ele>
        <time>2014-10-25T15:08:41Z</time>
      </trkpt>
      <trkpt lat="44.93538" lon="5.39819">
        <ele>1052.78</ele>
        <time>2014-10-25T15:08:42Z</time>
      </trkpt>
      <trkpt lat="44.93544" lon="5.39817">
        <ele>1051.82</ele>
        <time>2014-10-25T15:08:43Z</time>
      </trkpt>
      <trkpt lat="44.93549" lon="5.39816">
        <ele>1051.34</ele>
        <time>2014-10-25T15:08:44Z</time>
      </trkpt>
      <trkpt lat="44.93553" lon="5.39814">
        <ele>1051.34</ele>
        <time>2014-10-25T15:08:45Z</time>
      </trkpt>
      <trkpt lat="44.93558" lon="5.39811">
        <ele>1050.86</ele>
        <time>2014-10-25T15:08:46Z</time>
      </trkpt>
      <trkpt lat="44.93563" lon="5.39809">
        <ele>1050.86</ele>
        <time>2014-10-25T15:08:47Z</time>
      </trkpt>
      <trkpt lat="44.93568" lon="5.39807">
        <ele>1050.38</ele>
        <time>2014-10-25T15:08:48Z</time>
      </trkpt>
      <trkpt lat="44.93574" lon="5.39805">
        <ele>1050.38</ele>
        <time>2014-10-25T15:08:49Z</time>
      </trkpt>
      <trkpt lat="44.93579" lon="5.39804">
        <ele>1049.42</ele>
        <time>2014-10-25T15:08:50Z</time>
      </trkpt>
      <trkpt lat="44.93584" lon="5.39802">
        <ele>1048.94</ele>
        <time>2014-10-25T15:08:51Z</time>
      </trkpt>
      <trkpt lat="44.93589" lon="5.398">
        <ele>1048.45</ele>
        <time>2014-10-25T15:08:52Z</time>
      </trkpt>
      <trkpt lat="44.93594" lon="5.398">
        <ele>1047.97</ele>
        <time>2014-10-25T15:08:53Z</time>
      </trkpt>
      <trkpt lat="44.936" lon="5.398">
        <ele>1047.01</ele>
        <time>2014-10-25T15:08:54Z</time>
      </trkpt>
      <trkpt lat="44.93605" lon="5.39801">
        <ele>1046.53</ele>
        <time>2014-10-25T15:08:55Z</time>
      </trkpt>
      <trkpt lat="44.9361" lon="5.398">
        <ele>1046.05</ele>
        <time>2014-10-25T15:08:56Z</time>
      </trkpt>
      <trkpt lat="44.93616" lon="5.398">
        <ele>1045.09</ele>
        <time>2014-10-25T15:08:57Z</time>
      </trkpt>
      <trkpt lat="44.93645" lon="5.398">
        <ele>1041.25</ele>
        <time>2014-10-25T15:09:02Z</time>
      </trkpt>
      <trkpt lat="44.9366" lon="5.398">
        <ele>1038.36</ele>
        <time>2014-10-25T15:09:06Z</time>
      </trkpt>
      <trkpt lat="44.93667" lon="5.39797">
        <ele>1036.92</ele>
        <time>2014-10-25T15:09:08Z</time>
      </trkpt>
      <trkpt lat="44.93671" lon="5.39794">
        <ele>1035.96</ele>
        <time>2014-10-25T15:09:09Z</time>
      </trkpt>
      <trkpt lat="44.93675" lon="5.39791">
        <ele>1035</ele>
        <time>2014-10-25T15:09:10Z</time>
      </trkpt>
      <trkpt lat="44.93679" lon="5.39789">
        <ele>1034.04</ele>
        <time>2014-10-25T15:09:11Z</time>
      </trkpt>
      <trkpt lat="44.93682" lon="5.39789">
        <ele>1033.55</ele>
        <time>2014-10-25T15:09:12Z</time>
      </trkpt>
      <trkpt lat="44.93685" lon="5.39789">
        <ele>1033.07</ele>
        <time>2014-10-25T15:09:13Z</time>
      </trkpt>
      <trkpt lat="44.93689" lon="5.39788">
        <ele>1032.59</ele>
        <time>2014-10-25T15:09:14Z</time>
      </trkpt>
      <trkpt lat="44.93693" lon="5.39788">
        <ele>1031.63</ele>
        <time>2014-10-25T15:09:15Z</time>
      </trkpt>
      <trkpt lat="44.93698" lon="5.39788">
        <ele>1031.63</ele>
        <time>2014-10-25T15:09:16Z</time>
      </trkpt>
      <trkpt lat="44.93743" lon="5.39785">
        <ele>1028.27</ele>
        <time>2014-10-25T15:09:24Z</time>
      </trkpt>
      <trkpt lat="44.93749" lon="5.39786">
        <ele>1027.79</ele>
        <time>2014-10-25T15:09:25Z</time>
      </trkpt>
      <trkpt lat="44.93755" lon="5.39785">
        <ele>1027.79</ele>
        <time>2014-10-25T15:09:26Z</time>
      </trkpt>
      <trkpt lat="44.93768" lon="5.39782">
        <ele>1025.86</ele>
        <time>2014-10-25T15:09:28Z</time>
      </trkpt>
      <trkpt lat="44.93774" lon="5.3978">
        <ele>1025.86</ele>
        <time>2014-10-25T15:09:29Z</time>
      </trkpt>
      <trkpt lat="44.93781" lon="5.39779">
        <ele>1025.38</ele>
        <time>2014-10-25T15:09:30Z</time>
      </trkpt>
      <trkpt lat="44.93788" lon="5.39779">
        <ele>1024.42</ele>
        <time>2014-10-25T15:09:31Z</time>
      </trkpt>
      <trkpt lat="44.93793" lon="5.39777">
        <ele>1024.42</ele>
        <time>2014-10-25T15:09:32Z</time>
      </trkpt>
      <trkpt lat="44.93798" lon="5.39775">
        <ele>1024.42</ele>
        <time>2014-10-25T15:09:33Z</time>
      </trkpt>
      <trkpt lat="44.93803" lon="5.39774">
        <ele>1023.46</ele>
        <time>2014-10-25T15:09:34Z</time>
      </trkpt>
      <trkpt lat="44.93818" lon="5.39774">
        <ele>1020.1</ele>
        <time>2014-10-25T15:09:38Z</time>
      </trkpt>
      <trkpt lat="44.93821" lon="5.39774">
        <ele>1020.1</ele>
        <time>2014-10-25T15:10:02Z</time>
      </trkpt>
      <trkpt lat="44.93822" lon="5.39774">
        <ele>1019.62</ele>
        <time>2014-10-25T15:10:11Z</time>
      </trkpt>
      <trkpt lat="44.93823" lon="5.39775">
        <ele>1019.62</ele>
        <time>2014-10-25T15:10:12Z</time>
      </trkpt>
      <trkpt lat="44.93842" lon="5.39776">
        <ele>1018.17</ele>
        <time>2014-10-25T15:10:23Z</time>
      </trkpt>
      <trkpt lat="44.93853" lon="5.3978">
        <ele>1015.77</ele>
        <time>2014-10-25T15:10:28Z</time>
      </trkpt>
      <trkpt lat="44.93856" lon="5.39781">
        <ele>1015.29</ele>
        <time>2014-10-25T15:10:30Z</time>
      </trkpt>
      <trkpt lat="44.93862" lon="5.39786">
        <ele>1013.85</ele>
        <time>2014-10-25T15:10:33Z</time>
      </trkpt>
      <trkpt lat="44.93869" lon="5.39787">
        <ele>1012.41</ele>
        <time>2014-10-25T15:10:45Z</time>
      </trkpt>
      <trkpt lat="44.93874" lon="5.39786">
        <ele>1011.44</ele>
        <time>2014-10-25T15:10:50Z</time>
      </trkpt>
      <trkpt lat="44.93875" lon="5.39786">
        <ele>1011.44</ele>
        <time>2014-10-25T15:10:51Z</time>
      </trkpt>
      <trkpt lat="44.93877" lon="5.39787">
        <ele>1011.44</ele>
        <time>2014-10-25T15:10:52Z</time>
      </trkpt>
      <trkpt lat="44.93885" lon="5.39788">
        <ele>1010.48</ele>
        <time>2014-10-25T15:10:55Z</time>
      </trkpt>
      <trkpt lat="44.93889" lon="5.39785">
        <ele>1009.52</ele>
        <time>2014-10-25T15:11:05Z</time>
      </trkpt>
      <trkpt lat="44.93898" lon="5.3978">
        <ele>1008.08</ele>
        <time>2014-10-25T15:11:19Z</time>
      </trkpt>
      <trkpt lat="44.93902" lon="5.39776">
        <ele>1007.12</ele>
        <time>2014-10-25T15:11:20Z</time>
      </trkpt>
      <trkpt lat="44.93906" lon="5.39773">
        <ele>1006.64</ele>
        <time>2014-10-25T15:11:21Z</time>
      </trkpt>
      <trkpt lat="44.93914" lon="5.39764">
        <ele>1004.72</ele>
        <time>2014-10-25T15:11:23Z</time>
      </trkpt>
      <trkpt lat="44.93918" lon="5.39758">
        <ele>1002.79</ele>
        <time>2014-10-25T15:11:24Z</time>
      </trkpt>
      <trkpt lat="44.93923" lon="5.39751">
        <ele>1001.83</ele>
        <time>2014-10-25T15:11:25Z</time>
      </trkpt>
      <trkpt lat="44.93928" lon="5.39745">
        <ele>1000.87</ele>
        <time>2014-10-25T15:11:26Z</time>
      </trkpt>
      <trkpt lat="44.93933" lon="5.39739">
        <ele>999.91</ele>
        <time>2014-10-25T15:11:27Z</time>
      </trkpt>
      <trkpt lat="44.9394" lon="5.39734">
        <ele>999.43</ele>
        <time>2014-10-25T15:11:28Z</time>
      </trkpt>
      <trkpt lat="44.93951" lon="5.39721">
        <ele>998.47</ele>
        <time>2014-10-25T15:11:30Z</time>
      </trkpt>
      <trkpt lat="44.93968" lon="5.39692">
        <ele>997.02</ele>
        <time>2014-10-25T15:11:34Z</time>
      </trkpt>
      <trkpt lat="44.93976" lon="5.39679">
        <ele>996.54</ele>
        <time>2014-10-25T15:11:36Z</time>
      </trkpt>
      <trkpt lat="44.93989" lon="5.3966">
        <ele>996.06</ele>
        <time>2014-10-25T15:11:39Z</time>
      </trkpt>
      <trkpt lat="44.93992" lon="5.39652">
        <ele>995.58</ele>
        <time>2014-10-25T15:11:40Z</time>
      </trkpt>
      <trkpt lat="44.93994" lon="5.39644">
        <ele>995.1</ele>
        <time>2014-10-25T15:11:41Z</time>
      </trkpt>
      <trkpt lat="44.93998" lon="5.39627">
        <ele>994.14</ele>
        <time>2014-10-25T15:11:43Z</time>
      </trkpt>
      <trkpt lat="44.94001" lon="5.3962">
        <ele>993.66</ele>
        <time>2014-10-25T15:11:44Z</time>
      </trkpt>
      <trkpt lat="44.94009" lon="5.39598">
        <ele>993.66</ele>
        <time>2014-10-25T15:11:47Z</time>
      </trkpt>
      <trkpt lat="44.94012" lon="5.39591">
        <ele>993.66</ele>
        <time>2014-10-25T15:11:48Z</time>
      </trkpt>
      <trkpt lat="44.94015" lon="5.39585">
        <ele>994.14</ele>
        <time>2014-10-25T15:11:49Z</time>
      </trkpt>
      <trkpt lat="44.9402" lon="5.3958">
        <ele>994.14</ele>
        <time>2014-10-25T15:11:50Z</time>
      </trkpt>
      <trkpt lat="44.94024" lon="5.39576">
        <ele>993.66</ele>
        <time>2014-10-25T15:11:51Z</time>
      </trkpt>
      <trkpt lat="44.94029" lon="5.39573">
        <ele>993.66</ele>
        <time>2014-10-25T15:11:52Z</time>
      </trkpt>
      <trkpt lat="44.94034" lon="5.3957">
        <ele>993.66</ele>
        <time>2014-10-25T15:11:53Z</time>
      </trkpt>
      <trkpt lat="44.94039" lon="5.39567">
        <ele>993.66</ele>
        <time>2014-10-25T15:11:54Z</time>
      </trkpt>
      <trkpt lat="44.94044" lon="5.39565">
        <ele>993.66</ele>
        <time>2014-10-25T15:11:55Z</time>
      </trkpt>
      <trkpt lat="44.94049" lon="5.39564">
        <ele>993.66</ele>
        <time>2014-10-25T15:11:56Z</time>
      </trkpt>
      <trkpt lat="44.94053" lon="5.39562">
        <ele>993.66</ele>
        <time>2014-10-25T15:11:57Z</time>
      </trkpt>
      <trkpt lat="44.94057" lon="5.39559">
        <ele>993.66</ele>
        <time>2014-10-25T15:11:58Z</time>
      </trkpt>
      <trkpt lat="44.94065" lon="5.39554">
        <ele>993.66</ele>
        <time>2014-10-25T15:12:00Z</time>
      </trkpt>
      <trkpt lat="44.94069" lon="5.39552">
        <ele>993.66</ele>
        <time>2014-10-25T15:12:01Z</time>
      </trkpt>
      <trkpt lat="44.94073" lon="5.39551">
        <ele>993.66</ele>
        <time>2014-10-25T15:12:02Z</time>
      </trkpt>
      <trkpt lat="44.94094" lon="5.39543">
        <ele>993.66</ele>
        <time>2014-10-25T15:12:07Z</time>
      </trkpt>
      <trkpt lat="44.94098" lon="5.39542">
        <ele>993.18</ele>
        <time>2014-10-25T15:12:08Z</time>
      </trkpt>
      <trkpt lat="44.94118" lon="5.39533">
        <ele>992.22</ele>
        <time>2014-10-25T15:12:12Z</time>
      </trkpt>
      <trkpt lat="44.94123" lon="5.39532">
        <ele>991.74</ele>
        <time>2014-10-25T15:12:13Z</time>
      </trkpt>
      <trkpt lat="44.94127" lon="5.3953">
        <ele>991.74</ele>
        <time>2014-10-25T15:12:14Z</time>
      </trkpt>
      <trkpt lat="44.94132" lon="5.39528">
        <ele>990.78</ele>
        <time>2014-10-25T15:12:15Z</time>
      </trkpt>
      <trkpt lat="44.94136" lon="5.39527">
        <ele>990.78</ele>
        <time>2014-10-25T15:12:16Z</time>
      </trkpt>
      <trkpt lat="44.94141" lon="5.39525">
        <ele>990.3</ele>
        <time>2014-10-25T15:12:17Z</time>
      </trkpt>
      <trkpt lat="44.94145" lon="5.39523">
        <ele>989.81</ele>
        <time>2014-10-25T15:12:18Z</time>
      </trkpt>
      <trkpt lat="44.9415" lon="5.3952">
        <ele>989.33</ele>
        <time>2014-10-25T15:12:19Z</time>
      </trkpt>
      <trkpt lat="44.94155" lon="5.39518">
        <ele>988.37</ele>
        <time>2014-10-25T15:12:20Z</time>
      </trkpt>
      <trkpt lat="44.9416" lon="5.39515">
        <ele>987.89</ele>
        <time>2014-10-25T15:12:21Z</time>
      </trkpt>
      <trkpt lat="44.94166" lon="5.39512">
        <ele>986.93</ele>
        <time>2014-10-25T15:12:22Z</time>
      </trkpt>
      <trkpt lat="44.94171" lon="5.39508">
        <ele>986.93</ele>
        <time>2014-10-25T15:12:23Z</time>
      </trkpt>
      <trkpt lat="44.94175" lon="5.39503">
        <ele>986.45</ele>
        <time>2014-10-25T15:12:24Z</time>
      </trkpt>
      <trkpt lat="44.9418" lon="5.39499">
        <ele>985.97</ele>
        <time>2014-10-25T15:12:25Z</time>
      </trkpt>
      <trkpt lat="44.94185" lon="5.39495">
        <ele>985.01</ele>
        <time>2014-10-25T15:12:26Z</time>
      </trkpt>
      <trkpt lat="44.9419" lon="5.39492">
        <ele>985.01</ele>
        <time>2014-10-25T15:12:27Z</time>
      </trkpt>
      <trkpt lat="44.94196" lon="5.39486">
        <ele>984.05</ele>
        <time>2014-10-25T15:12:29Z</time>
      </trkpt>
      <trkpt lat="44.94195" lon="5.39484">
        <ele>983.57</ele>
        <time>2014-10-25T15:12:30Z</time>
      </trkpt>
      <trkpt lat="44.94193" lon="5.39481">
        <ele>983.09</ele>
        <time>2014-10-25T15:12:31Z</time>
      </trkpt>
      <trkpt lat="44.94185" lon="5.39471">
        <ele>981.64</ele>
        <time>2014-10-25T15:12:34Z</time>
      </trkpt>
      <trkpt lat="44.94182" lon="5.39465">
        <ele>980.68</ele>
        <time>2014-10-25T15:12:42Z</time>
      </trkpt>
      <trkpt lat="44.94181" lon="5.39462">
        <ele>980.68</ele>
        <time>2014-10-25T15:13:00Z</time>
      </trkpt>
      <trkpt lat="44.94181" lon="5.39461">
        <ele>980.68</ele>
        <time>2014-10-25T15:13:03Z</time>
      </trkpt>
      <trkpt lat="44.94183" lon="5.39457">
        <ele>979.24</ele>
        <time>2014-10-25T15:13:05Z</time>
      </trkpt>
      <trkpt lat="44.94184" lon="5.39453">
        <ele>978.76</ele>
        <time>2014-10-25T15:13:06Z</time>
      </trkpt>
      <trkpt lat="44.94184" lon="5.39447">
        <ele>977.8</ele>
        <time>2014-10-25T15:13:07Z</time>
      </trkpt>
      <trkpt lat="44.94183" lon="5.39441">
        <ele>976.84</ele>
        <time>2014-10-25T15:13:08Z</time>
      </trkpt>
      <trkpt lat="44.94182" lon="5.39434">
        <ele>975.88</ele>
        <time>2014-10-25T15:13:09Z</time>
      </trkpt>
      <trkpt lat="44.9418" lon="5.39428">
        <ele>974.91</ele>
        <time>2014-10-25T15:13:10Z</time>
      </trkpt>
      <trkpt lat="44.94179" lon="5.39423">
        <ele>974.91</ele>
        <time>2014-10-25T15:13:11Z</time>
      </trkpt>
      <trkpt lat="44.94179" lon="5.39418">
        <ele>974.43</ele>
        <time>2014-10-25T15:13:12Z</time>
      </trkpt>
      <trkpt lat="44.94179" lon="5.39414">
        <ele>973.95</ele>
        <time>2014-10-25T15:13:13Z</time>
      </trkpt>
      <trkpt lat="44.94181" lon="5.39405">
        <ele>972.99</ele>
        <time>2014-10-25T15:13:15Z</time>
      </trkpt>
      <trkpt lat="44.94184" lon="5.39389">
        <ele>971.07</ele>
        <time>2014-10-25T15:13:19Z</time>
      </trkpt>
      <trkpt lat="44.94185" lon="5.39389">
        <ele>970.59</ele>
        <time>2014-10-25T15:13:20Z</time>
      </trkpt>
      <trkpt lat="44.94187" lon="5.39391">
        <ele>970.11</ele>
        <time>2014-10-25T15:13:21Z</time>
      </trkpt>
      <trkpt lat="44.94188" lon="5.39393">
        <ele>970.11</ele>
        <time>2014-10-25T15:13:22Z</time>
      </trkpt>
      <trkpt lat="44.9419" lon="5.39395">
        <ele>969.63</ele>
        <time>2014-10-25T15:13:23Z</time>
      </trkpt>
      <trkpt lat="44.94192" lon="5.39395">
        <ele>969.63</ele>
        <time>2014-10-25T15:13:24Z</time>
      </trkpt>
      <trkpt lat="44.94194" lon="5.39393">
        <ele>969.15</ele>
        <time>2014-10-25T15:13:25Z</time>
      </trkpt>
      <trkpt lat="44.94196" lon="5.39388">
        <ele>968.18</ele>
        <time>2014-10-25T15:13:26Z</time>
      </trkpt>
      <trkpt lat="44.94198" lon="5.39383">
        <ele>967.22</ele>
        <time>2014-10-25T15:13:27Z</time>
      </trkpt>
      <trkpt lat="44.94201" lon="5.39379">
        <ele>966.26</ele>
        <time>2014-10-25T15:13:28Z</time>
      </trkpt>
      <trkpt lat="44.94205" lon="5.39377">
        <ele>964.82</ele>
        <time>2014-10-25T15:13:29Z</time>
      </trkpt>
      <trkpt lat="44.9421" lon="5.39376">
        <ele>963.38</ele>
        <time>2014-10-25T15:13:30Z</time>
      </trkpt>
      <trkpt lat="44.94216" lon="5.39376">
        <ele>962.9</ele>
        <time>2014-10-25T15:13:31Z</time>
      </trkpt>
      <trkpt lat="44.94222" lon="5.39373">
        <ele>961.94</ele>
        <time>2014-10-25T15:13:32Z</time>
      </trkpt>
      <trkpt lat="44.94227" lon="5.39367">
        <ele>960.98</ele>
        <time>2014-10-25T15:13:33Z</time>
      </trkpt>
      <trkpt lat="44.94232" lon="5.3936">
        <ele>959.53</ele>
        <time>2014-10-25T15:13:34Z</time>
      </trkpt>
      <trkpt lat="44.94236" lon="5.39353">
        <ele>959.05</ele>
        <time>2014-10-25T15:13:35Z</time>
      </trkpt>
      <trkpt lat="44.94242" lon="5.39348">
        <ele>959.05</ele>
        <time>2014-10-25T15:13:36Z</time>
      </trkpt>
      <trkpt lat="44.94248" lon="5.39345">
        <ele>958.57</ele>
        <time>2014-10-25T15:13:37Z</time>
      </trkpt>
      <trkpt lat="44.94254" lon="5.39342">
        <ele>958.57</ele>
        <time>2014-10-25T15:13:38Z</time>
      </trkpt>
      <trkpt lat="44.94259" lon="5.39341">
        <ele>958.57</ele>
        <time>2014-10-25T15:13:39Z</time>
      </trkpt>
      <trkpt lat="44.94264" lon="5.39339">
        <ele>957.61</ele>
        <time>2014-10-25T15:13:40Z</time>
      </trkpt>
      <trkpt lat="44.94269" lon="5.39338">
        <ele>957.61</ele>
        <time>2014-10-25T15:13:41Z</time>
      </trkpt>
      <trkpt lat="44.94273" lon="5.39337">
        <ele>957.13</ele>
        <time>2014-10-25T15:13:42Z</time>
      </trkpt>
      <trkpt lat="44.943" lon="5.39327">
        <ele>956.17</ele>
        <time>2014-10-25T15:13:50Z</time>
      </trkpt>
      <trkpt lat="44.94304" lon="5.39327">
        <ele>956.17</ele>
        <time>2014-10-25T15:13:51Z</time>
      </trkpt>
      <trkpt lat="44.94307" lon="5.39328">
        <ele>955.21</ele>
        <time>2014-10-25T15:13:52Z</time>
      </trkpt>
      <trkpt lat="44.94309" lon="5.39329">
        <ele>955.21</ele>
        <time>2014-10-25T15:13:53Z</time>
      </trkpt>
      <trkpt lat="44.94311" lon="5.39329">
        <ele>954.25</ele>
        <time>2014-10-25T15:13:54Z</time>
      </trkpt>
      <trkpt lat="44.94314" lon="5.39328">
        <ele>954.25</ele>
        <time>2014-10-25T15:13:55Z</time>
      </trkpt>
      <trkpt lat="44.94316" lon="5.39327">
        <ele>953.77</ele>
        <time>2014-10-25T15:13:56Z</time>
      </trkpt>
      <trkpt lat="44.94344" lon="5.39313">
        <ele>951.84</ele>
        <time>2014-10-25T15:14:04Z</time>
      </trkpt>
      <trkpt lat="44.94357" lon="5.39309">
        <ele>950.88</ele>
        <time>2014-10-25T15:14:07Z</time>
      </trkpt>
      <trkpt lat="44.94362" lon="5.39309">
        <ele>950.4</ele>
        <time>2014-10-25T15:14:08Z</time>
      </trkpt>
      <trkpt lat="44.94367" lon="5.39309">
        <ele>949.92</ele>
        <time>2014-10-25T15:14:09Z</time>
      </trkpt>
      <trkpt lat="44.94376" lon="5.39307">
        <ele>949.44</ele>
        <time>2014-10-25T15:14:11Z</time>
      </trkpt>
      <trkpt lat="44.94381" lon="5.39308">
        <ele>949.44</ele>
        <time>2014-10-25T15:14:12Z</time>
      </trkpt>
      <trkpt lat="44.94386" lon="5.39309">
        <ele>948.48</ele>
        <time>2014-10-25T15:14:13Z</time>
      </trkpt>
      <trkpt lat="44.9439" lon="5.39309">
        <ele>948.48</ele>
        <time>2014-10-25T15:14:14Z</time>
      </trkpt>
      <trkpt lat="44.94395" lon="5.39311">
        <ele>948</ele>
        <time>2014-10-25T15:14:15Z</time>
      </trkpt>
      <trkpt lat="44.944" lon="5.39311">
        <ele>947.52</ele>
        <time>2014-10-25T15:14:16Z</time>
      </trkpt>
      <trkpt lat="44.94418" lon="5.39315">
        <ele>946.56</ele>
        <time>2014-10-25T15:14:19Z</time>
      </trkpt>
      <trkpt lat="44.94429" lon="5.39319">
        <ele>945.59</ele>
        <time>2014-10-25T15:14:21Z</time>
      </trkpt>
      <trkpt lat="44.94435" lon="5.39322">
        <ele>945.59</ele>
        <time>2014-10-25T15:14:22Z</time>
      </trkpt>
      <trkpt lat="44.9444" lon="5.39325">
        <ele>945.11</ele>
        <time>2014-10-25T15:14:23Z</time>
      </trkpt>
      <trkpt lat="44.94454" lon="5.39337">
        <ele>944.63</ele>
        <time>2014-10-25T15:14:26Z</time>
      </trkpt>
      <trkpt lat="44.94458" lon="5.39341">
        <ele>944.63</ele>
        <time>2014-10-25T15:14:27Z</time>
      </trkpt>
      <trkpt lat="44.94463" lon="5.39344">
        <ele>944.63</ele>
        <time>2014-10-25T15:14:28Z</time>
      </trkpt>
      <trkpt lat="44.94467" lon="5.39347">
        <ele>944.63</ele>
        <time>2014-10-25T15:14:29Z</time>
      </trkpt>
      <trkpt lat="44.94471" lon="5.39351">
        <ele>944.15</ele>
        <time>2014-10-25T15:14:30Z</time>
      </trkpt>
      <trkpt lat="44.94475" lon="5.39355">
        <ele>944.15</ele>
        <time>2014-10-25T15:14:31Z</time>
      </trkpt>
      <trkpt lat="44.94479" lon="5.39358">
        <ele>944.15</ele>
        <time>2014-10-25T15:14:32Z</time>
      </trkpt>
      <trkpt lat="44.94509" lon="5.39382">
        <ele>943.67</ele>
        <time>2014-10-25T15:14:40Z</time>
      </trkpt>
      <trkpt lat="44.94545" lon="5.39414">
        <ele>943.67</ele>
        <time>2014-10-25T15:14:51Z</time>
      </trkpt>
      <trkpt lat="44.94552" lon="5.3942">
        <ele>942.71</ele>
        <time>2014-10-25T15:14:53Z</time>
      </trkpt>
      <trkpt lat="44.94556" lon="5.39423">
        <ele>942.71</ele>
        <time>2014-10-25T15:14:54Z</time>
      </trkpt>
      <trkpt lat="44.9456" lon="5.39426">
        <ele>941.75</ele>
        <time>2014-10-25T15:14:55Z</time>
      </trkpt>
      <trkpt lat="44.94563" lon="5.39429">
        <ele>941.27</ele>
        <time>2014-10-25T15:14:56Z</time>
      </trkpt>
      <trkpt lat="44.94567" lon="5.39432">
        <ele>941.27</ele>
        <time>2014-10-25T15:14:57Z</time>
      </trkpt>
      <trkpt lat="44.94571" lon="5.39435">
        <ele>941.27</ele>
        <time>2014-10-25T15:14:58Z</time>
      </trkpt>
      <trkpt lat="44.94575" lon="5.39439">
        <ele>940.79</ele>
        <time>2014-10-25T15:14:59Z</time>
      </trkpt>
      <trkpt lat="44.94599" lon="5.39462">
        <ele>937.9</ele>
        <time>2014-10-25T15:15:06Z</time>
      </trkpt>
      <trkpt lat="44.94601" lon="5.39465">
        <ele>937.9</ele>
        <time>2014-10-25T15:15:14Z</time>
      </trkpt>
      <trkpt lat="44.94601" lon="5.3947">
        <ele>937.9</ele>
        <time>2014-10-25T15:15:29Z</time>
      </trkpt>
      <trkpt lat="44.94601" lon="5.3947">
        <ele>937.9</ele>
        <time>2014-10-25T15:15:53Z</time>
      </trkpt>
      <trkpt lat="44.94601" lon="5.39472">
        <ele>937.9</ele>
        <time>2014-10-25T15:16:19Z</time>
      </trkpt>
      <trkpt lat="44.94602" lon="5.39473">
        <ele>937.9</ele>
        <time>2014-10-25T15:16:48Z</time>
      </trkpt>
      <trkpt lat="44.94602" lon="5.39472">
        <ele>937.9</ele>
        <time>2014-10-25T15:17:13Z</time>
      </trkpt>
      <trkpt lat="44.94608" lon="5.39482">
        <ele>937.9</ele>
        <time>2014-10-25T15:17:32Z</time>
      </trkpt>
      <trkpt lat="44.94629" lon="5.39507">
        <ele>937.42</ele>
        <time>2014-10-25T15:17:43Z</time>
      </trkpt>
      <trkpt lat="44.94677" lon="5.39543">
        <ele>939.35</ele>
        <time>2014-10-25T15:17:59Z</time>
      </trkpt>
      <trkpt lat="44.94686" lon="5.39542">
        <ele>938.86</ele>
        <time>2014-10-25T15:18:07Z</time>
      </trkpt>
      <trkpt lat="44.94706" lon="5.39527">
        <ele>938.86</ele>
        <time>2014-10-25T15:18:19Z</time>
      </trkpt>
      <trkpt lat="44.94727" lon="5.39522">
        <ele>938.86</ele>
        <time>2014-10-25T15:18:32Z</time>
      </trkpt>
      <trkpt lat="44.94764" lon="5.39505">
        <ele>938.86</ele>
        <time>2014-10-25T15:18:44Z</time>
      </trkpt>
      <trkpt lat="44.94789" lon="5.39503">
        <ele>938.38</ele>
        <time>2014-10-25T15:18:50Z</time>
      </trkpt>
      <trkpt lat="44.94793" lon="5.39501">
        <ele>938.38</ele>
        <time>2014-10-25T15:18:51Z</time>
      </trkpt>
      <trkpt lat="44.94798" lon="5.39499">
        <ele>938.38</ele>
        <time>2014-10-25T15:18:52Z</time>
      </trkpt>
      <trkpt lat="44.94803" lon="5.39495">
        <ele>938.38</ele>
        <time>2014-10-25T15:18:53Z</time>
      </trkpt>
      <trkpt lat="44.94808" lon="5.39491">
        <ele>938.38</ele>
        <time>2014-10-25T15:18:54Z</time>
      </trkpt>
      <trkpt lat="44.94817" lon="5.39483">
        <ele>938.38</ele>
        <time>2014-10-25T15:18:56Z</time>
      </trkpt>
      <trkpt lat="44.94836" lon="5.3947">
        <ele>938.38</ele>
        <time>2014-10-25T15:19:01Z</time>
      </trkpt>
      <trkpt lat="44.9484" lon="5.39471">
        <ele>938.38</ele>
        <time>2014-10-25T15:19:02Z</time>
      </trkpt>
      <trkpt lat="44.94844" lon="5.39472">
        <ele>939.35</ele>
        <time>2014-10-25T15:19:03Z</time>
      </trkpt>
      <trkpt lat="44.94848" lon="5.39474">
        <ele>939.35</ele>
        <time>2014-10-25T15:19:04Z</time>
      </trkpt>
      <trkpt lat="44.94862" lon="5.39479">
        <ele>939.83</ele>
        <time>2014-10-25T15:19:13Z</time>
      </trkpt>
      <trkpt lat="44.94863" lon="5.3948">
        <ele>939.35</ele>
        <time>2014-10-25T15:19:14Z</time>
      </trkpt>
      <trkpt lat="44.94861" lon="5.39481">
        <ele>939.35</ele>
        <time>2014-10-25T15:19:16Z</time>
      </trkpt>
      <trkpt lat="44.94855" lon="5.39463">
        <ele>939.83</ele>
        <time>2014-10-25T15:19:27Z</time>
      </trkpt>
      <trkpt lat="44.94855" lon="5.39459">
        <ele>940.31</ele>
        <time>2014-10-25T15:19:28Z</time>
      </trkpt>
      <trkpt lat="44.94854" lon="5.39455">
        <ele>940.31</ele>
        <time>2014-10-25T15:19:29Z</time>
      </trkpt>
      <trkpt lat="44.94854" lon="5.39452">
        <ele>940.79</ele>
        <time>2014-10-25T15:19:30Z</time>
      </trkpt>
      <trkpt lat="44.94853" lon="5.39407">
        <ele>943.19</ele>
        <time>2014-10-25T15:19:42Z</time>
      </trkpt>
      <trkpt lat="44.94871" lon="5.3936">
        <ele>944.15</ele>
        <time>2014-10-25T15:19:58Z</time>
      </trkpt>
      <trkpt lat="44.94884" lon="5.39335">
        <ele>942.71</ele>
        <time>2014-10-25T15:20:05Z</time>
      </trkpt>
      <trkpt lat="44.94906" lon="5.39274">
        <ele>941.75</ele>
        <time>2014-10-25T15:20:18Z</time>
      </trkpt>
      <trkpt lat="44.94924" lon="5.39215">
        <ele>943.19</ele>
        <time>2014-10-25T15:20:31Z</time>
      </trkpt>
      <trkpt lat="44.94928" lon="5.3921">
        <ele>943.19</ele>
        <time>2014-10-25T15:20:33Z</time>
      </trkpt>
      <trkpt lat="44.94931" lon="5.39207">
        <ele>943.19</ele>
        <time>2014-10-25T15:20:34Z</time>
      </trkpt>
      <trkpt lat="44.94961" lon="5.39173">
        <ele>939.83</ele>
        <time>2014-10-25T15:20:42Z</time>
      </trkpt>
      <trkpt lat="44.94963" lon="5.39167">
        <ele>939.35</ele>
        <time>2014-10-25T15:20:43Z</time>
      </trkpt>
      <trkpt lat="44.94963" lon="5.39161">
        <ele>939.35</ele>
        <time>2014-10-25T15:20:44Z</time>
      </trkpt>
      <trkpt lat="44.94962" lon="5.39144">
        <ele>938.38</ele>
        <time>2014-10-25T15:20:47Z</time>
      </trkpt>
      <trkpt lat="44.94961" lon="5.39138">
        <ele>937.9</ele>
        <time>2014-10-25T15:20:48Z</time>
      </trkpt>
      <trkpt lat="44.94961" lon="5.39132">
        <ele>937.9</ele>
        <time>2014-10-25T15:20:49Z</time>
      </trkpt>
      <trkpt lat="44.94962" lon="5.39125">
        <ele>936.94</ele>
        <time>2014-10-25T15:20:50Z</time>
      </trkpt>
      <trkpt lat="44.94964" lon="5.39119">
        <ele>936.94</ele>
        <time>2014-10-25T15:20:51Z</time>
      </trkpt>
      <trkpt lat="44.94966" lon="5.39114">
        <ele>936.94</ele>
        <time>2014-10-25T15:20:52Z</time>
      </trkpt>
      <trkpt lat="44.9497" lon="5.39111">
        <ele>936.94</ele>
        <time>2014-10-25T15:20:53Z</time>
      </trkpt>
      <trkpt lat="44.94973" lon="5.39111">
        <ele>936.94</ele>
        <time>2014-10-25T15:20:54Z</time>
      </trkpt>
      <trkpt lat="44.94978" lon="5.39111">
        <ele>936.46</ele>
        <time>2014-10-25T15:20:55Z</time>
      </trkpt>
      <trkpt lat="44.94983" lon="5.39112">
        <ele>936.46</ele>
        <time>2014-10-25T15:20:56Z</time>
      </trkpt>
      <trkpt lat="44.94988" lon="5.39112">
        <ele>936.46</ele>
        <time>2014-10-25T15:20:57Z</time>
      </trkpt>
      <trkpt lat="44.94992" lon="5.39111">
        <ele>935.98</ele>
        <time>2014-10-25T15:20:58Z</time>
      </trkpt>
      <trkpt lat="44.94997" lon="5.39109">
        <ele>935.98</ele>
        <time>2014-10-25T15:20:59Z</time>
      </trkpt>
      <trkpt lat="44.95001" lon="5.39104">
        <ele>935.5</ele>
        <time>2014-10-25T15:21:00Z</time>
      </trkpt>
      <trkpt lat="44.95016" lon="5.39091">
        <ele>935.02</ele>
        <time>2014-10-25T15:21:03Z</time>
      </trkpt>
      <trkpt lat="44.95053" lon="5.39072">
        <ele>932.62</ele>
        <time>2014-10-25T15:21:12Z</time>
      </trkpt>
      <trkpt lat="44.95062" lon="5.39068">
        <ele>931.65</ele>
        <time>2014-10-25T15:21:16Z</time>
      </trkpt>
      <trkpt lat="44.95064" lon="5.39068">
        <ele>931.65</ele>
        <time>2014-10-25T15:21:17Z</time>
      </trkpt>
      <trkpt lat="44.95067" lon="5.3907">
        <ele>931.65</ele>
        <time>2014-10-25T15:21:18Z</time>
      </trkpt>
      <trkpt lat="44.95069" lon="5.39072">
        <ele>930.69</ele>
        <time>2014-10-25T15:21:19Z</time>
      </trkpt>
      <trkpt lat="44.95072" lon="5.39076">
        <ele>930.69</ele>
        <time>2014-10-25T15:21:20Z</time>
      </trkpt>
      <trkpt lat="44.95074" lon="5.3908">
        <ele>930.21</ele>
        <time>2014-10-25T15:21:21Z</time>
      </trkpt>
      <trkpt lat="44.95079" lon="5.39089">
        <ele>929.73</ele>
        <time>2014-10-25T15:21:23Z</time>
      </trkpt>
      <trkpt lat="44.95081" lon="5.39094">
        <ele>929.25</ele>
        <time>2014-10-25T15:21:24Z</time>
      </trkpt>
      <trkpt lat="44.95084" lon="5.39099">
        <ele>929.25</ele>
        <time>2014-10-25T15:21:25Z</time>
      </trkpt>
      <trkpt lat="44.95089" lon="5.39103">
        <ele>928.29</ele>
        <time>2014-10-25T15:21:26Z</time>
      </trkpt>
      <trkpt lat="44.95093" lon="5.39108">
        <ele>927.81</ele>
        <time>2014-10-25T15:21:27Z</time>
      </trkpt>
      <trkpt lat="44.95097" lon="5.39115">
        <ele>927.81</ele>
        <time>2014-10-25T15:21:28Z</time>
      </trkpt>
      <trkpt lat="44.951" lon="5.39122">
        <ele>926.85</ele>
        <time>2014-10-25T15:21:29Z</time>
      </trkpt>
      <trkpt lat="44.95103" lon="5.3913">
        <ele>925.89</ele>
        <time>2014-10-25T15:21:30Z</time>
      </trkpt>
      <trkpt lat="44.95106" lon="5.39138">
        <ele>924.93</ele>
        <time>2014-10-25T15:21:31Z</time>
      </trkpt>
      <trkpt lat="44.95109" lon="5.39146">
        <ele>924.93</ele>
        <time>2014-10-25T15:21:32Z</time>
      </trkpt>
      <trkpt lat="44.95114" lon="5.39167">
        <ele>924.45</ele>
        <time>2014-10-25T15:21:35Z</time>
      </trkpt>
      <trkpt lat="44.95119" lon="5.39216">
        <ele>924.45</ele>
        <time>2014-10-25T15:21:46Z</time>
      </trkpt>
      <trkpt lat="44.95119" lon="5.39257">
        <ele>924.93</ele>
        <time>2014-10-25T15:21:58Z</time>
      </trkpt>
      <trkpt lat="44.95119" lon="5.39263">
        <ele>924.93</ele>
        <time>2014-10-25T15:21:59Z</time>
      </trkpt>
      <trkpt lat="44.95116" lon="5.39308">
        <ele>923.48</ele>
        <time>2014-10-25T15:22:05Z</time>
      </trkpt>
      <trkpt lat="44.95114" lon="5.39313">
        <ele>924.93</ele>
        <time>2014-10-25T15:22:06Z</time>
      </trkpt>
      <trkpt lat="44.95113" lon="5.39319">
        <ele>924.93</ele>
        <time>2014-10-25T15:22:07Z</time>
      </trkpt>
      <trkpt lat="44.95111" lon="5.39325">
        <ele>924.93</ele>
        <time>2014-10-25T15:22:08Z</time>
      </trkpt>
      <trkpt lat="44.95109" lon="5.3933">
        <ele>924.93</ele>
        <time>2014-10-25T15:22:09Z</time>
      </trkpt>
      <trkpt lat="44.95108" lon="5.39335">
        <ele>924.45</ele>
        <time>2014-10-25T15:22:10Z</time>
      </trkpt>
      <trkpt lat="44.95087" lon="5.3938">
        <ele>924.93</ele>
        <time>2014-10-25T15:22:21Z</time>
      </trkpt>
      <trkpt lat="44.95086" lon="5.39385">
        <ele>924.93</ele>
        <time>2014-10-25T15:22:22Z</time>
      </trkpt>
      <trkpt lat="44.95079" lon="5.39428">
        <ele>924.93</ele>
        <time>2014-10-25T15:22:30Z</time>
      </trkpt>
      <trkpt lat="44.95065" lon="5.39469">
        <ele>921.08</ele>
        <time>2014-10-25T15:22:36Z</time>
      </trkpt>
      <trkpt lat="44.95056" lon="5.39493">
        <ele>920.12</ele>
        <time>2014-10-25T15:22:39Z</time>
      </trkpt>
      <trkpt lat="44.95053" lon="5.395">
        <ele>920.12</ele>
        <time>2014-10-25T15:22:40Z</time>
      </trkpt>
      <trkpt lat="44.9505" lon="5.39508">
        <ele>920.12</ele>
        <time>2014-10-25T15:22:41Z</time>
      </trkpt>
      <trkpt lat="44.95048" lon="5.39516">
        <ele>919.64</ele>
        <time>2014-10-25T15:22:42Z</time>
      </trkpt>
      <trkpt lat="44.95047" lon="5.39523">
        <ele>919.64</ele>
        <time>2014-10-25T15:22:43Z</time>
      </trkpt>
      <trkpt lat="44.95039" lon="5.39575">
        <ele>916.75</ele>
        <time>2014-10-25T15:22:50Z</time>
      </trkpt>
      <trkpt lat="44.95037" lon="5.39616">
        <ele>913.39</ele>
        <time>2014-10-25T15:22:56Z</time>
      </trkpt>
      <trkpt lat="44.95037" lon="5.39624">
        <ele>912.43</ele>
        <time>2014-10-25T15:22:57Z</time>
      </trkpt>
      <trkpt lat="44.95038" lon="5.39631">
        <ele>911.47</ele>
        <time>2014-10-25T15:22:58Z</time>
      </trkpt>
      <trkpt lat="44.9504" lon="5.39637">
        <ele>911.47</ele>
        <time>2014-10-25T15:22:59Z</time>
      </trkpt>
      <trkpt lat="44.95043" lon="5.39642">
        <ele>911.95</ele>
        <time>2014-10-25T15:23:00Z</time>
      </trkpt>
      <trkpt lat="44.95046" lon="5.39646">
        <ele>911.47</ele>
        <time>2014-10-25T15:23:01Z</time>
      </trkpt>
      <trkpt lat="44.95048" lon="5.39651">
        <ele>913.39</ele>
        <time>2014-10-25T15:23:02Z</time>
      </trkpt>
      <trkpt lat="44.95051" lon="5.39655">
        <ele>913.39</ele>
        <time>2014-10-25T15:23:03Z</time>
      </trkpt>
      <trkpt lat="44.95081" lon="5.39688">
        <ele>914.83</ele>
        <time>2014-10-25T15:23:14Z</time>
      </trkpt>
      <trkpt lat="44.95111" lon="5.39716">
        <ele>915.79</ele>
        <time>2014-10-25T15:23:29Z</time>
      </trkpt>
      <trkpt lat="44.95111" lon="5.39716">
        <ele>916.75</ele>
        <time>2014-10-25T15:23:47Z</time>
      </trkpt>
      <trkpt lat="44.9511" lon="5.39717">
        <ele>916.75</ele>
        <time>2014-10-25T15:23:55Z</time>
      </trkpt>
      <trkpt lat="44.9511" lon="5.3972">
        <ele>916.75</ele>
        <time>2014-10-25T15:23:56Z</time>
      </trkpt>
      <trkpt lat="44.95111" lon="5.39723">
        <ele>916.75</ele>
        <time>2014-10-25T15:23:57Z</time>
      </trkpt>
      <trkpt lat="44.95115" lon="5.39739">
        <ele>913.39</ele>
        <time>2014-10-25T15:24:00Z</time>
      </trkpt>
      <trkpt lat="44.95116" lon="5.39746">
        <ele>912.91</ele>
        <time>2014-10-25T15:24:01Z</time>
      </trkpt>
      <trkpt lat="44.95117" lon="5.39761">
        <ele>911.95</ele>
        <time>2014-10-25T15:24:03Z</time>
      </trkpt>
      <trkpt lat="44.95119" lon="5.39773">
        <ele>910.51</ele>
        <time>2014-10-25T15:24:05Z</time>
      </trkpt>
      <trkpt lat="44.9512" lon="5.39778">
        <ele>910.03</ele>
        <time>2014-10-25T15:24:06Z</time>
      </trkpt>
      <trkpt lat="44.95121" lon="5.39783">
        <ele>909.54</ele>
        <time>2014-10-25T15:24:07Z</time>
      </trkpt>
      <trkpt lat="44.95122" lon="5.39787">
        <ele>908.58</ele>
        <time>2014-10-25T15:24:08Z</time>
      </trkpt>
      <trkpt lat="44.95124" lon="5.39792">
        <ele>908.1</ele>
        <time>2014-10-25T15:24:09Z</time>
      </trkpt>
      <trkpt lat="44.95126" lon="5.39798">
        <ele>908.1</ele>
        <time>2014-10-25T15:24:10Z</time>
      </trkpt>
      <trkpt lat="44.95127" lon="5.39802">
        <ele>907.62</ele>
        <time>2014-10-25T15:24:11Z</time>
      </trkpt>
      <trkpt lat="44.95127" lon="5.39805">
        <ele>906.66</ele>
        <time>2014-10-25T15:24:12Z</time>
      </trkpt>
      <trkpt lat="44.95126" lon="5.39808">
        <ele>906.18</ele>
        <time>2014-10-25T15:24:13Z</time>
      </trkpt>
      <trkpt lat="44.95126" lon="5.39811">
        <ele>905.7</ele>
        <time>2014-10-25T15:24:14Z</time>
      </trkpt>
      <trkpt lat="44.95124" lon="5.39812">
        <ele>904.74</ele>
        <time>2014-10-25T15:24:15Z</time>
      </trkpt>
      <trkpt lat="44.95124" lon="5.39816">
        <ele>904.26</ele>
        <time>2014-10-25T15:24:18Z</time>
      </trkpt>
      <trkpt lat="44.95125" lon="5.39817">
        <ele>904.26</ele>
        <time>2014-10-25T15:24:19Z</time>
      </trkpt>
      <trkpt lat="44.95127" lon="5.39818">
        <ele>904.26</ele>
        <time>2014-10-25T15:24:20Z</time>
      </trkpt>
      <trkpt lat="44.95128" lon="5.3982">
        <ele>904.26</ele>
        <time>2014-10-25T15:24:21Z</time>
      </trkpt>
      <trkpt lat="44.95129" lon="5.39822">
        <ele>904.26</ele>
        <time>2014-10-25T15:24:22Z</time>
      </trkpt>
      <trkpt lat="44.9513" lon="5.39825">
        <ele>904.26</ele>
        <time>2014-10-25T15:24:23Z</time>
      </trkpt>
      <trkpt lat="44.95144" lon="5.39837">
        <ele>903.78</ele>
        <time>2014-10-25T15:24:28Z</time>
      </trkpt>
      <trkpt lat="44.95148" lon="5.39838">
        <ele>903.78</ele>
        <time>2014-10-25T15:24:29Z</time>
      </trkpt>
      <trkpt lat="44.95152" lon="5.39838">
        <ele>903.78</ele>
        <time>2014-10-25T15:24:30Z</time>
      </trkpt>
      <trkpt lat="44.95155" lon="5.39839">
        <ele>903.78</ele>
        <time>2014-10-25T15:24:31Z</time>
      </trkpt>
      <trkpt lat="44.95157" lon="5.3984">
        <ele>903.78</ele>
        <time>2014-10-25T15:24:32Z</time>
      </trkpt>
      <trkpt lat="44.95163" lon="5.39842">
        <ele>905.22</ele>
        <time>2014-10-25T15:24:34Z</time>
      </trkpt>
      <trkpt lat="44.95177" lon="5.39845">
        <ele>905.22</ele>
        <time>2014-10-25T15:24:38Z</time>
      </trkpt>
      <trkpt lat="44.95225" lon="5.39839">
        <ele>905.22</ele>
        <time>2014-10-25T15:24:50Z</time>
      </trkpt>
      <trkpt lat="44.95229" lon="5.39837">
        <ele>905.22</ele>
        <time>2014-10-25T15:24:51Z</time>
      </trkpt>
      <trkpt lat="44.95254" lon="5.39819">
        <ele>903.78</ele>
        <time>2014-10-25T15:25:00Z</time>
      </trkpt>
      <trkpt lat="44.95257" lon="5.39819">
        <ele>902.82</ele>
        <time>2014-10-25T15:25:02Z</time>
      </trkpt>
      <trkpt lat="44.95264" lon="5.3982">
        <ele>899.45</ele>
        <time>2014-10-25T15:25:06Z</time>
      </trkpt>
      <trkpt lat="44.95269" lon="5.39821">
        <ele>898.01</ele>
        <time>2014-10-25T15:25:08Z</time>
      </trkpt>
      <trkpt lat="44.95288" lon="5.39823">
        <ele>896.57</ele>
        <time>2014-10-25T15:25:12Z</time>
      </trkpt>
      <trkpt lat="44.95319" lon="5.39835">
        <ele>892.24</ele>
        <time>2014-10-25T15:25:21Z</time>
      </trkpt>
      <trkpt lat="44.95323" lon="5.39836">
        <ele>892.24</ele>
        <time>2014-10-25T15:25:22Z</time>
      </trkpt>
      <trkpt lat="44.95357" lon="5.39841">
        <ele>891.28</ele>
        <time>2014-10-25T15:25:31Z</time>
      </trkpt>
      <trkpt lat="44.95384" lon="5.39842">
        <ele>889.84</ele>
        <time>2014-10-25T15:25:38Z</time>
      </trkpt>
      <trkpt lat="44.95418" lon="5.39845">
        <ele>889.36</ele>
        <time>2014-10-25T15:25:49Z</time>
      </trkpt>
      <trkpt lat="44.95459" lon="5.39864">
        <ele>888.4</ele>
        <time>2014-10-25T15:25:59Z</time>
      </trkpt>
      <trkpt lat="44.95472" lon="5.39873">
        <ele>887.91</ele>
        <time>2014-10-25T15:26:02Z</time>
      </trkpt>
      <trkpt lat="44.95526" lon="5.39908">
        <ele>886.95</ele>
        <time>2014-10-25T15:26:15Z</time>
      </trkpt>
      <trkpt lat="44.95557" lon="5.39928">
        <ele>885.51</ele>
        <time>2014-10-25T15:26:23Z</time>
      </trkpt>
      <trkpt lat="44.95562" lon="5.3993">
        <ele>885.51</ele>
        <time>2014-10-25T15:26:24Z</time>
      </trkpt>
      <trkpt lat="44.95598" lon="5.39937">
        <ele>885.03</ele>
        <time>2014-10-25T15:26:34Z</time>
      </trkpt>
      <trkpt lat="44.956" lon="5.39939">
        <ele>885.03</ele>
        <time>2014-10-25T15:26:35Z</time>
      </trkpt>
      <trkpt lat="44.95603" lon="5.39942">
        <ele>885.03</ele>
        <time>2014-10-25T15:26:36Z</time>
      </trkpt>
      <trkpt lat="44.95612" lon="5.39947">
        <ele>884.07</ele>
        <time>2014-10-25T15:26:38Z</time>
      </trkpt>
      <trkpt lat="44.95617" lon="5.39948">
        <ele>883.59</ele>
        <time>2014-10-25T15:26:39Z</time>
      </trkpt>
      <trkpt lat="44.95622" lon="5.3995">
        <ele>883.59</ele>
        <time>2014-10-25T15:26:40Z</time>
      </trkpt>
      <trkpt lat="44.95637" lon="5.39954">
        <ele>882.63</ele>
        <time>2014-10-25T15:26:43Z</time>
      </trkpt>
      <trkpt lat="44.95652" lon="5.39955">
        <ele>881.67</ele>
        <time>2014-10-25T15:26:46Z</time>
      </trkpt>
      <trkpt lat="44.95657" lon="5.39954">
        <ele>881.67</ele>
        <time>2014-10-25T15:26:47Z</time>
      </trkpt>
      <trkpt lat="44.95661" lon="5.39953">
        <ele>881.19</ele>
        <time>2014-10-25T15:26:48Z</time>
      </trkpt>
      <trkpt lat="44.95664" lon="5.39953">
        <ele>880.71</ele>
        <time>2014-10-25T15:26:49Z</time>
      </trkpt>
      <trkpt lat="44.95667" lon="5.39954">
        <ele>880.22</ele>
        <time>2014-10-25T15:26:50Z</time>
      </trkpt>
      <trkpt lat="44.95669" lon="5.39955">
        <ele>880.22</ele>
        <time>2014-10-25T15:26:51Z</time>
      </trkpt>
      <trkpt lat="44.95672" lon="5.39957">
        <ele>879.26</ele>
        <time>2014-10-25T15:26:52Z</time>
      </trkpt>
      <trkpt lat="44.95677" lon="5.39958">
        <ele>879.26</ele>
        <time>2014-10-25T15:26:53Z</time>
      </trkpt>
      <trkpt lat="44.95681" lon="5.39958">
        <ele>879.26</ele>
        <time>2014-10-25T15:26:54Z</time>
      </trkpt>
      <trkpt lat="44.95684" lon="5.39959">
        <ele>879.26</ele>
        <time>2014-10-25T15:26:55Z</time>
      </trkpt>
      <trkpt lat="44.95687" lon="5.39959">
        <ele>879.26</ele>
        <time>2014-10-25T15:26:56Z</time>
      </trkpt>
      <trkpt lat="44.9569" lon="5.3996">
        <ele>879.26</ele>
        <time>2014-10-25T15:26:57Z</time>
      </trkpt>
      <trkpt lat="44.95711" lon="5.39964">
        <ele>879.26</ele>
        <time>2014-10-25T15:27:03Z</time>
      </trkpt>
      <trkpt lat="44.9572" lon="5.39964">
        <ele>878.78</ele>
        <time>2014-10-25T15:27:05Z</time>
      </trkpt>
      <trkpt lat="44.95724" lon="5.39962">
        <ele>878.78</ele>
        <time>2014-10-25T15:27:06Z</time>
      </trkpt>
      <trkpt lat="44.95726" lon="5.39962">
        <ele>878.78</ele>
        <time>2014-10-25T15:27:07Z</time>
      </trkpt>
      <trkpt lat="44.95727" lon="5.39963">
        <ele>878.78</ele>
        <time>2014-10-25T15:27:08Z</time>
      </trkpt>
      <trkpt lat="44.95726" lon="5.39966">
        <ele>878.3</ele>
        <time>2014-10-25T15:27:10Z</time>
      </trkpt>
      <trkpt lat="44.95723" lon="5.39969">
        <ele>876.86</ele>
        <time>2014-10-25T15:27:13Z</time>
      </trkpt>
      <trkpt lat="44.95716" lon="5.39976">
        <ele>873.5</ele>
        <time>2014-10-25T15:27:19Z</time>
      </trkpt>
      <trkpt lat="44.95705" lon="5.39983">
        <ele>870.13</ele>
        <time>2014-10-25T15:27:23Z</time>
      </trkpt>
      <trkpt lat="44.95702" lon="5.39986">
        <ele>869.17</ele>
        <time>2014-10-25T15:27:24Z</time>
      </trkpt>
      <trkpt lat="44.95699" lon="5.3999">
        <ele>868.69</ele>
        <time>2014-10-25T15:27:25Z</time>
      </trkpt>
      <trkpt lat="44.95695" lon="5.39995">
        <ele>867.73</ele>
        <time>2014-10-25T15:27:26Z</time>
      </trkpt>
      <trkpt lat="44.95693" lon="5.39999">
        <ele>866.77</ele>
        <time>2014-10-25T15:27:27Z</time>
      </trkpt>
      <trkpt lat="44.95692" lon="5.40004">
        <ele>866.77</ele>
        <time>2014-10-25T15:27:28Z</time>
      </trkpt>
      <trkpt lat="44.95691" lon="5.4001">
        <ele>865.32</ele>
        <time>2014-10-25T15:27:29Z</time>
      </trkpt>
      <trkpt lat="44.95688" lon="5.40051">
        <ele>862.44</ele>
        <time>2014-10-25T15:27:34Z</time>
      </trkpt>
      <trkpt lat="44.95686" lon="5.4006">
        <ele>862.44</ele>
        <time>2014-10-25T15:27:35Z</time>
      </trkpt>
      <trkpt lat="44.95684" lon="5.40068">
        <ele>862.44</ele>
        <time>2014-10-25T15:27:36Z</time>
      </trkpt>
      <trkpt lat="44.95681" lon="5.40097">
        <ele>862.44</ele>
        <time>2014-10-25T15:27:40Z</time>
      </trkpt>
      <trkpt lat="44.95681" lon="5.40103">
        <ele>862.44</ele>
        <time>2014-10-25T15:27:41Z</time>
      </trkpt>
      <trkpt lat="44.9568" lon="5.40109">
        <ele>862.44</ele>
        <time>2014-10-25T15:27:42Z</time>
      </trkpt>
      <trkpt lat="44.9568" lon="5.40115">
        <ele>862.44</ele>
        <time>2014-10-25T15:27:43Z</time>
      </trkpt>
      <trkpt lat="44.9568" lon="5.4012">
        <ele>862.44</ele>
        <time>2014-10-25T15:27:44Z</time>
      </trkpt>
      <trkpt lat="44.9568" lon="5.40132">
        <ele>862.44</ele>
        <time>2014-10-25T15:27:47Z</time>
      </trkpt>
      <trkpt lat="44.95681" lon="5.40134">
        <ele>862.44</ele>
        <time>2014-10-25T15:27:48Z</time>
      </trkpt>
      <trkpt lat="44.95683" lon="5.40136">
        <ele>862.44</ele>
        <time>2014-10-25T15:27:49Z</time>
      </trkpt>
      <trkpt lat="44.95685" lon="5.40139">
        <ele>862.44</ele>
        <time>2014-10-25T15:28:01Z</time>
      </trkpt>
      <trkpt lat="44.95685" lon="5.40139">
        <ele>861.96</ele>
        <time>2014-10-25T15:28:37Z</time>
      </trkpt>
      <trkpt lat="44.95684" lon="5.40137">
        <ele>861.96</ele>
        <time>2014-10-25T15:29:12Z</time>
      </trkpt>
      <trkpt lat="44.95685" lon="5.40137">
        <ele>861.96</ele>
        <time>2014-10-25T15:29:44Z</time>
      </trkpt>
      <trkpt lat="44.95707" lon="5.4014">
        <ele>861</ele>
        <time>2014-10-25T15:29:55Z</time>
      </trkpt>
      <trkpt lat="44.9578" lon="5.40146">
        <ele>859.56</ele>
        <time>2014-10-25T15:30:10Z</time>
      </trkpt>
      <trkpt lat="44.95861" lon="5.40144">
        <ele>857.63</ele>
        <time>2014-10-25T15:30:26Z</time>
      </trkpt>
      <trkpt lat="44.95929" lon="5.40141">
        <ele>854.75</ele>
        <time>2014-10-25T15:30:38Z</time>
      </trkpt>
      <trkpt lat="44.95954" lon="5.40141">
        <ele>854.27</ele>
        <time>2014-10-25T15:30:42Z</time>
      </trkpt>
      <trkpt lat="44.96037" lon="5.40146">
        <ele>851.38</ele>
        <time>2014-10-25T15:30:56Z</time>
      </trkpt>
      <trkpt lat="44.96127" lon="5.40134">
        <ele>850.42</ele>
        <time>2014-10-25T15:31:11Z</time>
      </trkpt>
      <trkpt lat="44.96216" lon="5.40138">
        <ele>848.98</ele>
        <time>2014-10-25T15:31:28Z</time>
      </trkpt>
      <trkpt lat="44.96221" lon="5.4014">
        <ele>848.5</ele>
        <time>2014-10-25T15:31:29Z</time>
      </trkpt>
      <trkpt lat="44.96298" lon="5.40173">
        <ele>846.58</ele>
        <time>2014-10-25T15:31:44Z</time>
      </trkpt>
      <trkpt lat="44.96354" lon="5.40188">
        <ele>844.66</ele>
        <time>2014-10-25T15:31:54Z</time>
      </trkpt>
      <trkpt lat="44.96425" lon="5.40177">
        <ele>845.62</ele>
        <time>2014-10-25T15:32:08Z</time>
      </trkpt>
      <trkpt lat="44.96465" lon="5.40137">
        <ele>844.66</ele>
        <time>2014-10-25T15:32:20Z</time>
      </trkpt>
      <trkpt lat="44.96491" lon="5.40114">
        <ele>842.73</ele>
        <time>2014-10-25T15:32:26Z</time>
      </trkpt>
      <trkpt lat="44.96554" lon="5.40102">
        <ele>841.29</ele>
        <time>2014-10-25T15:32:39Z</time>
      </trkpt>
      <trkpt lat="44.96559" lon="5.40104">
        <ele>841.29</ele>
        <time>2014-10-25T15:32:40Z</time>
      </trkpt>
      <trkpt lat="44.96563" lon="5.40107">
        <ele>841.29</ele>
        <time>2014-10-25T15:32:41Z</time>
      </trkpt>
      <trkpt lat="44.96568" lon="5.4011">
        <ele>841.29</ele>
        <time>2014-10-25T15:32:42Z</time>
      </trkpt>
      <trkpt lat="44.96572" lon="5.40113">
        <ele>841.29</ele>
        <time>2014-10-25T15:32:43Z</time>
      </trkpt>
      <trkpt lat="44.96577" lon="5.40115">
        <ele>841.29</ele>
        <time>2014-10-25T15:32:44Z</time>
      </trkpt>
      <trkpt lat="44.96596" lon="5.40125">
        <ele>841.29</ele>
        <time>2014-10-25T15:32:48Z</time>
      </trkpt>
      <trkpt lat="44.96601" lon="5.40126">
        <ele>841.29</ele>
        <time>2014-10-25T15:32:49Z</time>
      </trkpt>
      <trkpt lat="44.96677" lon="5.40128">
        <ele>839.85</ele>
        <time>2014-10-25T15:33:05Z</time>
      </trkpt>
      <trkpt lat="44.9676" lon="5.40116">
        <ele>838.41</ele>
        <time>2014-10-25T15:33:21Z</time>
      </trkpt>
      <trkpt lat="44.96828" lon="5.40108">
        <ele>837.93</ele>
        <time>2014-10-25T15:33:36Z</time>
      </trkpt>
      <trkpt lat="44.96832" lon="5.40107">
        <ele>837.93</ele>
        <time>2014-10-25T15:33:37Z</time>
      </trkpt>
      <trkpt lat="44.96855" lon="5.401">
        <ele>837.45</ele>
        <time>2014-10-25T15:33:42Z</time>
      </trkpt>
      <trkpt lat="44.96934" lon="5.40101">
        <ele>835.52</ele>
        <time>2014-10-25T15:33:57Z</time>
      </trkpt>
      <trkpt lat="44.97029" lon="5.40118">
        <ele>834.08</ele>
        <time>2014-10-25T15:34:15Z</time>
      </trkpt>
      <trkpt lat="44.97057" lon="5.40121">
        <ele>833.6</ele>
        <time>2014-10-25T15:34:21Z</time>
      </trkpt>
      <trkpt lat="44.9708" lon="5.40132">
        <ele>833.6</ele>
        <time>2014-10-25T15:34:29Z</time>
      </trkpt>
      <trkpt lat="44.97082" lon="5.40134">
        <ele>833.6</ele>
        <time>2014-10-25T15:34:43Z</time>
      </trkpt>
      <trkpt lat="44.97091" lon="5.40134">
        <ele>833.6</ele>
        <time>2014-10-25T15:35:01Z</time>
      </trkpt>
      <trkpt lat="44.97094" lon="5.40135">
        <ele>833.6</ele>
        <time>2014-10-25T15:35:04Z</time>
      </trkpt>
      <trkpt lat="44.97119" lon="5.40151">
        <ele>833.12</ele>
        <time>2014-10-25T15:35:20Z</time>
      </trkpt>
      <trkpt lat="44.97155" lon="5.40174">
        <ele>830.72</ele>
        <time>2014-10-25T15:35:31Z</time>
      </trkpt>
      <trkpt lat="44.97225" lon="5.40215">
        <ele>828.31</ele>
        <time>2014-10-25T15:35:44Z</time>
      </trkpt>
      <trkpt lat="44.9723" lon="5.40218">
        <ele>828.31</ele>
        <time>2014-10-25T15:35:45Z</time>
      </trkpt>
      <trkpt lat="44.97235" lon="5.4022">
        <ele>828.31</ele>
        <time>2014-10-25T15:35:46Z</time>
      </trkpt>
      <trkpt lat="44.97262" lon="5.40238">
        <ele>828.31</ele>
        <time>2014-10-25T15:35:52Z</time>
      </trkpt>
      <trkpt lat="44.97267" lon="5.4024">
        <ele>828.31</ele>
        <time>2014-10-25T15:35:53Z</time>
      </trkpt>
      <trkpt lat="44.97302" lon="5.40252">
        <ele>828.31</ele>
        <time>2014-10-25T15:36:01Z</time>
      </trkpt>
      <trkpt lat="44.97306" lon="5.40254">
        <ele>828.31</ele>
        <time>2014-10-25T15:36:02Z</time>
      </trkpt>
      <trkpt lat="44.9731" lon="5.40257">
        <ele>828.31</ele>
        <time>2014-10-25T15:36:03Z</time>
      </trkpt>
      <trkpt lat="44.97324" lon="5.40266">
        <ele>830.24</ele>
        <time>2014-10-25T15:36:07Z</time>
      </trkpt>
      <trkpt lat="44.97358" lon="5.40289">
        <ele>831.68</ele>
        <time>2014-10-25T15:36:20Z</time>
      </trkpt>
      <trkpt lat="44.97368" lon="5.40294">
        <ele>831.68</ele>
        <time>2014-10-25T15:36:33Z</time>
      </trkpt>
      <trkpt lat="44.97369" lon="5.40295">
        <ele>832.16</ele>
        <time>2014-10-25T15:36:56Z</time>
      </trkpt>
      <trkpt lat="44.97368" lon="5.40292">
        <ele>832.16</ele>
        <time>2014-10-25T15:37:27Z</time>
      </trkpt>
      <trkpt lat="44.97368" lon="5.40292">
        <ele>828.31</ele>
        <time>2014-10-25T15:37:29Z</time>
      </trkpt>
      <trkpt lat="44.97368" lon="5.40292">
        <ele>828.31</ele>
        <time>2014-10-25T15:37:30Z</time>
      </trkpt>
      <trkpt lat="44.97368" lon="5.40292">
        <ele>831.68</ele>
        <time>2014-10-25T15:37:31Z</time>
      </trkpt>
      <trkpt lat="44.97368" lon="5.40292">
        <ele>831.68</ele>
        <time>2014-10-25T15:37:32Z</time>
      </trkpt>
      <trkpt lat="44.97368" lon="5.40295">
        <ele>831.68</ele>
        <time>2014-10-25T15:37:43Z</time>
      </trkpt>
      <trkpt lat="44.97369" lon="5.40296">
        <ele>831.68</ele>
        <time>2014-10-25T15:37:44Z</time>
      </trkpt>
      <trkpt lat="44.9737" lon="5.40298">
        <ele>831.68</ele>
        <time>2014-10-25T15:37:45Z</time>
      </trkpt>
      <trkpt lat="44.97371" lon="5.403">
        <ele>831.68</ele>
        <time>2014-10-25T15:37:46Z</time>
      </trkpt>
      <trkpt lat="44.97372" lon="5.40302">
        <ele>831.68</ele>
        <time>2014-10-25T15:37:47Z</time>
      </trkpt>
      <trkpt lat="44.97374" lon="5.40304">
        <ele>831.68</ele>
        <time>2014-10-25T15:37:48Z</time>
      </trkpt>
      <trkpt lat="44.97378" lon="5.40311">
        <ele>833.12</ele>
        <time>2014-10-25T15:37:57Z</time>
      </trkpt>
      <trkpt lat="44.9738" lon="5.40311">
        <ele>833.12</ele>
        <time>2014-10-25T15:38:21Z</time>
      </trkpt>
      <trkpt lat="44.9738" lon="5.40311">
        <ele>832.64</ele>
        <time>2014-10-25T15:38:52Z</time>
      </trkpt>
      <trkpt lat="44.9738" lon="5.40311">
        <ele>832.64</ele>
        <time>2014-10-25T15:39:23Z</time>
      </trkpt>
      <trkpt lat="44.97382" lon="5.40317">
        <ele>832.64</ele>
        <time>2014-10-25T15:39:31Z</time>
      </trkpt>
      <trkpt lat="44.97383" lon="5.40319">
        <ele>832.64</ele>
        <time>2014-10-25T15:39:32Z</time>
      </trkpt>
      <trkpt lat="44.97384" lon="5.4032">
        <ele>832.64</ele>
        <time>2014-10-25T15:39:33Z</time>
      </trkpt>
      <trkpt lat="44.97385" lon="5.40321">
        <ele>832.64</ele>
        <time>2014-10-25T15:39:34Z</time>
      </trkpt>
      <trkpt lat="44.97386" lon="5.40322">
        <ele>832.64</ele>
        <time>2014-10-25T15:39:35Z</time>
      </trkpt>
      <trkpt lat="44.97387" lon="5.40324">
        <ele>832.64</ele>
        <time>2014-10-25T15:39:36Z</time>
      </trkpt>
      <trkpt lat="44.97388" lon="5.40325">
        <ele>833.12</ele>
        <time>2014-10-25T15:39:37Z</time>
      </trkpt>
      <trkpt lat="44.97389" lon="5.40327">
        <ele>833.12</ele>
        <time>2014-10-25T15:39:38Z</time>
      </trkpt>
      <trkpt lat="44.9739" lon="5.40329">
        <ele>833.12</ele>
        <time>2014-10-25T15:39:39Z</time>
      </trkpt>
      <trkpt lat="44.97391" lon="5.40331">
        <ele>833.12</ele>
        <time>2014-10-25T15:39:40Z</time>
      </trkpt>
      <trkpt lat="44.97409" lon="5.40358">
        <ele>835.04</ele>
        <time>2014-10-25T15:39:55Z</time>
      </trkpt>
      <trkpt lat="44.97425" lon="5.4039">
        <ele>838.41</ele>
        <time>2014-10-25T15:40:12Z</time>
      </trkpt>
      <trkpt lat="44.97448" lon="5.40416">
        <ele>841.29</ele>
        <time>2014-10-25T15:40:28Z</time>
      </trkpt>
      <trkpt lat="44.97472" lon="5.40436">
        <ele>843.21</ele>
        <time>2014-10-25T15:40:44Z</time>
      </trkpt>
      <trkpt lat="44.97495" lon="5.4045">
        <ele>844.66</ele>
        <time>2014-10-25T15:40:58Z</time>
      </trkpt>
      <trkpt lat="44.97521" lon="5.4046">
        <ele>846.58</ele>
        <time>2014-10-25T15:41:13Z</time>
      </trkpt>
      <trkpt lat="44.97531" lon="5.40463">
        <ele>848.02</ele>
        <time>2014-10-25T15:41:20Z</time>
      </trkpt>
      <trkpt lat="44.97532" lon="5.40464">
        <ele>848.5</ele>
        <time>2014-10-25T15:41:21Z</time>
      </trkpt>
      <trkpt lat="44.97536" lon="5.40469">
        <ele>849.46</ele>
        <time>2014-10-25T15:41:25Z</time>
      </trkpt>
      <trkpt lat="44.97552" lon="5.40488">
        <ele>850.9</ele>
        <time>2014-10-25T15:41:39Z</time>
      </trkpt>
      <trkpt lat="44.97568" lon="5.40498">
        <ele>854.27</ele>
        <time>2014-10-25T15:41:54Z</time>
      </trkpt>
      <trkpt lat="44.97585" lon="5.40505">
        <ele>857.63</ele>
        <time>2014-10-25T15:42:07Z</time>
      </trkpt>
      <trkpt lat="44.97603" lon="5.40509">
        <ele>860.52</ele>
        <time>2014-10-25T15:42:17Z</time>
      </trkpt>
      <trkpt lat="44.97625" lon="5.40517">
        <ele>863.88</ele>
        <time>2014-10-25T15:42:30Z</time>
      </trkpt>
      <trkpt lat="44.97646" lon="5.40526">
        <ele>866.29</ele>
        <time>2014-10-25T15:42:43Z</time>
      </trkpt>
      <trkpt lat="44.97672" lon="5.40529">
        <ele>869.65</ele>
        <time>2014-10-25T15:42:57Z</time>
      </trkpt>
      <trkpt lat="44.97697" lon="5.40529">
        <ele>872.53</ele>
        <time>2014-10-25T15:43:11Z</time>
      </trkpt>
      <trkpt lat="44.97727" lon="5.40529">
        <ele>875.42</ele>
        <time>2014-10-25T15:43:25Z</time>
      </trkpt>
      <trkpt lat="44.97755" lon="5.40535">
        <ele>877.82</ele>
        <time>2014-10-25T15:43:39Z</time>
      </trkpt>
      <trkpt lat="44.97789" lon="5.40539">
        <ele>880.22</ele>
        <time>2014-10-25T15:43:56Z</time>
      </trkpt>
      <trkpt lat="44.9783" lon="5.40548">
        <ele>881.19</ele>
        <time>2014-10-25T15:44:13Z</time>
      </trkpt>
      <trkpt lat="44.97837" lon="5.40557">
        <ele>882.63</ele>
        <time>2014-10-25T15:44:18Z</time>
      </trkpt>
      <trkpt lat="44.97838" lon="5.40558">
        <ele>882.63</ele>
        <time>2014-10-25T15:44:19Z</time>
      </trkpt>
      <trkpt lat="44.97844" lon="5.40558">
        <ele>882.63</ele>
        <time>2014-10-25T15:44:33Z</time>
      </trkpt>
      <trkpt lat="44.97845" lon="5.40557">
        <ele>883.11</ele>
        <time>2014-10-25T15:45:11Z</time>
      </trkpt>
      <trkpt lat="44.97847" lon="5.40558">
        <ele>883.11</ele>
        <time>2014-10-25T15:45:40Z</time>
      </trkpt>
      <trkpt lat="44.97843" lon="5.40555">
        <ele>883.11</ele>
        <time>2014-10-25T15:46:07Z</time>
      </trkpt>
      <trkpt lat="44.97846" lon="5.40555">
        <ele>883.11</ele>
        <time>2014-10-25T15:46:16Z</time>
      </trkpt>
      <trkpt lat="44.97847" lon="5.40554">
        <ele>883.11</ele>
        <time>2014-10-25T15:46:17Z</time>
      </trkpt>
      <trkpt lat="44.97849" lon="5.40553">
        <ele>883.11</ele>
        <time>2014-10-25T15:46:18Z</time>
      </trkpt>
      <trkpt lat="44.97885" lon="5.4055">
        <ele>883.11</ele>
        <time>2014-10-25T15:46:31Z</time>
      </trkpt>
      <trkpt lat="44.97922" lon="5.40556">
        <ele>881.67</ele>
        <time>2014-10-25T15:46:43Z</time>
      </trkpt>
      <trkpt lat="44.97925" lon="5.40557">
        <ele>881.67</ele>
        <time>2014-10-25T15:46:44Z</time>
      </trkpt>
      <trkpt lat="44.97928" lon="5.40559">
        <ele>881.67</ele>
        <time>2014-10-25T15:46:45Z</time>
      </trkpt>
      <trkpt lat="44.97956" lon="5.40567">
        <ele>881.67</ele>
        <time>2014-10-25T15:46:57Z</time>
      </trkpt>
      <trkpt lat="44.97961" lon="5.40569">
        <ele>881.67</ele>
        <time>2014-10-25T15:47:02Z</time>
      </trkpt>
      <trkpt lat="44.97963" lon="5.40571">
        <ele>881.67</ele>
        <time>2014-10-25T15:47:03Z</time>
      </trkpt>
      <trkpt lat="44.97971" lon="5.40579">
        <ele>881.67</ele>
        <time>2014-10-25T15:47:07Z</time>
      </trkpt>
      <trkpt lat="44.97973" lon="5.40579">
        <ele>881.67</ele>
        <time>2014-10-25T15:47:08Z</time>
      </trkpt>
      <trkpt lat="44.97976" lon="5.4058">
        <ele>881.67</ele>
        <time>2014-10-25T15:47:09Z</time>
      </trkpt>
      <trkpt lat="44.97978" lon="5.40582">
        <ele>882.15</ele>
        <time>2014-10-25T15:47:10Z</time>
      </trkpt>
      <trkpt lat="44.9798" lon="5.40584">
        <ele>882.15</ele>
        <time>2014-10-25T15:47:11Z</time>
      </trkpt>
      <trkpt lat="44.97982" lon="5.40586">
        <ele>882.15</ele>
        <time>2014-10-25T15:47:12Z</time>
      </trkpt>
      <trkpt lat="44.97985" lon="5.40587">
        <ele>882.15</ele>
        <time>2014-10-25T15:47:13Z</time>
      </trkpt>
      <trkpt lat="44.97987" lon="5.40589">
        <ele>882.15</ele>
        <time>2014-10-25T15:47:14Z</time>
      </trkpt>
      <trkpt lat="44.97989" lon="5.40591">
        <ele>882.15</ele>
        <time>2014-10-25T15:47:15Z</time>
      </trkpt>
      <trkpt lat="44.97993" lon="5.40594">
        <ele>882.15</ele>
        <time>2014-10-25T15:47:16Z</time>
      </trkpt>
      <trkpt lat="44.97997" lon="5.40596">
        <ele>882.15</ele>
        <time>2014-10-25T15:47:17Z</time>
      </trkpt>
      <trkpt lat="44.9803" lon="5.40614">
        <ele>882.15</ele>
        <time>2014-10-25T15:47:28Z</time>
      </trkpt>
      <trkpt lat="44.98057" lon="5.40631">
        <ele>883.59</ele>
        <time>2014-10-25T15:47:39Z</time>
      </trkpt>
      <trkpt lat="44.98082" lon="5.40654">
        <ele>883.59</ele>
        <time>2014-10-25T15:47:49Z</time>
      </trkpt>
      <trkpt lat="44.98086" lon="5.40658">
        <ele>883.59</ele>
        <time>2014-10-25T15:47:51Z</time>
      </trkpt>
      <trkpt lat="44.98093" lon="5.40664">
        <ele>881.67</ele>
        <time>2014-10-25T15:47:53Z</time>
      </trkpt>
      <trkpt lat="44.98106" lon="5.40679">
        <ele>880.71</ele>
        <time>2014-10-25T15:47:56Z</time>
      </trkpt>
      <trkpt lat="44.9811" lon="5.40686">
        <ele>880.71</ele>
        <time>2014-10-25T15:47:57Z</time>
      </trkpt>
      <trkpt lat="44.98113" lon="5.40693">
        <ele>879.74</ele>
        <time>2014-10-25T15:47:58Z</time>
      </trkpt>
      <trkpt lat="44.98116" lon="5.407">
        <ele>879.26</ele>
        <time>2014-10-25T15:47:59Z</time>
      </trkpt>
      <trkpt lat="44.9812" lon="5.40708">
        <ele>879.26</ele>
        <time>2014-10-25T15:48:00Z</time>
      </trkpt>
      <trkpt lat="44.98125" lon="5.40714">
        <ele>879.26</ele>
        <time>2014-10-25T15:48:01Z</time>
      </trkpt>
      <trkpt lat="44.9813" lon="5.4072">
        <ele>878.78</ele>
        <time>2014-10-25T15:48:02Z</time>
      </trkpt>
      <trkpt lat="44.98135" lon="5.40724">
        <ele>878.3</ele>
        <time>2014-10-25T15:48:03Z</time>
      </trkpt>
      <trkpt lat="44.98147" lon="5.4073">
        <ele>877.82</ele>
        <time>2014-10-25T15:48:05Z</time>
      </trkpt>
      <trkpt lat="44.98153" lon="5.40733">
        <ele>877.82</ele>
        <time>2014-10-25T15:48:06Z</time>
      </trkpt>
      <trkpt lat="44.98159" lon="5.40736">
        <ele>877.34</ele>
        <time>2014-10-25T15:48:07Z</time>
      </trkpt>
      <trkpt lat="44.98164" lon="5.4074">
        <ele>876.86</ele>
        <time>2014-10-25T15:48:08Z</time>
      </trkpt>
      <trkpt lat="44.98169" lon="5.40745">
        <ele>875.9</ele>
        <time>2014-10-25T15:48:09Z</time>
      </trkpt>
      <trkpt lat="44.98175" lon="5.40753">
        <ele>874.94</ele>
        <time>2014-10-25T15:48:10Z</time>
      </trkpt>
      <trkpt lat="44.98179" lon="5.40762">
        <ele>874.46</ele>
        <time>2014-10-25T15:48:11Z</time>
      </trkpt>
      <trkpt lat="44.98183" lon="5.40772">
        <ele>873.01</ele>
        <time>2014-10-25T15:48:12Z</time>
      </trkpt>
      <trkpt lat="44.98198" lon="5.40815">
        <ele>869.17</ele>
        <time>2014-10-25T15:48:16Z</time>
      </trkpt>
      <trkpt lat="44.98207" lon="5.40836">
        <ele>868.21</ele>
        <time>2014-10-25T15:48:18Z</time>
      </trkpt>
      <trkpt lat="44.98212" lon="5.40845">
        <ele>867.73</ele>
        <time>2014-10-25T15:48:19Z</time>
      </trkpt>
      <trkpt lat="44.98218" lon="5.40852">
        <ele>867.73</ele>
        <time>2014-10-25T15:48:20Z</time>
      </trkpt>
      <trkpt lat="44.98224" lon="5.40856">
        <ele>867.73</ele>
        <time>2014-10-25T15:48:21Z</time>
      </trkpt>
      <trkpt lat="44.9823" lon="5.40857">
        <ele>867.73</ele>
        <time>2014-10-25T15:48:22Z</time>
      </trkpt>
      <trkpt lat="44.98241" lon="5.4086">
        <ele>867.73</ele>
        <time>2014-10-25T15:48:24Z</time>
      </trkpt>
      <trkpt lat="44.98293" lon="5.40881">
        <ele>867.73</ele>
        <time>2014-10-25T15:48:34Z</time>
      </trkpt>
      <trkpt lat="44.98312" lon="5.40889">
        <ele>867.73</ele>
        <time>2014-10-25T15:48:41Z</time>
      </trkpt>
      <trkpt lat="44.98339" lon="5.40891">
        <ele>868.21</ele>
        <time>2014-10-25T15:48:48Z</time>
      </trkpt>
      <trkpt lat="44.98344" lon="5.40892">
        <ele>869.65</ele>
        <time>2014-10-25T15:48:49Z</time>
      </trkpt>
      <trkpt lat="44.98349" lon="5.40894">
        <ele>869.65</ele>
        <time>2014-10-25T15:48:50Z</time>
      </trkpt>
      <trkpt lat="44.98354" lon="5.40896">
        <ele>869.65</ele>
        <time>2014-10-25T15:48:51Z</time>
      </trkpt>
      <trkpt lat="44.98359" lon="5.40899">
        <ele>869.65</ele>
        <time>2014-10-25T15:48:52Z</time>
      </trkpt>
      <trkpt lat="44.98375" lon="5.40909">
        <ele>869.65</ele>
        <time>2014-10-25T15:48:56Z</time>
      </trkpt>
      <trkpt lat="44.98392" lon="5.40921">
        <ele>869.65</ele>
        <time>2014-10-25T15:49:00Z</time>
      </trkpt>
      <trkpt lat="44.98396" lon="5.40924">
        <ele>869.65</ele>
        <time>2014-10-25T15:49:01Z</time>
      </trkpt>
      <trkpt lat="44.98415" lon="5.40935">
        <ele>869.65</ele>
        <time>2014-10-25T15:49:05Z</time>
      </trkpt>
      <trkpt lat="44.9842" lon="5.40937">
        <ele>869.65</ele>
        <time>2014-10-25T15:49:06Z</time>
      </trkpt>
      <trkpt lat="44.98448" lon="5.40957">
        <ele>870.13</ele>
        <time>2014-10-25T15:49:14Z</time>
      </trkpt>
      <trkpt lat="44.98456" lon="5.40962">
        <ele>868.21</ele>
        <time>2014-10-25T15:49:16Z</time>
      </trkpt>
      <trkpt lat="44.98478" lon="5.40977">
        <ele>867.73</ele>
        <time>2014-10-25T15:49:21Z</time>
      </trkpt>
      <trkpt lat="44.98482" lon="5.4098">
        <ele>867.73</ele>
        <time>2014-10-25T15:49:22Z</time>
      </trkpt>
      <trkpt lat="44.98507" lon="5.40999">
        <ele>869.17</ele>
        <time>2014-10-25T15:49:28Z</time>
      </trkpt>
      <trkpt lat="44.9853" lon="5.41032">
        <ele>870.13</ele>
        <time>2014-10-25T15:49:36Z</time>
      </trkpt>
      <trkpt lat="44.98537" lon="5.4104">
        <ele>868.69</ele>
        <time>2014-10-25T15:49:38Z</time>
      </trkpt>
      <trkpt lat="44.98569" lon="5.41083">
        <ele>865.32</ele>
        <time>2014-10-25T15:49:45Z</time>
      </trkpt>
      <trkpt lat="44.98579" lon="5.41096">
        <ele>864.36</ele>
        <time>2014-10-25T15:49:47Z</time>
      </trkpt>
      <trkpt lat="44.98584" lon="5.41102">
        <ele>863.88</ele>
        <time>2014-10-25T15:49:48Z</time>
      </trkpt>
      <trkpt lat="44.9859" lon="5.41108">
        <ele>863.88</ele>
        <time>2014-10-25T15:49:49Z</time>
      </trkpt>
      <trkpt lat="44.98617" lon="5.41135">
        <ele>861.48</ele>
        <time>2014-10-25T15:49:54Z</time>
      </trkpt>
      <trkpt lat="44.98623" lon="5.4114">
        <ele>861</ele>
        <time>2014-10-25T15:49:55Z</time>
      </trkpt>
      <trkpt lat="44.98629" lon="5.41144">
        <ele>861</ele>
        <time>2014-10-25T15:49:56Z</time>
      </trkpt>
      <trkpt lat="44.98636" lon="5.41147">
        <ele>860.04</ele>
        <time>2014-10-25T15:49:57Z</time>
      </trkpt>
      <trkpt lat="44.98643" lon="5.4115">
        <ele>860.04</ele>
        <time>2014-10-25T15:49:58Z</time>
      </trkpt>
      <trkpt lat="44.9865" lon="5.41156">
        <ele>859.08</ele>
        <time>2014-10-25T15:49:59Z</time>
      </trkpt>
      <trkpt lat="44.98656" lon="5.41162">
        <ele>858.11</ele>
        <time>2014-10-25T15:50:00Z</time>
      </trkpt>
      <trkpt lat="44.98662" lon="5.4117">
        <ele>857.63</ele>
        <time>2014-10-25T15:50:01Z</time>
      </trkpt>
      <trkpt lat="44.98666" lon="5.41179">
        <ele>857.15</ele>
        <time>2014-10-25T15:50:02Z</time>
      </trkpt>
      <trkpt lat="44.9867" lon="5.4119">
        <ele>856.67</ele>
        <time>2014-10-25T15:50:03Z</time>
      </trkpt>
      <trkpt lat="44.98677" lon="5.41208">
        <ele>854.75</ele>
        <time>2014-10-25T15:50:05Z</time>
      </trkpt>
      <trkpt lat="44.98682" lon="5.41216">
        <ele>854.75</ele>
        <time>2014-10-25T15:50:06Z</time>
      </trkpt>
      <trkpt lat="44.98692" lon="5.4123">
        <ele>853.31</ele>
        <time>2014-10-25T15:50:08Z</time>
      </trkpt>
      <trkpt lat="44.98699" lon="5.41235">
        <ele>852.83</ele>
        <time>2014-10-25T15:50:09Z</time>
      </trkpt>
      <trkpt lat="44.9872" lon="5.4125">
        <ele>850.42</ele>
        <time>2014-10-25T15:50:12Z</time>
      </trkpt>
      <trkpt lat="44.9874" lon="5.41265">
        <ele>848.98</ele>
        <time>2014-10-25T15:50:15Z</time>
      </trkpt>
      <trkpt lat="44.98746" lon="5.41267">
        <ele>848.02</ele>
        <time>2014-10-25T15:50:16Z</time>
      </trkpt>
      <trkpt lat="44.98752" lon="5.41269">
        <ele>847.54</ele>
        <time>2014-10-25T15:50:17Z</time>
      </trkpt>
      <trkpt lat="44.98758" lon="5.41271">
        <ele>847.54</ele>
        <time>2014-10-25T15:50:18Z</time>
      </trkpt>
      <trkpt lat="44.98763" lon="5.41272">
        <ele>846.58</ele>
        <time>2014-10-25T15:50:19Z</time>
      </trkpt>
      <trkpt lat="44.98771" lon="5.41274">
        <ele>846.1</ele>
        <time>2014-10-25T15:50:20Z</time>
      </trkpt>
      <trkpt lat="44.98784" lon="5.41273">
        <ele>844.66</ele>
        <time>2014-10-25T15:50:22Z</time>
      </trkpt>
      <trkpt lat="44.9879" lon="5.41271">
        <ele>843.21</ele>
        <time>2014-10-25T15:50:23Z</time>
      </trkpt>
      <trkpt lat="44.98797" lon="5.4127">
        <ele>841.77</ele>
        <time>2014-10-25T15:50:24Z</time>
      </trkpt>
      <trkpt lat="44.98803" lon="5.41272">
        <ele>841.29</ele>
        <time>2014-10-25T15:50:25Z</time>
      </trkpt>
      <trkpt lat="44.98809" lon="5.41276">
        <ele>840.33</ele>
        <time>2014-10-25T15:50:26Z</time>
      </trkpt>
      <trkpt lat="44.98817" lon="5.41281">
        <ele>838.89</ele>
        <time>2014-10-25T15:50:27Z</time>
      </trkpt>
      <trkpt lat="44.98831" lon="5.41293">
        <ele>836.96</ele>
        <time>2014-10-25T15:50:29Z</time>
      </trkpt>
      <trkpt lat="44.98838" lon="5.41302">
        <ele>836.48</ele>
        <time>2014-10-25T15:50:30Z</time>
      </trkpt>
      <trkpt lat="44.98844" lon="5.41311">
        <ele>836.48</ele>
        <time>2014-10-25T15:50:31Z</time>
      </trkpt>
      <trkpt lat="44.98858" lon="5.41338">
        <ele>833.6</ele>
        <time>2014-10-25T15:50:34Z</time>
      </trkpt>
      <trkpt lat="44.98865" lon="5.41347">
        <ele>831.68</ele>
        <time>2014-10-25T15:50:35Z</time>
      </trkpt>
      <trkpt lat="44.9887" lon="5.41353">
        <ele>830.72</ele>
        <time>2014-10-25T15:50:36Z</time>
      </trkpt>
      <trkpt lat="44.98877" lon="5.41359">
        <ele>829.27</ele>
        <time>2014-10-25T15:50:37Z</time>
      </trkpt>
      <trkpt lat="44.98883" lon="5.41363">
        <ele>827.83</ele>
        <time>2014-10-25T15:50:38Z</time>
      </trkpt>
      <trkpt lat="44.98889" lon="5.41366">
        <ele>826.87</ele>
        <time>2014-10-25T15:50:39Z</time>
      </trkpt>
      <trkpt lat="44.98893" lon="5.41372">
        <ele>825.43</ele>
        <time>2014-10-25T15:50:40Z</time>
      </trkpt>
      <trkpt lat="44.98897" lon="5.41379">
        <ele>824.95</ele>
        <time>2014-10-25T15:50:41Z</time>
      </trkpt>
      <trkpt lat="44.98901" lon="5.41388">
        <ele>823.99</ele>
        <time>2014-10-25T15:50:42Z</time>
      </trkpt>
      <trkpt lat="44.98913" lon="5.41415">
        <ele>820.62</ele>
        <time>2014-10-25T15:50:45Z</time>
      </trkpt>
      <trkpt lat="44.98916" lon="5.41424">
        <ele>819.66</ele>
        <time>2014-10-25T15:50:46Z</time>
      </trkpt>
      <trkpt lat="44.98917" lon="5.41433">
        <ele>819.66</ele>
        <time>2014-10-25T15:50:47Z</time>
      </trkpt>
      <trkpt lat="44.98917" lon="5.41442">
        <ele>818.22</ele>
        <time>2014-10-25T15:50:48Z</time>
      </trkpt>
      <trkpt lat="44.98915" lon="5.4145">
        <ele>817.26</ele>
        <time>2014-10-25T15:50:49Z</time>
      </trkpt>
      <trkpt lat="44.98911" lon="5.41456">
        <ele>816.78</ele>
        <time>2014-10-25T15:50:50Z</time>
      </trkpt>
      <trkpt lat="44.98907" lon="5.41462">
        <ele>816.3</ele>
        <time>2014-10-25T15:50:51Z</time>
      </trkpt>
      <trkpt lat="44.98902" lon="5.41468">
        <ele>815.82</ele>
        <time>2014-10-25T15:50:52Z</time>
      </trkpt>
      <trkpt lat="44.98898" lon="5.41475">
        <ele>815.82</ele>
        <time>2014-10-25T15:50:53Z</time>
      </trkpt>
      <trkpt lat="44.98895" lon="5.41482">
        <ele>815.82</ele>
        <time>2014-10-25T15:50:54Z</time>
      </trkpt>
      <trkpt lat="44.98889" lon="5.41517">
        <ele>812.93</ele>
        <time>2014-10-25T15:50:58Z</time>
      </trkpt>
      <trkpt lat="44.98888" lon="5.41527">
        <ele>811.97</ele>
        <time>2014-10-25T15:50:59Z</time>
      </trkpt>
      <trkpt lat="44.98886" lon="5.41537">
        <ele>811.49</ele>
        <time>2014-10-25T15:51:00Z</time>
      </trkpt>
      <trkpt lat="44.98883" lon="5.41546">
        <ele>810.53</ele>
        <time>2014-10-25T15:51:01Z</time>
      </trkpt>
      <trkpt lat="44.98881" lon="5.41554">
        <ele>810.53</ele>
        <time>2014-10-25T15:51:02Z</time>
      </trkpt>
      <trkpt lat="44.9888" lon="5.41563">
        <ele>809.57</ele>
        <time>2014-10-25T15:51:03Z</time>
      </trkpt>
      <trkpt lat="44.98879" lon="5.41571">
        <ele>808.61</ele>
        <time>2014-10-25T15:51:04Z</time>
      </trkpt>
      <trkpt lat="44.98881" lon="5.41578">
        <ele>808.13</ele>
        <time>2014-10-25T15:51:05Z</time>
      </trkpt>
      <trkpt lat="44.98885" lon="5.41586">
        <ele>807.16</ele>
        <time>2014-10-25T15:51:06Z</time>
      </trkpt>
      <trkpt lat="44.98888" lon="5.41594">
        <ele>806.2</ele>
        <time>2014-10-25T15:51:07Z</time>
      </trkpt>
      <trkpt lat="44.98891" lon="5.41603">
        <ele>805.24</ele>
        <time>2014-10-25T15:51:08Z</time>
      </trkpt>
      <trkpt lat="44.98893" lon="5.41612">
        <ele>803.8</ele>
        <time>2014-10-25T15:51:09Z</time>
      </trkpt>
      <trkpt lat="44.98893" lon="5.41621">
        <ele>802.84</ele>
        <time>2014-10-25T15:51:10Z</time>
      </trkpt>
      <trkpt lat="44.98892" lon="5.41631">
        <ele>802.36</ele>
        <time>2014-10-25T15:51:11Z</time>
      </trkpt>
      <trkpt lat="44.98889" lon="5.4164">
        <ele>801.88</ele>
        <time>2014-10-25T15:51:12Z</time>
      </trkpt>
      <trkpt lat="44.98885" lon="5.41661">
        <ele>799.95</ele>
        <time>2014-10-25T15:51:14Z</time>
      </trkpt>
      <trkpt lat="44.98885" lon="5.41671">
        <ele>799.47</ele>
        <time>2014-10-25T15:51:15Z</time>
      </trkpt>
      <trkpt lat="44.98886" lon="5.41679">
        <ele>799.47</ele>
        <time>2014-10-25T15:51:16Z</time>
      </trkpt>
      <trkpt lat="44.98887" lon="5.41685">
        <ele>798.51</ele>
        <time>2014-10-25T15:51:17Z</time>
      </trkpt>
      <trkpt lat="44.98889" lon="5.41691">
        <ele>798.03</ele>
        <time>2014-10-25T15:51:18Z</time>
      </trkpt>
      <trkpt lat="44.98891" lon="5.41696">
        <ele>798.03</ele>
        <time>2014-10-25T15:51:19Z</time>
      </trkpt>
      <trkpt lat="44.98894" lon="5.417">
        <ele>797.55</ele>
        <time>2014-10-25T15:51:20Z</time>
      </trkpt>
      <trkpt lat="44.98896" lon="5.41703">
        <ele>797.55</ele>
        <time>2014-10-25T15:51:21Z</time>
      </trkpt>
      <trkpt lat="44.98898" lon="5.41706">
        <ele>797.55</ele>
        <time>2014-10-25T15:51:22Z</time>
      </trkpt>
      <trkpt lat="44.98899" lon="5.41708">
        <ele>797.55</ele>
        <time>2014-10-25T15:51:23Z</time>
      </trkpt>
      <trkpt lat="44.989" lon="5.4171">
        <ele>797.07</ele>
        <time>2014-10-25T15:51:24Z</time>
      </trkpt>
      <trkpt lat="44.98902" lon="5.41718">
        <ele>797.07</ele>
        <time>2014-10-25T15:51:37Z</time>
      </trkpt>
      <trkpt lat="44.98901" lon="5.41719">
        <ele>797.07</ele>
        <time>2014-10-25T15:51:52Z</time>
      </trkpt>
      <trkpt lat="44.98901" lon="5.41718">
        <ele>797.07</ele>
        <time>2014-10-25T15:51:53Z</time>
      </trkpt>
      <trkpt lat="44.989" lon="5.41717">
        <ele>797.07</ele>
        <time>2014-10-25T15:51:54Z</time>
      </trkpt>
      <trkpt lat="44.989" lon="5.41715">
        <ele>797.07</ele>
        <time>2014-10-25T15:51:55Z</time>
      </trkpt>
      <trkpt lat="44.98903" lon="5.41713">
        <ele>797.07</ele>
        <time>2014-10-25T15:51:59Z</time>
      </trkpt>
      <trkpt lat="44.989" lon="5.41715">
        <ele>797.07</ele>
        <time>2014-10-25T15:52:09Z</time>
      </trkpt>
      <trkpt lat="44.98902" lon="5.41714">
        <ele>797.07</ele>
        <time>2014-10-25T15:52:12Z</time>
      </trkpt>
      <trkpt lat="44.98902" lon="5.41713">
        <ele>797.07</ele>
        <time>2014-10-25T15:52:13Z</time>
      </trkpt>
      <trkpt lat="44.98901" lon="5.41716">
        <ele>796.59</ele>
        <time>2014-10-25T15:52:22Z</time>
      </trkpt>
      <trkpt lat="44.98902" lon="5.41718">
        <ele>796.59</ele>
        <time>2014-10-25T15:52:23Z</time>
      </trkpt>
      <trkpt lat="44.98903" lon="5.4172">
        <ele>796.59</ele>
        <time>2014-10-25T15:52:24Z</time>
      </trkpt>
      <trkpt lat="44.98905" lon="5.41721">
        <ele>796.59</ele>
        <time>2014-10-25T15:52:25Z</time>
      </trkpt>
      <trkpt lat="44.98907" lon="5.41723">
        <ele>796.59</ele>
        <time>2014-10-25T15:52:26Z</time>
      </trkpt>
      <trkpt lat="44.98911" lon="5.41723">
        <ele>796.59</ele>
        <time>2014-10-25T15:52:27Z</time>
      </trkpt>
      <trkpt lat="44.98933" lon="5.41724">
        <ele>793.22</ele>
        <time>2014-10-25T15:52:31Z</time>
      </trkpt>
      <trkpt lat="44.98956" lon="5.41725">
        <ele>789.38</ele>
        <time>2014-10-25T15:52:34Z</time>
      </trkpt>
      <trkpt lat="44.98975" lon="5.41727">
        <ele>786.02</ele>
        <time>2014-10-25T15:52:36Z</time>
      </trkpt>
      <trkpt lat="44.98986" lon="5.41729">
        <ele>784.57</ele>
        <time>2014-10-25T15:52:37Z</time>
      </trkpt>
      <trkpt lat="44.98997" lon="5.41731">
        <ele>782.65</ele>
        <time>2014-10-25T15:52:38Z</time>
      </trkpt>
      <trkpt lat="44.9902" lon="5.41739">
        <ele>779.77</ele>
        <time>2014-10-25T15:52:40Z</time>
      </trkpt>
      <trkpt lat="44.99052" lon="5.41753">
        <ele>776.4</ele>
        <time>2014-10-25T15:52:43Z</time>
      </trkpt>
      <trkpt lat="44.99082" lon="5.41759">
        <ele>773.04</ele>
        <time>2014-10-25T15:52:47Z</time>
      </trkpt>
      <trkpt lat="44.99087" lon="5.41758">
        <ele>772.56</ele>
        <time>2014-10-25T15:52:48Z</time>
      </trkpt>
      <trkpt lat="44.99092" lon="5.41756">
        <ele>772.56</ele>
        <time>2014-10-25T15:52:49Z</time>
      </trkpt>
      <trkpt lat="44.99096" lon="5.41751">
        <ele>771.6</ele>
        <time>2014-10-25T15:52:50Z</time>
      </trkpt>
      <trkpt lat="44.991" lon="5.41744">
        <ele>770.63</ele>
        <time>2014-10-25T15:52:51Z</time>
      </trkpt>
      <trkpt lat="44.99104" lon="5.41735">
        <ele>770.15</ele>
        <time>2014-10-25T15:52:52Z</time>
      </trkpt>
      <trkpt lat="44.99121" lon="5.41701">
        <ele>768.23</ele>
        <time>2014-10-25T15:52:56Z</time>
      </trkpt>
      <trkpt lat="44.99126" lon="5.41694">
        <ele>768.23</ele>
        <time>2014-10-25T15:52:57Z</time>
      </trkpt>
      <trkpt lat="44.99147" lon="5.41675">
        <ele>767.27</ele>
        <time>2014-10-25T15:53:04Z</time>
      </trkpt>
      <trkpt lat="44.99148" lon="5.41674">
        <ele>767.75</ele>
        <time>2014-10-25T15:53:29Z</time>
      </trkpt>
    </trkseg>
  </trk>
</gpx>